<?xml version='1.0' encoding='UTF-8'?><gpx version="1.1" creator="JPX - https://github.com/jenetics/jpx" xmlns="http://www.topografix.com/GPX/1/1"><trk><trkseg><trkpt lat="43.7617714" lon="11.2414026"><ele>57.0</ele><time>2026-03-29T08:29:50.887Z</time></trkpt><trkpt lat="43.7617028" lon="11.2414345"><ele>57.0</ele><time>2026-03-29T08:29:54.86Z</time></trkpt><trkpt lat="43.7616278" lon="11.2414556"><ele>57.0</ele><time>2026-03-29T08:29:58.865Z</time></trkpt><trkpt lat="43.7615577" lon="11.2414733"><ele>57.0</ele><time>2026-03-29T08:30:05.85Z</time></trkpt><trkpt lat="43.761458" lon="11.2415345"><ele>57.0</ele><time>2026-03-29T08:30:10.854Z</time></trkpt><trkpt lat="43.7613857" lon="11.2415784"><ele>57.0</ele><time>2026-03-29T08:30:11.858Z</time></trkpt><trkpt lat="43.7613222" lon="11.2416155"><ele>57.0</ele><time>2026-03-29T08:30:12.859Z</time></trkpt><trkpt lat="43.7612544" lon="11.2416505"><ele>57.0</ele><time>2026-03-29T08:30:13.852Z</time></trkpt><trkpt lat="43.7611359" lon="11.2417258"><ele>57.0</ele><time>2026-03-29T08:30:15.856Z</time></trkpt><trkpt lat="43.7610213" lon="11.2417745"><ele>57.0</ele><time>2026-03-29T08:30:17.855Z</time></trkpt><trkpt lat="43.7609437" lon="11.2417833"><ele>57.0</ele><time>2026-03-29T08:30:18.882Z</time></trkpt><trkpt lat="43.7608554" lon="11.2417798"><ele>57.0</ele><time>2026-03-29T08:30:19.854Z</time></trkpt><trkpt lat="43.760758" lon="11.2417618"><ele>57.0</ele><time>2026-03-29T08:30:20.855Z</time></trkpt><trkpt lat="43.7606576" lon="11.2417287"><ele>57.0</ele><time>2026-03-29T08:30:21.858Z</time></trkpt><trkpt lat="43.7605643" lon="11.241703"><ele>57.0</ele><time>2026-03-29T08:30:22.86Z</time></trkpt><trkpt lat="43.7604829" lon="11.2416806"><ele>57.0</ele><time>2026-03-29T08:30:23.854Z</time></trkpt><trkpt lat="43.7604066" lon="11.2416599"><ele>57.0</ele><time>2026-03-29T08:30:24.88Z</time></trkpt><trkpt lat="43.7603341" lon="11.2416381"><ele>57.0</ele><time>2026-03-29T08:30:25.857Z</time></trkpt><trkpt lat="43.7602623" lon="11.2416138"><ele>57.0</ele><time>2026-03-29T08:30:26.883Z</time></trkpt><trkpt lat="43.7601795" lon="11.2415758"><ele>57.0</ele><time>2026-03-29T08:30:27.855Z</time></trkpt><trkpt lat="43.7600801" lon="11.2415412"><ele>57.0</ele><time>2026-03-29T08:30:28.86Z</time></trkpt><trkpt lat="43.7599769" lon="11.2415093"><ele>57.0</ele><time>2026-03-29T08:30:29.887Z</time></trkpt><trkpt lat="43.7598475" lon="11.2414437"><ele>58.25</ele><time>2026-03-29T08:30:30.854Z</time></trkpt><trkpt lat="43.7597148" lon="11.241392"><ele>59.5</ele><time>2026-03-29T08:30:31.855Z</time></trkpt><trkpt lat="43.7595793" lon="11.2413497"><ele>60.75</ele><time>2026-03-29T08:30:32.887Z</time></trkpt><trkpt lat="43.7594442" lon="11.2413044"><ele>62.0</ele><time>2026-03-29T08:30:33.858Z</time></trkpt><trkpt lat="43.7593153" lon="11.2412606"><ele>62.25</ele><time>2026-03-29T08:30:34.854Z</time></trkpt><trkpt lat="43.7591919" lon="11.2412099"><ele>62.5</ele><time>2026-03-29T08:30:35.883Z</time></trkpt><trkpt lat="43.7590667" lon="11.2411613"><ele>62.75</ele><time>2026-03-29T08:30:36.889Z</time></trkpt><trkpt lat="43.7589357" lon="11.2411047"><ele>63.0</ele><time>2026-03-29T08:30:37.858Z</time></trkpt><trkpt lat="43.7588038" lon="11.2410418"><ele>63.0</ele><time>2026-03-29T08:30:38.852Z</time></trkpt><trkpt lat="43.7586749" lon="11.240994"><ele>63.0</ele><time>2026-03-29T08:30:39.884Z</time></trkpt><trkpt lat="43.758547" lon="11.2409594"><ele>63.0</ele><time>2026-03-29T08:30:40.858Z</time></trkpt><trkpt lat="43.758437" lon="11.2409096"><ele>63.0</ele><time>2026-03-29T08:30:41.852Z</time></trkpt><trkpt lat="43.7583265" lon="11.2408538"><ele>63.75</ele><time>2026-03-29T08:30:42.851Z</time></trkpt><trkpt lat="43.7582119" lon="11.2408132"><ele>64.5</ele><time>2026-03-29T08:30:43.853Z</time></trkpt><trkpt lat="43.7580952" lon="11.2407762"><ele>65.25</ele><time>2026-03-29T08:30:44.86Z</time></trkpt><trkpt lat="43.7579754" lon="11.2407385"><ele>66.0</ele><time>2026-03-29T08:30:45.857Z</time></trkpt><trkpt lat="43.7578552" lon="11.2406913"><ele>66.0</ele><time>2026-03-29T08:30:46.857Z</time></trkpt><trkpt lat="43.757737" lon="11.2406393"><ele>66.0</ele><time>2026-03-29T08:30:47.884Z</time></trkpt><trkpt lat="43.7576152" lon="11.240587"><ele>66.0</ele><time>2026-03-29T08:30:48.853Z</time></trkpt><trkpt lat="43.7574673" lon="11.2405664"><ele>66.0</ele><time>2026-03-29T08:30:49.858Z</time></trkpt><trkpt lat="43.7573234" lon="11.240535"><ele>67.33333333333333</ele><time>2026-03-29T08:30:50.855Z</time></trkpt><trkpt lat="43.7571755" lon="11.2404826"><ele>68.66666666666666</ele><time>2026-03-29T08:30:51.883Z</time></trkpt><trkpt lat="43.7570294" lon="11.2404346"><ele>70.0</ele><time>2026-03-29T08:30:52.887Z</time></trkpt><trkpt lat="43.7568821" lon="11.2403894"><ele>70.0</ele><time>2026-03-29T08:30:53.853Z</time></trkpt><trkpt lat="43.756741" lon="11.2403404"><ele>70.0</ele><time>2026-03-29T08:30:54.882Z</time></trkpt><trkpt lat="43.7566098" lon="11.2402891"><ele>70.0</ele><time>2026-03-29T08:30:55.886Z</time></trkpt><trkpt lat="43.7564819" lon="11.2402453"><ele>70.0</ele><time>2026-03-29T08:30:56.854Z</time></trkpt><trkpt lat="43.7563579" lon="11.2402047"><ele>70.0</ele><time>2026-03-29T08:30:57.855Z</time></trkpt><trkpt lat="43.7562243" lon="11.2401703"><ele>70.0</ele><time>2026-03-29T08:30:58.865Z</time></trkpt><trkpt lat="43.7560936" lon="11.2401397"><ele>70.0</ele><time>2026-03-29T08:30:59.854Z</time></trkpt><trkpt lat="43.7559631" lon="11.2401013"><ele>70.0</ele><time>2026-03-29T08:31:00.854Z</time></trkpt><trkpt lat="43.7558353" lon="11.2400574"><ele>71.25</ele><time>2026-03-29T08:31:01.859Z</time></trkpt><trkpt lat="43.7557116" lon="11.2400115"><ele>72.5</ele><time>2026-03-29T08:31:02.862Z</time></trkpt><trkpt lat="43.7555877" lon="11.2399571"><ele>73.75</ele><time>2026-03-29T08:31:03.862Z</time></trkpt><trkpt lat="43.7554635" lon="11.2399016"><ele>75.0</ele><time>2026-03-29T08:31:04.856Z</time></trkpt><trkpt lat="43.7553314" lon="11.2398481"><ele>76.0</ele><time>2026-03-29T08:31:05.865Z</time></trkpt><trkpt lat="43.7551898" lon="11.2398003"><ele>77.0</ele><time>2026-03-29T08:31:06.852Z</time></trkpt><trkpt lat="43.7550352" lon="11.2397516"><ele>78.0</ele><time>2026-03-29T08:31:07.887Z</time></trkpt><trkpt lat="43.7548826" lon="11.2396988"><ele>80.0</ele><time>2026-03-29T08:31:08.859Z</time></trkpt><trkpt lat="43.7547239" lon="11.2396376"><ele>82.0</ele><time>2026-03-29T08:31:09.854Z</time></trkpt><trkpt lat="43.7545579" lon="11.2395713"><ele>84.0</ele><time>2026-03-29T08:31:10.859Z</time></trkpt><trkpt lat="43.7543937" lon="11.2395089"><ele>85.75</ele><time>2026-03-29T08:31:11.89Z</time></trkpt><trkpt lat="43.7542406" lon="11.239454"><ele>87.5</ele><time>2026-03-29T08:31:12.888Z</time></trkpt><trkpt lat="43.7540949" lon="11.2394033"><ele>89.25</ele><time>2026-03-29T08:31:13.887Z</time></trkpt><trkpt lat="43.7539584" lon="11.239359"><ele>91.0</ele><time>2026-03-29T08:31:14.852Z</time></trkpt><trkpt lat="43.7538264" lon="11.2393115"><ele>91.0</ele><time>2026-03-29T08:31:15.857Z</time></trkpt><trkpt lat="43.7537063" lon="11.23927"><ele>91.0</ele><time>2026-03-29T08:31:16.857Z</time></trkpt><trkpt lat="43.7535913" lon="11.2392221"><ele>91.0</ele><time>2026-03-29T08:31:17.852Z</time></trkpt><trkpt lat="43.7534791" lon="11.2391699"><ele>91.0</ele><time>2026-03-29T08:31:18.889Z</time></trkpt><trkpt lat="43.753371" lon="11.2391233"><ele>92.6</ele><time>2026-03-29T08:31:19.858Z</time></trkpt><trkpt lat="43.7532676" lon="11.2390794"><ele>94.19999999999999</ele><time>2026-03-29T08:31:20.863Z</time></trkpt><trkpt lat="43.7531751" lon="11.2390326"><ele>95.80000000000001</ele><time>2026-03-29T08:31:21.853Z</time></trkpt><trkpt lat="43.7530875" lon="11.2389797"><ele>97.4</ele><time>2026-03-29T08:31:22.886Z</time></trkpt><trkpt lat="43.7530122" lon="11.2389211"><ele>99.0</ele><time>2026-03-29T08:31:23.857Z</time></trkpt><trkpt lat="43.7529413" lon="11.2388606"><ele>99.4</ele><time>2026-03-29T08:31:24.86Z</time></trkpt><trkpt lat="43.7528676" lon="11.2387956"><ele>99.80000000000001</ele><time>2026-03-29T08:31:25.86Z</time></trkpt><trkpt lat="43.7527897" lon="11.238722"><ele>100.19999999999999</ele><time>2026-03-29T08:31:26.853Z</time></trkpt><trkpt lat="43.7527036" lon="11.2386351"><ele>100.6</ele><time>2026-03-29T08:31:27.856Z</time></trkpt><trkpt lat="43.7526079" lon="11.2385362"><ele>101.0</ele><time>2026-03-29T08:31:28.893Z</time></trkpt><trkpt lat="43.7525098" lon="11.2384316"><ele>101.5</ele><time>2026-03-29T08:31:29.869Z</time></trkpt><trkpt lat="43.7524077" lon="11.2383204"><ele>102.0</ele><time>2026-03-29T08:31:30.855Z</time></trkpt><trkpt lat="43.752304" lon="11.2382097"><ele>102.5</ele><time>2026-03-29T08:31:31.86Z</time></trkpt><trkpt lat="43.7522013" lon="11.2380998"><ele>103.0</ele><time>2026-03-29T08:31:32.856Z</time></trkpt><trkpt lat="43.7521102" lon="11.2379959"><ele>103.4</ele><time>2026-03-29T08:31:33.853Z</time></trkpt><trkpt lat="43.7520205" lon="11.2378914"><ele>103.80000000000001</ele><time>2026-03-29T08:31:34.857Z</time></trkpt><trkpt lat="43.7519362" lon="11.2377938"><ele>104.2</ele><time>2026-03-29T08:31:35.862Z</time></trkpt><trkpt lat="43.751854" lon="11.2376961"><ele>104.6</ele><time>2026-03-29T08:31:36.86Z</time></trkpt><trkpt lat="43.7517692" lon="11.2375996"><ele>105.0</ele><time>2026-03-29T08:31:37.856Z</time></trkpt><trkpt lat="43.7516892" lon="11.2375122"><ele>104.4</ele><time>2026-03-29T08:31:38.859Z</time></trkpt><trkpt lat="43.7516163" lon="11.2374323"><ele>103.8</ele><time>2026-03-29T08:31:39.855Z</time></trkpt><trkpt lat="43.7515437" lon="11.2373489"><ele>103.19999999999999</ele><time>2026-03-29T08:31:40.857Z</time></trkpt><trkpt lat="43.7514684" lon="11.2372625"><ele>102.6</ele><time>2026-03-29T08:31:41.854Z</time></trkpt><trkpt lat="43.7513823" lon="11.237169"><ele>102.0</ele><time>2026-03-29T08:31:42.859Z</time></trkpt><trkpt lat="43.7512756" lon="11.2370558"><ele>102.0</ele><time>2026-03-29T08:31:43.852Z</time></trkpt><trkpt lat="43.7511722" lon="11.2369428"><ele>102.0</ele><time>2026-03-29T08:31:44.854Z</time></trkpt><trkpt lat="43.7510652" lon="11.2368298"><ele>102.0</ele><time>2026-03-29T08:31:45.854Z</time></trkpt><trkpt lat="43.7509599" lon="11.2367098"><ele>102.0</ele><time>2026-03-29T08:31:46.865Z</time></trkpt><trkpt lat="43.7508611" lon="11.2365935"><ele>100.19999999999999</ele><time>2026-03-29T08:31:47.855Z</time></trkpt><trkpt lat="43.7507608" lon="11.2364868"><ele>98.4</ele><time>2026-03-29T08:31:48.855Z</time></trkpt><trkpt lat="43.7506677" lon="11.2363883"><ele>96.6</ele><time>2026-03-29T08:31:49.859Z</time></trkpt><trkpt lat="43.75059" lon="11.2363071"><ele>94.80000000000001</ele><time>2026-03-29T08:31:50.856Z</time></trkpt><trkpt lat="43.7505225" lon="11.2362307"><ele>93.0</ele><time>2026-03-29T08:31:51.883Z</time></trkpt><trkpt lat="43.7504683" lon="11.236175"><ele>93.0</ele><time>2026-03-29T08:31:52.855Z</time></trkpt><trkpt lat="43.7503825" lon="11.2360742"><ele>93.0</ele><time>2026-03-29T08:31:54.857Z</time></trkpt><trkpt lat="43.7503001" lon="11.2359849"><ele>93.0</ele><time>2026-03-29T08:31:56.851Z</time></trkpt><trkpt lat="43.750212" lon="11.2358888"><ele>93.0</ele><time>2026-03-29T08:31:58.854Z</time></trkpt><trkpt lat="43.7501376" lon="11.2358101"><ele>93.0</ele><time>2026-03-29T08:32:00.859Z</time></trkpt><trkpt lat="43.750079" lon="11.2357474"><ele>91.60000000000001</ele><time>2026-03-29T08:32:12.888Z</time></trkpt><trkpt lat="43.749983" lon="11.2356817"><ele>90.2</ele><time>2026-03-29T08:32:14.884Z</time></trkpt><trkpt lat="43.7499179" lon="11.2356332"><ele>88.8</ele><time>2026-03-29T08:32:15.853Z</time></trkpt><trkpt lat="43.7498311" lon="11.2355771"><ele>87.4</ele><time>2026-03-29T08:32:16.859Z</time></trkpt><trkpt lat="43.7497214" lon="11.2355088"><ele>86.0</ele><time>2026-03-29T08:32:17.854Z</time></trkpt><trkpt lat="43.7496066" lon="11.2354116"><ele>86.0</ele><time>2026-03-29T08:32:18.853Z</time></trkpt><trkpt lat="43.7494969" lon="11.2352799"><ele>86.0</ele><time>2026-03-29T08:32:19.853Z</time></trkpt><trkpt lat="43.7494088" lon="11.2351454"><ele>86.0</ele><time>2026-03-29T08:32:20.856Z</time></trkpt><trkpt lat="43.7493333" lon="11.2350121"><ele>86.0</ele><time>2026-03-29T08:32:21.865Z</time></trkpt><trkpt lat="43.7492741" lon="11.2348781"><ele>85.0</ele><time>2026-03-29T08:32:22.858Z</time></trkpt><trkpt lat="43.7492146" lon="11.2347531"><ele>84.0</ele><time>2026-03-29T08:32:23.883Z</time></trkpt><trkpt lat="43.7491523" lon="11.2346179"><ele>83.0</ele><time>2026-03-29T08:32:24.887Z</time></trkpt><trkpt lat="43.7490843" lon="11.234479"><ele>82.0</ele><time>2026-03-29T08:32:25.859Z</time></trkpt><trkpt lat="43.7490083" lon="11.2343225"><ele>82.0</ele><time>2026-03-29T08:32:26.857Z</time></trkpt><trkpt lat="43.7489248" lon="11.2341514"><ele>82.0</ele><time>2026-03-29T08:32:27.858Z</time></trkpt><trkpt lat="43.748833" lon="11.233964"><ele>82.0</ele><time>2026-03-29T08:32:28.855Z</time></trkpt><trkpt lat="43.7487463" lon="11.2337681"><ele>82.0</ele><time>2026-03-29T08:32:29.861Z</time></trkpt><trkpt lat="43.7486624" lon="11.2335719"><ele>82.0</ele><time>2026-03-29T08:32:30.855Z</time></trkpt><trkpt lat="43.7485762" lon="11.2333771"><ele>82.0</ele><time>2026-03-29T08:32:31.855Z</time></trkpt><trkpt lat="43.7484856" lon="11.2331866"><ele>81.66666666666666</ele><time>2026-03-29T08:32:32.854Z</time></trkpt><trkpt lat="43.7483951" lon="11.2329967"><ele>81.33333333333333</ele><time>2026-03-29T08:32:33.882Z</time></trkpt><trkpt lat="43.7483073" lon="11.2328077"><ele>81.0</ele><time>2026-03-29T08:32:34.858Z</time></trkpt><trkpt lat="43.7482202" lon="11.232624"><ele>81.0</ele><time>2026-03-29T08:32:35.853Z</time></trkpt><trkpt lat="43.7481331" lon="11.232444"><ele>81.0</ele><time>2026-03-29T08:32:36.861Z</time></trkpt><trkpt lat="43.7480482" lon="11.2322657"><ele>81.0</ele><time>2026-03-29T08:32:37.861Z</time></trkpt><trkpt lat="43.7479637" lon="11.2320885"><ele>81.25</ele><time>2026-03-29T08:32:38.859Z</time></trkpt><trkpt lat="43.7478814" lon="11.2319109"><ele>81.5</ele><time>2026-03-29T08:32:39.862Z</time></trkpt><trkpt lat="43.7477997" lon="11.2317399"><ele>81.75</ele><time>2026-03-29T08:32:40.866Z</time></trkpt><trkpt lat="43.7477202" lon="11.2315747"><ele>82.0</ele><time>2026-03-29T08:32:41.859Z</time></trkpt><trkpt lat="43.7476465" lon="11.2314159"><ele>80.75</ele><time>2026-03-29T08:32:42.852Z</time></trkpt><trkpt lat="43.7475777" lon="11.2312669"><ele>79.5</ele><time>2026-03-29T08:32:43.858Z</time></trkpt><trkpt lat="43.7475107" lon="11.2311274"><ele>78.25</ele><time>2026-03-29T08:32:44.854Z</time></trkpt><trkpt lat="43.7474464" lon="11.2309924"><ele>77.0</ele><time>2026-03-29T08:32:45.861Z</time></trkpt><trkpt lat="43.7473828" lon="11.2308601"><ele>77.0</ele><time>2026-03-29T08:32:46.856Z</time></trkpt><trkpt lat="43.7473218" lon="11.2307296"><ele>77.0</ele><time>2026-03-29T08:32:47.853Z</time></trkpt><trkpt lat="43.74726" lon="11.2306009"><ele>77.0</ele><time>2026-03-29T08:32:48.855Z</time></trkpt><trkpt lat="43.7471961" lon="11.2304704"><ele>77.0</ele><time>2026-03-29T08:32:49.856Z</time></trkpt><trkpt lat="43.7471216" lon="11.230335"><ele>76.5</ele><time>2026-03-29T08:32:50.856Z</time></trkpt><trkpt lat="43.7470354" lon="11.2301935"><ele>76.0</ele><time>2026-03-29T08:32:51.858Z</time></trkpt><trkpt lat="43.7469355" lon="11.2300517"><ele>75.5</ele><time>2026-03-29T08:32:52.856Z</time></trkpt><trkpt lat="43.7468231" lon="11.2299063"><ele>75.0</ele><time>2026-03-29T08:32:53.882Z</time></trkpt><trkpt lat="43.7467038" lon="11.2297595"><ele>75.0</ele><time>2026-03-29T08:32:54.857Z</time></trkpt><trkpt lat="43.746582" lon="11.2296096"><ele>75.0</ele><time>2026-03-29T08:32:55.888Z</time></trkpt><trkpt lat="43.7464595" lon="11.2294612"><ele>75.0</ele><time>2026-03-29T08:32:56.886Z</time></trkpt><trkpt lat="43.7463385" lon="11.2293137"><ele>75.0</ele><time>2026-03-29T08:32:57.892Z</time></trkpt><trkpt lat="43.7462218" lon="11.2291635"><ele>75.0</ele><time>2026-03-29T08:32:58.855Z</time></trkpt><trkpt lat="43.746105" lon="11.2290176"><ele>75.0</ele><time>2026-03-29T08:32:59.853Z</time></trkpt><trkpt lat="43.7459912" lon="11.2288698"><ele>75.0</ele><time>2026-03-29T08:33:00.859Z</time></trkpt><trkpt lat="43.7458799" lon="11.2287211"><ele>75.0</ele><time>2026-03-29T08:33:01.858Z</time></trkpt><trkpt lat="43.7457705" lon="11.2285737"><ele>75.0</ele><time>2026-03-29T08:33:02.869Z</time></trkpt><trkpt lat="43.7456607" lon="11.228423"><ele>75.0</ele><time>2026-03-29T08:33:03.888Z</time></trkpt><trkpt lat="43.7455538" lon="11.2282701"><ele>75.0</ele><time>2026-03-29T08:33:04.887Z</time></trkpt><trkpt lat="43.7454435" lon="11.2281236"><ele>75.0</ele><time>2026-03-29T08:33:05.887Z</time></trkpt><trkpt lat="43.7453268" lon="11.2279855"><ele>75.0</ele><time>2026-03-29T08:33:06.862Z</time></trkpt><trkpt lat="43.7452079" lon="11.2278593"><ele>75.0</ele><time>2026-03-29T08:33:07.855Z</time></trkpt><trkpt lat="43.7450855" lon="11.2277361"><ele>75.0</ele><time>2026-03-29T08:33:08.854Z</time></trkpt><trkpt lat="43.7449575" lon="11.227617"><ele>75.0</ele><time>2026-03-29T08:33:09.859Z</time></trkpt><trkpt lat="43.7448267" lon="11.2274933"><ele>75.0</ele><time>2026-03-29T08:33:10.862Z</time></trkpt><trkpt lat="43.7446945" lon="11.2273686"><ele>75.0</ele><time>2026-03-29T08:33:11.859Z</time></trkpt><trkpt lat="43.7445602" lon="11.2272464"><ele>74.33333333333333</ele><time>2026-03-29T08:33:12.851Z</time></trkpt><trkpt lat="43.7444203" lon="11.2271274"><ele>73.66666666666666</ele><time>2026-03-29T08:33:13.854Z</time></trkpt><trkpt lat="43.7442801" lon="11.2269987"><ele>73.0</ele><time>2026-03-29T08:33:14.859Z</time></trkpt><trkpt lat="43.7441379" lon="11.2268649"><ele>73.0</ele><time>2026-03-29T08:33:15.858Z</time></trkpt><trkpt lat="43.7439989" lon="11.2267332"><ele>73.0</ele><time>2026-03-29T08:33:16.883Z</time></trkpt><trkpt lat="43.7438656" lon="11.2266109"><ele>73.0</ele><time>2026-03-29T08:33:17.858Z</time></trkpt><trkpt lat="43.7437376" lon="11.2264975"><ele>73.0</ele><time>2026-03-29T08:33:18.86Z</time></trkpt><trkpt lat="43.7436141" lon="11.2263876"><ele>73.0</ele><time>2026-03-29T08:33:19.86Z</time></trkpt><trkpt lat="43.7434919" lon="11.2262808"><ele>73.0</ele><time>2026-03-29T08:33:20.887Z</time></trkpt><trkpt lat="43.743369" lon="11.2261739"><ele>73.0</ele><time>2026-03-29T08:33:21.891Z</time></trkpt><trkpt lat="43.7432506" lon="11.2260659"><ele>73.0</ele><time>2026-03-29T08:33:22.853Z</time></trkpt><trkpt lat="43.7431388" lon="11.2259646"><ele>73.0</ele><time>2026-03-29T08:33:23.856Z</time></trkpt><trkpt lat="43.7430331" lon="11.2258692"><ele>73.0</ele><time>2026-03-29T08:33:24.852Z</time></trkpt><trkpt lat="43.7429344" lon="11.2257827"><ele>73.0</ele><time>2026-03-29T08:33:25.851Z</time></trkpt><trkpt lat="43.7428459" lon="11.2257013"><ele>72.66666666666666</ele><time>2026-03-29T08:33:26.858Z</time></trkpt><trkpt lat="43.7427636" lon="11.2256228"><ele>72.33333333333333</ele><time>2026-03-29T08:33:27.852Z</time></trkpt><trkpt lat="43.7426925" lon="11.2255466"><ele>72.0</ele><time>2026-03-29T08:33:28.858Z</time></trkpt><trkpt lat="43.7426314" lon="11.2254727"><ele>71.66666666666667</ele><time>2026-03-29T08:33:29.861Z</time></trkpt><trkpt lat="43.7425768" lon="11.225398"><ele>71.33333333333334</ele><time>2026-03-29T08:33:30.889Z</time></trkpt><trkpt lat="43.742533" lon="11.2253208"><ele>71.0</ele><time>2026-03-29T08:33:31.855Z</time></trkpt><trkpt lat="43.7424821" lon="11.2252126"><ele>71.0</ele><time>2026-03-29T08:33:33.865Z</time></trkpt><trkpt lat="43.7424773" lon="11.2250654"><ele>71.0</ele><time>2026-03-29T08:33:36.883Z</time></trkpt><trkpt lat="43.7424704" lon="11.2249771"><ele>71.0</ele><time>2026-03-29T08:33:37.865Z</time></trkpt><trkpt lat="43.7424435" lon="11.224874"><ele>71.0</ele><time>2026-03-29T08:33:38.856Z</time></trkpt><trkpt lat="43.7423913" lon="11.2247864"><ele>71.0</ele><time>2026-03-29T08:33:39.855Z</time></trkpt><trkpt lat="43.7423176" lon="11.2247261"><ele>71.0</ele><time>2026-03-29T08:33:40.86Z</time></trkpt><trkpt lat="43.742225" lon="11.2247164"><ele>70.5</ele><time>2026-03-29T08:33:41.854Z</time></trkpt><trkpt lat="43.7421025" lon="11.2247559"><ele>70.0</ele><time>2026-03-29T08:33:42.856Z</time></trkpt><trkpt lat="43.7419708" lon="11.2247966"><ele>69.5</ele><time>2026-03-29T08:33:43.855Z</time></trkpt><trkpt lat="43.7418446" lon="11.2248093"><ele>69.0</ele><time>2026-03-29T08:33:44.857Z</time></trkpt><trkpt lat="43.7417329" lon="11.2247885"><ele>69.0</ele><time>2026-03-29T08:33:45.854Z</time></trkpt><trkpt lat="43.7416351" lon="11.2247484"><ele>69.0</ele><time>2026-03-29T08:33:46.884Z</time></trkpt><trkpt lat="43.7415483" lon="11.2247002"><ele>69.0</ele><time>2026-03-29T08:33:47.855Z</time></trkpt><trkpt lat="43.7414791" lon="11.2246529"><ele>69.0</ele><time>2026-03-29T08:33:48.884Z</time></trkpt><trkpt lat="43.7414142" lon="11.2246208"><ele>69.0</ele><time>2026-03-29T08:33:49.858Z</time></trkpt><trkpt lat="43.7412923" lon="11.2245711"><ele>69.0</ele><time>2026-03-29T08:33:51.863Z</time></trkpt><trkpt lat="43.7412218" lon="11.2245518"><ele>69.0</ele><time>2026-03-29T08:33:52.858Z</time></trkpt><trkpt lat="43.7411376" lon="11.2245228"><ele>69.0</ele><time>2026-03-29T08:33:53.854Z</time></trkpt><trkpt lat="43.7410549" lon="11.2244983"><ele>69.0</ele><time>2026-03-29T08:33:54.858Z</time></trkpt><trkpt lat="43.7409679" lon="11.2244779"><ele>69.0</ele><time>2026-03-29T08:33:55.861Z</time></trkpt><trkpt lat="43.7408838" lon="11.224464"><ele>69.0</ele><time>2026-03-29T08:33:56.886Z</time></trkpt><trkpt lat="43.7408064" lon="11.224452"><ele>68.66666666666667</ele><time>2026-03-29T08:33:57.857Z</time></trkpt><trkpt lat="43.7407305" lon="11.224437"><ele>68.33333333333333</ele><time>2026-03-29T08:33:58.882Z</time></trkpt><trkpt lat="43.7406547" lon="11.2244112"><ele>68.0</ele><time>2026-03-29T08:33:59.858Z</time></trkpt><trkpt lat="43.7405801" lon="11.2243843"><ele>67.66666666666666</ele><time>2026-03-29T08:34:00.852Z</time></trkpt><trkpt lat="43.7404966" lon="11.2243665"><ele>67.33333333333333</ele><time>2026-03-29T08:34:01.857Z</time></trkpt><trkpt lat="43.7404021" lon="11.2243693"><ele>67.0</ele><time>2026-03-29T08:34:02.856Z</time></trkpt><trkpt lat="43.7403008" lon="11.2243942"><ele>66.4</ele><time>2026-03-29T08:34:03.864Z</time></trkpt><trkpt lat="43.7401991" lon="11.2244124"><ele>65.80000000000001</ele><time>2026-03-29T08:34:04.857Z</time></trkpt><trkpt lat="43.7400955" lon="11.2244139"><ele>65.2</ele><time>2026-03-29T08:34:05.856Z</time></trkpt><trkpt lat="43.7399912" lon="11.2244067"><ele>64.60000000000001</ele><time>2026-03-29T08:34:06.887Z</time></trkpt><trkpt lat="43.7398882" lon="11.2243926"><ele>64.0</ele><time>2026-03-29T08:34:07.87Z</time></trkpt><trkpt lat="43.7397863" lon="11.2243815"><ele>64.0</ele><time>2026-03-29T08:34:08.866Z</time></trkpt><trkpt lat="43.7396865" lon="11.2243795"><ele>64.0</ele><time>2026-03-29T08:34:09.857Z</time></trkpt><trkpt lat="43.7395872" lon="11.2243848"><ele>64.0</ele><time>2026-03-29T08:34:10.865Z</time></trkpt><trkpt lat="43.7394836" lon="11.2243906"><ele>64.0</ele><time>2026-03-29T08:34:11.853Z</time></trkpt><trkpt lat="43.7393779" lon="11.2243973"><ele>64.0</ele><time>2026-03-29T08:34:12.853Z</time></trkpt><trkpt lat="43.739273" lon="11.2244135"><ele>63.800000000000004</ele><time>2026-03-29T08:34:13.853Z</time></trkpt><trkpt lat="43.7391642" lon="11.224431"><ele>63.60000000000001</ele><time>2026-03-29T08:34:14.881Z</time></trkpt><trkpt lat="43.7390575" lon="11.2244469"><ele>63.4</ele><time>2026-03-29T08:34:15.855Z</time></trkpt><trkpt lat="43.7389521" lon="11.2244606"><ele>63.2</ele><time>2026-03-29T08:34:16.888Z</time></trkpt><trkpt lat="43.7388468" lon="11.2244832"><ele>63.0</ele><time>2026-03-29T08:34:17.857Z</time></trkpt><trkpt lat="43.7387441" lon="11.2245021"><ele>63.0</ele><time>2026-03-29T08:34:18.888Z</time></trkpt><trkpt lat="43.7386466" lon="11.2245121"><ele>63.0</ele><time>2026-03-29T08:34:19.856Z</time></trkpt><trkpt lat="43.7385709" lon="11.2245112"><ele>63.0</ele><time>2026-03-29T08:34:20.859Z</time></trkpt><trkpt lat="43.738512" lon="11.2244629"><ele>63.0</ele><time>2026-03-29T08:34:23.858Z</time></trkpt><trkpt lat="43.7384297" lon="11.2244706"><ele>63.0</ele><time>2026-03-29T08:34:26.862Z</time></trkpt><trkpt lat="43.7383042" lon="11.2244797"><ele>63.166666666666664</ele><time>2026-03-29T08:34:28.865Z</time></trkpt><trkpt lat="43.7382347" lon="11.2244902"><ele>63.33333333333333</ele><time>2026-03-29T08:34:29.884Z</time></trkpt><trkpt lat="43.7381594" lon="11.2245025"><ele>63.5</ele><time>2026-03-29T08:34:30.885Z</time></trkpt><trkpt lat="43.7380816" lon="11.2245092"><ele>63.666666666666664</ele><time>2026-03-29T08:34:31.86Z</time></trkpt><trkpt lat="43.7380021" lon="11.2245144"><ele>63.83333333333333</ele><time>2026-03-29T08:34:32.858Z</time></trkpt><trkpt lat="43.7379235" lon="11.2245133"><ele>64.0</ele><time>2026-03-29T08:34:33.861Z</time></trkpt><trkpt lat="43.7378528" lon="11.224509"><ele>64.0</ele><time>2026-03-29T08:34:34.874Z</time></trkpt><trkpt lat="43.7377589" lon="11.224498"><ele>64.0</ele><time>2026-03-29T08:34:36.895Z</time></trkpt><trkpt lat="43.7376584" lon="11.2245094"><ele>64.0</ele><time>2026-03-29T08:34:41.886Z</time></trkpt><trkpt lat="43.7375318" lon="11.2244923"><ele>64.0</ele><time>2026-03-29T08:34:43.855Z</time></trkpt><trkpt lat="43.7374625" lon="11.2244346"><ele>64.0</ele><time>2026-03-29T08:34:44.884Z</time></trkpt><trkpt lat="43.7373917" lon="11.2243609"><ele>63.800000000000004</ele><time>2026-03-29T08:34:45.863Z</time></trkpt><trkpt lat="43.737313" lon="11.2242687"><ele>63.60000000000001</ele><time>2026-03-29T08:34:46.857Z</time></trkpt><trkpt lat="43.7372282" lon="11.2241734"><ele>63.4</ele><time>2026-03-29T08:34:47.887Z</time></trkpt><trkpt lat="43.7371377" lon="11.2240849"><ele>63.2</ele><time>2026-03-29T08:34:48.894Z</time></trkpt><trkpt lat="43.7370449" lon="11.2240099"><ele>63.0</ele><time>2026-03-29T08:34:49.853Z</time></trkpt><trkpt lat="43.7369569" lon="11.22393"><ele>63.0</ele><time>2026-03-29T08:34:50.852Z</time></trkpt><trkpt lat="43.7368848" lon="11.2238775"><ele>63.0</ele><time>2026-03-29T08:34:51.86Z</time></trkpt><trkpt lat="43.7368219" lon="11.2238155"><ele>63.0</ele><time>2026-03-29T08:34:52.857Z</time></trkpt><trkpt lat="43.7367445" lon="11.2237368"><ele>63.0</ele><time>2026-03-29T08:34:54.858Z</time></trkpt><trkpt lat="43.7366549" lon="11.2236562"><ele>63.0</ele><time>2026-03-29T08:34:56.862Z</time></trkpt><trkpt lat="43.7365734" lon="11.2235624"><ele>63.0</ele><time>2026-03-29T08:34:58.858Z</time></trkpt><trkpt lat="43.7365169" lon="11.2235026"><ele>63.0</ele><time>2026-03-29T08:34:59.863Z</time></trkpt><trkpt lat="43.7364591" lon="11.2234431"><ele>63.0</ele><time>2026-03-29T08:35:00.885Z</time></trkpt><trkpt lat="43.7363831" lon="11.2233703"><ele>63.0</ele><time>2026-03-29T08:35:01.889Z</time></trkpt><trkpt lat="43.7362822" lon="11.223281"><ele>63.0</ele><time>2026-03-29T08:35:02.855Z</time></trkpt><trkpt lat="43.736164" lon="11.2231744"><ele>62.75</ele><time>2026-03-29T08:35:03.853Z</time></trkpt><trkpt lat="43.7360392" lon="11.2230424"><ele>62.5</ele><time>2026-03-29T08:35:04.894Z</time></trkpt><trkpt lat="43.7359248" lon="11.2229164"><ele>62.25</ele><time>2026-03-29T08:35:05.887Z</time></trkpt><trkpt lat="43.7358168" lon="11.2227961"><ele>62.0</ele><time>2026-03-29T08:35:06.884Z</time></trkpt><trkpt lat="43.7357128" lon="11.2227048"><ele>62.0</ele><time>2026-03-29T08:35:07.862Z</time></trkpt><trkpt lat="43.7356065" lon="11.2226161"><ele>62.0</ele><time>2026-03-29T08:35:08.887Z</time></trkpt><trkpt lat="43.7355003" lon="11.2225282"><ele>62.0</ele><time>2026-03-29T08:35:09.864Z</time></trkpt><trkpt lat="43.7353955" lon="11.2224297"><ele>62.0</ele><time>2026-03-29T08:35:10.862Z</time></trkpt><trkpt lat="43.7352708" lon="11.2223094"><ele>61.66666666666667</ele><time>2026-03-29T08:35:11.851Z</time></trkpt><trkpt lat="43.7351301" lon="11.2221834"><ele>61.33333333333333</ele><time>2026-03-29T08:35:12.883Z</time></trkpt><trkpt lat="43.7349869" lon="11.2220548"><ele>61.0</ele><time>2026-03-29T08:35:13.851Z</time></trkpt><trkpt lat="43.7348689" lon="11.2219219"><ele>61.0</ele><time>2026-03-29T08:35:14.856Z</time></trkpt><trkpt lat="43.7347758" lon="11.2217965"><ele>60.99999999999999</ele><time>2026-03-29T08:35:15.89Z</time></trkpt><trkpt lat="43.7347016" lon="11.2217037"><ele>60.99999999999999</ele><time>2026-03-29T08:35:16.853Z</time></trkpt><trkpt lat="43.7346463" lon="11.2216498"><ele>61.0</ele><time>2026-03-29T08:35:17.857Z</time></trkpt><trkpt lat="43.7345061" lon="11.2216902"><ele>61.0</ele><time>2026-03-29T08:35:19.856Z</time></trkpt><trkpt lat="43.7344145" lon="11.2217905"><ele>60.0</ele><time>2026-03-29T08:35:20.886Z</time></trkpt><trkpt lat="43.7343045" lon="11.2219187"><ele>59.0</ele><time>2026-03-29T08:35:21.863Z</time></trkpt><trkpt lat="43.7341691" lon="11.2220359"><ele>58.0</ele><time>2026-03-29T08:35:22.858Z</time></trkpt><trkpt lat="43.7340284" lon="11.2221385"><ele>58.0</ele><time>2026-03-29T08:35:23.857Z</time></trkpt><trkpt lat="43.7338856" lon="11.2222613"><ele>58.0</ele><time>2026-03-29T08:35:24.856Z</time></trkpt><trkpt lat="43.7337421" lon="11.2223814"><ele>58.0</ele><time>2026-03-29T08:35:25.854Z</time></trkpt><trkpt lat="43.7335988" lon="11.2225122"><ele>58.33333333333333</ele><time>2026-03-29T08:35:26.857Z</time></trkpt><trkpt lat="43.7334639" lon="11.2226353"><ele>58.66666666666667</ele><time>2026-03-29T08:35:27.855Z</time></trkpt><trkpt lat="43.7333283" lon="11.2227558"><ele>59.0</ele><time>2026-03-29T08:35:28.863Z</time></trkpt><trkpt lat="43.7331889" lon="11.22288"><ele>59.0</ele><time>2026-03-29T08:35:29.861Z</time></trkpt><trkpt lat="43.733052" lon="11.2230071"><ele>59.0</ele><time>2026-03-29T08:35:30.883Z</time></trkpt><trkpt lat="43.7329258" lon="11.2231477"><ele>59.0</ele><time>2026-03-29T08:35:31.867Z</time></trkpt><trkpt lat="43.7328013" lon="11.2233151"><ele>61.333333333333336</ele><time>2026-03-29T08:35:32.855Z</time></trkpt><trkpt lat="43.7326901" lon="11.2235085"><ele>63.66666666666667</ele><time>2026-03-29T08:35:33.857Z</time></trkpt><trkpt lat="43.7325908" lon="11.2236895"><ele>66.0</ele><time>2026-03-29T08:35:34.862Z</time></trkpt><trkpt lat="43.7325021" lon="11.2238441"><ele>66.0</ele><time>2026-03-29T08:35:35.856Z</time></trkpt><trkpt lat="43.7324348" lon="11.2239711"><ele>66.0</ele><time>2026-03-29T08:35:36.889Z</time></trkpt><trkpt lat="43.7323715" lon="11.224081"><ele>66.0</ele><time>2026-03-29T08:35:37.888Z</time></trkpt><trkpt lat="43.7323135" lon="11.2241827"><ele>66.0</ele><time>2026-03-29T08:35:38.855Z</time></trkpt><trkpt lat="43.7322457" lon="11.2242448"><ele>66.0</ele><time>2026-03-29T08:35:39.893Z</time></trkpt><trkpt lat="43.7321465" lon="11.2242438"><ele>66.0</ele><time>2026-03-29T08:35:40.857Z</time></trkpt><trkpt lat="43.7320244" lon="11.2241739"><ele>66.0</ele><time>2026-03-29T08:35:41.86Z</time></trkpt><trkpt lat="43.731919" lon="11.2240581"><ele>66.0</ele><time>2026-03-29T08:35:42.887Z</time></trkpt><trkpt lat="43.7317996" lon="11.2239113"><ele>66.0</ele><time>2026-03-29T08:35:43.856Z</time></trkpt><trkpt lat="43.7316658" lon="11.2237522"><ele>69.33333333333333</ele><time>2026-03-29T08:35:44.858Z</time></trkpt><trkpt lat="43.7315098" lon="11.2236155"><ele>72.66666666666666</ele><time>2026-03-29T08:35:45.863Z</time></trkpt><trkpt lat="43.7313318" lon="11.2234964"><ele>76.0</ele><time>2026-03-29T08:35:46.854Z</time></trkpt><trkpt lat="43.7311421" lon="11.2234237"><ele>77.66666666666666</ele><time>2026-03-29T08:35:47.857Z</time></trkpt><trkpt lat="43.7309448" lon="11.2233787"><ele>79.33333333333333</ele><time>2026-03-29T08:35:48.883Z</time></trkpt><trkpt lat="43.7307504" lon="11.2233423"><ele>81.0</ele><time>2026-03-29T08:35:49.853Z</time></trkpt><trkpt lat="43.7305644" lon="11.223323"><ele>81.0</ele><time>2026-03-29T08:35:50.893Z</time></trkpt><trkpt lat="43.7303908" lon="11.2232947"><ele>81.0</ele><time>2026-03-29T08:35:51.854Z</time></trkpt><trkpt lat="43.7302159" lon="11.2232625"><ele>81.0</ele><time>2026-03-29T08:35:52.858Z</time></trkpt><trkpt lat="43.7300441" lon="11.2232078"><ele>80.33333333333333</ele><time>2026-03-29T08:35:53.89Z</time></trkpt><trkpt lat="43.7298806" lon="11.2231466"><ele>79.66666666666666</ele><time>2026-03-29T08:35:54.857Z</time></trkpt><trkpt lat="43.7297087" lon="11.22311"><ele>79.0</ele><time>2026-03-29T08:35:55.855Z</time></trkpt><trkpt lat="43.7295378" lon="11.2230947"><ele>77.66666666666666</ele><time>2026-03-29T08:35:56.859Z</time></trkpt><trkpt lat="43.7293716" lon="11.2231117"><ele>76.33333333333333</ele><time>2026-03-29T08:35:57.883Z</time></trkpt><trkpt lat="43.7292073" lon="11.2231765"><ele>75.0</ele><time>2026-03-29T08:35:58.856Z</time></trkpt><trkpt lat="43.7290398" lon="11.2232602"><ele>75.0</ele><time>2026-03-29T08:35:59.855Z</time></trkpt><trkpt lat="43.7288775" lon="11.223356"><ele>75.0</ele><time>2026-03-29T08:36:00.859Z</time></trkpt><trkpt lat="43.7287178" lon="11.2234523"><ele>75.0</ele><time>2026-03-29T08:36:01.887Z</time></trkpt><trkpt lat="43.7285606" lon="11.2235507"><ele>73.66666666666667</ele><time>2026-03-29T08:36:02.861Z</time></trkpt><trkpt lat="43.7284009" lon="11.2236578"><ele>72.33333333333334</ele><time>2026-03-29T08:36:03.884Z</time></trkpt><trkpt lat="43.7282381" lon="11.2237658"><ele>71.0</ele><time>2026-03-29T08:36:04.86Z</time></trkpt><trkpt lat="43.7280785" lon="11.2238662"><ele>71.0</ele><time>2026-03-29T08:36:05.854Z</time></trkpt><trkpt lat="43.7279299" lon="11.2239545"><ele>71.0</ele><time>2026-03-29T08:36:06.867Z</time></trkpt><trkpt lat="43.727794" lon="11.2240349"><ele>71.0</ele><time>2026-03-29T08:36:07.854Z</time></trkpt><trkpt lat="43.7276802" lon="11.2241072"><ele>71.0</ele><time>2026-03-29T08:36:08.852Z</time></trkpt><trkpt lat="43.7275723" lon="11.2241822"><ele>69.33333333333334</ele><time>2026-03-29T08:36:09.852Z</time></trkpt><trkpt lat="43.7274402" lon="11.2242696"><ele>67.66666666666667</ele><time>2026-03-29T08:36:10.887Z</time></trkpt><trkpt lat="43.7272916" lon="11.2243532"><ele>66.0</ele><time>2026-03-29T08:36:11.853Z</time></trkpt><trkpt lat="43.7271438" lon="11.2244351"><ele>66.0</ele><time>2026-03-29T08:36:12.888Z</time></trkpt><trkpt lat="43.7269853" lon="11.2245091"><ele>66.0</ele><time>2026-03-29T08:36:13.851Z</time></trkpt><trkpt lat="43.7268192" lon="11.2245635"><ele>66.0</ele><time>2026-03-29T08:36:14.864Z</time></trkpt><trkpt lat="43.7266531" lon="11.2246162"><ele>65.0</ele><time>2026-03-29T08:36:15.857Z</time></trkpt><trkpt lat="43.7264858" lon="11.2246815"><ele>64.0</ele><time>2026-03-29T08:36:16.887Z</time></trkpt><trkpt lat="43.7263187" lon="11.2247287"><ele>63.0</ele><time>2026-03-29T08:36:17.886Z</time></trkpt><trkpt lat="43.7261367" lon="11.2247841"><ele>63.0</ele><time>2026-03-29T08:36:18.86Z</time></trkpt><trkpt lat="43.7259568" lon="11.2248452"><ele>63.0</ele><time>2026-03-29T08:36:19.884Z</time></trkpt><trkpt lat="43.7258009" lon="11.2248985"><ele>63.0</ele><time>2026-03-29T08:36:20.889Z</time></trkpt><trkpt lat="43.7256497" lon="11.2249461"><ele>63.0</ele><time>2026-03-29T08:36:21.863Z</time></trkpt><trkpt lat="43.72549" lon="11.2249884"><ele>63.0</ele><time>2026-03-29T08:36:22.886Z</time></trkpt><trkpt lat="43.725332" lon="11.2250238"><ele>63.0</ele><time>2026-03-29T08:36:23.853Z</time></trkpt><trkpt lat="43.725176" lon="11.2250456"><ele>63.75</ele><time>2026-03-29T08:36:24.855Z</time></trkpt><trkpt lat="43.7250298" lon="11.2250592"><ele>64.5</ele><time>2026-03-29T08:36:25.853Z</time></trkpt><trkpt lat="43.7248999" lon="11.2250681"><ele>65.25</ele><time>2026-03-29T08:36:26.859Z</time></trkpt><trkpt lat="43.7247836" lon="11.2250734"><ele>66.0</ele><time>2026-03-29T08:36:27.856Z</time></trkpt><trkpt lat="43.7246702" lon="11.2250936"><ele>66.0</ele><time>2026-03-29T08:36:28.854Z</time></trkpt><trkpt lat="43.7245515" lon="11.2251238"><ele>66.0</ele><time>2026-03-29T08:36:29.856Z</time></trkpt><trkpt lat="43.7244489" lon="11.2251443"><ele>66.0</ele><time>2026-03-29T08:36:30.855Z</time></trkpt><trkpt lat="43.7243472" lon="11.2251641"><ele>66.0</ele><time>2026-03-29T08:36:31.859Z</time></trkpt><trkpt lat="43.7242504" lon="11.2251801"><ele>66.0</ele><time>2026-03-29T08:36:32.855Z</time></trkpt><trkpt lat="43.7241638" lon="11.2251924"><ele>65.8</ele><time>2026-03-29T08:36:33.854Z</time></trkpt><trkpt lat="43.7240923" lon="11.2252032"><ele>65.6</ele><time>2026-03-29T08:36:34.857Z</time></trkpt><trkpt lat="43.7239723" lon="11.2252123"><ele>65.4</ele><time>2026-03-29T08:36:36.856Z</time></trkpt><trkpt lat="43.7238888" lon="11.2252198"><ele>65.2</ele><time>2026-03-29T08:36:37.86Z</time></trkpt><trkpt lat="43.7237778" lon="11.225222"><ele>65.0</ele><time>2026-03-29T08:36:38.854Z</time></trkpt><trkpt lat="43.7236467" lon="11.22522"><ele>65.25</ele><time>2026-03-29T08:36:39.855Z</time></trkpt><trkpt lat="43.7235113" lon="11.2252056"><ele>65.5</ele><time>2026-03-29T08:36:40.856Z</time></trkpt><trkpt lat="43.7233759" lon="11.225175"><ele>65.75</ele><time>2026-03-29T08:36:41.875Z</time></trkpt><trkpt lat="43.7232378" lon="11.2251294"><ele>66.0</ele><time>2026-03-29T08:36:42.849Z</time></trkpt><trkpt lat="43.7230914" lon="11.2250651"><ele>66.0</ele><time>2026-03-29T08:36:43.852Z</time></trkpt><trkpt lat="43.7229377" lon="11.2249886"><ele>66.0</ele><time>2026-03-29T08:36:44.853Z</time></trkpt><trkpt lat="43.7227793" lon="11.224933"><ele>66.0</ele><time>2026-03-29T08:36:45.889Z</time></trkpt><trkpt lat="43.7226123" lon="11.2248744"><ele>66.0</ele><time>2026-03-29T08:36:46.872Z</time></trkpt><trkpt lat="43.7224316" lon="11.2248139"><ele>66.0</ele><time>2026-03-29T08:36:47.85Z</time></trkpt><trkpt lat="43.7222521" lon="11.224747"><ele>66.0</ele><time>2026-03-29T08:36:48.855Z</time></trkpt><trkpt lat="43.7220802" lon="11.2246684"><ele>66.0</ele><time>2026-03-29T08:36:49.89Z</time></trkpt><trkpt lat="43.721906" lon="11.2245637"><ele>66.0</ele><time>2026-03-29T08:36:50.883Z</time></trkpt><trkpt lat="43.7217477" lon="11.2244376"><ele>66.0</ele><time>2026-03-29T08:36:51.855Z</time></trkpt><trkpt lat="43.7215926" lon="11.2243035"><ele>66.33333333333333</ele><time>2026-03-29T08:36:52.858Z</time></trkpt><trkpt lat="43.7214392" lon="11.2241736"><ele>66.66666666666666</ele><time>2026-03-29T08:36:53.882Z</time></trkpt><trkpt lat="43.7212983" lon="11.2240498"><ele>67.0</ele><time>2026-03-29T08:36:54.854Z</time></trkpt><trkpt lat="43.721163" lon="11.2239343"><ele>67.0</ele><time>2026-03-29T08:36:55.858Z</time></trkpt><trkpt lat="43.7210252" lon="11.2238241"><ele>67.0</ele><time>2026-03-29T08:36:56.856Z</time></trkpt><trkpt lat="43.7208912" lon="11.2237206"><ele>67.0</ele><time>2026-03-29T08:36:57.854Z</time></trkpt><trkpt lat="43.7207718" lon="11.2236299"><ele>67.0</ele><time>2026-03-29T08:36:58.853Z</time></trkpt><trkpt lat="43.7206664" lon="11.2235416"><ele>67.0</ele><time>2026-03-29T08:36:59.885Z</time></trkpt><trkpt lat="43.7205757" lon="11.2234583"><ele>67.0</ele><time>2026-03-29T08:37:00.855Z</time></trkpt><trkpt lat="43.7204995" lon="11.2233701"><ele>67.0</ele><time>2026-03-29T08:37:01.885Z</time></trkpt><trkpt lat="43.7204415" lon="11.2232602"><ele>67.0</ele><time>2026-03-29T08:37:02.86Z</time></trkpt><trkpt lat="43.720394" lon="11.2231193"><ele>67.0</ele><time>2026-03-29T08:37:03.856Z</time></trkpt><trkpt lat="43.7203475" lon="11.2229855"><ele>66.83333333333333</ele><time>2026-03-29T08:37:04.862Z</time></trkpt><trkpt lat="43.7202934" lon="11.2228794"><ele>66.66666666666666</ele><time>2026-03-29T08:37:05.86Z</time></trkpt><trkpt lat="43.7202309" lon="11.2228028"><ele>66.5</ele><time>2026-03-29T08:37:06.853Z</time></trkpt><trkpt lat="43.720162" lon="11.2227586"><ele>66.33333333333333</ele><time>2026-03-29T08:37:07.854Z</time></trkpt><trkpt lat="43.7200769" lon="11.2228013"><ele>66.16666666666667</ele><time>2026-03-29T08:37:09.887Z</time></trkpt><trkpt lat="43.7200101" lon="11.222869"><ele>66.0</ele><time>2026-03-29T08:37:11.864Z</time></trkpt><trkpt lat="43.719953" lon="11.2229265"><ele>65.5</ele><time>2026-03-29T08:37:17.877Z</time></trkpt><trkpt lat="43.7198353" lon="11.2230139"><ele>65.0</ele><time>2026-03-29T08:37:19.855Z</time></trkpt><trkpt lat="43.7197409" lon="11.2230767"><ele>64.5</ele><time>2026-03-29T08:37:20.862Z</time></trkpt><trkpt lat="43.7196313" lon="11.2231383"><ele>64.0</ele><time>2026-03-29T08:37:21.854Z</time></trkpt><trkpt lat="43.7195048" lon="11.2231812"><ele>64.0</ele><time>2026-03-29T08:37:22.857Z</time></trkpt><trkpt lat="43.7193708" lon="11.2231787"><ele>64.0</ele><time>2026-03-29T08:37:23.856Z</time></trkpt><trkpt lat="43.719216" lon="11.2231521"><ele>64.0</ele><time>2026-03-29T08:37:24.858Z</time></trkpt><trkpt lat="43.7190457" lon="11.2231163"><ele>64.0</ele><time>2026-03-29T08:37:25.87Z</time></trkpt><trkpt lat="43.7188598" lon="11.2230831"><ele>64.0</ele><time>2026-03-29T08:37:26.854Z</time></trkpt><trkpt lat="43.7186649" lon="11.2230295"><ele>64.0</ele><time>2026-03-29T08:37:27.858Z</time></trkpt><trkpt lat="43.718474" lon="11.2229682"><ele>65.33333333333333</ele><time>2026-03-29T08:37:28.859Z</time></trkpt><trkpt lat="43.7182882" lon="11.2228962"><ele>66.66666666666667</ele><time>2026-03-29T08:37:29.857Z</time></trkpt><trkpt lat="43.71811" lon="11.2228115"><ele>68.0</ele><time>2026-03-29T08:37:30.859Z</time></trkpt><trkpt lat="43.7179385" lon="11.2227283"><ele>68.0</ele><time>2026-03-29T08:37:31.887Z</time></trkpt><trkpt lat="43.7177598" lon="11.2226486"><ele>68.0</ele><time>2026-03-29T08:37:32.854Z</time></trkpt><trkpt lat="43.7175848" lon="11.2225778"><ele>68.0</ele><time>2026-03-29T08:37:33.854Z</time></trkpt><trkpt lat="43.7174107" lon="11.222517"><ele>68.0</ele><time>2026-03-29T08:37:34.882Z</time></trkpt><trkpt lat="43.717236" lon="11.2224585"><ele>68.0</ele><time>2026-03-29T08:37:35.852Z</time></trkpt><trkpt lat="43.717068" lon="11.2223979"><ele>68.0</ele><time>2026-03-29T08:37:36.859Z</time></trkpt><trkpt lat="43.7169053" lon="11.2223396"><ele>68.0</ele><time>2026-03-29T08:37:37.861Z</time></trkpt><trkpt lat="43.7167452" lon="11.2222803"><ele>68.0</ele><time>2026-03-29T08:37:38.862Z</time></trkpt><trkpt lat="43.7165858" lon="11.2222124"><ele>68.0</ele><time>2026-03-29T08:37:39.856Z</time></trkpt><trkpt lat="43.7164334" lon="11.2221245"><ele>68.0</ele><time>2026-03-29T08:37:40.856Z</time></trkpt><trkpt lat="43.7162837" lon="11.2220272"><ele>68.0</ele><time>2026-03-29T08:37:41.854Z</time></trkpt><trkpt lat="43.7161356" lon="11.2219385"><ele>68.0</ele><time>2026-03-29T08:37:42.86Z</time></trkpt><trkpt lat="43.7159808" lon="11.2218686"><ele>67.66666666666667</ele><time>2026-03-29T08:37:43.888Z</time></trkpt><trkpt lat="43.7158163" lon="11.2218263"><ele>67.33333333333333</ele><time>2026-03-29T08:37:44.855Z</time></trkpt><trkpt lat="43.7156538" lon="11.2217938"><ele>67.0</ele><time>2026-03-29T08:37:45.855Z</time></trkpt><trkpt lat="43.7154952" lon="11.2217613"><ele>67.0</ele><time>2026-03-29T08:37:46.883Z</time></trkpt><trkpt lat="43.715346" lon="11.2217126"><ele>67.0</ele><time>2026-03-29T08:37:47.856Z</time></trkpt><trkpt lat="43.7152049" lon="11.2216446"><ele>67.0</ele><time>2026-03-29T08:37:48.856Z</time></trkpt><trkpt lat="43.7150697" lon="11.2215522"><ele>67.33333333333333</ele><time>2026-03-29T08:37:49.858Z</time></trkpt><trkpt lat="43.7149333" lon="11.2214449"><ele>67.66666666666667</ele><time>2026-03-29T08:37:50.854Z</time></trkpt><trkpt lat="43.7147955" lon="11.2213347"><ele>68.0</ele><time>2026-03-29T08:37:51.857Z</time></trkpt><trkpt lat="43.7146527" lon="11.2212432"><ele>68.0</ele><time>2026-03-29T08:37:52.855Z</time></trkpt><trkpt lat="43.7145035" lon="11.2211833"><ele>68.0</ele><time>2026-03-29T08:37:53.853Z</time></trkpt><trkpt lat="43.7143551" lon="11.2211503"><ele>68.0</ele><time>2026-03-29T08:37:54.857Z</time></trkpt><trkpt lat="43.714214" lon="11.221112"><ele>68.0</ele><time>2026-03-29T08:37:55.866Z</time></trkpt><trkpt lat="43.7140791" lon="11.2210661"><ele>69.0</ele><time>2026-03-29T08:37:56.856Z</time></trkpt><trkpt lat="43.7139442" lon="11.2210083"><ele>70.0</ele><time>2026-03-29T08:37:57.86Z</time></trkpt><trkpt lat="43.7138218" lon="11.2209359"><ele>71.0</ele><time>2026-03-29T08:37:58.882Z</time></trkpt><trkpt lat="43.7137204" lon="11.2208562"><ele>72.0</ele><time>2026-03-29T08:37:59.855Z</time></trkpt><trkpt lat="43.7136383" lon="11.2207761"><ele>72.0</ele><time>2026-03-29T08:38:00.883Z</time></trkpt><trkpt lat="43.7135765" lon="11.2207086"><ele>72.0</ele><time>2026-03-29T08:38:01.882Z</time></trkpt><trkpt lat="43.7135237" lon="11.2206482"><ele>72.0</ele><time>2026-03-29T08:38:02.853Z</time></trkpt><trkpt lat="43.7134202" lon="11.2205529"><ele>72.0</ele><time>2026-03-29T08:38:04.853Z</time></trkpt><trkpt lat="43.7133519" lon="11.2205014"><ele>72.0</ele><time>2026-03-29T08:38:05.887Z</time></trkpt><trkpt lat="43.7132722" lon="11.2204331"><ele>72.0</ele><time>2026-03-29T08:38:06.884Z</time></trkpt><trkpt lat="43.7131794" lon="11.2203549"><ele>71.75</ele><time>2026-03-29T08:38:07.858Z</time></trkpt><trkpt lat="43.713081" lon="11.2202644"><ele>71.5</ele><time>2026-03-29T08:38:08.857Z</time></trkpt><trkpt lat="43.7129815" lon="11.2201708"><ele>71.25</ele><time>2026-03-29T08:38:09.883Z</time></trkpt><trkpt lat="43.7128846" lon="11.2200745"><ele>71.0</ele><time>2026-03-29T08:38:10.887Z</time></trkpt><trkpt lat="43.7127938" lon="11.2199847"><ele>71.2</ele><time>2026-03-29T08:38:11.891Z</time></trkpt><trkpt lat="43.7127094" lon="11.2198966"><ele>71.39999999999999</ele><time>2026-03-29T08:38:12.859Z</time></trkpt><trkpt lat="43.7126223" lon="11.2198097"><ele>71.6</ele><time>2026-03-29T08:38:13.858Z</time></trkpt><trkpt lat="43.7125359" lon="11.2197241"><ele>71.8</ele><time>2026-03-29T08:38:14.859Z</time></trkpt><trkpt lat="43.7124421" lon="11.2196439"><ele>72.0</ele><time>2026-03-29T08:38:15.89Z</time></trkpt><trkpt lat="43.712357" lon="11.2195582"><ele>72.0</ele><time>2026-03-29T08:38:16.858Z</time></trkpt><trkpt lat="43.7122786" lon="11.2194632"><ele>72.0</ele><time>2026-03-29T08:38:17.855Z</time></trkpt><trkpt lat="43.7122034" lon="11.2193688"><ele>72.0</ele><time>2026-03-29T08:38:18.863Z</time></trkpt><trkpt lat="43.7121184" lon="11.219264"><ele>72.0</ele><time>2026-03-29T08:38:19.87Z</time></trkpt><trkpt lat="43.7120183" lon="11.2191448"><ele>72.0</ele><time>2026-03-29T08:38:20.856Z</time></trkpt><trkpt lat="43.7119188" lon="11.2190159"><ele>72.0</ele><time>2026-03-29T08:38:21.887Z</time></trkpt><trkpt lat="43.7118235" lon="11.2188915"><ele>72.0</ele><time>2026-03-29T08:38:22.883Z</time></trkpt><trkpt lat="43.7117311" lon="11.218768"><ele>72.0</ele><time>2026-03-29T08:38:23.884Z</time></trkpt><trkpt lat="43.7116441" lon="11.2186412"><ele>72.0</ele><time>2026-03-29T08:38:24.883Z</time></trkpt><trkpt lat="43.7115577" lon="11.2185152"><ele>72.0</ele><time>2026-03-29T08:38:25.885Z</time></trkpt><trkpt lat="43.7114693" lon="11.2183812"><ele>72.0</ele><time>2026-03-29T08:38:26.886Z</time></trkpt><trkpt lat="43.7113762" lon="11.2182437"><ele>72.0</ele><time>2026-03-29T08:38:27.863Z</time></trkpt><trkpt lat="43.7112811" lon="11.2181097"><ele>72.0</ele><time>2026-03-29T08:38:28.889Z</time></trkpt><trkpt lat="43.711187" lon="11.2179821"><ele>72.0</ele><time>2026-03-29T08:38:29.859Z</time></trkpt><trkpt lat="43.7111002" lon="11.2178529"><ele>72.0</ele><time>2026-03-29T08:38:30.859Z</time></trkpt><trkpt lat="43.7110122" lon="11.2177202"><ele>72.0</ele><time>2026-03-29T08:38:31.889Z</time></trkpt><trkpt lat="43.7109295" lon="11.2175886"><ele>72.0</ele><time>2026-03-29T08:38:32.855Z</time></trkpt><trkpt lat="43.710844" lon="11.2174538"><ele>72.0</ele><time>2026-03-29T08:38:33.857Z</time></trkpt><trkpt lat="43.7107581" lon="11.2173168"><ele>72.0</ele><time>2026-03-29T08:38:34.853Z</time></trkpt><trkpt lat="43.7106617" lon="11.2171788"><ele>72.0</ele><time>2026-03-29T08:38:35.86Z</time></trkpt><trkpt lat="43.7105646" lon="11.2170382"><ele>71.75</ele><time>2026-03-29T08:38:36.855Z</time></trkpt><trkpt lat="43.7104684" lon="11.2169013"><ele>71.5</ele><time>2026-03-29T08:38:37.86Z</time></trkpt><trkpt lat="43.7103767" lon="11.2167633"><ele>71.25</ele><time>2026-03-29T08:38:38.859Z</time></trkpt><trkpt lat="43.7102841" lon="11.216628"><ele>71.0</ele><time>2026-03-29T08:38:39.857Z</time></trkpt><trkpt lat="43.7101941" lon="11.2164959"><ele>71.39999999999999</ele><time>2026-03-29T08:38:40.86Z</time></trkpt><trkpt lat="43.7101138" lon="11.2163747"><ele>71.8</ele><time>2026-03-29T08:38:41.855Z</time></trkpt><trkpt lat="43.7100464" lon="11.2162689"><ele>72.19999999999999</ele><time>2026-03-29T08:38:42.89Z</time></trkpt><trkpt lat="43.7099923" lon="11.2161819"><ele>72.6</ele><time>2026-03-29T08:38:43.856Z</time></trkpt><trkpt lat="43.7099539" lon="11.2161072"><ele>73.0</ele><time>2026-03-29T08:38:44.853Z</time></trkpt><trkpt lat="43.7099073" lon="11.2159994"><ele>73.0</ele><time>2026-03-29T08:38:46.858Z</time></trkpt><trkpt lat="43.7098556" lon="11.2158666"><ele>73.0</ele><time>2026-03-29T08:38:48.885Z</time></trkpt><trkpt lat="43.7098182" lon="11.2157634"><ele>73.0</ele><time>2026-03-29T08:38:49.886Z</time></trkpt><trkpt lat="43.7097777" lon="11.2156391"><ele>73.0</ele><time>2026-03-29T08:38:50.864Z</time></trkpt><trkpt lat="43.7097325" lon="11.2155052"><ele>73.0</ele><time>2026-03-29T08:38:51.861Z</time></trkpt><trkpt lat="43.7096924" lon="11.2153535"><ele>73.0</ele><time>2026-03-29T08:38:52.855Z</time></trkpt><trkpt lat="43.7096588" lon="11.2151932"><ele>73.0</ele><time>2026-03-29T08:38:53.889Z</time></trkpt><trkpt lat="43.709617" lon="11.2150264"><ele>73.0</ele><time>2026-03-29T08:38:54.854Z</time></trkpt><trkpt lat="43.7095768" lon="11.2148604"><ele>73.0</ele><time>2026-03-29T08:38:55.859Z</time></trkpt><trkpt lat="43.7095337" lon="11.2146935"><ele>72.75</ele><time>2026-03-29T08:38:56.862Z</time></trkpt><trkpt lat="43.7094964" lon="11.2145274"><ele>72.5</ele><time>2026-03-29T08:38:57.855Z</time></trkpt><trkpt lat="43.7094597" lon="11.2143628"><ele>72.25</ele><time>2026-03-29T08:38:58.867Z</time></trkpt><trkpt lat="43.7094436" lon="11.2142056"><ele>72.0</ele><time>2026-03-29T08:38:59.855Z</time></trkpt><trkpt lat="43.7094488" lon="11.2140446"><ele>72.25</ele><time>2026-03-29T08:39:00.854Z</time></trkpt><trkpt lat="43.7094551" lon="11.2138694"><ele>72.5</ele><time>2026-03-29T08:39:01.855Z</time></trkpt><trkpt lat="43.7094861" lon="11.2137021"><ele>72.75</ele><time>2026-03-29T08:39:02.884Z</time></trkpt><trkpt lat="43.7095311" lon="11.2135306"><ele>73.0</ele><time>2026-03-29T08:39:03.85Z</time></trkpt><trkpt lat="43.7095792" lon="11.213359"><ele>73.0</ele><time>2026-03-29T08:39:04.856Z</time></trkpt><trkpt lat="43.7096368" lon="11.2131983"><ele>73.0</ele><time>2026-03-29T08:39:05.88Z</time></trkpt><trkpt lat="43.7096928" lon="11.2130362"><ele>73.0</ele><time>2026-03-29T08:39:06.859Z</time></trkpt><trkpt lat="43.709738" lon="11.2128843"><ele>73.0</ele><time>2026-03-29T08:39:07.852Z</time></trkpt><trkpt lat="43.7097694" lon="11.2127595"><ele>73.0</ele><time>2026-03-29T08:39:08.857Z</time></trkpt><trkpt lat="43.709776" lon="11.2126645"><ele>73.0</ele><time>2026-03-29T08:39:09.854Z</time></trkpt><trkpt lat="43.7097551" lon="11.2125659"><ele>73.0</ele><time>2026-03-29T08:39:11.883Z</time></trkpt><trkpt lat="43.709734" lon="11.2124557"><ele>73.0</ele><time>2026-03-29T08:39:14.855Z</time></trkpt><trkpt lat="43.7097416" lon="11.2123188"><ele>73.0</ele><time>2026-03-29T08:39:30.862Z</time></trkpt><trkpt lat="43.7097281" lon="11.2122225"><ele>73.0</ele><time>2026-03-29T08:39:31.86Z</time></trkpt><trkpt lat="43.7096857" lon="11.212091"><ele>73.0</ele><time>2026-03-29T08:39:32.892Z</time></trkpt><trkpt lat="43.7096639" lon="11.2119492"><ele>73.0</ele><time>2026-03-29T08:39:33.893Z</time></trkpt><trkpt lat="43.7096464" lon="11.2117959"><ele>73.0</ele><time>2026-03-29T08:39:34.877Z</time></trkpt><trkpt lat="43.7096241" lon="11.2116208"><ele>73.0</ele><time>2026-03-29T08:39:35.868Z</time></trkpt><trkpt lat="43.7096126" lon="11.2114385"><ele>73.5</ele><time>2026-03-29T08:39:36.874Z</time></trkpt><trkpt lat="43.7096079" lon="11.2112576"><ele>74.0</ele><time>2026-03-29T08:39:37.865Z</time></trkpt><trkpt lat="43.7096058" lon="11.2110888"><ele>74.5</ele><time>2026-03-29T08:39:38.871Z</time></trkpt><trkpt lat="43.7095836" lon="11.2109137"><ele>75.0</ele><time>2026-03-29T08:39:39.858Z</time></trkpt><trkpt lat="43.7095397" lon="11.2107456"><ele>74.75</ele><time>2026-03-29T08:39:40.871Z</time></trkpt><trkpt lat="43.7094605" lon="11.2105982"><ele>74.5</ele><time>2026-03-29T08:39:41.872Z</time></trkpt><trkpt lat="43.7093519" lon="11.210469"><ele>74.25</ele><time>2026-03-29T08:39:42.868Z</time></trkpt><trkpt lat="43.709226" lon="11.2103437"><ele>74.0</ele><time>2026-03-29T08:39:43.869Z</time></trkpt><trkpt lat="43.7090976" lon="11.2102074"><ele>74.0</ele><time>2026-03-29T08:39:44.872Z</time></trkpt><trkpt lat="43.7089665" lon="11.2100765"><ele>74.0</ele><time>2026-03-29T08:39:45.88Z</time></trkpt><trkpt lat="43.7088429" lon="11.2099543"><ele>74.0</ele><time>2026-03-29T08:39:46.857Z</time></trkpt><trkpt lat="43.7087266" lon="11.2098289"><ele>74.66666666666667</ele><time>2026-03-29T08:39:47.859Z</time></trkpt><trkpt lat="43.7086013" lon="11.2096993"><ele>75.33333333333333</ele><time>2026-03-29T08:39:48.86Z</time></trkpt><trkpt lat="43.7084731" lon="11.2095698"><ele>76.0</ele><time>2026-03-29T08:39:49.922Z</time></trkpt><trkpt lat="43.7083524" lon="11.2094194"><ele>76.0</ele><time>2026-03-29T08:39:50.881Z</time></trkpt><trkpt lat="43.7082348" lon="11.2092569"><ele>76.0</ele><time>2026-03-29T08:39:51.85Z</time></trkpt><trkpt lat="43.7081177" lon="11.2090517"><ele>76.0</ele><time>2026-03-29T08:39:52.859Z</time></trkpt><trkpt lat="43.7080193" lon="11.2088491"><ele>77.66666666666666</ele><time>2026-03-29T08:39:53.854Z</time></trkpt><trkpt lat="43.7079193" lon="11.2086565"><ele>79.33333333333333</ele><time>2026-03-29T08:39:54.857Z</time></trkpt><trkpt lat="43.7078122" lon="11.2084801"><ele>81.0</ele><time>2026-03-29T08:39:55.859Z</time></trkpt><trkpt lat="43.7077009" lon="11.2083203"><ele>81.33333333333333</ele><time>2026-03-29T08:39:56.865Z</time></trkpt><trkpt lat="43.7075843" lon="11.2081837"><ele>81.66666666666666</ele><time>2026-03-29T08:39:57.854Z</time></trkpt><trkpt lat="43.707456" lon="11.2080616"><ele>82.0</ele><time>2026-03-29T08:39:58.86Z</time></trkpt><trkpt lat="43.7073046" lon="11.2079543"><ele>83.0</ele><time>2026-03-29T08:39:59.853Z</time></trkpt><trkpt lat="43.7071293" lon="11.2078868"><ele>84.0</ele><time>2026-03-29T08:40:00.859Z</time></trkpt><trkpt lat="43.7069623" lon="11.2078595"><ele>85.0</ele><time>2026-03-29T08:40:01.884Z</time></trkpt><trkpt lat="43.7068021" lon="11.2078387"><ele>85.0</ele><time>2026-03-29T08:40:02.883Z</time></trkpt><trkpt lat="43.7066386" lon="11.2077782"><ele>85.0</ele><time>2026-03-29T08:40:03.883Z</time></trkpt><trkpt lat="43.7064752" lon="11.2077015"><ele>85.0</ele><time>2026-03-29T08:40:04.854Z</time></trkpt><trkpt lat="43.7063171" lon="11.2076062"><ele>85.0</ele><time>2026-03-29T08:40:05.856Z</time></trkpt><trkpt lat="43.7061657" lon="11.2075111"><ele>85.0</ele><time>2026-03-29T08:40:06.853Z</time></trkpt><trkpt lat="43.7060119" lon="11.2074135"><ele>85.0</ele><time>2026-03-29T08:40:07.859Z</time></trkpt><trkpt lat="43.7058619" lon="11.2073123"><ele>84.0</ele><time>2026-03-29T08:40:08.853Z</time></trkpt><trkpt lat="43.7056994" lon="11.2072147"><ele>83.0</ele><time>2026-03-29T08:40:09.868Z</time></trkpt><trkpt lat="43.7055325" lon="11.2071533"><ele>82.0</ele><time>2026-03-29T08:40:10.885Z</time></trkpt><trkpt lat="43.7053637" lon="11.2071393"><ele>81.33333333333333</ele><time>2026-03-29T08:40:11.855Z</time></trkpt><trkpt lat="43.7051947" lon="11.207179"><ele>80.66666666666667</ele><time>2026-03-29T08:40:12.871Z</time></trkpt><trkpt lat="43.7050345" lon="11.2072572"><ele>80.0</ele><time>2026-03-29T08:40:13.856Z</time></trkpt><trkpt lat="43.7048773" lon="11.207386"><ele>84.66666666666667</ele><time>2026-03-29T08:40:14.881Z</time></trkpt><trkpt lat="43.7047431" lon="11.2075453"><ele>89.33333333333333</ele><time>2026-03-29T08:40:15.858Z</time></trkpt><trkpt lat="43.7046161" lon="11.2077084"><ele>94.0</ele><time>2026-03-29T08:40:16.871Z</time></trkpt><trkpt lat="43.7044986" lon="11.2078741"><ele>91.33333333333333</ele><time>2026-03-29T08:40:17.886Z</time></trkpt><trkpt lat="43.7043728" lon="11.2080277"><ele>88.66666666666667</ele><time>2026-03-29T08:40:18.856Z</time></trkpt><trkpt lat="43.7042632" lon="11.2081966"><ele>86.0</ele><time>2026-03-29T08:40:19.856Z</time></trkpt><trkpt lat="43.7041616" lon="11.2084159"><ele>91.33333333333334</ele><time>2026-03-29T08:40:20.853Z</time></trkpt><trkpt lat="43.7040782" lon="11.2086525"><ele>96.66666666666667</ele><time>2026-03-29T08:40:21.853Z</time></trkpt><trkpt lat="43.7040243" lon="11.2088988"><ele>102.0</ele><time>2026-03-29T08:40:22.857Z</time></trkpt><trkpt lat="43.7039875" lon="11.2091505"><ele>107.66666666666666</ele><time>2026-03-29T08:40:23.86Z</time></trkpt><trkpt lat="43.7039689" lon="11.2093999"><ele>113.33333333333333</ele><time>2026-03-29T08:40:24.888Z</time></trkpt><trkpt lat="43.7039677" lon="11.2096546"><ele>119.0</ele><time>2026-03-29T08:40:25.892Z</time></trkpt><trkpt lat="43.7039888" lon="11.2099079"><ele>119.33333333333333</ele><time>2026-03-29T08:40:26.854Z</time></trkpt><trkpt lat="43.7040148" lon="11.2101668"><ele>119.66666666666666</ele><time>2026-03-29T08:40:27.866Z</time></trkpt><trkpt lat="43.7040536" lon="11.210418"><ele>120.0</ele><time>2026-03-29T08:40:28.853Z</time></trkpt><trkpt lat="43.7040849" lon="11.2106681"><ele>120.0</ele><time>2026-03-29T08:40:29.854Z</time></trkpt><trkpt lat="43.7040947" lon="11.2109183"><ele>120.0</ele><time>2026-03-29T08:40:30.855Z</time></trkpt><trkpt lat="43.7040696" lon="11.2111634"><ele>120.0</ele><time>2026-03-29T08:40:31.854Z</time></trkpt><trkpt lat="43.7040152" lon="11.2113979"><ele>123.33333333333334</ele><time>2026-03-29T08:40:32.857Z</time></trkpt><trkpt lat="43.70395" lon="11.2116242"><ele>126.66666666666667</ele><time>2026-03-29T08:40:33.883Z</time></trkpt><trkpt lat="43.7038864" lon="11.2118279"><ele>130.0</ele><time>2026-03-29T08:40:34.891Z</time></trkpt><trkpt lat="43.7038333" lon="11.2120195"><ele>130.0</ele><time>2026-03-29T08:40:35.887Z</time></trkpt><trkpt lat="43.7037913" lon="11.2121965"><ele>130.0</ele><time>2026-03-29T08:40:36.887Z</time></trkpt><trkpt lat="43.7037614" lon="11.2123556"><ele>130.0</ele><time>2026-03-29T08:40:37.853Z</time></trkpt><trkpt lat="43.7037402" lon="11.212505"><ele>130.0</ele><time>2026-03-29T08:40:38.855Z</time></trkpt><trkpt lat="43.7037252" lon="11.2126521"><ele>132.0</ele><time>2026-03-29T08:40:39.888Z</time></trkpt><trkpt lat="43.7037132" lon="11.2127993"><ele>134.0</ele><time>2026-03-29T08:40:40.854Z</time></trkpt><trkpt lat="43.7037035" lon="11.212966"><ele>136.0</ele><time>2026-03-29T08:40:41.855Z</time></trkpt><trkpt lat="43.7036772" lon="11.2131406"><ele>138.0</ele><time>2026-03-29T08:40:42.854Z</time></trkpt><trkpt lat="43.7036316" lon="11.2133162"><ele>140.75</ele><time>2026-03-29T08:40:43.854Z</time></trkpt><trkpt lat="43.7036034" lon="11.2135054"><ele>143.5</ele><time>2026-03-29T08:40:44.856Z</time></trkpt><trkpt lat="43.703571" lon="11.2136948"><ele>146.25</ele><time>2026-03-29T08:40:45.858Z</time></trkpt><trkpt lat="43.7035361" lon="11.213882"><ele>149.0</ele><time>2026-03-29T08:40:46.854Z</time></trkpt><trkpt lat="43.7034933" lon="11.2140649"><ele>137.25</ele><time>2026-03-29T08:40:47.853Z</time></trkpt><trkpt lat="43.7034376" lon="11.2142417"><ele>125.5</ele><time>2026-03-29T08:40:48.887Z</time></trkpt><trkpt lat="43.7033584" lon="11.2144121"><ele>113.75</ele><time>2026-03-29T08:40:49.857Z</time></trkpt><trkpt lat="43.703254" lon="11.2145702"><ele>102.0</ele><time>2026-03-29T08:40:50.86Z</time></trkpt><trkpt lat="43.7031331" lon="11.2147148"><ele>101.33333333333334</ele><time>2026-03-29T08:40:51.86Z</time></trkpt><trkpt lat="43.7030092" lon="11.214851"><ele>100.66666666666667</ele><time>2026-03-29T08:40:52.862Z</time></trkpt><trkpt lat="43.7028749" lon="11.2149776"><ele>100.0</ele><time>2026-03-29T08:40:53.88Z</time></trkpt><trkpt lat="43.7027386" lon="11.2150978"><ele>96.0</ele><time>2026-03-29T08:40:54.883Z</time></trkpt><trkpt lat="43.7025965" lon="11.2151942"><ele>92.0</ele><time>2026-03-29T08:40:55.851Z</time></trkpt><trkpt lat="43.7024403" lon="11.2152712"><ele>88.0</ele><time>2026-03-29T08:40:56.859Z</time></trkpt><trkpt lat="43.7022726" lon="11.215322"><ele>88.0</ele><time>2026-03-29T08:40:57.857Z</time></trkpt><trkpt lat="43.7020829" lon="11.2153534"><ele>88.0</ele><time>2026-03-29T08:40:58.86Z</time></trkpt><trkpt lat="43.7018843" lon="11.2153636"><ele>88.0</ele><time>2026-03-29T08:40:59.851Z</time></trkpt><trkpt lat="43.7016934" lon="11.2153395"><ele>87.66666666666666</ele><time>2026-03-29T08:41:00.855Z</time></trkpt><trkpt lat="43.7015101" lon="11.2152919"><ele>87.33333333333333</ele><time>2026-03-29T08:41:01.851Z</time></trkpt><trkpt lat="43.7013423" lon="11.2152234"><ele>87.0</ele><time>2026-03-29T08:41:02.886Z</time></trkpt><trkpt lat="43.701181" lon="11.2151224"><ele>86.66666666666667</ele><time>2026-03-29T08:41:03.857Z</time></trkpt><trkpt lat="43.7010283" lon="11.2149885"><ele>86.33333333333334</ele><time>2026-03-29T08:41:04.849Z</time></trkpt><trkpt lat="43.7008879" lon="11.2148218"><ele>86.0</ele><time>2026-03-29T08:41:05.854Z</time></trkpt><trkpt lat="43.700755" lon="11.2146384"><ele>86.0</ele><time>2026-03-29T08:41:06.884Z</time></trkpt><trkpt lat="43.70064" lon="11.2144458"><ele>86.0</ele><time>2026-03-29T08:41:07.861Z</time></trkpt><trkpt lat="43.7005462" lon="11.2142524"><ele>86.0</ele><time>2026-03-29T08:41:08.857Z</time></trkpt><trkpt lat="43.7004657" lon="11.2140631"><ele>86.0</ele><time>2026-03-29T08:41:09.889Z</time></trkpt><trkpt lat="43.7003984" lon="11.2138776"><ele>86.0</ele><time>2026-03-29T08:41:10.859Z</time></trkpt><trkpt lat="43.7003539" lon="11.2137102"><ele>86.0</ele><time>2026-03-29T08:41:11.886Z</time></trkpt><trkpt lat="43.7003222" lon="11.2135522"><ele>86.0</ele><time>2026-03-29T08:41:12.886Z</time></trkpt><trkpt lat="43.7002952" lon="11.2134074"><ele>86.0</ele><time>2026-03-29T08:41:13.856Z</time></trkpt><trkpt lat="43.7002741" lon="11.2132225"><ele>86.0</ele><time>2026-03-29T08:41:14.85Z</time></trkpt><trkpt lat="43.7002569" lon="11.2130938"><ele>86.0</ele><time>2026-03-29T08:41:15.856Z</time></trkpt><trkpt lat="43.7002045" lon="11.2129265"><ele>86.0</ele><time>2026-03-29T08:41:16.88Z</time></trkpt><trkpt lat="43.7001295" lon="11.2127669"><ele>85.5</ele><time>2026-03-29T08:41:17.864Z</time></trkpt><trkpt lat="43.7000426" lon="11.2126275"><ele>85.0</ele><time>2026-03-29T08:41:18.855Z</time></trkpt><trkpt lat="43.6999471" lon="11.2124971"><ele>84.5</ele><time>2026-03-29T08:41:19.86Z</time></trkpt><trkpt lat="43.6998448" lon="11.2123782"><ele>84.0</ele><time>2026-03-29T08:41:20.892Z</time></trkpt><trkpt lat="43.6997209" lon="11.2122628"><ele>85.0</ele><time>2026-03-29T08:41:21.858Z</time></trkpt><trkpt lat="43.6995826" lon="11.2121522"><ele>86.0</ele><time>2026-03-29T08:41:22.854Z</time></trkpt><trkpt lat="43.6994184" lon="11.2120458"><ele>87.0</ele><time>2026-03-29T08:41:23.855Z</time></trkpt><trkpt lat="43.6992355" lon="11.2119432"><ele>87.0</ele><time>2026-03-29T08:41:24.89Z</time></trkpt><trkpt lat="43.6990429" lon="11.2118436"><ele>87.0</ele><time>2026-03-29T08:41:25.858Z</time></trkpt><trkpt lat="43.6988479" lon="11.2117636"><ele>87.0</ele><time>2026-03-29T08:41:26.854Z</time></trkpt><trkpt lat="43.6986536" lon="11.2116919"><ele>87.66666666666667</ele><time>2026-03-29T08:41:27.887Z</time></trkpt><trkpt lat="43.6984614" lon="11.2116192"><ele>88.33333333333334</ele><time>2026-03-29T08:41:28.889Z</time></trkpt><trkpt lat="43.6982685" lon="11.2115435"><ele>89.0</ele><time>2026-03-29T08:41:29.854Z</time></trkpt><trkpt lat="43.6980718" lon="11.2114683"><ele>87.33333333333334</ele><time>2026-03-29T08:41:30.859Z</time></trkpt><trkpt lat="43.6978766" lon="11.2113929"><ele>85.66666666666667</ele><time>2026-03-29T08:41:31.855Z</time></trkpt><trkpt lat="43.6976828" lon="11.2113206"><ele>84.0</ele><time>2026-03-29T08:41:32.858Z</time></trkpt><trkpt lat="43.6974892" lon="11.2112636"><ele>84.0</ele><time>2026-03-29T08:41:33.857Z</time></trkpt><trkpt lat="43.6972837" lon="11.2112159"><ele>84.0</ele><time>2026-03-29T08:41:34.853Z</time></trkpt><trkpt lat="43.6970773" lon="11.2111813"><ele>84.0</ele><time>2026-03-29T08:41:35.858Z</time></trkpt><trkpt lat="43.6968704" lon="11.2111617"><ele>86.0</ele><time>2026-03-29T08:41:36.851Z</time></trkpt><trkpt lat="43.6966636" lon="11.2111528"><ele>88.0</ele><time>2026-03-29T08:41:37.854Z</time></trkpt><trkpt lat="43.6964631" lon="11.2111574"><ele>90.0</ele><time>2026-03-29T08:41:38.884Z</time></trkpt><trkpt lat="43.6962594" lon="11.2111595"><ele>90.0</ele><time>2026-03-29T08:41:39.882Z</time></trkpt><trkpt lat="43.6960552" lon="11.2111743"><ele>90.0</ele><time>2026-03-29T08:41:40.857Z</time></trkpt><trkpt lat="43.6958643" lon="11.2111935"><ele>90.0</ele><time>2026-03-29T08:41:41.882Z</time></trkpt><trkpt lat="43.6956727" lon="11.2112237"><ele>90.0</ele><time>2026-03-29T08:41:42.887Z</time></trkpt><trkpt lat="43.6954887" lon="11.2112779"><ele>90.0</ele><time>2026-03-29T08:41:43.852Z</time></trkpt><trkpt lat="43.695307" lon="11.2113478"><ele>90.0</ele><time>2026-03-29T08:41:44.86Z</time></trkpt><trkpt lat="43.6951327" lon="11.2114274"><ele>90.66666666666667</ele><time>2026-03-29T08:41:45.856Z</time></trkpt><trkpt lat="43.6949651" lon="11.2115077"><ele>91.33333333333334</ele><time>2026-03-29T08:41:46.852Z</time></trkpt><trkpt lat="43.6948058" lon="11.2115937"><ele>92.0</ele><time>2026-03-29T08:41:47.888Z</time></trkpt><trkpt lat="43.6946483" lon="11.2116749"><ele>92.0</ele><time>2026-03-29T08:41:48.853Z</time></trkpt><trkpt lat="43.6944945" lon="11.211758"><ele>92.0</ele><time>2026-03-29T08:41:49.882Z</time></trkpt><trkpt lat="43.6943431" lon="11.2118413"><ele>92.0</ele><time>2026-03-29T08:41:50.881Z</time></trkpt><trkpt lat="43.6941935" lon="11.2119257"><ele>90.66666666666667</ele><time>2026-03-29T08:41:51.857Z</time></trkpt><trkpt lat="43.6940447" lon="11.2120066"><ele>89.33333333333333</ele><time>2026-03-29T08:41:52.855Z</time></trkpt><trkpt lat="43.693898" lon="11.2120852"><ele>88.0</ele><time>2026-03-29T08:41:53.86Z</time></trkpt><trkpt lat="43.6937518" lon="11.212163"><ele>88.0</ele><time>2026-03-29T08:41:54.884Z</time></trkpt><trkpt lat="43.6936077" lon="11.2122459"><ele>88.0</ele><time>2026-03-29T08:41:55.858Z</time></trkpt><trkpt lat="43.6934632" lon="11.2123272"><ele>88.0</ele><time>2026-03-29T08:41:56.854Z</time></trkpt><trkpt lat="43.6933168" lon="11.212404"><ele>91.0</ele><time>2026-03-29T08:41:57.854Z</time></trkpt><trkpt lat="43.6931683" lon="11.2124822"><ele>94.0</ele><time>2026-03-29T08:41:58.854Z</time></trkpt><trkpt lat="43.6930166" lon="11.2125599"><ele>97.0</ele><time>2026-03-29T08:41:59.855Z</time></trkpt><trkpt lat="43.6928594" lon="11.2126286"><ele>95.0</ele><time>2026-03-29T08:42:00.856Z</time></trkpt><trkpt lat="43.6926928" lon="11.2126837"><ele>93.0</ele><time>2026-03-29T08:42:01.853Z</time></trkpt><trkpt lat="43.6925207" lon="11.2127252"><ele>91.0</ele><time>2026-03-29T08:42:02.888Z</time></trkpt><trkpt lat="43.6923466" lon="11.2127515"><ele>91.0</ele><time>2026-03-29T08:42:03.854Z</time></trkpt><trkpt lat="43.692168" lon="11.2127442"><ele>91.0</ele><time>2026-03-29T08:42:04.854Z</time></trkpt><trkpt lat="43.6919921" lon="11.2127094"><ele>91.0</ele><time>2026-03-29T08:42:05.855Z</time></trkpt><trkpt lat="43.6918233" lon="11.2126484"><ele>91.33333333333333</ele><time>2026-03-29T08:42:06.853Z</time></trkpt><trkpt lat="43.6916492" lon="11.2125637"><ele>91.66666666666667</ele><time>2026-03-29T08:42:07.857Z</time></trkpt><trkpt lat="43.6914747" lon="11.2124725"><ele>92.0</ele><time>2026-03-29T08:42:08.854Z</time></trkpt><trkpt lat="43.6912957" lon="11.2123806"><ele>91.66666666666667</ele><time>2026-03-29T08:42:09.896Z</time></trkpt><trkpt lat="43.6911087" lon="11.2122852"><ele>91.33333333333333</ele><time>2026-03-29T08:42:10.853Z</time></trkpt><trkpt lat="43.6909226" lon="11.2121943"><ele>91.0</ele><time>2026-03-29T08:42:11.856Z</time></trkpt><trkpt lat="43.6907353" lon="11.2121055"><ele>91.33333333333333</ele><time>2026-03-29T08:42:12.858Z</time></trkpt><trkpt lat="43.6905462" lon="11.2120214"><ele>91.66666666666667</ele><time>2026-03-29T08:42:13.852Z</time></trkpt><trkpt lat="43.6903568" lon="11.2119425"><ele>92.0</ele><time>2026-03-29T08:42:14.887Z</time></trkpt><trkpt lat="43.6901682" lon="11.2118607"><ele>92.0</ele><time>2026-03-29T08:42:15.854Z</time></trkpt><trkpt lat="43.6899794" lon="11.2117812"><ele>92.0</ele><time>2026-03-29T08:42:16.859Z</time></trkpt><trkpt lat="43.6897901" lon="11.2117026"><ele>92.0</ele><time>2026-03-29T08:42:17.855Z</time></trkpt><trkpt lat="43.6896048" lon="11.2116253"><ele>92.33333333333334</ele><time>2026-03-29T08:42:18.853Z</time></trkpt><trkpt lat="43.6894071" lon="11.2115575"><ele>92.66666666666667</ele><time>2026-03-29T08:42:19.854Z</time></trkpt><trkpt lat="43.689217" lon="11.2115026"><ele>93.0</ele><time>2026-03-29T08:42:20.856Z</time></trkpt><trkpt lat="43.6890277" lon="11.2114705"><ele>92.33333333333333</ele><time>2026-03-29T08:42:21.85Z</time></trkpt><trkpt lat="43.6888368" lon="11.2114585"><ele>91.66666666666666</ele><time>2026-03-29T08:42:22.854Z</time></trkpt><trkpt lat="43.6886519" lon="11.2114482"><ele>91.0</ele><time>2026-03-29T08:42:23.859Z</time></trkpt><trkpt lat="43.6884694" lon="11.2114385"><ele>92.33333333333333</ele><time>2026-03-29T08:42:24.852Z</time></trkpt><trkpt lat="43.6882692" lon="11.2114366"><ele>93.66666666666667</ele><time>2026-03-29T08:42:25.856Z</time></trkpt><trkpt lat="43.6880656" lon="11.2114535"><ele>95.0</ele><time>2026-03-29T08:42:26.854Z</time></trkpt><trkpt lat="43.6878639" lon="11.2114622"><ele>97.33333333333334</ele><time>2026-03-29T08:42:27.879Z</time></trkpt><trkpt lat="43.6876621" lon="11.2114832"><ele>99.66666666666667</ele><time>2026-03-29T08:42:28.881Z</time></trkpt><trkpt lat="43.687462" lon="11.2115016"><ele>102.0</ele><time>2026-03-29T08:42:29.851Z</time></trkpt><trkpt lat="43.6872627" lon="11.2115164"><ele>102.0</ele><time>2026-03-29T08:42:30.858Z</time></trkpt><trkpt lat="43.6870618" lon="11.2115326"><ele>102.0</ele><time>2026-03-29T08:42:31.885Z</time></trkpt><trkpt lat="43.6868597" lon="11.2115511"><ele>102.0</ele><time>2026-03-29T08:42:32.855Z</time></trkpt><trkpt lat="43.6866586" lon="11.2115626"><ele>102.66666666666666</ele><time>2026-03-29T08:42:33.855Z</time></trkpt><trkpt lat="43.6864583" lon="11.2115754"><ele>103.33333333333333</ele><time>2026-03-29T08:42:34.853Z</time></trkpt><trkpt lat="43.6862605" lon="11.2115911"><ele>104.0</ele><time>2026-03-29T08:42:35.855Z</time></trkpt><trkpt lat="43.6860653" lon="11.2116165"><ele>105.0</ele><time>2026-03-29T08:42:36.852Z</time></trkpt><trkpt lat="43.6858725" lon="11.2116601"><ele>106.0</ele><time>2026-03-29T08:42:37.856Z</time></trkpt><trkpt lat="43.6856809" lon="11.2117119"><ele>107.0</ele><time>2026-03-29T08:42:38.854Z</time></trkpt><trkpt lat="43.6854855" lon="11.2117632"><ele>107.0</ele><time>2026-03-29T08:42:39.853Z</time></trkpt><trkpt lat="43.6852914" lon="11.2118195"><ele>107.0</ele><time>2026-03-29T08:42:40.884Z</time></trkpt><trkpt lat="43.6850966" lon="11.2118731"><ele>107.0</ele><time>2026-03-29T08:42:41.859Z</time></trkpt><trkpt lat="43.6849001" lon="11.2119249"><ele>108.66666666666666</ele><time>2026-03-29T08:42:42.85Z</time></trkpt><trkpt lat="43.6847041" lon="11.2119747"><ele>110.33333333333334</ele><time>2026-03-29T08:42:43.85Z</time></trkpt><trkpt lat="43.6845092" lon="11.2120219"><ele>112.0</ele><time>2026-03-29T08:42:44.858Z</time></trkpt><trkpt lat="43.6843158" lon="11.2120677"><ele>112.0</ele><time>2026-03-29T08:42:45.855Z</time></trkpt><trkpt lat="43.6841271" lon="11.2121187"><ele>112.0</ele><time>2026-03-29T08:42:46.857Z</time></trkpt><trkpt lat="43.6839384" lon="11.2121664"><ele>112.0</ele><time>2026-03-29T08:42:47.852Z</time></trkpt><trkpt lat="43.68375" lon="11.2122217"><ele>108.0</ele><time>2026-03-29T08:42:48.857Z</time></trkpt><trkpt lat="43.6835647" lon="11.2122902"><ele>104.0</ele><time>2026-03-29T08:42:49.855Z</time></trkpt><trkpt lat="43.6833856" lon="11.2123842"><ele>100.0</ele><time>2026-03-29T08:42:50.855Z</time></trkpt><trkpt lat="43.6832075" lon="11.2124932"><ele>99.0</ele><time>2026-03-29T08:42:51.854Z</time></trkpt><trkpt lat="43.683026" lon="11.2126092"><ele>98.0</ele><time>2026-03-29T08:42:52.851Z</time></trkpt><trkpt lat="43.6828454" lon="11.2127248"><ele>97.0</ele><time>2026-03-29T08:42:53.856Z</time></trkpt><trkpt lat="43.6826645" lon="11.2128215"><ele>97.0</ele><time>2026-03-29T08:42:54.853Z</time></trkpt><trkpt lat="43.6824764" lon="11.2128902"><ele>97.0</ele><time>2026-03-29T08:42:55.887Z</time></trkpt><trkpt lat="43.6822828" lon="11.2129096"><ele>97.0</ele><time>2026-03-29T08:42:56.853Z</time></trkpt><trkpt lat="43.6820892" lon="11.2128755"><ele>97.33333333333334</ele><time>2026-03-29T08:42:57.882Z</time></trkpt><trkpt lat="43.6819012" lon="11.2128174"><ele>97.66666666666666</ele><time>2026-03-29T08:42:58.857Z</time></trkpt><trkpt lat="43.6817085" lon="11.2127466"><ele>98.0</ele><time>2026-03-29T08:42:59.852Z</time></trkpt><trkpt lat="43.6815197" lon="11.212667"><ele>98.0</ele><time>2026-03-29T08:43:00.866Z</time></trkpt><trkpt lat="43.6813321" lon="11.212594"><ele>98.0</ele><time>2026-03-29T08:43:01.854Z</time></trkpt><trkpt lat="43.6811494" lon="11.2124924"><ele>98.0</ele><time>2026-03-29T08:43:02.855Z</time></trkpt><trkpt lat="43.6809683" lon="11.2123668"><ele>97.33333333333333</ele><time>2026-03-29T08:43:03.854Z</time></trkpt><trkpt lat="43.6807988" lon="11.2122194"><ele>96.66666666666666</ele><time>2026-03-29T08:43:04.874Z</time></trkpt><trkpt lat="43.6806422" lon="11.2120494"><ele>96.0</ele><time>2026-03-29T08:43:05.855Z</time></trkpt><trkpt lat="43.6804892" lon="11.2118709"><ele>96.0</ele><time>2026-03-29T08:43:06.857Z</time></trkpt><trkpt lat="43.6803369" lon="11.2116931"><ele>96.0</ele><time>2026-03-29T08:43:07.882Z</time></trkpt><trkpt lat="43.6801841" lon="11.2115114"><ele>96.0</ele><time>2026-03-29T08:43:08.854Z</time></trkpt><trkpt lat="43.680029" lon="11.2113301"><ele>96.0</ele><time>2026-03-29T08:43:09.856Z</time></trkpt><trkpt lat="43.6798721" lon="11.2111577"><ele>96.0</ele><time>2026-03-29T08:43:10.88Z</time></trkpt><trkpt lat="43.6797126" lon="11.2109879"><ele>96.0</ele><time>2026-03-29T08:43:11.85Z</time></trkpt><trkpt lat="43.6795517" lon="11.2108148"><ele>96.33333333333334</ele><time>2026-03-29T08:43:12.859Z</time></trkpt><trkpt lat="43.6793964" lon="11.2106464"><ele>96.66666666666667</ele><time>2026-03-29T08:43:13.863Z</time></trkpt><trkpt lat="43.6792492" lon="11.2104803"><ele>97.0</ele><time>2026-03-29T08:43:14.85Z</time></trkpt><trkpt lat="43.679122" lon="11.2103203"><ele>97.0</ele><time>2026-03-29T08:43:15.854Z</time></trkpt><trkpt lat="43.6790128" lon="11.2101678"><ele>97.0</ele><time>2026-03-29T08:43:16.854Z</time></trkpt><trkpt lat="43.6789165" lon="11.2100246"><ele>97.0</ele><time>2026-03-29T08:43:17.853Z</time></trkpt><trkpt lat="43.678813" lon="11.2098907"><ele>97.0</ele><time>2026-03-29T08:43:18.932Z</time></trkpt><trkpt lat="43.6786981" lon="11.2097641"><ele>97.0</ele><time>2026-03-29T08:43:19.851Z</time></trkpt><trkpt lat="43.6785729" lon="11.2096481"><ele>97.0</ele><time>2026-03-29T08:43:20.857Z</time></trkpt><trkpt lat="43.678441" lon="11.2095453"><ele>97.0</ele><time>2026-03-29T08:43:21.854Z</time></trkpt><trkpt lat="43.6782957" lon="11.209456"><ele>97.0</ele><time>2026-03-29T08:43:22.887Z</time></trkpt><trkpt lat="43.6781447" lon="11.2093873"><ele>97.0</ele><time>2026-03-29T08:43:23.857Z</time></trkpt><trkpt lat="43.6779982" lon="11.2093492"><ele>97.0</ele><time>2026-03-29T08:43:24.851Z</time></trkpt><trkpt lat="43.677858" lon="11.2093479"><ele>97.0</ele><time>2026-03-29T08:43:25.856Z</time></trkpt><trkpt lat="43.6777175" lon="11.2093651"><ele>97.75</ele><time>2026-03-29T08:43:26.868Z</time></trkpt><trkpt lat="43.6775816" lon="11.2094044"><ele>98.5</ele><time>2026-03-29T08:43:27.849Z</time></trkpt><trkpt lat="43.677448" lon="11.2094545"><ele>99.25</ele><time>2026-03-29T08:43:28.853Z</time></trkpt><trkpt lat="43.6773164" lon="11.2095152"><ele>100.0</ele><time>2026-03-29T08:43:29.86Z</time></trkpt><trkpt lat="43.6771892" lon="11.2095888"><ele>100.0</ele><time>2026-03-29T08:43:30.853Z</time></trkpt><trkpt lat="43.6770673" lon="11.2096736"><ele>100.0</ele><time>2026-03-29T08:43:31.852Z</time></trkpt><trkpt lat="43.6769501" lon="11.2097707"><ele>100.0</ele><time>2026-03-29T08:43:32.855Z</time></trkpt><trkpt lat="43.676839" lon="11.2098864"><ele>100.0</ele><time>2026-03-29T08:43:33.885Z</time></trkpt><trkpt lat="43.6767323" lon="11.2100142"><ele>101.0</ele><time>2026-03-29T08:43:34.854Z</time></trkpt><trkpt lat="43.6766285" lon="11.2101446"><ele>102.0</ele><time>2026-03-29T08:43:35.853Z</time></trkpt><trkpt lat="43.6765348" lon="11.2102751"><ele>103.0</ele><time>2026-03-29T08:43:36.882Z</time></trkpt><trkpt lat="43.676465" lon="11.2104273"><ele>104.0</ele><time>2026-03-29T08:43:37.851Z</time></trkpt><trkpt lat="43.676405" lon="11.2105892"><ele>106.75</ele><time>2026-03-29T08:43:38.858Z</time></trkpt><trkpt lat="43.6763539" lon="11.210764"><ele>109.5</ele><time>2026-03-29T08:43:39.86Z</time></trkpt><trkpt lat="43.6763131" lon="11.2109489"><ele>112.25</ele><time>2026-03-29T08:43:40.853Z</time></trkpt><trkpt lat="43.6762771" lon="11.2111352"><ele>115.0</ele><time>2026-03-29T08:43:41.853Z</time></trkpt><trkpt lat="43.6762517" lon="11.2113251"><ele>114.75</ele><time>2026-03-29T08:43:42.862Z</time></trkpt><trkpt lat="43.6762397" lon="11.2115156"><ele>114.5</ele><time>2026-03-29T08:43:43.852Z</time></trkpt><trkpt lat="43.6762332" lon="11.2116944"><ele>114.25</ele><time>2026-03-29T08:43:44.856Z</time></trkpt><trkpt lat="43.6762326" lon="11.2118603"><ele>114.0</ele><time>2026-03-29T08:43:45.856Z</time></trkpt><trkpt lat="43.6762313" lon="11.2120096"><ele>114.0</ele><time>2026-03-29T08:43:46.852Z</time></trkpt><trkpt lat="43.676233" lon="11.2121645"><ele>114.0</ele><time>2026-03-29T08:43:47.851Z</time></trkpt><trkpt lat="43.6762338" lon="11.2123298"><ele>114.0</ele><time>2026-03-29T08:43:48.855Z</time></trkpt><trkpt lat="43.6762373" lon="11.2125026"><ele>114.0</ele><time>2026-03-29T08:43:49.857Z</time></trkpt><trkpt lat="43.6762393" lon="11.2126735"><ele>113.5</ele><time>2026-03-29T08:43:50.859Z</time></trkpt><trkpt lat="43.6762333" lon="11.2128325"><ele>113.0</ele><time>2026-03-29T08:43:51.885Z</time></trkpt><trkpt lat="43.6762205" lon="11.2129893"><ele>112.5</ele><time>2026-03-29T08:43:52.853Z</time></trkpt><trkpt lat="43.6761936" lon="11.213157"><ele>112.0</ele><time>2026-03-29T08:43:53.888Z</time></trkpt><trkpt lat="43.6761452" lon="11.2133449"><ele>109.33333333333334</ele><time>2026-03-29T08:43:54.854Z</time></trkpt><trkpt lat="43.676077" lon="11.2135435"><ele>106.66666666666666</ele><time>2026-03-29T08:43:55.852Z</time></trkpt><trkpt lat="43.6759778" lon="11.2137473"><ele>104.0</ele><time>2026-03-29T08:43:56.852Z</time></trkpt><trkpt lat="43.6758496" lon="11.2139245"><ele>104.0</ele><time>2026-03-29T08:43:57.887Z</time></trkpt><trkpt lat="43.6756911" lon="11.2140702"><ele>104.0</ele><time>2026-03-29T08:43:58.855Z</time></trkpt><trkpt lat="43.6755316" lon="11.2141976"><ele>104.0</ele><time>2026-03-29T08:43:59.858Z</time></trkpt><trkpt lat="43.6753663" lon="11.2143174"><ele>105.66666666666666</ele><time>2026-03-29T08:44:00.884Z</time></trkpt><trkpt lat="43.6751911" lon="11.2144043"><ele>107.33333333333334</ele><time>2026-03-29T08:44:01.858Z</time></trkpt><trkpt lat="43.6749939" lon="11.2144432"><ele>109.0</ele><time>2026-03-29T08:44:02.852Z</time></trkpt><trkpt lat="43.6747954" lon="11.2144397"><ele>109.0</ele><time>2026-03-29T08:44:03.883Z</time></trkpt><trkpt lat="43.6746155" lon="11.2143867"><ele>109.0</ele><time>2026-03-29T08:44:04.853Z</time></trkpt><trkpt lat="43.6744504" lon="11.2142891"><ele>109.0</ele><time>2026-03-29T08:44:05.858Z</time></trkpt><trkpt lat="43.6743073" lon="11.2141385"><ele>114.0</ele><time>2026-03-29T08:44:06.888Z</time></trkpt><trkpt lat="43.674189" lon="11.2139367"><ele>119.0</ele><time>2026-03-29T08:44:07.856Z</time></trkpt><trkpt lat="43.67409" lon="11.2136899"><ele>124.0</ele><time>2026-03-29T08:44:08.857Z</time></trkpt><trkpt lat="43.6740095" lon="11.2134209"><ele>126.33333333333334</ele><time>2026-03-29T08:44:09.887Z</time></trkpt><trkpt lat="43.6739379" lon="11.2131453"><ele>128.66666666666666</ele><time>2026-03-29T08:44:10.86Z</time></trkpt><trkpt lat="43.6738751" lon="11.2128705"><ele>131.0</ele><time>2026-03-29T08:44:11.855Z</time></trkpt><trkpt lat="43.673826" lon="11.2126084"><ele>131.0</ele><time>2026-03-29T08:44:12.852Z</time></trkpt><trkpt lat="43.6738019" lon="11.212351"><ele>131.0</ele><time>2026-03-29T08:44:13.862Z</time></trkpt><trkpt lat="43.673801" lon="11.2120841"><ele>131.0</ele><time>2026-03-29T08:44:14.88Z</time></trkpt><trkpt lat="43.6737974" lon="11.2118322"><ele>130.66666666666666</ele><time>2026-03-29T08:44:15.888Z</time></trkpt><trkpt lat="43.673764" lon="11.2116001"><ele>130.33333333333334</ele><time>2026-03-29T08:44:16.886Z</time></trkpt><trkpt lat="43.6736906" lon="11.2113922"><ele>130.0</ele><time>2026-03-29T08:44:17.881Z</time></trkpt><trkpt lat="43.6735752" lon="11.2112266"><ele>130.0</ele><time>2026-03-29T08:44:18.882Z</time></trkpt><trkpt lat="43.6734221" lon="11.2110705"><ele>130.0</ele><time>2026-03-29T08:44:19.89Z</time></trkpt><trkpt lat="43.6732559" lon="11.2109201"><ele>130.0</ele><time>2026-03-29T08:44:20.881Z</time></trkpt><trkpt lat="43.6730746" lon="11.2108006"><ele>130.0</ele><time>2026-03-29T08:44:21.86Z</time></trkpt><trkpt lat="43.6728711" lon="11.210713"><ele>130.0</ele><time>2026-03-29T08:44:22.851Z</time></trkpt><trkpt lat="43.6726608" lon="11.2106557"><ele>130.0</ele><time>2026-03-29T08:44:23.884Z</time></trkpt><trkpt lat="43.6724531" lon="11.2106421"><ele>130.33333333333334</ele><time>2026-03-29T08:44:24.887Z</time></trkpt><trkpt lat="43.6722417" lon="11.2106628"><ele>130.66666666666666</ele><time>2026-03-29T08:44:25.865Z</time></trkpt><trkpt lat="43.6720378" lon="11.2106985"><ele>131.0</ele><time>2026-03-29T08:44:26.867Z</time></trkpt><trkpt lat="43.6718475" lon="11.2107296"><ele>133.66666666666666</ele><time>2026-03-29T08:44:27.853Z</time></trkpt><trkpt lat="43.6716658" lon="11.210761"><ele>136.33333333333334</ele><time>2026-03-29T08:44:28.852Z</time></trkpt><trkpt lat="43.6714834" lon="11.2108254"><ele>139.0</ele><time>2026-03-29T08:44:29.855Z</time></trkpt><trkpt lat="43.6713135" lon="11.2109365"><ele>139.0</ele><time>2026-03-29T08:44:30.885Z</time></trkpt><trkpt lat="43.6711838" lon="11.2110886"><ele>139.0</ele><time>2026-03-29T08:44:31.856Z</time></trkpt><trkpt lat="43.6710675" lon="11.2112613"><ele>139.0</ele><time>2026-03-29T08:44:32.865Z</time></trkpt><trkpt lat="43.6709546" lon="11.2113848"><ele>138.25</ele><time>2026-03-29T08:44:33.882Z</time></trkpt><trkpt lat="43.6708343" lon="11.2114627"><ele>137.5</ele><time>2026-03-29T08:44:34.869Z</time></trkpt><trkpt lat="43.6706918" lon="11.2114906"><ele>136.75</ele><time>2026-03-29T08:44:35.852Z</time></trkpt><trkpt lat="43.6705434" lon="11.2114681"><ele>136.0</ele><time>2026-03-29T08:44:36.857Z</time></trkpt><trkpt lat="43.6703685" lon="11.2113802"><ele>138.66666666666669</ele><time>2026-03-29T08:44:37.862Z</time></trkpt><trkpt lat="43.670187" lon="11.2112628"><ele>141.33333333333334</ele><time>2026-03-29T08:44:38.858Z</time></trkpt><trkpt lat="43.67001" lon="11.2111146"><ele>144.0</ele><time>2026-03-29T08:44:39.855Z</time></trkpt><trkpt lat="43.6698381" lon="11.2109469"><ele>144.0</ele><time>2026-03-29T08:44:40.859Z</time></trkpt><trkpt lat="43.6696713" lon="11.2107822"><ele>144.0</ele><time>2026-03-29T08:44:41.86Z</time></trkpt><trkpt lat="43.6695117" lon="11.2106188"><ele>144.0</ele><time>2026-03-29T08:44:42.854Z</time></trkpt><trkpt lat="43.6693577" lon="11.2104644"><ele>147.66666666666666</ele><time>2026-03-29T08:44:43.86Z</time></trkpt><trkpt lat="43.6692004" lon="11.2103211"><ele>151.33333333333331</ele><time>2026-03-29T08:44:44.854Z</time></trkpt><trkpt lat="43.6690346" lon="11.2101925"><ele>155.0</ele><time>2026-03-29T08:44:45.867Z</time></trkpt><trkpt lat="43.6688577" lon="11.2100906"><ele>155.0</ele><time>2026-03-29T08:44:46.856Z</time></trkpt><trkpt lat="43.6686692" lon="11.2100238"><ele>155.0</ele><time>2026-03-29T08:44:47.854Z</time></trkpt><trkpt lat="43.6684682" lon="11.2099929"><ele>155.0</ele><time>2026-03-29T08:44:48.856Z</time></trkpt><trkpt lat="43.6682657" lon="11.2099787"><ele>155.33333333333331</ele><time>2026-03-29T08:44:49.851Z</time></trkpt><trkpt lat="43.6680745" lon="11.2099698"><ele>155.66666666666666</ele><time>2026-03-29T08:44:50.855Z</time></trkpt><trkpt lat="43.6678974" lon="11.2099666"><ele>156.0</ele><time>2026-03-29T08:44:51.859Z</time></trkpt><trkpt lat="43.6677313" lon="11.2099746"><ele>156.5</ele><time>2026-03-29T08:44:52.884Z</time></trkpt><trkpt lat="43.6675822" lon="11.2099766"><ele>157.0</ele><time>2026-03-29T08:44:53.853Z</time></trkpt><trkpt lat="43.6674462" lon="11.2099622"><ele>157.5</ele><time>2026-03-29T08:44:54.88Z</time></trkpt><trkpt lat="43.6673265" lon="11.2099166"><ele>158.0</ele><time>2026-03-29T08:44:55.881Z</time></trkpt><trkpt lat="43.6672284" lon="11.2098192"><ele>160.75</ele><time>2026-03-29T08:44:56.857Z</time></trkpt><trkpt lat="43.6671783" lon="11.2096697"><ele>163.5</ele><time>2026-03-29T08:44:57.886Z</time></trkpt><trkpt lat="43.667177" lon="11.2094956"><ele>166.25</ele><time>2026-03-29T08:44:58.853Z</time></trkpt><trkpt lat="43.6672038" lon="11.2093032"><ele>169.0</ele><time>2026-03-29T08:44:59.854Z</time></trkpt><trkpt lat="43.6672743" lon="11.209115"><ele>168.66666666666669</ele><time>2026-03-29T08:45:00.854Z</time></trkpt><trkpt lat="43.6674372" lon="11.2089565"><ele>168.33333333333334</ele><time>2026-03-29T08:45:01.853Z</time></trkpt><trkpt lat="43.6676315" lon="11.2088218"><ele>168.0</ele><time>2026-03-29T08:45:02.883Z</time></trkpt><trkpt lat="43.6678232" lon="11.2086839"><ele>168.0</ele><time>2026-03-29T08:45:03.885Z</time></trkpt><trkpt lat="43.6680063" lon="11.2085586"><ele>168.0</ele><time>2026-03-29T08:45:04.857Z</time></trkpt><trkpt lat="43.6681897" lon="11.2084508"><ele>168.0</ele><time>2026-03-29T08:45:05.853Z</time></trkpt><trkpt lat="43.668383" lon="11.2083698"><ele>168.0</ele><time>2026-03-29T08:45:06.857Z</time></trkpt><trkpt lat="43.6685756" lon="11.2083089"><ele>168.0</ele><time>2026-03-29T08:45:07.857Z</time></trkpt><trkpt lat="43.6687797" lon="11.2082595"><ele>168.0</ele><time>2026-03-29T08:45:08.855Z</time></trkpt><trkpt lat="43.6689836" lon="11.2082143"><ele>168.33333333333334</ele><time>2026-03-29T08:45:09.859Z</time></trkpt><trkpt lat="43.6691932" lon="11.2081674"><ele>168.66666666666669</ele><time>2026-03-29T08:45:10.855Z</time></trkpt><trkpt lat="43.669397" lon="11.2081252"><ele>169.0</ele><time>2026-03-29T08:45:11.854Z</time></trkpt><trkpt lat="43.669593" lon="11.208082"><ele>170.33333333333334</ele><time>2026-03-29T08:45:12.858Z</time></trkpt><trkpt lat="43.6697881" lon="11.2080395"><ele>171.66666666666666</ele><time>2026-03-29T08:45:13.872Z</time></trkpt><trkpt lat="43.6699744" lon="11.2079945"><ele>173.0</ele><time>2026-03-29T08:45:14.864Z</time></trkpt><trkpt lat="43.6701521" lon="11.207934"><ele>176.0</ele><time>2026-03-29T08:45:15.856Z</time></trkpt><trkpt lat="43.6703192" lon="11.2078521"><ele>179.0</ele><time>2026-03-29T08:45:16.86Z</time></trkpt><trkpt lat="43.6704641" lon="11.2077372"><ele>182.0</ele><time>2026-03-29T08:45:17.855Z</time></trkpt><trkpt lat="43.6705641" lon="11.2075755"><ele>182.0</ele><time>2026-03-29T08:45:18.888Z</time></trkpt><trkpt lat="43.6706075" lon="11.2073595"><ele>182.0</ele><time>2026-03-29T08:45:19.887Z</time></trkpt><trkpt lat="43.6706087" lon="11.2071383"><ele>182.0</ele><time>2026-03-29T08:45:20.885Z</time></trkpt><trkpt lat="43.670561" lon="11.2069364"><ele>181.66666666666666</ele><time>2026-03-29T08:45:21.856Z</time></trkpt><trkpt lat="43.6704769" lon="11.2067603"><ele>181.33333333333334</ele><time>2026-03-29T08:45:22.888Z</time></trkpt><trkpt lat="43.6703401" lon="11.2066268"><ele>181.0</ele><time>2026-03-29T08:45:23.854Z</time></trkpt><trkpt lat="43.6701709" lon="11.2065349"><ele>185.33333333333334</ele><time>2026-03-29T08:45:24.852Z</time></trkpt><trkpt lat="43.669968" lon="11.2064617"><ele>189.66666666666669</ele><time>2026-03-29T08:45:25.855Z</time></trkpt><trkpt lat="43.6697699" lon="11.2063971"><ele>194.0</ele><time>2026-03-29T08:45:26.852Z</time></trkpt><trkpt lat="43.6695747" lon="11.2063388"><ele>193.0</ele><time>2026-03-29T08:45:27.852Z</time></trkpt><trkpt lat="43.669383" lon="11.2062874"><ele>192.0</ele><time>2026-03-29T08:45:28.854Z</time></trkpt><trkpt lat="43.6691942" lon="11.2062358"><ele>191.0</ele><time>2026-03-29T08:45:29.881Z</time></trkpt><trkpt lat="43.6690043" lon="11.2061966"><ele>191.0</ele><time>2026-03-29T08:45:30.864Z</time></trkpt><trkpt lat="43.6688164" lon="11.2061536"><ele>191.0</ele><time>2026-03-29T08:45:31.884Z</time></trkpt><trkpt lat="43.6686342" lon="11.2061148"><ele>191.0</ele><time>2026-03-29T08:45:32.856Z</time></trkpt><trkpt lat="43.668462" lon="11.2061002"><ele>193.0</ele><time>2026-03-29T08:45:33.86Z</time></trkpt><trkpt lat="43.6682867" lon="11.2061262"><ele>195.0</ele><time>2026-03-29T08:45:34.857Z</time></trkpt><trkpt lat="43.6681087" lon="11.2061899"><ele>197.0</ele><time>2026-03-29T08:45:35.857Z</time></trkpt><trkpt lat="43.6679349" lon="11.2062645"><ele>198.66666666666669</ele><time>2026-03-29T08:45:36.859Z</time></trkpt><trkpt lat="43.6677654" lon="11.2063379"><ele>200.33333333333331</ele><time>2026-03-29T08:45:37.857Z</time></trkpt><trkpt lat="43.6675987" lon="11.2064083"><ele>202.0</ele><time>2026-03-29T08:45:38.884Z</time></trkpt><trkpt lat="43.667437" lon="11.2064762"><ele>199.0</ele><time>2026-03-29T08:45:39.855Z</time></trkpt><trkpt lat="43.6672704" lon="11.2065544"><ele>196.0</ele><time>2026-03-29T08:45:40.858Z</time></trkpt><trkpt lat="43.6671077" lon="11.2066508"><ele>193.0</ele><time>2026-03-29T08:45:41.85Z</time></trkpt><trkpt lat="43.6669578" lon="11.2067724"><ele>196.66666666666666</ele><time>2026-03-29T08:45:42.856Z</time></trkpt><trkpt lat="43.6668257" lon="11.2069161"><ele>200.33333333333331</ele><time>2026-03-29T08:45:43.859Z</time></trkpt><trkpt lat="43.6667047" lon="11.2070633"><ele>204.0</ele><time>2026-03-29T08:45:44.858Z</time></trkpt><trkpt lat="43.6665843" lon="11.2072064"><ele>201.66666666666669</ele><time>2026-03-29T08:45:45.861Z</time></trkpt><trkpt lat="43.6664648" lon="11.2073386"><ele>199.33333333333334</ele><time>2026-03-29T08:45:46.883Z</time></trkpt><trkpt lat="43.6663401" lon="11.2074619"><ele>197.0</ele><time>2026-03-29T08:45:47.867Z</time></trkpt><trkpt lat="43.6662172" lon="11.2075646"><ele>199.25</ele><time>2026-03-29T08:45:48.853Z</time></trkpt><trkpt lat="43.6660848" lon="11.2076192"><ele>201.5</ele><time>2026-03-29T08:45:49.864Z</time></trkpt><trkpt lat="43.6659326" lon="11.207611"><ele>203.75</ele><time>2026-03-29T08:45:50.855Z</time></trkpt><trkpt lat="43.6657875" lon="11.2075417"><ele>206.0</ele><time>2026-03-29T08:45:51.854Z</time></trkpt><trkpt lat="43.6656734" lon="11.20741"><ele>208.33333333333334</ele><time>2026-03-29T08:45:52.857Z</time></trkpt><trkpt lat="43.6655946" lon="11.2072399"><ele>210.66666666666669</ele><time>2026-03-29T08:45:53.854Z</time></trkpt><trkpt lat="43.6655622" lon="11.2070135"><ele>213.0</ele><time>2026-03-29T08:45:54.858Z</time></trkpt><trkpt lat="43.6655496" lon="11.2067546"><ele>213.0</ele><time>2026-03-29T08:45:55.859Z</time></trkpt><trkpt lat="43.6655629" lon="11.2065284"><ele>213.0</ele><time>2026-03-29T08:45:56.884Z</time></trkpt><trkpt lat="43.6655763" lon="11.2062877"><ele>213.0</ele><time>2026-03-29T08:45:57.854Z</time></trkpt><trkpt lat="43.6655852" lon="11.2060464"><ele>216.0</ele><time>2026-03-29T08:45:58.888Z</time></trkpt><trkpt lat="43.665592" lon="11.2058049"><ele>219.0</ele><time>2026-03-29T08:45:59.857Z</time></trkpt><trkpt lat="43.6656232" lon="11.2055799"><ele>222.0</ele><time>2026-03-29T08:46:00.875Z</time></trkpt><trkpt lat="43.6656611" lon="11.2053594"><ele>223.66666666666669</ele><time>2026-03-29T08:46:01.852Z</time></trkpt><trkpt lat="43.6657058" lon="11.205137"><ele>225.33333333333334</ele><time>2026-03-29T08:46:02.853Z</time></trkpt><trkpt lat="43.6657379" lon="11.2049087"><ele>227.0</ele><time>2026-03-29T08:46:03.865Z</time></trkpt><trkpt lat="43.6657481" lon="11.2046763"><ele>229.33333333333334</ele><time>2026-03-29T08:46:04.883Z</time></trkpt><trkpt lat="43.6657262" lon="11.2044473"><ele>231.66666666666669</ele><time>2026-03-29T08:46:05.86Z</time></trkpt><trkpt lat="43.6656729" lon="11.2042197"><ele>234.0</ele><time>2026-03-29T08:46:06.882Z</time></trkpt><trkpt lat="43.6655988" lon="11.2039972"><ele>236.66666666666669</ele><time>2026-03-29T08:46:07.853Z</time></trkpt><trkpt lat="43.6655216" lon="11.2037695"><ele>239.33333333333334</ele><time>2026-03-29T08:46:08.884Z</time></trkpt><trkpt lat="43.665454" lon="11.2035409"><ele>242.0</ele><time>2026-03-29T08:46:09.858Z</time></trkpt><trkpt lat="43.6654002" lon="11.203305"><ele>241.66666666666669</ele><time>2026-03-29T08:46:10.863Z</time></trkpt><trkpt lat="43.6653742" lon="11.2030637"><ele>241.33333333333331</ele><time>2026-03-29T08:46:11.854Z</time></trkpt><trkpt lat="43.6653656" lon="11.202823"><ele>241.0</ele><time>2026-03-29T08:46:12.857Z</time></trkpt><trkpt lat="43.6653912" lon="11.202595"><ele>241.0</ele><time>2026-03-29T08:46:13.86Z</time></trkpt><trkpt lat="43.6654427" lon="11.2023744"><ele>241.0</ele><time>2026-03-29T08:46:14.852Z</time></trkpt><trkpt lat="43.6655153" lon="11.2021577"><ele>241.0</ele><time>2026-03-29T08:46:15.858Z</time></trkpt><trkpt lat="43.6655883" lon="11.2019267"><ele>241.0</ele><time>2026-03-29T08:46:16.854Z</time></trkpt><trkpt lat="43.6656423" lon="11.2016797"><ele>241.0</ele><time>2026-03-29T08:46:17.855Z</time></trkpt><trkpt lat="43.6656822" lon="11.2014289"><ele>241.0</ele><time>2026-03-29T08:46:18.86Z</time></trkpt><trkpt lat="43.6657022" lon="11.2011869"><ele>241.0</ele><time>2026-03-29T08:46:19.888Z</time></trkpt><trkpt lat="43.6657148" lon="11.2009498"><ele>241.0</ele><time>2026-03-29T08:46:20.861Z</time></trkpt><trkpt lat="43.6657383" lon="11.2007159"><ele>241.0</ele><time>2026-03-29T08:46:21.853Z</time></trkpt><trkpt lat="43.6657852" lon="11.2004915"><ele>239.33333333333331</ele><time>2026-03-29T08:46:22.859Z</time></trkpt><trkpt lat="43.6658618" lon="11.2002762"><ele>237.66666666666669</ele><time>2026-03-29T08:46:23.865Z</time></trkpt><trkpt lat="43.6659445" lon="11.2000563"><ele>236.0</ele><time>2026-03-29T08:46:24.854Z</time></trkpt><trkpt lat="43.6660102" lon="11.1998324"><ele>234.33333333333334</ele><time>2026-03-29T08:46:25.855Z</time></trkpt><trkpt lat="43.6660711" lon="11.1996054"><ele>232.66666666666669</ele><time>2026-03-29T08:46:26.853Z</time></trkpt><trkpt lat="43.66613" lon="11.1993684"><ele>231.0</ele><time>2026-03-29T08:46:27.854Z</time></trkpt><trkpt lat="43.6662147" lon="11.1991583"><ele>238.33333333333331</ele><time>2026-03-29T08:46:28.885Z</time></trkpt><trkpt lat="43.6663186" lon="11.198967"><ele>245.66666666666666</ele><time>2026-03-29T08:46:29.869Z</time></trkpt><trkpt lat="43.6664172" lon="11.1987754"><ele>253.0</ele><time>2026-03-29T08:46:30.855Z</time></trkpt><trkpt lat="43.6664885" lon="11.1985681"><ele>253.0</ele><time>2026-03-29T08:46:31.883Z</time></trkpt><trkpt lat="43.6665144" lon="11.1983502"><ele>253.0</ele><time>2026-03-29T08:46:32.884Z</time></trkpt><trkpt lat="43.6665005" lon="11.1981414"><ele>253.0</ele><time>2026-03-29T08:46:33.853Z</time></trkpt><trkpt lat="43.6664335" lon="11.1979523"><ele>251.66666666666666</ele><time>2026-03-29T08:46:34.869Z</time></trkpt><trkpt lat="43.6663188" lon="11.197805"><ele>250.33333333333331</ele><time>2026-03-29T08:46:35.86Z</time></trkpt><trkpt lat="43.6661624" lon="11.1976894"><ele>249.0</ele><time>2026-03-29T08:46:36.885Z</time></trkpt><trkpt lat="43.6659815" lon="11.1975821"><ele>249.0</ele><time>2026-03-29T08:46:37.882Z</time></trkpt><trkpt lat="43.665814" lon="11.1974545"><ele>249.0</ele><time>2026-03-29T08:46:38.857Z</time></trkpt><trkpt lat="43.6656883" lon="11.1972894"><ele>249.0</ele><time>2026-03-29T08:46:39.883Z</time></trkpt><trkpt lat="43.6656156" lon="11.1970945"><ele>252.33333333333331</ele><time>2026-03-29T08:46:40.884Z</time></trkpt><trkpt lat="43.6655735" lon="11.1968653"><ele>255.66666666666666</ele><time>2026-03-29T08:46:41.883Z</time></trkpt><trkpt lat="43.6655548" lon="11.1966313"><ele>259.0</ele><time>2026-03-29T08:46:42.881Z</time></trkpt><trkpt lat="43.6655032" lon="11.1963951"><ele>257.0</ele><time>2026-03-29T08:46:43.856Z</time></trkpt><trkpt lat="43.6654159" lon="11.1961839"><ele>255.0</ele><time>2026-03-29T08:46:44.883Z</time></trkpt><trkpt lat="43.6652917" lon="11.1959995"><ele>253.0</ele><time>2026-03-29T08:46:45.851Z</time></trkpt><trkpt lat="43.6651628" lon="11.1958078"><ele>257.0</ele><time>2026-03-29T08:46:46.887Z</time></trkpt><trkpt lat="43.6650476" lon="11.1956148"><ele>261.0</ele><time>2026-03-29T08:46:47.852Z</time></trkpt><trkpt lat="43.6649486" lon="11.1954151"><ele>265.0</ele><time>2026-03-29T08:46:48.859Z</time></trkpt><trkpt lat="43.6648772" lon="11.1951932"><ele>265.0</ele><time>2026-03-29T08:46:49.852Z</time></trkpt><trkpt lat="43.66484" lon="11.1949506"><ele>265.0</ele><time>2026-03-29T08:46:50.852Z</time></trkpt><trkpt lat="43.6648344" lon="11.1946925"><ele>265.0</ele><time>2026-03-29T08:46:51.853Z</time></trkpt><trkpt lat="43.6648527" lon="11.1944416"><ele>266.3333333333333</ele><time>2026-03-29T08:46:52.851Z</time></trkpt><trkpt lat="43.6648879" lon="11.1941958"><ele>267.6666666666667</ele><time>2026-03-29T08:46:53.86Z</time></trkpt><trkpt lat="43.6649404" lon="11.193965"><ele>269.0</ele><time>2026-03-29T08:46:54.852Z</time></trkpt><trkpt lat="43.6649813" lon="11.1937353"><ele>270.0</ele><time>2026-03-29T08:46:55.857Z</time></trkpt><trkpt lat="43.6649957" lon="11.1934967"><ele>271.0</ele><time>2026-03-29T08:46:56.883Z</time></trkpt><trkpt lat="43.6649672" lon="11.1932695"><ele>272.0</ele><time>2026-03-29T08:46:57.857Z</time></trkpt><trkpt lat="43.6648904" lon="11.1930681"><ele>275.33333333333337</ele><time>2026-03-29T08:46:58.883Z</time></trkpt><trkpt lat="43.6647869" lon="11.1928939"><ele>278.6666666666667</ele><time>2026-03-29T08:46:59.853Z</time></trkpt><trkpt lat="43.6646454" lon="11.1927234"><ele>282.0</ele><time>2026-03-29T08:47:00.903Z</time></trkpt><trkpt lat="43.6644981" lon="11.1925575"><ele>282.0</ele><time>2026-03-29T08:47:01.854Z</time></trkpt><trkpt lat="43.6643575" lon="11.1923811"><ele>282.0</ele><time>2026-03-29T08:47:02.854Z</time></trkpt><trkpt lat="43.6642301" lon="11.192204"><ele>282.0</ele><time>2026-03-29T08:47:03.853Z</time></trkpt><trkpt lat="43.664116" lon="11.1920319"><ele>282.0</ele><time>2026-03-29T08:47:04.881Z</time></trkpt><trkpt lat="43.6639984" lon="11.1918773"><ele>282.0</ele><time>2026-03-29T08:47:05.856Z</time></trkpt><trkpt lat="43.6638595" lon="11.1917456"><ele>282.0</ele><time>2026-03-29T08:47:06.858Z</time></trkpt><trkpt lat="43.6636952" lon="11.1916506"><ele>281.6666666666667</ele><time>2026-03-29T08:47:07.892Z</time></trkpt><trkpt lat="43.6635134" lon="11.1915834"><ele>281.33333333333337</ele><time>2026-03-29T08:47:08.857Z</time></trkpt><trkpt lat="43.6633432" lon="11.1915335"><ele>281.0</ele><time>2026-03-29T08:47:09.854Z</time></trkpt><trkpt lat="43.6631864" lon="11.1914849"><ele>281.0</ele><time>2026-03-29T08:47:10.89Z</time></trkpt><trkpt lat="43.6630422" lon="11.1914437"><ele>281.0</ele><time>2026-03-29T08:47:11.856Z</time></trkpt><trkpt lat="43.6629019" lon="11.1914257"><ele>281.0</ele><time>2026-03-29T08:47:12.855Z</time></trkpt><trkpt lat="43.662774" lon="11.191444"><ele>281.0</ele><time>2026-03-29T08:47:13.853Z</time></trkpt><trkpt lat="43.6626548" lon="11.1914823"><ele>281.6666666666667</ele><time>2026-03-29T08:47:14.884Z</time></trkpt><trkpt lat="43.6625556" lon="11.191494"><ele>282.33333333333337</ele><time>2026-03-29T08:47:15.883Z</time></trkpt><trkpt lat="43.6624725" lon="11.1914727"><ele>283.0</ele><time>2026-03-29T08:47:16.883Z</time></trkpt><trkpt lat="43.6624131" lon="11.1913966"><ele>283.6666666666667</ele><time>2026-03-29T08:47:18.883Z</time></trkpt><trkpt lat="43.6624384" lon="11.1913138"><ele>284.3333333333333</ele><time>2026-03-29T08:47:22.885Z</time></trkpt><trkpt lat="43.6624071" lon="11.1911606"><ele>285.0</ele><time>2026-03-29T08:47:24.867Z</time></trkpt><trkpt lat="43.6623732" lon="11.1910574"><ele>285.0</ele><time>2026-03-29T08:47:25.887Z</time></trkpt><trkpt lat="43.6623137" lon="11.1909592"><ele>285.0</ele><time>2026-03-29T08:47:26.88Z</time></trkpt><trkpt lat="43.6622159" lon="11.1908795"><ele>285.0</ele><time>2026-03-29T08:47:27.853Z</time></trkpt><trkpt lat="43.6620906" lon="11.1908243"><ele>285.0</ele><time>2026-03-29T08:47:28.856Z</time></trkpt><trkpt lat="43.6619535" lon="11.190775"><ele>285.0</ele><time>2026-03-29T08:47:29.857Z</time></trkpt><trkpt lat="43.6618144" lon="11.1907186"><ele>285.0</ele><time>2026-03-29T08:47:30.857Z</time></trkpt><trkpt lat="43.661656" lon="11.1906662"><ele>285.0</ele><time>2026-03-29T08:47:31.852Z</time></trkpt><trkpt lat="43.6614969" lon="11.1906238"><ele>285.0</ele><time>2026-03-29T08:47:32.855Z</time></trkpt><trkpt lat="43.6613409" lon="11.190584"><ele>285.0</ele><time>2026-03-29T08:47:33.854Z</time></trkpt><trkpt lat="43.6611884" lon="11.1905436"><ele>285.0</ele><time>2026-03-29T08:47:34.881Z</time></trkpt><trkpt lat="43.6610354" lon="11.1905149"><ele>287.0</ele><time>2026-03-29T08:47:35.864Z</time></trkpt><trkpt lat="43.660884" lon="11.1904739"><ele>289.0</ele><time>2026-03-29T08:47:36.87Z</time></trkpt><trkpt lat="43.6607364" lon="11.1904333"><ele>291.0</ele><time>2026-03-29T08:47:37.857Z</time></trkpt><trkpt lat="43.6605938" lon="11.1903836"><ele>291.0</ele><time>2026-03-29T08:47:38.854Z</time></trkpt><trkpt lat="43.6604564" lon="11.1903126"><ele>291.0</ele><time>2026-03-29T08:47:39.883Z</time></trkpt><trkpt lat="43.6603233" lon="11.1902194"><ele>291.0</ele><time>2026-03-29T08:47:40.867Z</time></trkpt><trkpt lat="43.6601981" lon="11.190113"><ele>291.0</ele><time>2026-03-29T08:47:41.886Z</time></trkpt><trkpt lat="43.6600766" lon="11.1899989"><ele>292.25</ele><time>2026-03-29T08:47:42.858Z</time></trkpt><trkpt lat="43.6599578" lon="11.1898868"><ele>293.5</ele><time>2026-03-29T08:47:43.889Z</time></trkpt><trkpt lat="43.6598416" lon="11.1897846"><ele>294.75</ele><time>2026-03-29T08:47:44.853Z</time></trkpt><trkpt lat="43.6597335" lon="11.1896884"><ele>296.0</ele><time>2026-03-29T08:47:45.864Z</time></trkpt><trkpt lat="43.659632" lon="11.1896033"><ele>296.0</ele><time>2026-03-29T08:47:46.882Z</time></trkpt><trkpt lat="43.6595383" lon="11.1895246"><ele>296.0</ele><time>2026-03-29T08:47:47.856Z</time></trkpt><trkpt lat="43.6594435" lon="11.1894556"><ele>296.0</ele><time>2026-03-29T08:47:48.885Z</time></trkpt><trkpt lat="43.6593425" lon="11.1893957"><ele>296.0</ele><time>2026-03-29T08:47:49.861Z</time></trkpt><trkpt lat="43.6592393" lon="11.1893436"><ele>296.0</ele><time>2026-03-29T08:47:50.894Z</time></trkpt><trkpt lat="43.6591365" lon="11.1892902"><ele>296.8</ele><time>2026-03-29T08:47:51.855Z</time></trkpt><trkpt lat="43.6590387" lon="11.1892229"><ele>297.6</ele><time>2026-03-29T08:47:52.856Z</time></trkpt><trkpt lat="43.6589467" lon="11.1891478"><ele>298.4</ele><time>2026-03-29T08:47:53.854Z</time></trkpt><trkpt lat="43.6588569" lon="11.1890689"><ele>299.2</ele><time>2026-03-29T08:47:54.855Z</time></trkpt><trkpt lat="43.6587772" lon="11.188994"><ele>300.0</ele><time>2026-03-29T08:47:55.852Z</time></trkpt><trkpt lat="43.6587177" lon="11.1889283"><ele>300.0</ele><time>2026-03-29T08:47:56.857Z</time></trkpt><trkpt lat="43.6586729" lon="11.1888626"><ele>300.0</ele><time>2026-03-29T08:47:58.854Z</time></trkpt><trkpt lat="43.6586197" lon="11.1888051"><ele>300.0</ele><time>2026-03-29T08:48:04.855Z</time></trkpt><trkpt lat="43.6585635" lon="11.1887463"><ele>300.0</ele><time>2026-03-29T08:48:06.883Z</time></trkpt><trkpt lat="43.6584901" lon="11.1886453"><ele>300.0</ele><time>2026-03-29T08:48:08.881Z</time></trkpt><trkpt lat="43.6584283" lon="11.1885401"><ele>300.0</ele><time>2026-03-29T08:48:10.854Z</time></trkpt><trkpt lat="43.6583443" lon="11.1884226"><ele>301.0</ele><time>2026-03-29T08:48:12.883Z</time></trkpt><trkpt lat="43.6582795" lon="11.1883808"><ele>302.0</ele><time>2026-03-29T08:48:13.864Z</time></trkpt><trkpt lat="43.6582006" lon="11.1883505"><ele>303.0</ele><time>2026-03-29T08:48:14.874Z</time></trkpt><trkpt lat="43.6581137" lon="11.188324"><ele>304.0</ele><time>2026-03-29T08:48:15.884Z</time></trkpt><trkpt lat="43.6580164" lon="11.188279"><ele>305.0</ele><time>2026-03-29T08:48:16.866Z</time></trkpt><trkpt lat="43.6579014" lon="11.1882195"><ele>306.33333333333337</ele><time>2026-03-29T08:48:17.883Z</time></trkpt><trkpt lat="43.6577666" lon="11.1881422"><ele>307.6666666666667</ele><time>2026-03-29T08:48:18.852Z</time></trkpt><trkpt lat="43.6576182" lon="11.1880612"><ele>309.0</ele><time>2026-03-29T08:48:19.856Z</time></trkpt><trkpt lat="43.6574602" lon="11.1879833"><ele>309.0</ele><time>2026-03-29T08:48:20.857Z</time></trkpt><trkpt lat="43.6573007" lon="11.1879065"><ele>309.0</ele><time>2026-03-29T08:48:21.861Z</time></trkpt><trkpt lat="43.65715" lon="11.1878264"><ele>309.0</ele><time>2026-03-29T08:48:22.854Z</time></trkpt><trkpt lat="43.657009" lon="11.1877489"><ele>308.25</ele><time>2026-03-29T08:48:23.852Z</time></trkpt><trkpt lat="43.6568793" lon="11.1876812"><ele>307.5</ele><time>2026-03-29T08:48:24.856Z</time></trkpt><trkpt lat="43.6567611" lon="11.1876253"><ele>306.75</ele><time>2026-03-29T08:48:25.855Z</time></trkpt><trkpt lat="43.6566536" lon="11.1875814"><ele>306.0</ele><time>2026-03-29T08:48:26.856Z</time></trkpt><trkpt lat="43.6565539" lon="11.187544"><ele>306.0</ele><time>2026-03-29T08:48:27.888Z</time></trkpt><trkpt lat="43.6564605" lon="11.1875133"><ele>306.0</ele><time>2026-03-29T08:48:28.857Z</time></trkpt><trkpt lat="43.6563711" lon="11.1874879"><ele>306.0</ele><time>2026-03-29T08:48:29.884Z</time></trkpt><trkpt lat="43.6562901" lon="11.1874611"><ele>306.0</ele><time>2026-03-29T08:48:30.883Z</time></trkpt><trkpt lat="43.6562179" lon="11.1874399"><ele>306.0</ele><time>2026-03-29T08:48:31.858Z</time></trkpt><trkpt lat="43.6561549" lon="11.1874231"><ele>306.0</ele><time>2026-03-29T08:48:32.861Z</time></trkpt><trkpt lat="43.6560484" lon="11.1873957"><ele>305.40000000000003</ele><time>2026-03-29T08:48:34.856Z</time></trkpt><trkpt lat="43.655951" lon="11.1873911"><ele>304.8</ele><time>2026-03-29T08:48:36.858Z</time></trkpt><trkpt lat="43.6558646" lon="11.1874036"><ele>304.20000000000005</ele><time>2026-03-29T08:48:38.857Z</time></trkpt><trkpt lat="43.6557813" lon="11.1874194"><ele>303.6</ele><time>2026-03-29T08:48:40.884Z</time></trkpt><trkpt lat="43.6556848" lon="11.1874214"><ele>303.0</ele><time>2026-03-29T08:48:42.852Z</time></trkpt><trkpt lat="43.655556" lon="11.1873943"><ele>303.0</ele><time>2026-03-29T08:48:44.882Z</time></trkpt><trkpt lat="43.6554857" lon="11.1873692"><ele>303.0</ele><time>2026-03-29T08:48:45.854Z</time></trkpt><trkpt lat="43.6554085" lon="11.1873371"><ele>303.0</ele><time>2026-03-29T08:48:46.853Z</time></trkpt><trkpt lat="43.6553168" lon="11.1872932"><ele>303.0</ele><time>2026-03-29T08:48:47.885Z</time></trkpt><trkpt lat="43.6552138" lon="11.1872392"><ele>303.0</ele><time>2026-03-29T08:48:48.85Z</time></trkpt><trkpt lat="43.6551049" lon="11.187174"><ele>302.0</ele><time>2026-03-29T08:48:49.88Z</time></trkpt><trkpt lat="43.6549959" lon="11.1871006"><ele>301.0</ele><time>2026-03-29T08:48:50.861Z</time></trkpt><trkpt lat="43.6548875" lon="11.1870306"><ele>300.0</ele><time>2026-03-29T08:48:51.856Z</time></trkpt><trkpt lat="43.6547779" lon="11.1869638"><ele>299.0</ele><time>2026-03-29T08:48:52.856Z</time></trkpt><trkpt lat="43.6546597" lon="11.1869104"><ele>299.0</ele><time>2026-03-29T08:48:53.869Z</time></trkpt><trkpt lat="43.6545335" lon="11.1868796"><ele>299.0</ele><time>2026-03-29T08:48:54.856Z</time></trkpt><trkpt lat="43.654402" lon="11.1868806"><ele>299.0</ele><time>2026-03-29T08:48:55.872Z</time></trkpt><trkpt lat="43.6542672" lon="11.1869123"><ele>299.0</ele><time>2026-03-29T08:48:56.859Z</time></trkpt><trkpt lat="43.6541306" lon="11.1869662"><ele>296.0</ele><time>2026-03-29T08:48:57.854Z</time></trkpt><trkpt lat="43.6540061" lon="11.1870302"><ele>293.0</ele><time>2026-03-29T08:48:58.887Z</time></trkpt><trkpt lat="43.6538829" lon="11.1870977"><ele>290.0</ele><time>2026-03-29T08:48:59.853Z</time></trkpt><trkpt lat="43.6537602" lon="11.1871595"><ele>287.0</ele><time>2026-03-29T08:49:00.882Z</time></trkpt><trkpt lat="43.6536377" lon="11.1872138"><ele>284.75</ele><time>2026-03-29T08:49:01.856Z</time></trkpt><trkpt lat="43.6535171" lon="11.1872529"><ele>282.5</ele><time>2026-03-29T08:49:02.855Z</time></trkpt><trkpt lat="43.6533925" lon="11.1872679"><ele>280.25</ele><time>2026-03-29T08:49:03.881Z</time></trkpt><trkpt lat="43.6532643" lon="11.1872657"><ele>278.0</ele><time>2026-03-29T08:49:04.86Z</time></trkpt><trkpt lat="43.6531392" lon="11.1872357"><ele>278.0</ele><time>2026-03-29T08:49:05.892Z</time></trkpt><trkpt lat="43.6530095" lon="11.1871694"><ele>278.0</ele><time>2026-03-29T08:49:06.854Z</time></trkpt><trkpt lat="43.6528819" lon="11.1870907"><ele>278.0</ele><time>2026-03-29T08:49:07.872Z</time></trkpt><trkpt lat="43.6527593" lon="11.1870093"><ele>278.0</ele><time>2026-03-29T08:49:08.853Z</time></trkpt><trkpt lat="43.6526401" lon="11.1869375"><ele>277.75</ele><time>2026-03-29T08:49:09.855Z</time></trkpt><trkpt lat="43.6525219" lon="11.1868889"><ele>277.5</ele><time>2026-03-29T08:49:10.855Z</time></trkpt><trkpt lat="43.6523973" lon="11.1869019"><ele>277.25</ele><time>2026-03-29T08:49:11.881Z</time></trkpt><trkpt lat="43.6522733" lon="11.1870013"><ele>277.0</ele><time>2026-03-29T08:49:12.858Z</time></trkpt><trkpt lat="43.6521972" lon="11.1871917"><ele>281.0</ele><time>2026-03-29T08:49:13.86Z</time></trkpt><trkpt lat="43.6521493" lon="11.1874233"><ele>285.0</ele><time>2026-03-29T08:49:14.856Z</time></trkpt><trkpt lat="43.6521072" lon="11.1876616"><ele>289.0</ele><time>2026-03-29T08:49:15.854Z</time></trkpt><trkpt lat="43.6520723" lon="11.1878898"><ele>289.0</ele><time>2026-03-29T08:49:16.855Z</time></trkpt><trkpt lat="43.6520509" lon="11.1881142"><ele>289.0</ele><time>2026-03-29T08:49:17.855Z</time></trkpt><trkpt lat="43.6520396" lon="11.1883377"><ele>289.0</ele><time>2026-03-29T08:49:18.85Z</time></trkpt><trkpt lat="43.6520564" lon="11.1885583"><ele>287.3333333333333</ele><time>2026-03-29T08:49:19.855Z</time></trkpt><trkpt lat="43.6521148" lon="11.1887642"><ele>285.6666666666667</ele><time>2026-03-29T08:49:20.855Z</time></trkpt><trkpt lat="43.6522247" lon="11.1889297"><ele>284.0</ele><time>2026-03-29T08:49:21.855Z</time></trkpt><trkpt lat="43.6523754" lon="11.1890406"><ele>284.33333333333337</ele><time>2026-03-29T08:49:22.855Z</time></trkpt><trkpt lat="43.6525318" lon="11.1891052"><ele>284.6666666666667</ele><time>2026-03-29T08:49:23.858Z</time></trkpt><trkpt lat="43.6526778" lon="11.1891751"><ele>285.0</ele><time>2026-03-29T08:49:24.856Z</time></trkpt><trkpt lat="43.6528002" lon="11.1892749"><ele>285.0</ele><time>2026-03-29T08:49:25.857Z</time></trkpt><trkpt lat="43.6528963" lon="11.1894304"><ele>285.0</ele><time>2026-03-29T08:49:26.857Z</time></trkpt><trkpt lat="43.6529461" lon="11.1896551"><ele>285.0</ele><time>2026-03-29T08:49:27.854Z</time></trkpt><trkpt lat="43.6529452" lon="11.1898811"><ele>283.6666666666667</ele><time>2026-03-29T08:49:28.883Z</time></trkpt><trkpt lat="43.6529392" lon="11.1901344"><ele>282.33333333333337</ele><time>2026-03-29T08:49:29.86Z</time></trkpt><trkpt lat="43.6529526" lon="11.1903956"><ele>281.0</ele><time>2026-03-29T08:49:30.853Z</time></trkpt><trkpt lat="43.653003" lon="11.1906391"><ele>278.0</ele><time>2026-03-29T08:49:31.86Z</time></trkpt><trkpt lat="43.6530936" lon="11.1908617"><ele>275.0</ele><time>2026-03-29T08:49:32.856Z</time></trkpt><trkpt lat="43.6532293" lon="11.1910678"><ele>272.0</ele><time>2026-03-29T08:49:33.858Z</time></trkpt><trkpt lat="43.6533791" lon="11.1912577"><ele>272.0</ele><time>2026-03-29T08:49:34.856Z</time></trkpt><trkpt lat="43.6535141" lon="11.1914225"><ele>272.0</ele><time>2026-03-29T08:49:35.859Z</time></trkpt><trkpt lat="43.6536142" lon="11.1915907"><ele>272.0</ele><time>2026-03-29T08:49:36.853Z</time></trkpt><trkpt lat="43.6536665" lon="11.1917798"><ele>273.0</ele><time>2026-03-29T08:49:37.855Z</time></trkpt><trkpt lat="43.6536709" lon="11.1919748"><ele>274.0</ele><time>2026-03-29T08:49:38.854Z</time></trkpt><trkpt lat="43.6536219" lon="11.1921813"><ele>275.0</ele><time>2026-03-29T08:49:39.852Z</time></trkpt><trkpt lat="43.6535251" lon="11.1923678"><ele>270.6666666666667</ele><time>2026-03-29T08:49:40.891Z</time></trkpt><trkpt lat="43.6534101" lon="11.1925415"><ele>266.3333333333333</ele><time>2026-03-29T08:49:41.885Z</time></trkpt><trkpt lat="43.6532633" lon="11.1926911"><ele>262.0</ele><time>2026-03-29T08:49:42.856Z</time></trkpt><trkpt lat="43.6531436" lon="11.1928213"><ele>262.0</ele><time>2026-03-29T08:49:43.866Z</time></trkpt><trkpt lat="43.6530415" lon="11.1929253"><ele>262.0</ele><time>2026-03-29T08:49:44.853Z</time></trkpt><trkpt lat="43.6529285" lon="11.1929804"><ele>262.0</ele><time>2026-03-29T08:49:45.858Z</time></trkpt><trkpt lat="43.652814" lon="11.1929953"><ele>262.0</ele><time>2026-03-29T08:49:46.854Z</time></trkpt><trkpt lat="43.6526962" lon="11.1929741"><ele>263.5</ele><time>2026-03-29T08:49:47.863Z</time></trkpt><trkpt lat="43.6525904" lon="11.1929185"><ele>265.0</ele><time>2026-03-29T08:49:48.854Z</time></trkpt><trkpt lat="43.6524971" lon="11.1928117"><ele>266.5</ele><time>2026-03-29T08:49:49.886Z</time></trkpt><trkpt lat="43.6524167" lon="11.1926766"><ele>268.0</ele><time>2026-03-29T08:49:50.888Z</time></trkpt><trkpt lat="43.6523531" lon="11.1925252"><ele>268.0</ele><time>2026-03-29T08:49:51.886Z</time></trkpt><trkpt lat="43.6522993" lon="11.1923718"><ele>268.0</ele><time>2026-03-29T08:49:52.886Z</time></trkpt><trkpt lat="43.6522522" lon="11.1922281"><ele>268.0</ele><time>2026-03-29T08:49:53.855Z</time></trkpt><trkpt lat="43.6521937" lon="11.1920826"><ele>268.0</ele><time>2026-03-29T08:49:54.858Z</time></trkpt><trkpt lat="43.6521237" lon="11.1919299"><ele>264.5</ele><time>2026-03-29T08:49:55.858Z</time></trkpt><trkpt lat="43.6520541" lon="11.1917793"><ele>261.0</ele><time>2026-03-29T08:49:56.858Z</time></trkpt><trkpt lat="43.6519805" lon="11.1916179"><ele>257.5</ele><time>2026-03-29T08:49:57.859Z</time></trkpt><trkpt lat="43.6519091" lon="11.1914702"><ele>254.0</ele><time>2026-03-29T08:49:58.884Z</time></trkpt><trkpt lat="43.6518372" lon="11.1913494"><ele>252.75</ele><time>2026-03-29T08:49:59.888Z</time></trkpt><trkpt lat="43.6517379" lon="11.1912503"><ele>251.5</ele><time>2026-03-29T08:50:00.857Z</time></trkpt><trkpt lat="43.6516098" lon="11.1911878"><ele>250.25</ele><time>2026-03-29T08:50:01.855Z</time></trkpt><trkpt lat="43.6514502" lon="11.1911701"><ele>249.0</ele><time>2026-03-29T08:50:02.862Z</time></trkpt><trkpt lat="43.6512857" lon="11.1911919"><ele>249.0</ele><time>2026-03-29T08:50:03.852Z</time></trkpt><trkpt lat="43.6511354" lon="11.1912804"><ele>249.0</ele><time>2026-03-29T08:50:04.86Z</time></trkpt><trkpt lat="43.6510131" lon="11.1913975"><ele>249.0</ele><time>2026-03-29T08:50:05.852Z</time></trkpt><trkpt lat="43.6508941" lon="11.1914763"><ele>249.0</ele><time>2026-03-29T08:50:06.862Z</time></trkpt><trkpt lat="43.6507639" lon="11.1914901"><ele>249.25</ele><time>2026-03-29T08:50:07.878Z</time></trkpt><trkpt lat="43.6506502" lon="11.1914656"><ele>249.5</ele><time>2026-03-29T08:50:08.853Z</time></trkpt><trkpt lat="43.650558" lon="11.1913465"><ele>249.75</ele><time>2026-03-29T08:50:09.856Z</time></trkpt><trkpt lat="43.6505025" lon="11.1911428"><ele>250.0</ele><time>2026-03-29T08:50:10.858Z</time></trkpt><trkpt lat="43.6504795" lon="11.1909245"><ele>250.0</ele><time>2026-03-29T08:50:11.853Z</time></trkpt><trkpt lat="43.6504604" lon="11.1907244"><ele>250.0</ele><time>2026-03-29T08:50:12.857Z</time></trkpt><trkpt lat="43.6504197" lon="11.1904947"><ele>250.0</ele><time>2026-03-29T08:50:13.854Z</time></trkpt><trkpt lat="43.6503697" lon="11.1902628"><ele>248.33333333333331</ele><time>2026-03-29T08:50:14.855Z</time></trkpt><trkpt lat="43.6503127" lon="11.1900546"><ele>246.66666666666669</ele><time>2026-03-29T08:50:15.853Z</time></trkpt><trkpt lat="43.6502358" lon="11.1898399"><ele>245.0</ele><time>2026-03-29T08:50:16.855Z</time></trkpt><trkpt lat="43.6501518" lon="11.1896253"><ele>245.0</ele><time>2026-03-29T08:50:17.857Z</time></trkpt><trkpt lat="43.6500619" lon="11.1894"><ele>245.0</ele><time>2026-03-29T08:50:18.861Z</time></trkpt><trkpt lat="43.6499732" lon="11.189167"><ele>245.0</ele><time>2026-03-29T08:50:19.855Z</time></trkpt><trkpt lat="43.6498948" lon="11.1889363"><ele>245.0</ele><time>2026-03-29T08:50:20.853Z</time></trkpt><trkpt lat="43.6498002" lon="11.1887087"><ele>245.0</ele><time>2026-03-29T08:50:21.859Z</time></trkpt><trkpt lat="43.6497007" lon="11.1884878"><ele>245.0</ele><time>2026-03-29T08:50:22.881Z</time></trkpt><trkpt lat="43.6495906" lon="11.1882854"><ele>247.33333333333334</ele><time>2026-03-29T08:50:23.885Z</time></trkpt><trkpt lat="43.6494875" lon="11.1880867"><ele>249.66666666666669</ele><time>2026-03-29T08:50:24.858Z</time></trkpt><trkpt lat="43.6493942" lon="11.1878805"><ele>252.0</ele><time>2026-03-29T08:50:25.855Z</time></trkpt><trkpt lat="43.6493286" lon="11.1876602"><ele>252.0</ele><time>2026-03-29T08:50:26.86Z</time></trkpt><trkpt lat="43.649291" lon="11.187414"><ele>252.0</ele><time>2026-03-29T08:50:27.854Z</time></trkpt><trkpt lat="43.6492852" lon="11.1871405"><ele>252.0</ele><time>2026-03-29T08:50:28.884Z</time></trkpt><trkpt lat="43.649302" lon="11.1868727"><ele>250.33333333333331</ele><time>2026-03-29T08:50:29.884Z</time></trkpt><trkpt lat="43.6493164" lon="11.186613"><ele>248.66666666666666</ele><time>2026-03-29T08:50:30.856Z</time></trkpt><trkpt lat="43.6493114" lon="11.1863566"><ele>247.0</ele><time>2026-03-29T08:50:31.856Z</time></trkpt><trkpt lat="43.6492733" lon="11.1861197"><ele>244.33333333333331</ele><time>2026-03-29T08:50:32.854Z</time></trkpt><trkpt lat="43.6491921" lon="11.1859006"><ele>241.66666666666669</ele><time>2026-03-29T08:50:33.856Z</time></trkpt><trkpt lat="43.6490919" lon="11.1856929"><ele>239.0</ele><time>2026-03-29T08:50:34.865Z</time></trkpt><trkpt lat="43.6489842" lon="11.1854946"><ele>235.0</ele><time>2026-03-29T08:50:35.855Z</time></trkpt><trkpt lat="43.6488929" lon="11.1852868"><ele>231.0</ele><time>2026-03-29T08:50:36.852Z</time></trkpt><trkpt lat="43.6488238" lon="11.1850546"><ele>227.0</ele><time>2026-03-29T08:50:37.883Z</time></trkpt><trkpt lat="43.6487973" lon="11.1848011"><ele>223.33333333333334</ele><time>2026-03-29T08:50:38.854Z</time></trkpt><trkpt lat="43.648754" lon="11.1845472"><ele>219.66666666666669</ele><time>2026-03-29T08:50:39.854Z</time></trkpt><trkpt lat="43.648683" lon="11.1843096"><ele>216.0</ele><time>2026-03-29T08:50:40.857Z</time></trkpt><trkpt lat="43.6485866" lon="11.1840753"><ele>218.33333333333331</ele><time>2026-03-29T08:50:41.855Z</time></trkpt><trkpt lat="43.6484616" lon="11.1838566"><ele>220.66666666666666</ele><time>2026-03-29T08:50:42.852Z</time></trkpt><trkpt lat="43.6483211" lon="11.1836355"><ele>223.0</ele><time>2026-03-29T08:50:43.889Z</time></trkpt><trkpt lat="43.6481903" lon="11.1834198"><ele>223.0</ele><time>2026-03-29T08:50:44.856Z</time></trkpt><trkpt lat="43.6480639" lon="11.1832025"><ele>223.0</ele><time>2026-03-29T08:50:45.857Z</time></trkpt><trkpt lat="43.6479445" lon="11.1829892"><ele>223.0</ele><time>2026-03-29T08:50:46.882Z</time></trkpt><trkpt lat="43.6478143" lon="11.1827869"><ele>223.66666666666666</ele><time>2026-03-29T08:50:47.856Z</time></trkpt><trkpt lat="43.6476571" lon="11.1826201"><ele>224.33333333333331</ele><time>2026-03-29T08:50:48.856Z</time></trkpt><trkpt lat="43.6474533" lon="11.182496"><ele>225.0</ele><time>2026-03-29T08:50:49.855Z</time></trkpt><trkpt lat="43.6472378" lon="11.1823984"><ele>223.0</ele><time>2026-03-29T08:50:50.857Z</time></trkpt><trkpt lat="43.6470295" lon="11.1822853"><ele>221.0</ele><time>2026-03-29T08:50:51.854Z</time></trkpt><trkpt lat="43.6468483" lon="11.1821436"><ele>219.0</ele><time>2026-03-29T08:50:52.853Z</time></trkpt><trkpt lat="43.646684" lon="11.1819493"><ele>219.0</ele><time>2026-03-29T08:50:53.858Z</time></trkpt><trkpt lat="43.6465428" lon="11.1817453"><ele>219.0</ele><time>2026-03-29T08:50:54.856Z</time></trkpt><trkpt lat="43.6463801" lon="11.1815402"><ele>219.0</ele><time>2026-03-29T08:50:55.855Z</time></trkpt><trkpt lat="43.6462112" lon="11.1813568"><ele>217.0</ele><time>2026-03-29T08:50:56.855Z</time></trkpt><trkpt lat="43.6460389" lon="11.1811802"><ele>215.0</ele><time>2026-03-29T08:50:57.889Z</time></trkpt><trkpt lat="43.6458796" lon="11.1810021"><ele>213.0</ele><time>2026-03-29T08:50:58.852Z</time></trkpt><trkpt lat="43.6457401" lon="11.180812"><ele>210.0</ele><time>2026-03-29T08:50:59.85Z</time></trkpt><trkpt lat="43.6456185" lon="11.1806596"><ele>207.0</ele><time>2026-03-29T08:51:00.858Z</time></trkpt><trkpt lat="43.6454731" lon="11.1805329"><ele>204.0</ele><time>2026-03-29T08:51:01.853Z</time></trkpt><trkpt lat="43.6452767" lon="11.1804416"><ele>204.0</ele><time>2026-03-29T08:51:02.852Z</time></trkpt><trkpt lat="43.6450859" lon="11.18036"><ele>204.0</ele><time>2026-03-29T08:51:03.867Z</time></trkpt><trkpt lat="43.6448996" lon="11.1802724"><ele>204.0</ele><time>2026-03-29T08:51:04.882Z</time></trkpt><trkpt lat="43.6447224" lon="11.1801589"><ele>204.0</ele><time>2026-03-29T08:51:05.853Z</time></trkpt><trkpt lat="43.6445686" lon="11.1799948"><ele>204.0</ele><time>2026-03-29T08:51:06.857Z</time></trkpt><trkpt lat="43.6444233" lon="11.179779"><ele>204.0</ele><time>2026-03-29T08:51:07.855Z</time></trkpt><trkpt lat="43.644285" lon="11.1795609"><ele>202.0</ele><time>2026-03-29T08:51:08.855Z</time></trkpt><trkpt lat="43.6441408" lon="11.179345"><ele>200.0</ele><time>2026-03-29T08:51:09.886Z</time></trkpt><trkpt lat="43.6439939" lon="11.1791232"><ele>198.0</ele><time>2026-03-29T08:51:10.885Z</time></trkpt><trkpt lat="43.6438481" lon="11.1789064"><ele>197.0</ele><time>2026-03-29T08:51:11.886Z</time></trkpt><trkpt lat="43.6436998" lon="11.1786943"><ele>196.0</ele><time>2026-03-29T08:51:12.855Z</time></trkpt><trkpt lat="43.6435604" lon="11.1784797"><ele>195.0</ele><time>2026-03-29T08:51:13.885Z</time></trkpt><trkpt lat="43.6434256" lon="11.1782652"><ele>190.66666666666666</ele><time>2026-03-29T08:51:14.886Z</time></trkpt><trkpt lat="43.6433048" lon="11.1780531"><ele>186.33333333333331</ele><time>2026-03-29T08:51:15.854Z</time></trkpt><trkpt lat="43.6431785" lon="11.1778434"><ele>182.0</ele><time>2026-03-29T08:51:16.854Z</time></trkpt><trkpt lat="43.6430443" lon="11.1776402"><ele>182.0</ele><time>2026-03-29T08:51:17.883Z</time></trkpt><trkpt lat="43.6429097" lon="11.1774354"><ele>182.0</ele><time>2026-03-29T08:51:18.856Z</time></trkpt><trkpt lat="43.6427829" lon="11.1772233"><ele>182.0</ele><time>2026-03-29T08:51:19.882Z</time></trkpt><trkpt lat="43.6426749" lon="11.1769905"><ele>182.66666666666666</ele><time>2026-03-29T08:51:20.888Z</time></trkpt><trkpt lat="43.6425972" lon="11.1767332"><ele>183.33333333333334</ele><time>2026-03-29T08:51:21.886Z</time></trkpt><trkpt lat="43.6425455" lon="11.1764634"><ele>184.0</ele><time>2026-03-29T08:51:22.853Z</time></trkpt><trkpt lat="43.6425036" lon="11.1762028"><ele>181.0</ele><time>2026-03-29T08:51:23.863Z</time></trkpt><trkpt lat="43.6424423" lon="11.1759482"><ele>178.0</ele><time>2026-03-29T08:51:24.847Z</time></trkpt><trkpt lat="43.6423587" lon="11.1757088"><ele>175.0</ele><time>2026-03-29T08:51:25.862Z</time></trkpt><trkpt lat="43.6422587" lon="11.1754839"><ele>176.66666666666669</ele><time>2026-03-29T08:51:26.854Z</time></trkpt><trkpt lat="43.6421553" lon="11.1752653"><ele>178.33333333333334</ele><time>2026-03-29T08:51:27.887Z</time></trkpt><trkpt lat="43.6420515" lon="11.1750618"><ele>180.0</ele><time>2026-03-29T08:51:28.861Z</time></trkpt><trkpt lat="43.6419537" lon="11.174885"><ele>175.0</ele><time>2026-03-29T08:51:29.861Z</time></trkpt><trkpt lat="43.6418562" lon="11.1747204"><ele>170.0</ele><time>2026-03-29T08:51:30.854Z</time></trkpt><trkpt lat="43.641744" lon="11.1745786"><ele>165.0</ele><time>2026-03-29T08:51:31.883Z</time></trkpt><trkpt lat="43.6416107" lon="11.1744773"><ele>165.0</ele><time>2026-03-29T08:51:32.851Z</time></trkpt><trkpt lat="43.6414696" lon="11.1744163"><ele>165.0</ele><time>2026-03-29T08:51:33.889Z</time></trkpt><trkpt lat="43.6413064" lon="11.1744079"><ele>165.0</ele><time>2026-03-29T08:51:34.902Z</time></trkpt><trkpt lat="43.641159" lon="11.1744495"><ele>164.25</ele><time>2026-03-29T08:51:35.863Z</time></trkpt><trkpt lat="43.6410246" lon="11.1745055"><ele>163.5</ele><time>2026-03-29T08:51:36.855Z</time></trkpt><trkpt lat="43.640902" lon="11.1745859"><ele>162.75</ele><time>2026-03-29T08:51:37.854Z</time></trkpt><trkpt lat="43.640815" lon="11.1747004"><ele>162.0</ele><time>2026-03-29T08:51:38.887Z</time></trkpt><trkpt lat="43.6407692" lon="11.1748489"><ele>162.5</ele><time>2026-03-29T08:51:39.866Z</time></trkpt><trkpt lat="43.6407819" lon="11.1750003"><ele>163.0</ele><time>2026-03-29T08:51:40.852Z</time></trkpt><trkpt lat="43.6408373" lon="11.1751651"><ele>163.5</ele><time>2026-03-29T08:51:41.856Z</time></trkpt><trkpt lat="43.6409112" lon="11.1753276"><ele>164.0</ele><time>2026-03-29T08:51:42.861Z</time></trkpt><trkpt lat="43.6409748" lon="11.1755169"><ele>163.5</ele><time>2026-03-29T08:51:43.855Z</time></trkpt><trkpt lat="43.6410006" lon="11.1757056"><ele>163.0</ele><time>2026-03-29T08:51:44.853Z</time></trkpt><trkpt lat="43.6410056" lon="11.1759119"><ele>162.5</ele><time>2026-03-29T08:51:45.856Z</time></trkpt><trkpt lat="43.641005" lon="11.1761211"><ele>162.0</ele><time>2026-03-29T08:51:46.886Z</time></trkpt><trkpt lat="43.6409664" lon="11.1765084"><ele>162.0</ele><time>2026-03-29T08:51:48.852Z</time></trkpt><trkpt lat="43.6409328" lon="11.1766786"><ele>162.0</ele><time>2026-03-29T08:51:49.853Z</time></trkpt><trkpt lat="43.6408719" lon="11.1768095"><ele>162.0</ele><time>2026-03-29T08:51:50.856Z</time></trkpt><trkpt lat="43.640765" lon="11.1768678"><ele>162.0</ele><time>2026-03-29T08:51:51.854Z</time></trkpt><trkpt lat="43.6406113" lon="11.1768312"><ele>162.0</ele><time>2026-03-29T08:51:52.857Z</time></trkpt><trkpt lat="43.6404695" lon="11.1767468"><ele>162.0</ele><time>2026-03-29T08:51:53.854Z</time></trkpt><trkpt lat="43.6403403" lon="11.1766214"><ele>162.0</ele><time>2026-03-29T08:51:54.859Z</time></trkpt><trkpt lat="43.6402205" lon="11.1764865"><ele>159.75</ele><time>2026-03-29T08:51:55.86Z</time></trkpt><trkpt lat="43.6401118" lon="11.1763542"><ele>157.5</ele><time>2026-03-29T08:51:56.851Z</time></trkpt><trkpt lat="43.6400063" lon="11.17622"><ele>155.25</ele><time>2026-03-29T08:51:57.862Z</time></trkpt><trkpt lat="43.6399032" lon="11.1760956"><ele>153.0</ele><time>2026-03-29T08:51:58.863Z</time></trkpt><trkpt lat="43.6397853" lon="11.1759746"><ele>153.0</ele><time>2026-03-29T08:51:59.851Z</time></trkpt><trkpt lat="43.6396648" lon="11.175865"><ele>153.0</ele><time>2026-03-29T08:52:00.854Z</time></trkpt><trkpt lat="43.6395203" lon="11.1757969"><ele>153.0</ele><time>2026-03-29T08:52:01.861Z</time></trkpt><trkpt lat="43.6393876" lon="11.1757554"><ele>153.0</ele><time>2026-03-29T08:52:02.856Z</time></trkpt><trkpt lat="43.639266" lon="11.1757411"><ele>153.5</ele><time>2026-03-29T08:52:03.855Z</time></trkpt><trkpt lat="43.6391542" lon="11.1757676"><ele>154.0</ele><time>2026-03-29T08:52:04.863Z</time></trkpt><trkpt lat="43.6390319" lon="11.1758167"><ele>154.5</ele><time>2026-03-29T08:52:05.856Z</time></trkpt><trkpt lat="43.638883" lon="11.1758699"><ele>155.0</ele><time>2026-03-29T08:52:06.881Z</time></trkpt><trkpt lat="43.638705" lon="11.1759094"><ele>151.66666666666666</ele><time>2026-03-29T08:52:07.883Z</time></trkpt><trkpt lat="43.6385343" lon="11.1759906"><ele>148.33333333333334</ele><time>2026-03-29T08:52:08.855Z</time></trkpt><trkpt lat="43.6383678" lon="11.1760982"><ele>145.0</ele><time>2026-03-29T08:52:09.856Z</time></trkpt><trkpt lat="43.6382042" lon="11.176224"><ele>145.0</ele><time>2026-03-29T08:52:10.855Z</time></trkpt><trkpt lat="43.6380474" lon="11.1763675"><ele>145.0</ele><time>2026-03-29T08:52:11.856Z</time></trkpt><trkpt lat="43.6378976" lon="11.1765325"><ele>145.0</ele><time>2026-03-29T08:52:12.853Z</time></trkpt><trkpt lat="43.6377589" lon="11.1767132"><ele>144.0</ele><time>2026-03-29T08:52:13.863Z</time></trkpt><trkpt lat="43.637633" lon="11.1769175"><ele>143.0</ele><time>2026-03-29T08:52:14.858Z</time></trkpt><trkpt lat="43.6375281" lon="11.177145"><ele>142.0</ele><time>2026-03-29T08:52:15.857Z</time></trkpt><trkpt lat="43.6374461" lon="11.1773847"><ele>142.0</ele><time>2026-03-29T08:52:16.853Z</time></trkpt><trkpt lat="43.6373758" lon="11.1776132"><ele>142.0</ele><time>2026-03-29T08:52:17.856Z</time></trkpt><trkpt lat="43.6373023" lon="11.1778364"><ele>142.0</ele><time>2026-03-29T08:52:18.859Z</time></trkpt><trkpt lat="43.6372136" lon="11.1780461"><ele>140.33333333333334</ele><time>2026-03-29T08:52:19.887Z</time></trkpt><trkpt lat="43.6371091" lon="11.1782297"><ele>138.66666666666666</ele><time>2026-03-29T08:52:20.853Z</time></trkpt><trkpt lat="43.6369781" lon="11.1783911"><ele>137.0</ele><time>2026-03-29T08:52:21.856Z</time></trkpt><trkpt lat="43.6368391" lon="11.1785401"><ele>137.0</ele><time>2026-03-29T08:52:22.859Z</time></trkpt><trkpt lat="43.6366987" lon="11.1786794"><ele>137.0</ele><time>2026-03-29T08:52:23.853Z</time></trkpt><trkpt lat="43.6365583" lon="11.1788002"><ele>137.0</ele><time>2026-03-29T08:52:24.885Z</time></trkpt><trkpt lat="43.6364057" lon="11.1788967"><ele>137.0</ele><time>2026-03-29T08:52:25.856Z</time></trkpt><trkpt lat="43.6362452" lon="11.1789598"><ele>137.0</ele><time>2026-03-29T08:52:26.87Z</time></trkpt><trkpt lat="43.636077" lon="11.1789836"><ele>137.0</ele><time>2026-03-29T08:52:27.851Z</time></trkpt><trkpt lat="43.6359168" lon="11.1789596"><ele>134.66666666666666</ele><time>2026-03-29T08:52:28.853Z</time></trkpt><trkpt lat="43.6357682" lon="11.1789054"><ele>132.33333333333334</ele><time>2026-03-29T08:52:29.852Z</time></trkpt><trkpt lat="43.635614" lon="11.1788349"><ele>130.0</ele><time>2026-03-29T08:52:30.855Z</time></trkpt><trkpt lat="43.6354555" lon="11.1787701"><ele>129.33333333333334</ele><time>2026-03-29T08:52:31.855Z</time></trkpt><trkpt lat="43.6352991" lon="11.1787162"><ele>128.66666666666666</ele><time>2026-03-29T08:52:32.852Z</time></trkpt><trkpt lat="43.635139" lon="11.1786596"><ele>128.0</ele><time>2026-03-29T08:52:33.854Z</time></trkpt><trkpt lat="43.6349782" lon="11.1786318"><ele>128.0</ele><time>2026-03-29T08:52:34.852Z</time></trkpt><trkpt lat="43.6348167" lon="11.1786326"><ele>128.0</ele><time>2026-03-29T08:52:35.855Z</time></trkpt><trkpt lat="43.6346564" lon="11.178672"><ele>128.0</ele><time>2026-03-29T08:52:36.856Z</time></trkpt><trkpt lat="43.6344978" lon="11.1787328"><ele>128.33333333333331</ele><time>2026-03-29T08:52:37.856Z</time></trkpt><trkpt lat="43.6343402" lon="11.1788238"><ele>128.66666666666666</ele><time>2026-03-29T08:52:38.855Z</time></trkpt><trkpt lat="43.6341854" lon="11.1789216"><ele>129.0</ele><time>2026-03-29T08:52:39.858Z</time></trkpt><trkpt lat="43.6340351" lon="11.179014"><ele>129.0</ele><time>2026-03-29T08:52:40.856Z</time></trkpt><trkpt lat="43.6338927" lon="11.1791049"><ele>129.0</ele><time>2026-03-29T08:52:41.856Z</time></trkpt><trkpt lat="43.6337544" lon="11.1792066"><ele>129.0</ele><time>2026-03-29T08:52:42.855Z</time></trkpt><trkpt lat="43.633623" lon="11.1793204"><ele>129.0</ele><time>2026-03-29T08:52:43.856Z</time></trkpt><trkpt lat="43.6335005" lon="11.1794516"><ele>129.0</ele><time>2026-03-29T08:52:44.857Z</time></trkpt><trkpt lat="43.6333825" lon="11.1795911"><ele>129.0</ele><time>2026-03-29T08:52:45.856Z</time></trkpt><trkpt lat="43.6332614" lon="11.17973"><ele>129.33333333333334</ele><time>2026-03-29T08:52:46.857Z</time></trkpt><trkpt lat="43.6331344" lon="11.1798678"><ele>129.66666666666669</ele><time>2026-03-29T08:52:47.886Z</time></trkpt><trkpt lat="43.6330029" lon="11.1799994"><ele>130.0</ele><time>2026-03-29T08:52:48.861Z</time></trkpt><trkpt lat="43.6328664" lon="11.1801153"><ele>129.66666666666669</ele><time>2026-03-29T08:52:49.882Z</time></trkpt><trkpt lat="43.63272" lon="11.1802085"><ele>129.33333333333334</ele><time>2026-03-29T08:52:50.859Z</time></trkpt><trkpt lat="43.6325631" lon="11.1802916"><ele>129.0</ele><time>2026-03-29T08:52:51.855Z</time></trkpt><trkpt lat="43.6323958" lon="11.1803737"><ele>129.0</ele><time>2026-03-29T08:52:52.855Z</time></trkpt><trkpt lat="43.6322203" lon="11.1804577"><ele>129.0</ele><time>2026-03-29T08:52:53.853Z</time></trkpt><trkpt lat="43.6320382" lon="11.1805496"><ele>129.0</ele><time>2026-03-29T08:52:54.857Z</time></trkpt><trkpt lat="43.6318512" lon="11.1806521"><ele>128.66666666666666</ele><time>2026-03-29T08:52:55.855Z</time></trkpt><trkpt lat="43.6316597" lon="11.1807666"><ele>128.33333333333331</ele><time>2026-03-29T08:52:56.887Z</time></trkpt><trkpt lat="43.6314621" lon="11.1808839"><ele>128.0</ele><time>2026-03-29T08:52:57.884Z</time></trkpt><trkpt lat="43.6312609" lon="11.1809928"><ele>128.0</ele><time>2026-03-29T08:52:58.883Z</time></trkpt><trkpt lat="43.6310629" lon="11.1810932"><ele>128.0</ele><time>2026-03-29T08:52:59.886Z</time></trkpt><trkpt lat="43.630869" lon="11.1811736"><ele>128.0</ele><time>2026-03-29T08:53:00.857Z</time></trkpt><trkpt lat="43.6306656" lon="11.1812439"><ele>128.0</ele><time>2026-03-29T08:53:01.86Z</time></trkpt><trkpt lat="43.6304644" lon="11.1813107"><ele>128.0</ele><time>2026-03-29T08:53:02.862Z</time></trkpt><trkpt lat="43.6302703" lon="11.1813855"><ele>128.0</ele><time>2026-03-29T08:53:03.858Z</time></trkpt><trkpt lat="43.6300837" lon="11.1814752"><ele>129.33333333333331</ele><time>2026-03-29T08:53:04.858Z</time></trkpt><trkpt lat="43.6299077" lon="11.1815904"><ele>130.66666666666666</ele><time>2026-03-29T08:53:05.854Z</time></trkpt><trkpt lat="43.6297344" lon="11.1817174"><ele>132.0</ele><time>2026-03-29T08:53:06.857Z</time></trkpt><trkpt lat="43.6295639" lon="11.1818397"><ele>131.33333333333334</ele><time>2026-03-29T08:53:07.852Z</time></trkpt><trkpt lat="43.629391" lon="11.181934"><ele>130.66666666666669</ele><time>2026-03-29T08:53:08.857Z</time></trkpt><trkpt lat="43.6292106" lon="11.1819946"><ele>130.0</ele><time>2026-03-29T08:53:09.888Z</time></trkpt><trkpt lat="43.6290252" lon="11.182033"><ele>130.0</ele><time>2026-03-29T08:53:10.852Z</time></trkpt><trkpt lat="43.6288414" lon="11.1820757"><ele>130.0</ele><time>2026-03-29T08:53:11.862Z</time></trkpt><trkpt lat="43.6286694" lon="11.1821388"><ele>130.0</ele><time>2026-03-29T08:53:12.89Z</time></trkpt><trkpt lat="43.6285116" lon="11.1822329"><ele>131.0</ele><time>2026-03-29T08:53:13.856Z</time></trkpt><trkpt lat="43.6283612" lon="11.1823698"><ele>132.0</ele><time>2026-03-29T08:53:14.854Z</time></trkpt><trkpt lat="43.6282299" lon="11.1825445"><ele>133.0</ele><time>2026-03-29T08:53:15.886Z</time></trkpt><trkpt lat="43.6281119" lon="11.1827467"><ele>133.0</ele><time>2026-03-29T08:53:16.853Z</time></trkpt><trkpt lat="43.6279919" lon="11.1829558"><ele>133.0</ele><time>2026-03-29T08:53:17.859Z</time></trkpt><trkpt lat="43.6278739" lon="11.183153"><ele>133.0</ele><time>2026-03-29T08:53:18.883Z</time></trkpt><trkpt lat="43.6277472" lon="11.1833379"><ele>134.66666666666669</ele><time>2026-03-29T08:53:19.854Z</time></trkpt><trkpt lat="43.627602" lon="11.1835122"><ele>136.33333333333334</ele><time>2026-03-29T08:53:20.858Z</time></trkpt><trkpt lat="43.6274455" lon="11.1836656"><ele>138.0</ele><time>2026-03-29T08:53:21.856Z</time></trkpt><trkpt lat="43.6272828" lon="11.1837982"><ele>138.0</ele><time>2026-03-29T08:53:22.857Z</time></trkpt><trkpt lat="43.627107" lon="11.1838968"><ele>138.0</ele><time>2026-03-29T08:53:23.852Z</time></trkpt><trkpt lat="43.6269263" lon="11.1839603"><ele>138.0</ele><time>2026-03-29T08:53:24.881Z</time></trkpt><trkpt lat="43.6267461" lon="11.1840053"><ele>139.0</ele><time>2026-03-29T08:53:25.86Z</time></trkpt><trkpt lat="43.6265566" lon="11.1840351"><ele>140.0</ele><time>2026-03-29T08:53:26.851Z</time></trkpt><trkpt lat="43.62636" lon="11.1840583"><ele>141.0</ele><time>2026-03-29T08:53:27.856Z</time></trkpt><trkpt lat="43.6261614" lon="11.1840907"><ele>141.0</ele><time>2026-03-29T08:53:28.861Z</time></trkpt><trkpt lat="43.6259732" lon="11.1841427"><ele>141.0</ele><time>2026-03-29T08:53:29.856Z</time></trkpt><trkpt lat="43.6257892" lon="11.1842128"><ele>141.0</ele><time>2026-03-29T08:53:30.857Z</time></trkpt><trkpt lat="43.6256124" lon="11.1843145"><ele>141.0</ele><time>2026-03-29T08:53:31.855Z</time></trkpt><trkpt lat="43.6254458" lon="11.1844419"><ele>141.0</ele><time>2026-03-29T08:53:32.856Z</time></trkpt><trkpt lat="43.6252891" lon="11.1845843"><ele>141.0</ele><time>2026-03-29T08:53:33.861Z</time></trkpt><trkpt lat="43.6251371" lon="11.1847301"><ele>143.66666666666666</ele><time>2026-03-29T08:53:34.861Z</time></trkpt><trkpt lat="43.6249789" lon="11.184873"><ele>146.33333333333331</ele><time>2026-03-29T08:53:35.883Z</time></trkpt><trkpt lat="43.6248236" lon="11.185015"><ele>149.0</ele><time>2026-03-29T08:53:36.86Z</time></trkpt><trkpt lat="43.6246812" lon="11.1851539"><ele>149.0</ele><time>2026-03-29T08:53:37.855Z</time></trkpt><trkpt lat="43.6245356" lon="11.1852793"><ele>149.0</ele><time>2026-03-29T08:53:38.86Z</time></trkpt><trkpt lat="43.6243723" lon="11.1853761"><ele>149.0</ele><time>2026-03-29T08:53:39.888Z</time></trkpt><trkpt lat="43.6241896" lon="11.1854568"><ele>147.66666666666666</ele><time>2026-03-29T08:53:40.887Z</time></trkpt><trkpt lat="43.6239926" lon="11.185533"><ele>146.33333333333334</ele><time>2026-03-29T08:53:41.888Z</time></trkpt><trkpt lat="43.6237969" lon="11.1856352"><ele>145.0</ele><time>2026-03-29T08:53:42.865Z</time></trkpt><trkpt lat="43.6236096" lon="11.1857724"><ele>144.33333333333334</ele><time>2026-03-29T08:53:43.881Z</time></trkpt><trkpt lat="43.6234334" lon="11.1859296"><ele>143.66666666666666</ele><time>2026-03-29T08:53:44.856Z</time></trkpt><trkpt lat="43.623259" lon="11.1860918"><ele>143.0</ele><time>2026-03-29T08:53:45.858Z</time></trkpt><trkpt lat="43.6230802" lon="11.1862446"><ele>143.0</ele><time>2026-03-29T08:53:46.886Z</time></trkpt><trkpt lat="43.6228934" lon="11.1863757"><ele>143.0</ele><time>2026-03-29T08:53:47.853Z</time></trkpt><trkpt lat="43.6227002" lon="11.1864887"><ele>143.0</ele><time>2026-03-29T08:53:48.855Z</time></trkpt><trkpt lat="43.6225013" lon="11.1865941"><ele>144.0</ele><time>2026-03-29T08:53:49.858Z</time></trkpt><trkpt lat="43.6223005" lon="11.18669"><ele>145.0</ele><time>2026-03-29T08:53:50.857Z</time></trkpt><trkpt lat="43.6220998" lon="11.1867798"><ele>146.0</ele><time>2026-03-29T08:53:51.857Z</time></trkpt><trkpt lat="43.6219003" lon="11.1868632"><ele>143.33333333333331</ele><time>2026-03-29T08:53:52.882Z</time></trkpt><trkpt lat="43.6217023" lon="11.1869389"><ele>140.66666666666666</ele><time>2026-03-29T08:53:53.882Z</time></trkpt><trkpt lat="43.6215081" lon="11.1870085"><ele>138.0</ele><time>2026-03-29T08:53:54.854Z</time></trkpt><trkpt lat="43.6213197" lon="11.1870665"><ele>138.0</ele><time>2026-03-29T08:53:55.853Z</time></trkpt><trkpt lat="43.6211384" lon="11.1871189"><ele>138.0</ele><time>2026-03-29T08:53:56.887Z</time></trkpt><trkpt lat="43.6209627" lon="11.1871611"><ele>138.0</ele><time>2026-03-29T08:53:57.855Z</time></trkpt><trkpt lat="43.6207951" lon="11.1871984"><ele>138.0</ele><time>2026-03-29T08:53:58.857Z</time></trkpt><trkpt lat="43.6206357" lon="11.1872367"><ele>138.0</ele><time>2026-03-29T08:53:59.857Z</time></trkpt><trkpt lat="43.6204833" lon="11.1872755"><ele>138.0</ele><time>2026-03-29T08:54:00.858Z</time></trkpt><trkpt lat="43.6203367" lon="11.1873163"><ele>139.33333333333334</ele><time>2026-03-29T08:54:01.854Z</time></trkpt><trkpt lat="43.6201912" lon="11.1873572"><ele>140.66666666666669</ele><time>2026-03-29T08:54:02.858Z</time></trkpt><trkpt lat="43.620047" lon="11.1874096"><ele>142.0</ele><time>2026-03-29T08:54:03.852Z</time></trkpt><trkpt lat="43.6199011" lon="11.1874843"><ele>142.0</ele><time>2026-03-29T08:54:04.857Z</time></trkpt><trkpt lat="43.6197543" lon="11.1875939"><ele>142.0</ele><time>2026-03-29T08:54:05.859Z</time></trkpt><trkpt lat="43.6196107" lon="11.1877427"><ele>142.0</ele><time>2026-03-29T08:54:06.856Z</time></trkpt><trkpt lat="43.6194721" lon="11.1879259"><ele>142.0</ele><time>2026-03-29T08:54:07.862Z</time></trkpt><trkpt lat="43.6193287" lon="11.188125"><ele>142.0</ele><time>2026-03-29T08:54:08.856Z</time></trkpt><trkpt lat="43.6191717" lon="11.1883168"><ele>142.0</ele><time>2026-03-29T08:54:09.853Z</time></trkpt><trkpt lat="43.6189996" lon="11.1884743"><ele>142.0</ele><time>2026-03-29T08:54:10.857Z</time></trkpt><trkpt lat="43.6188118" lon="11.1885902"><ele>142.0</ele><time>2026-03-29T08:54:11.888Z</time></trkpt><trkpt lat="43.6186209" lon="11.1886811"><ele>142.0</ele><time>2026-03-29T08:54:12.858Z</time></trkpt><trkpt lat="43.6184304" lon="11.1887527"><ele>141.66666666666669</ele><time>2026-03-29T08:54:13.856Z</time></trkpt><trkpt lat="43.6182415" lon="11.1888212"><ele>141.33333333333334</ele><time>2026-03-29T08:54:14.854Z</time></trkpt><trkpt lat="43.6180598" lon="11.1888842"><ele>141.0</ele><time>2026-03-29T08:54:15.856Z</time></trkpt><trkpt lat="43.6178833" lon="11.1889479"><ele>143.33333333333334</ele><time>2026-03-29T08:54:16.883Z</time></trkpt><trkpt lat="43.6177158" lon="11.1890125"><ele>145.66666666666669</ele><time>2026-03-29T08:54:17.853Z</time></trkpt><trkpt lat="43.6175544" lon="11.189077"><ele>148.0</ele><time>2026-03-29T08:54:18.864Z</time></trkpt><trkpt lat="43.6174018" lon="11.18915"><ele>148.0</ele><time>2026-03-29T08:54:19.869Z</time></trkpt><trkpt lat="43.6172598" lon="11.1892326"><ele>148.0</ele><time>2026-03-29T08:54:20.855Z</time></trkpt><trkpt lat="43.6171224" lon="11.1893238"><ele>148.0</ele><time>2026-03-29T08:54:21.881Z</time></trkpt><trkpt lat="43.6169911" lon="11.1894235"><ele>148.5</ele><time>2026-03-29T08:54:22.855Z</time></trkpt><trkpt lat="43.6168688" lon="11.1895295"><ele>149.0</ele><time>2026-03-29T08:54:23.855Z</time></trkpt><trkpt lat="43.6167568" lon="11.1896395"><ele>149.5</ele><time>2026-03-29T08:54:24.888Z</time></trkpt><trkpt lat="43.6166509" lon="11.1897465"><ele>150.0</ele><time>2026-03-29T08:54:25.855Z</time></trkpt><trkpt lat="43.6165452" lon="11.1898448"><ele>150.0</ele><time>2026-03-29T08:54:26.859Z</time></trkpt><trkpt lat="43.6164401" lon="11.1899363"><ele>150.0</ele><time>2026-03-29T08:54:27.854Z</time></trkpt><trkpt lat="43.6163386" lon="11.1900233"><ele>150.0</ele><time>2026-03-29T08:54:28.889Z</time></trkpt><trkpt lat="43.6162396" lon="11.1900953"><ele>150.0</ele><time>2026-03-29T08:54:29.855Z</time></trkpt><trkpt lat="43.6161378" lon="11.1901579"><ele>150.0</ele><time>2026-03-29T08:54:30.862Z</time></trkpt><trkpt lat="43.6160288" lon="11.1902121"><ele>150.0</ele><time>2026-03-29T08:54:31.867Z</time></trkpt><trkpt lat="43.6159127" lon="11.1902711"><ele>150.0</ele><time>2026-03-29T08:54:32.883Z</time></trkpt><trkpt lat="43.6157902" lon="11.1903235"><ele>150.0</ele><time>2026-03-29T08:54:33.857Z</time></trkpt><trkpt lat="43.6156642" lon="11.190356"><ele>150.0</ele><time>2026-03-29T08:54:34.855Z</time></trkpt><trkpt lat="43.6155329" lon="11.1903823"><ele>150.0</ele><time>2026-03-29T08:54:35.861Z</time></trkpt><trkpt lat="43.6154038" lon="11.1904107"><ele>150.0</ele><time>2026-03-29T08:54:36.854Z</time></trkpt><trkpt lat="43.6152767" lon="11.1904406"><ele>150.0</ele><time>2026-03-29T08:54:37.855Z</time></trkpt><trkpt lat="43.6151462" lon="11.1904693"><ele>148.75</ele><time>2026-03-29T08:54:38.851Z</time></trkpt><trkpt lat="43.6150187" lon="11.1904961"><ele>147.5</ele><time>2026-03-29T08:54:39.851Z</time></trkpt><trkpt lat="43.6148907" lon="11.1905249"><ele>146.25</ele><time>2026-03-29T08:54:40.856Z</time></trkpt><trkpt lat="43.6147603" lon="11.1905619"><ele>145.0</ele><time>2026-03-29T08:54:41.854Z</time></trkpt><trkpt lat="43.614629" lon="11.190607"><ele>145.0</ele><time>2026-03-29T08:54:42.89Z</time></trkpt><trkpt lat="43.6144973" lon="11.1906606"><ele>145.0</ele><time>2026-03-29T08:54:43.855Z</time></trkpt><trkpt lat="43.6143645" lon="11.1907159"><ele>145.0</ele><time>2026-03-29T08:54:44.859Z</time></trkpt><trkpt lat="43.6142283" lon="11.1907724"><ele>145.0</ele><time>2026-03-29T08:54:45.854Z</time></trkpt><trkpt lat="43.6140878" lon="11.1908312"><ele>145.33333333333334</ele><time>2026-03-29T08:54:46.883Z</time></trkpt><trkpt lat="43.6139428" lon="11.1908985"><ele>145.66666666666666</ele><time>2026-03-29T08:54:47.853Z</time></trkpt><trkpt lat="43.613792" lon="11.1909675"><ele>146.0</ele><time>2026-03-29T08:54:48.883Z</time></trkpt><trkpt lat="43.6136337" lon="11.1910359"><ele>146.0</ele><time>2026-03-29T08:54:49.862Z</time></trkpt><trkpt lat="43.6134692" lon="11.191092"><ele>146.0</ele><time>2026-03-29T08:54:50.884Z</time></trkpt><trkpt lat="43.6132982" lon="11.191138"><ele>146.0</ele><time>2026-03-29T08:54:51.886Z</time></trkpt><trkpt lat="43.6131252" lon="11.1911757"><ele>146.0</ele><time>2026-03-29T08:54:52.854Z</time></trkpt><trkpt lat="43.6129547" lon="11.1912041"><ele>146.0</ele><time>2026-03-29T08:54:53.853Z</time></trkpt><trkpt lat="43.6127877" lon="11.1912361"><ele>146.0</ele><time>2026-03-29T08:54:54.883Z</time></trkpt><trkpt lat="43.6126234" lon="11.1912778"><ele>145.66666666666666</ele><time>2026-03-29T08:54:55.853Z</time></trkpt><trkpt lat="43.6124621" lon="11.1913357"><ele>145.33333333333334</ele><time>2026-03-29T08:54:56.852Z</time></trkpt><trkpt lat="43.6123037" lon="11.1914098"><ele>145.0</ele><time>2026-03-29T08:54:57.861Z</time></trkpt><trkpt lat="43.6121458" lon="11.1915015"><ele>145.0</ele><time>2026-03-29T08:54:58.868Z</time></trkpt><trkpt lat="43.61199" lon="11.1916108"><ele>145.0</ele><time>2026-03-29T08:54:59.86Z</time></trkpt><trkpt lat="43.6118404" lon="11.191735"><ele>145.0</ele><time>2026-03-29T08:55:00.852Z</time></trkpt><trkpt lat="43.6116935" lon="11.1918698"><ele>145.0</ele><time>2026-03-29T08:55:01.862Z</time></trkpt><trkpt lat="43.6115462" lon="11.1920056"><ele>145.0</ele><time>2026-03-29T08:55:02.854Z</time></trkpt><trkpt lat="43.611397" lon="11.19214"><ele>145.0</ele><time>2026-03-29T08:55:03.853Z</time></trkpt><trkpt lat="43.6112475" lon="11.1922747"><ele>146.0</ele><time>2026-03-29T08:55:04.857Z</time></trkpt><trkpt lat="43.6110922" lon="11.1924026"><ele>147.0</ele><time>2026-03-29T08:55:05.856Z</time></trkpt><trkpt lat="43.6109334" lon="11.192518"><ele>148.0</ele><time>2026-03-29T08:55:06.886Z</time></trkpt><trkpt lat="43.6107699" lon="11.1926157"><ele>148.0</ele><time>2026-03-29T08:55:07.862Z</time></trkpt><trkpt lat="43.6106026" lon="11.1926896"><ele>148.0</ele><time>2026-03-29T08:55:08.89Z</time></trkpt><trkpt lat="43.6104276" lon="11.1927456"><ele>148.0</ele><time>2026-03-29T08:55:09.855Z</time></trkpt><trkpt lat="43.6102507" lon="11.1928026"><ele>147.33333333333334</ele><time>2026-03-29T08:55:10.865Z</time></trkpt><trkpt lat="43.6100792" lon="11.1928802"><ele>146.66666666666666</ele><time>2026-03-29T08:55:11.853Z</time></trkpt><trkpt lat="43.6099167" lon="11.1929956"><ele>146.0</ele><time>2026-03-29T08:55:12.884Z</time></trkpt><trkpt lat="43.6097567" lon="11.1931255"><ele>147.33333333333331</ele><time>2026-03-29T08:55:13.886Z</time></trkpt><trkpt lat="43.6096031" lon="11.1932692"><ele>148.66666666666666</ele><time>2026-03-29T08:55:14.858Z</time></trkpt><trkpt lat="43.609458" lon="11.1934184"><ele>150.0</ele><time>2026-03-29T08:55:15.859Z</time></trkpt><trkpt lat="43.609314" lon="11.1935685"><ele>150.0</ele><time>2026-03-29T08:55:16.868Z</time></trkpt><trkpt lat="43.609171" lon="11.1937187"><ele>150.0</ele><time>2026-03-29T08:55:17.858Z</time></trkpt><trkpt lat="43.6090224" lon="11.1938592"><ele>150.0</ele><time>2026-03-29T08:55:18.889Z</time></trkpt><trkpt lat="43.6088641" lon="11.1939849"><ele>152.33333333333334</ele><time>2026-03-29T08:55:19.861Z</time></trkpt><trkpt lat="43.6086947" lon="11.1940902"><ele>154.66666666666669</ele><time>2026-03-29T08:55:20.888Z</time></trkpt><trkpt lat="43.6085183" lon="11.1941816"><ele>157.0</ele><time>2026-03-29T08:55:21.882Z</time></trkpt><trkpt lat="43.6083379" lon="11.1942483"><ele>157.0</ele><time>2026-03-29T08:55:22.857Z</time></trkpt><trkpt lat="43.608149" lon="11.1942867"><ele>157.0</ele><time>2026-03-29T08:55:23.885Z</time></trkpt><trkpt lat="43.6079591" lon="11.1943183"><ele>157.0</ele><time>2026-03-29T08:55:24.862Z</time></trkpt><trkpt lat="43.6077616" lon="11.1943162"><ele>156.33333333333334</ele><time>2026-03-29T08:55:25.854Z</time></trkpt><trkpt lat="43.6075753" lon="11.1943045"><ele>155.66666666666666</ele><time>2026-03-29T08:55:26.861Z</time></trkpt><trkpt lat="43.6073883" lon="11.1942829"><ele>155.0</ele><time>2026-03-29T08:55:27.856Z</time></trkpt><trkpt lat="43.6072003" lon="11.1942621"><ele>155.0</ele><time>2026-03-29T08:55:28.884Z</time></trkpt><trkpt lat="43.6070117" lon="11.1942358"><ele>155.0</ele><time>2026-03-29T08:55:29.884Z</time></trkpt><trkpt lat="43.6068234" lon="11.1941983"><ele>155.0</ele><time>2026-03-29T08:55:30.859Z</time></trkpt><trkpt lat="43.606633" lon="11.1941514"><ele>154.66666666666666</ele><time>2026-03-29T08:55:31.861Z</time></trkpt><trkpt lat="43.6064421" lon="11.1941272"><ele>154.33333333333334</ele><time>2026-03-29T08:55:32.853Z</time></trkpt><trkpt lat="43.6062499" lon="11.1941357"><ele>154.0</ele><time>2026-03-29T08:55:33.859Z</time></trkpt><trkpt lat="43.606066" lon="11.1941932"><ele>152.33333333333334</ele><time>2026-03-29T08:55:34.853Z</time></trkpt><trkpt lat="43.6058834" lon="11.1942872"><ele>150.66666666666666</ele><time>2026-03-29T08:55:35.885Z</time></trkpt><trkpt lat="43.6057049" lon="11.1943889"><ele>149.0</ele><time>2026-03-29T08:55:36.863Z</time></trkpt><trkpt lat="43.6055256" lon="11.1944862"><ele>149.0</ele><time>2026-03-29T08:55:37.86Z</time></trkpt><trkpt lat="43.6053467" lon="11.1945892"><ele>149.0</ele><time>2026-03-29T08:55:38.885Z</time></trkpt><trkpt lat="43.6051652" lon="11.1946858"><ele>149.0</ele><time>2026-03-29T08:55:39.856Z</time></trkpt><trkpt lat="43.6049832" lon="11.1947785"><ele>149.33333333333331</ele><time>2026-03-29T08:55:40.883Z</time></trkpt><trkpt lat="43.6048002" lon="11.1948624"><ele>149.66666666666666</ele><time>2026-03-29T08:55:41.859Z</time></trkpt><trkpt lat="43.6046138" lon="11.1949367"><ele>150.0</ele><time>2026-03-29T08:55:42.858Z</time></trkpt><trkpt lat="43.6044231" lon="11.1950061"><ele>150.0</ele><time>2026-03-29T08:55:43.888Z</time></trkpt><trkpt lat="43.6042296" lon="11.1950712"><ele>150.0</ele><time>2026-03-29T08:55:44.854Z</time></trkpt><trkpt lat="43.6040344" lon="11.1951319"><ele>150.0</ele><time>2026-03-29T08:55:45.883Z</time></trkpt><trkpt lat="43.603838" lon="11.1951959"><ele>149.66666666666666</ele><time>2026-03-29T08:55:46.855Z</time></trkpt><trkpt lat="43.6036413" lon="11.1952691"><ele>149.33333333333331</ele><time>2026-03-29T08:55:47.857Z</time></trkpt><trkpt lat="43.6034462" lon="11.1953558"><ele>149.0</ele><time>2026-03-29T08:55:48.856Z</time></trkpt><trkpt lat="43.6032557" lon="11.1954573"><ele>149.0</ele><time>2026-03-29T08:55:49.864Z</time></trkpt><trkpt lat="43.6030693" lon="11.195571"><ele>149.0</ele><time>2026-03-29T08:55:50.862Z</time></trkpt><trkpt lat="43.6028888" lon="11.1956987"><ele>149.0</ele><time>2026-03-29T08:55:51.857Z</time></trkpt><trkpt lat="43.602713" lon="11.1958291"><ele>150.66666666666666</ele><time>2026-03-29T08:55:52.859Z</time></trkpt><trkpt lat="43.6025416" lon="11.1959592"><ele>152.33333333333334</ele><time>2026-03-29T08:55:53.858Z</time></trkpt><trkpt lat="43.6023706" lon="11.1960846"><ele>154.0</ele><time>2026-03-29T08:55:54.861Z</time></trkpt><trkpt lat="43.6021997" lon="11.1962092"><ele>154.0</ele><time>2026-03-29T08:55:55.889Z</time></trkpt><trkpt lat="43.6020306" lon="11.1963328"><ele>154.0</ele><time>2026-03-29T08:55:56.889Z</time></trkpt><trkpt lat="43.6018609" lon="11.196463"><ele>154.0</ele><time>2026-03-29T08:55:57.855Z</time></trkpt><trkpt lat="43.6016983" lon="11.1966099"><ele>155.33333333333334</ele><time>2026-03-29T08:55:58.857Z</time></trkpt><trkpt lat="43.6015467" lon="11.1967742"><ele>156.66666666666666</ele><time>2026-03-29T08:55:59.857Z</time></trkpt><trkpt lat="43.6013983" lon="11.1969443"><ele>158.0</ele><time>2026-03-29T08:56:00.868Z</time></trkpt><trkpt lat="43.601245" lon="11.1971018"><ele>158.33333333333331</ele><time>2026-03-29T08:56:01.857Z</time></trkpt><trkpt lat="43.6010808" lon="11.1972399"><ele>158.66666666666666</ele><time>2026-03-29T08:56:02.888Z</time></trkpt><trkpt lat="43.6009061" lon="11.197356"><ele>159.0</ele><time>2026-03-29T08:56:03.857Z</time></trkpt><trkpt lat="43.6007273" lon="11.197442"><ele>159.0</ele><time>2026-03-29T08:56:04.855Z</time></trkpt><trkpt lat="43.6005475" lon="11.1975176"><ele>159.0</ele><time>2026-03-29T08:56:05.858Z</time></trkpt><trkpt lat="43.600364" lon="11.1975936"><ele>159.0</ele><time>2026-03-29T08:56:06.883Z</time></trkpt><trkpt lat="43.6001863" lon="11.1976906"><ele>159.0</ele><time>2026-03-29T08:56:07.863Z</time></trkpt><trkpt lat="43.6000177" lon="11.1978169"><ele>159.0</ele><time>2026-03-29T08:56:08.858Z</time></trkpt><trkpt lat="43.5998669" lon="11.1979707"><ele>159.0</ele><time>2026-03-29T08:56:09.887Z</time></trkpt><trkpt lat="43.5997273" lon="11.1981376"><ele>159.0</ele><time>2026-03-29T08:56:10.863Z</time></trkpt><trkpt lat="43.5995811" lon="11.1982921"><ele>159.0</ele><time>2026-03-29T08:56:11.856Z</time></trkpt><trkpt lat="43.5994188" lon="11.1984285"><ele>159.0</ele><time>2026-03-29T08:56:12.856Z</time></trkpt><trkpt lat="43.5992482" lon="11.1985638"><ele>159.0</ele><time>2026-03-29T08:56:13.852Z</time></trkpt><trkpt lat="43.5990809" lon="11.1987013"><ele>159.0</ele><time>2026-03-29T08:56:14.852Z</time></trkpt><trkpt lat="43.5989148" lon="11.1988321"><ele>159.0</ele><time>2026-03-29T08:56:15.858Z</time></trkpt><trkpt lat="43.5987465" lon="11.1989446"><ele>159.66666666666666</ele><time>2026-03-29T08:56:16.852Z</time></trkpt><trkpt lat="43.5985834" lon="11.1990466"><ele>160.33333333333331</ele><time>2026-03-29T08:56:17.855Z</time></trkpt><trkpt lat="43.5984253" lon="11.1991596"><ele>161.0</ele><time>2026-03-29T08:56:18.856Z</time></trkpt><trkpt lat="43.5982761" lon="11.1993039"><ele>161.0</ele><time>2026-03-29T08:56:19.856Z</time></trkpt><trkpt lat="43.5981427" lon="11.1994743"><ele>161.0</ele><time>2026-03-29T08:56:20.861Z</time></trkpt><trkpt lat="43.5980244" lon="11.1996612"><ele>161.0</ele><time>2026-03-29T08:56:21.867Z</time></trkpt><trkpt lat="43.5979048" lon="11.1998615"><ele>160.66666666666666</ele><time>2026-03-29T08:56:22.852Z</time></trkpt><trkpt lat="43.5977843" lon="11.2000669"><ele>160.33333333333334</ele><time>2026-03-29T08:56:23.859Z</time></trkpt><trkpt lat="43.597663" lon="11.2002738"><ele>160.0</ele><time>2026-03-29T08:56:24.859Z</time></trkpt><trkpt lat="43.5975455" lon="11.2004837"><ele>161.66666666666669</ele><time>2026-03-29T08:56:25.866Z</time></trkpt><trkpt lat="43.5974335" lon="11.2006969"><ele>163.33333333333334</ele><time>2026-03-29T08:56:26.856Z</time></trkpt><trkpt lat="43.5973285" lon="11.2009046"><ele>165.0</ele><time>2026-03-29T08:56:27.866Z</time></trkpt><trkpt lat="43.5972215" lon="11.2010997"><ele>165.0</ele><time>2026-03-29T08:56:28.854Z</time></trkpt><trkpt lat="43.5971144" lon="11.2012826"><ele>165.0</ele><time>2026-03-29T08:56:29.857Z</time></trkpt><trkpt lat="43.597004" lon="11.2014558"><ele>165.0</ele><time>2026-03-29T08:56:30.855Z</time></trkpt><trkpt lat="43.5968909" lon="11.2016256"><ele>164.0</ele><time>2026-03-29T08:56:31.859Z</time></trkpt><trkpt lat="43.5967804" lon="11.201786"><ele>163.0</ele><time>2026-03-29T08:56:32.856Z</time></trkpt><trkpt lat="43.5966765" lon="11.2019385"><ele>162.0</ele><time>2026-03-29T08:56:33.857Z</time></trkpt><trkpt lat="43.5965816" lon="11.2020812"><ele>162.0</ele><time>2026-03-29T08:56:34.858Z</time></trkpt><trkpt lat="43.5964904" lon="11.2022091"><ele>162.0</ele><time>2026-03-29T08:56:35.867Z</time></trkpt><trkpt lat="43.5963955" lon="11.2023157"><ele>162.0</ele><time>2026-03-29T08:56:36.857Z</time></trkpt><trkpt lat="43.5962802" lon="11.2023893"><ele>162.0</ele><time>2026-03-29T08:56:37.864Z</time></trkpt><trkpt lat="43.5961366" lon="11.2024293"><ele>163.33333333333334</ele><time>2026-03-29T08:56:38.884Z</time></trkpt><trkpt lat="43.5959756" lon="11.2024454"><ele>164.66666666666669</ele><time>2026-03-29T08:56:39.86Z</time></trkpt><trkpt lat="43.5958102" lon="11.2024476"><ele>166.0</ele><time>2026-03-29T08:56:40.86Z</time></trkpt><trkpt lat="43.5956483" lon="11.2024411"><ele>166.0</ele><time>2026-03-29T08:56:41.858Z</time></trkpt><trkpt lat="43.5954961" lon="11.2024137"><ele>166.0</ele><time>2026-03-29T08:56:42.856Z</time></trkpt><trkpt lat="43.5953586" lon="11.2023642"><ele>166.0</ele><time>2026-03-29T08:56:43.887Z</time></trkpt><trkpt lat="43.5952251" lon="11.2022974"><ele>166.0</ele><time>2026-03-29T08:56:44.86Z</time></trkpt><trkpt lat="43.5950922" lon="11.2022292"><ele>164.0</ele><time>2026-03-29T08:56:45.857Z</time></trkpt><trkpt lat="43.5949666" lon="11.202169"><ele>162.0</ele><time>2026-03-29T08:56:46.854Z</time></trkpt><trkpt lat="43.5948496" lon="11.2021157"><ele>160.0</ele><time>2026-03-29T08:56:47.861Z</time></trkpt><trkpt lat="43.5947421" lon="11.2020723"><ele>158.0</ele><time>2026-03-29T08:56:48.859Z</time></trkpt><trkpt lat="43.5946417" lon="11.2020329"><ele>158.0</ele><time>2026-03-29T08:56:49.858Z</time></trkpt><trkpt lat="43.594548" lon="11.2019941"><ele>158.0</ele><time>2026-03-29T08:56:50.854Z</time></trkpt><trkpt lat="43.5944578" lon="11.2019546"><ele>158.0</ele><time>2026-03-29T08:56:51.855Z</time></trkpt><trkpt lat="43.5943754" lon="11.2019126"><ele>158.0</ele><time>2026-03-29T08:56:52.861Z</time></trkpt><trkpt lat="43.5943036" lon="11.2018691"><ele>158.0</ele><time>2026-03-29T08:56:53.856Z</time></trkpt><trkpt lat="43.5942399" lon="11.2018295"><ele>158.0</ele><time>2026-03-29T08:56:54.855Z</time></trkpt><trkpt lat="43.5941774" lon="11.2017952"><ele>158.8</ele><time>2026-03-29T08:56:55.865Z</time></trkpt><trkpt lat="43.5940595" lon="11.2017898"><ele>159.60000000000002</ele><time>2026-03-29T08:56:57.853Z</time></trkpt><trkpt lat="43.5939819" lon="11.2019001"><ele>160.39999999999998</ele><time>2026-03-29T08:56:59.857Z</time></trkpt><trkpt lat="43.5939549" lon="11.2020074"><ele>161.2</ele><time>2026-03-29T08:57:00.873Z</time></trkpt><trkpt lat="43.5939078" lon="11.2021298"><ele>162.0</ele><time>2026-03-29T08:57:01.886Z</time></trkpt><trkpt lat="43.5938268" lon="11.2022658"><ele>162.0</ele><time>2026-03-29T08:57:02.852Z</time></trkpt><trkpt lat="43.5937211" lon="11.2024065"><ele>162.0</ele><time>2026-03-29T08:57:03.89Z</time></trkpt><trkpt lat="43.5936008" lon="11.2025398"><ele>162.0</ele><time>2026-03-29T08:57:04.856Z</time></trkpt><trkpt lat="43.593481" lon="11.2026851"><ele>162.0</ele><time>2026-03-29T08:57:05.883Z</time></trkpt><trkpt lat="43.5933588" lon="11.2028287"><ele>162.0</ele><time>2026-03-29T08:57:06.866Z</time></trkpt><trkpt lat="43.5932358" lon="11.2029666"><ele>162.0</ele><time>2026-03-29T08:57:07.856Z</time></trkpt><trkpt lat="43.5931101" lon="11.2030978"><ele>161.66666666666666</ele><time>2026-03-29T08:57:08.887Z</time></trkpt><trkpt lat="43.5929847" lon="11.2032287"><ele>161.33333333333331</ele><time>2026-03-29T08:57:09.863Z</time></trkpt><trkpt lat="43.5928622" lon="11.2033588"><ele>161.0</ele><time>2026-03-29T08:57:10.859Z</time></trkpt><trkpt lat="43.5927391" lon="11.2034948"><ele>160.0</ele><time>2026-03-29T08:57:11.856Z</time></trkpt><trkpt lat="43.5926174" lon="11.203634"><ele>159.0</ele><time>2026-03-29T08:57:12.858Z</time></trkpt><trkpt lat="43.5924991" lon="11.2037767"><ele>158.0</ele><time>2026-03-29T08:57:13.863Z</time></trkpt><trkpt lat="43.5923777" lon="11.2039253"><ele>159.0</ele><time>2026-03-29T08:57:14.86Z</time></trkpt><trkpt lat="43.5922514" lon="11.204082"><ele>160.0</ele><time>2026-03-29T08:57:15.883Z</time></trkpt><trkpt lat="43.5921163" lon="11.2042515"><ele>161.0</ele><time>2026-03-29T08:57:16.858Z</time></trkpt><trkpt lat="43.5919789" lon="11.2044301"><ele>161.66666666666666</ele><time>2026-03-29T08:57:17.856Z</time></trkpt><trkpt lat="43.5918363" lon="11.2046091"><ele>162.33333333333334</ele><time>2026-03-29T08:57:18.855Z</time></trkpt><trkpt lat="43.5916887" lon="11.2047825"><ele>163.0</ele><time>2026-03-29T08:57:19.861Z</time></trkpt><trkpt lat="43.591544" lon="11.2049485"><ele>164.33333333333334</ele><time>2026-03-29T08:57:20.86Z</time></trkpt><trkpt lat="43.5914052" lon="11.2051009"><ele>165.66666666666666</ele><time>2026-03-29T08:57:21.887Z</time></trkpt><trkpt lat="43.5912672" lon="11.2052349"><ele>167.0</ele><time>2026-03-29T08:57:22.859Z</time></trkpt><trkpt lat="43.5911288" lon="11.2053519"><ele>167.33333333333331</ele><time>2026-03-29T08:57:23.853Z</time></trkpt><trkpt lat="43.5909889" lon="11.2054543"><ele>167.66666666666666</ele><time>2026-03-29T08:57:24.859Z</time></trkpt><trkpt lat="43.5908496" lon="11.2055646"><ele>168.0</ele><time>2026-03-29T08:57:25.856Z</time></trkpt><trkpt lat="43.5907177" lon="11.205703"><ele>169.66666666666666</ele><time>2026-03-29T08:57:26.856Z</time></trkpt><trkpt lat="43.5906097" lon="11.2058741"><ele>171.33333333333331</ele><time>2026-03-29T08:57:27.856Z</time></trkpt><trkpt lat="43.5905138" lon="11.2060664"><ele>173.0</ele><time>2026-03-29T08:57:28.888Z</time></trkpt><trkpt lat="43.5904111" lon="11.2062709"><ele>173.66666666666666</ele><time>2026-03-29T08:57:29.855Z</time></trkpt><trkpt lat="43.5903008" lon="11.2064773"><ele>174.33333333333334</ele><time>2026-03-29T08:57:30.856Z</time></trkpt><trkpt lat="43.5901883" lon="11.2066818"><ele>175.0</ele><time>2026-03-29T08:57:31.859Z</time></trkpt><trkpt lat="43.5900712" lon="11.2068733"><ele>175.0</ele><time>2026-03-29T08:57:32.889Z</time></trkpt><trkpt lat="43.5899491" lon="11.2070606"><ele>175.0</ele><time>2026-03-29T08:57:33.861Z</time></trkpt><trkpt lat="43.5898255" lon="11.207242"><ele>175.0</ele><time>2026-03-29T08:57:34.856Z</time></trkpt><trkpt lat="43.5896951" lon="11.2074097"><ele>177.0</ele><time>2026-03-29T08:57:35.859Z</time></trkpt><trkpt lat="43.5895516" lon="11.2075492"><ele>179.0</ele><time>2026-03-29T08:57:36.858Z</time></trkpt><trkpt lat="43.5893936" lon="11.2076519"><ele>181.0</ele><time>2026-03-29T08:57:37.885Z</time></trkpt><trkpt lat="43.5892209" lon="11.2077236"><ele>181.0</ele><time>2026-03-29T08:57:38.861Z</time></trkpt><trkpt lat="43.5890554" lon="11.2077799"><ele>181.0</ele><time>2026-03-29T08:57:39.884Z</time></trkpt><trkpt lat="43.5888963" lon="11.2078388"><ele>181.0</ele><time>2026-03-29T08:57:40.89Z</time></trkpt><trkpt lat="43.588745" lon="11.2078974"><ele>179.33333333333334</ele><time>2026-03-29T08:57:41.859Z</time></trkpt><trkpt lat="43.5885978" lon="11.2079544"><ele>177.66666666666666</ele><time>2026-03-29T08:57:42.855Z</time></trkpt><trkpt lat="43.5884549" lon="11.2080082"><ele>176.0</ele><time>2026-03-29T08:57:43.859Z</time></trkpt><trkpt lat="43.588311" lon="11.2080633"><ele>176.0</ele><time>2026-03-29T08:57:44.891Z</time></trkpt><trkpt lat="43.5881631" lon="11.2081283"><ele>176.0</ele><time>2026-03-29T08:57:45.86Z</time></trkpt><trkpt lat="43.5880092" lon="11.2082031"><ele>176.0</ele><time>2026-03-29T08:57:46.857Z</time></trkpt><trkpt lat="43.5878525" lon="11.2082906"><ele>176.66666666666666</ele><time>2026-03-29T08:57:47.858Z</time></trkpt><trkpt lat="43.5876958" lon="11.2083937"><ele>177.33333333333334</ele><time>2026-03-29T08:57:48.87Z</time></trkpt><trkpt lat="43.5875376" lon="11.2085041"><ele>178.0</ele><time>2026-03-29T08:57:49.888Z</time></trkpt><trkpt lat="43.5873782" lon="11.2086139"><ele>178.0</ele><time>2026-03-29T08:57:50.852Z</time></trkpt><trkpt lat="43.5872162" lon="11.2087259"><ele>178.0</ele><time>2026-03-29T08:57:51.892Z</time></trkpt><trkpt lat="43.587052" lon="11.2088378"><ele>178.0</ele><time>2026-03-29T08:57:52.857Z</time></trkpt><trkpt lat="43.5868845" lon="11.2089436"><ele>179.0</ele><time>2026-03-29T08:57:53.859Z</time></trkpt><trkpt lat="43.5867131" lon="11.2090451"><ele>180.0</ele><time>2026-03-29T08:57:54.858Z</time></trkpt><trkpt lat="43.5865409" lon="11.2091439"><ele>181.0</ele><time>2026-03-29T08:57:55.887Z</time></trkpt><trkpt lat="43.5863673" lon="11.2092441"><ele>181.0</ele><time>2026-03-29T08:57:56.888Z</time></trkpt><trkpt lat="43.5861939" lon="11.2093517"><ele>181.0</ele><time>2026-03-29T08:57:57.857Z</time></trkpt><trkpt lat="43.58602" lon="11.2094616"><ele>181.0</ele><time>2026-03-29T08:57:58.852Z</time></trkpt><trkpt lat="43.5858479" lon="11.2095708"><ele>179.0</ele><time>2026-03-29T08:57:59.852Z</time></trkpt><trkpt lat="43.5856774" lon="11.2096752"><ele>177.0</ele><time>2026-03-29T08:58:00.89Z</time></trkpt><trkpt lat="43.5855089" lon="11.2097781"><ele>175.0</ele><time>2026-03-29T08:58:01.855Z</time></trkpt><trkpt lat="43.5853422" lon="11.2098832"><ele>174.33333333333334</ele><time>2026-03-29T08:58:02.857Z</time></trkpt><trkpt lat="43.5851758" lon="11.2099908"><ele>173.66666666666666</ele><time>2026-03-29T08:58:03.89Z</time></trkpt><trkpt lat="43.5850083" lon="11.2100994"><ele>173.0</ele><time>2026-03-29T08:58:04.854Z</time></trkpt><trkpt lat="43.5848401" lon="11.2102111"><ele>173.0</ele><time>2026-03-29T08:58:05.853Z</time></trkpt><trkpt lat="43.5846709" lon="11.2103223"><ele>173.0</ele><time>2026-03-29T08:58:06.855Z</time></trkpt><trkpt lat="43.5845034" lon="11.2104337"><ele>173.0</ele><time>2026-03-29T08:58:07.86Z</time></trkpt><trkpt lat="43.5843373" lon="11.2105423"><ele>173.0</ele><time>2026-03-29T08:58:08.883Z</time></trkpt><trkpt lat="43.5841718" lon="11.2106509"><ele>173.0</ele><time>2026-03-29T08:58:09.857Z</time></trkpt><trkpt lat="43.5840101" lon="11.2107621"><ele>173.0</ele><time>2026-03-29T08:58:10.855Z</time></trkpt><trkpt lat="43.5838545" lon="11.2108804"><ele>173.33333333333331</ele><time>2026-03-29T08:58:11.857Z</time></trkpt><trkpt lat="43.5837094" lon="11.2110086"><ele>173.66666666666666</ele><time>2026-03-29T08:58:12.886Z</time></trkpt><trkpt lat="43.583567" lon="11.2111401"><ele>174.0</ele><time>2026-03-29T08:58:13.857Z</time></trkpt><trkpt lat="43.5834197" lon="11.2112568"><ele>174.0</ele><time>2026-03-29T08:58:14.857Z</time></trkpt><trkpt lat="43.5832613" lon="11.2113464"><ele>174.0</ele><time>2026-03-29T08:58:15.855Z</time></trkpt><trkpt lat="43.5830954" lon="11.2114149"><ele>174.0</ele><time>2026-03-29T08:58:16.887Z</time></trkpt><trkpt lat="43.5829214" lon="11.2114755"><ele>175.33333333333334</ele><time>2026-03-29T08:58:17.856Z</time></trkpt><trkpt lat="43.5827465" lon="11.2115421"><ele>176.66666666666669</ele><time>2026-03-29T08:58:18.855Z</time></trkpt><trkpt lat="43.5825673" lon="11.211615"><ele>178.0</ele><time>2026-03-29T08:58:19.887Z</time></trkpt><trkpt lat="43.5823889" lon="11.2116925"><ele>178.0</ele><time>2026-03-29T08:58:20.868Z</time></trkpt><trkpt lat="43.5822122" lon="11.2117708"><ele>178.0</ele><time>2026-03-29T08:58:21.876Z</time></trkpt><trkpt lat="43.5820376" lon="11.2118498"><ele>178.0</ele><time>2026-03-29T08:58:22.864Z</time></trkpt><trkpt lat="43.5818685" lon="11.2119278"><ele>177.33333333333334</ele><time>2026-03-29T08:58:23.869Z</time></trkpt><trkpt lat="43.5817041" lon="11.2119952"><ele>176.66666666666666</ele><time>2026-03-29T08:58:24.856Z</time></trkpt><trkpt lat="43.581548" lon="11.2120418"><ele>176.0</ele><time>2026-03-29T08:58:25.87Z</time></trkpt><trkpt lat="43.5813948" lon="11.2120494"><ele>176.0</ele><time>2026-03-29T08:58:26.857Z</time></trkpt><trkpt lat="43.5812396" lon="11.2120194"><ele>176.0</ele><time>2026-03-29T08:58:27.854Z</time></trkpt><trkpt lat="43.5810878" lon="11.2119818"><ele>176.0</ele><time>2026-03-29T08:58:28.888Z</time></trkpt><trkpt lat="43.5809355" lon="11.2119623"><ele>175.33333333333331</ele><time>2026-03-29T08:58:29.855Z</time></trkpt><trkpt lat="43.5807817" lon="11.2119672"><ele>174.66666666666666</ele><time>2026-03-29T08:58:30.859Z</time></trkpt><trkpt lat="43.5806238" lon="11.2119864"><ele>174.0</ele><time>2026-03-29T08:58:31.857Z</time></trkpt><trkpt lat="43.5804645" lon="11.2120121"><ele>174.0</ele><time>2026-03-29T08:58:32.861Z</time></trkpt><trkpt lat="43.5803073" lon="11.2120427"><ele>174.0</ele><time>2026-03-29T08:58:33.868Z</time></trkpt><trkpt lat="43.58015" lon="11.2120746"><ele>174.0</ele><time>2026-03-29T08:58:34.853Z</time></trkpt><trkpt lat="43.5799911" lon="11.2121103"><ele>174.0</ele><time>2026-03-29T08:58:35.889Z</time></trkpt><trkpt lat="43.5798279" lon="11.212163"><ele>174.0</ele><time>2026-03-29T08:58:36.855Z</time></trkpt><trkpt lat="43.5796632" lon="11.212229"><ele>174.0</ele><time>2026-03-29T08:58:37.862Z</time></trkpt><trkpt lat="43.579507" lon="11.2123025"><ele>174.33333333333334</ele><time>2026-03-29T08:58:38.857Z</time></trkpt><trkpt lat="43.579352" lon="11.2123796"><ele>174.66666666666669</ele><time>2026-03-29T08:58:39.857Z</time></trkpt><trkpt lat="43.5791909" lon="11.2124628"><ele>175.0</ele><time>2026-03-29T08:58:40.858Z</time></trkpt><trkpt lat="43.579026" lon="11.2125501"><ele>175.0</ele><time>2026-03-29T08:58:41.858Z</time></trkpt><trkpt lat="43.57886" lon="11.2126377"><ele>175.0</ele><time>2026-03-29T08:58:42.854Z</time></trkpt><trkpt lat="43.5786976" lon="11.2127341"><ele>175.0</ele><time>2026-03-29T08:58:43.859Z</time></trkpt><trkpt lat="43.5785406" lon="11.2128499"><ele>175.33333333333334</ele><time>2026-03-29T08:58:44.859Z</time></trkpt><trkpt lat="43.578396" lon="11.2129867"><ele>175.66666666666666</ele><time>2026-03-29T08:58:45.861Z</time></trkpt><trkpt lat="43.5782679" lon="11.2131435"><ele>176.0</ele><time>2026-03-29T08:58:46.854Z</time></trkpt><trkpt lat="43.5781511" lon="11.2133114"><ele>176.0</ele><time>2026-03-29T08:58:47.859Z</time></trkpt><trkpt lat="43.5780399" lon="11.2134795"><ele>176.0</ele><time>2026-03-29T08:58:48.854Z</time></trkpt><trkpt lat="43.5779281" lon="11.2136396"><ele>176.0</ele><time>2026-03-29T08:58:49.852Z</time></trkpt><trkpt lat="43.5778169" lon="11.2137875"><ele>175.75</ele><time>2026-03-29T08:58:50.888Z</time></trkpt><trkpt lat="43.5777149" lon="11.2139266"><ele>175.5</ele><time>2026-03-29T08:58:51.857Z</time></trkpt><trkpt lat="43.5776222" lon="11.2140541"><ele>175.25</ele><time>2026-03-29T08:58:52.885Z</time></trkpt><trkpt lat="43.5775333" lon="11.2141728"><ele>175.0</ele><time>2026-03-29T08:58:53.861Z</time></trkpt><trkpt lat="43.5774427" lon="11.2142848"><ele>175.0</ele><time>2026-03-29T08:58:54.858Z</time></trkpt><trkpt lat="43.577341" lon="11.2143788"><ele>175.0</ele><time>2026-03-29T08:58:55.855Z</time></trkpt><trkpt lat="43.5772286" lon="11.2144433"><ele>175.0</ele><time>2026-03-29T08:58:56.887Z</time></trkpt><trkpt lat="43.5771169" lon="11.214483"><ele>175.0</ele><time>2026-03-29T08:58:57.864Z</time></trkpt><trkpt lat="43.5770079" lon="11.2145189"><ele>174.66666666666669</ele><time>2026-03-29T08:58:58.887Z</time></trkpt><trkpt lat="43.5769086" lon="11.2145524"><ele>174.33333333333334</ele><time>2026-03-29T08:58:59.858Z</time></trkpt><trkpt lat="43.5768173" lon="11.214586"><ele>174.0</ele><time>2026-03-29T08:59:00.863Z</time></trkpt><trkpt lat="43.576736" lon="11.2146259"><ele>173.66666666666666</ele><time>2026-03-29T08:59:01.86Z</time></trkpt><trkpt lat="43.5766627" lon="11.2146788"><ele>173.33333333333331</ele><time>2026-03-29T08:59:02.857Z</time></trkpt><trkpt lat="43.5766011" lon="11.2147528"><ele>173.0</ele><time>2026-03-29T08:59:03.86Z</time></trkpt><trkpt lat="43.5765525" lon="11.2148502"><ele>174.0</ele><time>2026-03-29T08:59:04.861Z</time></trkpt><trkpt lat="43.5765083" lon="11.2149631"><ele>175.0</ele><time>2026-03-29T08:59:05.856Z</time></trkpt><trkpt lat="43.5764629" lon="11.2150893"><ele>176.0</ele><time>2026-03-29T08:59:06.858Z</time></trkpt><trkpt lat="43.5764209" lon="11.2152324"><ele>177.0</ele><time>2026-03-29T08:59:07.86Z</time></trkpt><trkpt lat="43.5763812" lon="11.2153891"><ele>178.0</ele><time>2026-03-29T08:59:08.856Z</time></trkpt><trkpt lat="43.5763375" lon="11.2155494"><ele>179.5</ele><time>2026-03-29T08:59:09.861Z</time></trkpt><trkpt lat="43.5762875" lon="11.215711"><ele>181.0</ele><time>2026-03-29T08:59:10.895Z</time></trkpt><trkpt lat="43.5762239" lon="11.2158605"><ele>182.5</ele><time>2026-03-29T08:59:11.856Z</time></trkpt><trkpt lat="43.5761361" lon="11.2159875"><ele>184.0</ele><time>2026-03-29T08:59:12.869Z</time></trkpt><trkpt lat="43.5760215" lon="11.2160976"><ele>184.0</ele><time>2026-03-29T08:59:13.859Z</time></trkpt><trkpt lat="43.575897" lon="11.2161892"><ele>184.0</ele><time>2026-03-29T08:59:14.859Z</time></trkpt><trkpt lat="43.5757654" lon="11.21627"><ele>184.0</ele><time>2026-03-29T08:59:15.887Z</time></trkpt><trkpt lat="43.5756371" lon="11.2163525"><ele>184.0</ele><time>2026-03-29T08:59:16.867Z</time></trkpt><trkpt lat="43.575518" lon="11.2164404"><ele>184.75</ele><time>2026-03-29T08:59:17.858Z</time></trkpt><trkpt lat="43.5754087" lon="11.2165379"><ele>185.5</ele><time>2026-03-29T08:59:18.859Z</time></trkpt><trkpt lat="43.575311" lon="11.2166509"><ele>186.25</ele><time>2026-03-29T08:59:19.883Z</time></trkpt><trkpt lat="43.5752254" lon="11.2167847"><ele>187.0</ele><time>2026-03-29T08:59:20.859Z</time></trkpt><trkpt lat="43.5751413" lon="11.2169264"><ele>187.0</ele><time>2026-03-29T08:59:21.854Z</time></trkpt><trkpt lat="43.575073" lon="11.217081"><ele>187.0</ele><time>2026-03-29T08:59:22.869Z</time></trkpt><trkpt lat="43.5750187" lon="11.217249"><ele>187.0</ele><time>2026-03-29T08:59:23.888Z</time></trkpt><trkpt lat="43.5749724" lon="11.2174229"><ele>187.0</ele><time>2026-03-29T08:59:24.856Z</time></trkpt><trkpt lat="43.5749366" lon="11.2175969"><ele>190.5</ele><time>2026-03-29T08:59:25.862Z</time></trkpt><trkpt lat="43.574911" lon="11.2177751"><ele>194.0</ele><time>2026-03-29T08:59:26.886Z</time></trkpt><trkpt lat="43.5748994" lon="11.217959"><ele>197.5</ele><time>2026-03-29T08:59:27.857Z</time></trkpt><trkpt lat="43.5748906" lon="11.2181319"><ele>201.0</ele><time>2026-03-29T08:59:28.857Z</time></trkpt><trkpt lat="43.5748846" lon="11.2182922"><ele>202.4</ele><time>2026-03-29T08:59:29.856Z</time></trkpt><trkpt lat="43.5748709" lon="11.2184395"><ele>203.8</ele><time>2026-03-29T08:59:30.858Z</time></trkpt><trkpt lat="43.574846" lon="11.2185763"><ele>205.20000000000002</ele><time>2026-03-29T08:59:31.858Z</time></trkpt><trkpt lat="43.5747997" lon="11.2187027"><ele>206.60000000000002</ele><time>2026-03-29T08:59:32.863Z</time></trkpt><trkpt lat="43.5747264" lon="11.2188038"><ele>208.0</ele><time>2026-03-29T08:59:33.859Z</time></trkpt><trkpt lat="43.5746362" lon="11.2188873"><ele>208.0</ele><time>2026-03-29T08:59:34.856Z</time></trkpt><trkpt lat="43.5745324" lon="11.2189595"><ele>208.0</ele><time>2026-03-29T08:59:35.859Z</time></trkpt><trkpt lat="43.5744383" lon="11.2190476"><ele>208.0</ele><time>2026-03-29T08:59:36.86Z</time></trkpt><trkpt lat="43.5743565" lon="11.2191676"><ele>208.0</ele><time>2026-03-29T08:59:37.862Z</time></trkpt><trkpt lat="43.574298" lon="11.2193156"><ele>207.75</ele><time>2026-03-29T08:59:38.859Z</time></trkpt><trkpt lat="43.5742528" lon="11.2194872"><ele>207.5</ele><time>2026-03-29T08:59:39.865Z</time></trkpt><trkpt lat="43.574199" lon="11.219661"><ele>207.25</ele><time>2026-03-29T08:59:40.886Z</time></trkpt><trkpt lat="43.5741427" lon="11.2198308"><ele>207.0</ele><time>2026-03-29T08:59:41.886Z</time></trkpt><trkpt lat="43.5740983" lon="11.2200085"><ele>208.75</ele><time>2026-03-29T08:59:42.853Z</time></trkpt><trkpt lat="43.5740621" lon="11.2202038"><ele>210.5</ele><time>2026-03-29T08:59:43.859Z</time></trkpt><trkpt lat="43.5740411" lon="11.2204102"><ele>212.25</ele><time>2026-03-29T08:59:44.862Z</time></trkpt><trkpt lat="43.5740267" lon="11.2206155"><ele>214.0</ele><time>2026-03-29T08:59:45.858Z</time></trkpt><trkpt lat="43.574015" lon="11.2208128"><ele>215.75</ele><time>2026-03-29T08:59:46.859Z</time></trkpt><trkpt lat="43.5740044" lon="11.2210105"><ele>217.5</ele><time>2026-03-29T08:59:47.855Z</time></trkpt><trkpt lat="43.5739987" lon="11.2212034"><ele>219.25</ele><time>2026-03-29T08:59:48.858Z</time></trkpt><trkpt lat="43.5740069" lon="11.221395"><ele>221.0</ele><time>2026-03-29T08:59:49.861Z</time></trkpt><trkpt lat="43.57404" lon="11.2215836"><ele>221.75</ele><time>2026-03-29T08:59:50.86Z</time></trkpt><trkpt lat="43.5740964" lon="11.2217616"><ele>222.5</ele><time>2026-03-29T08:59:51.862Z</time></trkpt><trkpt lat="43.5741673" lon="11.2219201"><ele>223.25</ele><time>2026-03-29T08:59:52.859Z</time></trkpt><trkpt lat="43.5742465" lon="11.222054"><ele>224.0</ele><time>2026-03-29T08:59:53.865Z</time></trkpt><trkpt lat="43.5743171" lon="11.2221982"><ele>226.0</ele><time>2026-03-29T08:59:54.857Z</time></trkpt><trkpt lat="43.574363" lon="11.2223559"><ele>228.0</ele><time>2026-03-29T08:59:55.862Z</time></trkpt><trkpt lat="43.5743873" lon="11.222519"><ele>230.0</ele><time>2026-03-29T08:59:56.866Z</time></trkpt><trkpt lat="43.5743992" lon="11.2226894"><ele>232.0</ele><time>2026-03-29T08:59:57.863Z</time></trkpt><trkpt lat="43.5743965" lon="11.2228547"><ele>232.0</ele><time>2026-03-29T08:59:58.855Z</time></trkpt><trkpt lat="43.5743749" lon="11.2230085"><ele>232.0</ele><time>2026-03-29T08:59:59.86Z</time></trkpt><trkpt lat="43.5743329" lon="11.2231614"><ele>232.0</ele><time>2026-03-29T09:00:00.86Z</time></trkpt><trkpt lat="43.5742742" lon="11.2233134"><ele>232.0</ele><time>2026-03-29T09:00:01.861Z</time></trkpt><trkpt lat="43.5742037" lon="11.2234641"><ele>233.75</ele><time>2026-03-29T09:00:02.886Z</time></trkpt><trkpt lat="43.5741295" lon="11.2236103"><ele>235.5</ele><time>2026-03-29T09:00:03.893Z</time></trkpt><trkpt lat="43.5740546" lon="11.2237589"><ele>237.25</ele><time>2026-03-29T09:00:04.859Z</time></trkpt><trkpt lat="43.5739766" lon="11.223916"><ele>239.0</ele><time>2026-03-29T09:00:05.888Z</time></trkpt><trkpt lat="43.5738957" lon="11.2240759"><ele>239.33333333333334</ele><time>2026-03-29T09:00:06.863Z</time></trkpt><trkpt lat="43.5738095" lon="11.2242411"><ele>239.66666666666669</ele><time>2026-03-29T09:00:07.861Z</time></trkpt><trkpt lat="43.5737222" lon="11.2244142"><ele>240.0</ele><time>2026-03-29T09:00:08.856Z</time></trkpt><trkpt lat="43.5736392" lon="11.2245927"><ele>241.66666666666669</ele><time>2026-03-29T09:00:09.864Z</time></trkpt><trkpt lat="43.5735589" lon="11.2247734"><ele>243.33333333333334</ele><time>2026-03-29T09:00:10.869Z</time></trkpt><trkpt lat="43.5734815" lon="11.224956"><ele>245.0</ele><time>2026-03-29T09:00:11.854Z</time></trkpt><trkpt lat="43.5734174" lon="11.2251472"><ele>246.0</ele><time>2026-03-29T09:00:12.859Z</time></trkpt><trkpt lat="43.5733669" lon="11.2253536"><ele>247.0</ele><time>2026-03-29T09:00:13.858Z</time></trkpt><trkpt lat="43.5733271" lon="11.2255728"><ele>248.0</ele><time>2026-03-29T09:00:14.855Z</time></trkpt><trkpt lat="43.5732902" lon="11.2257893"><ele>248.0</ele><time>2026-03-29T09:00:15.858Z</time></trkpt><trkpt lat="43.5732529" lon="11.2259977"><ele>248.0</ele><time>2026-03-29T09:00:16.862Z</time></trkpt><trkpt lat="43.5732168" lon="11.2262004"><ele>248.0</ele><time>2026-03-29T09:00:17.887Z</time></trkpt><trkpt lat="43.573182" lon="11.2263987"><ele>248.5</ele><time>2026-03-29T09:00:18.895Z</time></trkpt><trkpt lat="43.5731506" lon="11.2265975"><ele>249.0</ele><time>2026-03-29T09:00:19.856Z</time></trkpt><trkpt lat="43.5731244" lon="11.2267977"><ele>249.5</ele><time>2026-03-29T09:00:20.861Z</time></trkpt><trkpt lat="43.5731071" lon="11.2269987"><ele>250.0</ele><time>2026-03-29T09:00:21.86Z</time></trkpt><trkpt lat="43.5730976" lon="11.227208"><ele>250.75</ele><time>2026-03-29T09:00:22.89Z</time></trkpt><trkpt lat="43.5730916" lon="11.2274112"><ele>251.5</ele><time>2026-03-29T09:00:23.856Z</time></trkpt><trkpt lat="43.573086" lon="11.2276029"><ele>252.25</ele><time>2026-03-29T09:00:24.858Z</time></trkpt><trkpt lat="43.5730794" lon="11.2277817"><ele>253.0</ele><time>2026-03-29T09:00:25.868Z</time></trkpt><trkpt lat="43.5730732" lon="11.2279512"><ele>253.0</ele><time>2026-03-29T09:00:26.858Z</time></trkpt><trkpt lat="43.5730624" lon="11.2281125"><ele>253.0</ele><time>2026-03-29T09:00:27.862Z</time></trkpt><trkpt lat="43.5730511" lon="11.2282748"><ele>253.0</ele><time>2026-03-29T09:00:28.877Z</time></trkpt><trkpt lat="43.5730306" lon="11.2284404"><ele>253.0</ele><time>2026-03-29T09:00:29.85Z</time></trkpt><trkpt lat="43.5730015" lon="11.2286091"><ele>254.5</ele><time>2026-03-29T09:00:30.858Z</time></trkpt><trkpt lat="43.5729727" lon="11.2287868"><ele>256.0</ele><time>2026-03-29T09:00:31.863Z</time></trkpt><trkpt lat="43.5729481" lon="11.2289763"><ele>257.5</ele><time>2026-03-29T09:00:32.863Z</time></trkpt><trkpt lat="43.5729297" lon="11.2291717"><ele>259.0</ele><time>2026-03-29T09:00:33.857Z</time></trkpt><trkpt lat="43.572915" lon="11.2293711"><ele>259.5</ele><time>2026-03-29T09:00:34.857Z</time></trkpt><trkpt lat="43.5729032" lon="11.2295699"><ele>260.0</ele><time>2026-03-29T09:00:35.851Z</time></trkpt><trkpt lat="43.5728904" lon="11.2297691"><ele>260.5</ele><time>2026-03-29T09:00:36.863Z</time></trkpt><trkpt lat="43.5728739" lon="11.2299667"><ele>261.0</ele><time>2026-03-29T09:00:37.862Z</time></trkpt><trkpt lat="43.5728565" lon="11.2301633"><ele>267.25</ele><time>2026-03-29T09:00:38.856Z</time></trkpt><trkpt lat="43.572843" lon="11.2303599"><ele>273.5</ele><time>2026-03-29T09:00:39.889Z</time></trkpt><trkpt lat="43.5728311" lon="11.2305543"><ele>279.75</ele><time>2026-03-29T09:00:40.891Z</time></trkpt><trkpt lat="43.5728173" lon="11.2307516"><ele>286.0</ele><time>2026-03-29T09:00:41.858Z</time></trkpt><trkpt lat="43.572806" lon="11.2309531"><ele>286.0</ele><time>2026-03-29T09:00:42.858Z</time></trkpt><trkpt lat="43.5727944" lon="11.23116"><ele>286.0</ele><time>2026-03-29T09:00:43.864Z</time></trkpt><trkpt lat="43.572783" lon="11.2313687"><ele>286.0</ele><time>2026-03-29T09:00:44.859Z</time></trkpt><trkpt lat="43.5727759" lon="11.2315792"><ele>287.0</ele><time>2026-03-29T09:00:45.864Z</time></trkpt><trkpt lat="43.5727754" lon="11.2317875"><ele>288.0</ele><time>2026-03-29T09:00:46.856Z</time></trkpt><trkpt lat="43.5727768" lon="11.2319958"><ele>289.0</ele><time>2026-03-29T09:00:47.859Z</time></trkpt><trkpt lat="43.5727776" lon="11.2322115"><ele>289.66666666666663</ele><time>2026-03-29T09:00:48.863Z</time></trkpt><trkpt lat="43.5727776" lon="11.23243"><ele>290.3333333333333</ele><time>2026-03-29T09:00:49.859Z</time></trkpt><trkpt lat="43.5727783" lon="11.2326495"><ele>291.0</ele><time>2026-03-29T09:00:50.892Z</time></trkpt><trkpt lat="43.5727761" lon="11.2328662"><ele>291.0</ele><time>2026-03-29T09:00:51.883Z</time></trkpt><trkpt lat="43.5727738" lon="11.2330759"><ele>291.0</ele><time>2026-03-29T09:00:52.887Z</time></trkpt><trkpt lat="43.5727707" lon="11.2332782"><ele>291.0</ele><time>2026-03-29T09:00:53.886Z</time></trkpt><trkpt lat="43.5727681" lon="11.2334783"><ele>291.0</ele><time>2026-03-29T09:00:54.856Z</time></trkpt><trkpt lat="43.5727617" lon="11.2336744"><ele>291.5</ele><time>2026-03-29T09:00:55.865Z</time></trkpt><trkpt lat="43.5727576" lon="11.2338753"><ele>292.0</ele><time>2026-03-29T09:00:56.864Z</time></trkpt><trkpt lat="43.5727582" lon="11.2340753"><ele>292.5</ele><time>2026-03-29T09:00:57.861Z</time></trkpt><trkpt lat="43.572769" lon="11.2342769"><ele>293.0</ele><time>2026-03-29T09:00:58.891Z</time></trkpt><trkpt lat="43.5727843" lon="11.2344765"><ele>293.25</ele><time>2026-03-29T09:00:59.863Z</time></trkpt><trkpt lat="43.5728028" lon="11.2346716"><ele>293.5</ele><time>2026-03-29T09:01:00.869Z</time></trkpt><trkpt lat="43.5728225" lon="11.2348594"><ele>293.75</ele><time>2026-03-29T09:01:01.866Z</time></trkpt><trkpt lat="43.5728542" lon="11.2350326"><ele>294.0</ele><time>2026-03-29T09:01:02.855Z</time></trkpt><trkpt lat="43.5729115" lon="11.235191"><ele>294.0</ele><time>2026-03-29T09:01:03.858Z</time></trkpt><trkpt lat="43.5729981" lon="11.2353315"><ele>294.0</ele><time>2026-03-29T09:01:04.86Z</time></trkpt><trkpt lat="43.5730977" lon="11.2354608"><ele>294.0</ele><time>2026-03-29T09:01:05.891Z</time></trkpt><trkpt lat="43.5731881" lon="11.2355883"><ele>294.0</ele><time>2026-03-29T09:01:06.863Z</time></trkpt><trkpt lat="43.5732596" lon="11.235721"><ele>297.0</ele><time>2026-03-29T09:01:07.858Z</time></trkpt><trkpt lat="43.5733151" lon="11.2358546"><ele>300.0</ele><time>2026-03-29T09:01:08.856Z</time></trkpt><trkpt lat="43.5733615" lon="11.2359996"><ele>303.0</ele><time>2026-03-29T09:01:09.859Z</time></trkpt><trkpt lat="43.5734022" lon="11.2361596"><ele>306.0</ele><time>2026-03-29T09:01:10.868Z</time></trkpt><trkpt lat="43.5734453" lon="11.2363281"><ele>307.25</ele><time>2026-03-29T09:01:11.857Z</time></trkpt><trkpt lat="43.573491" lon="11.2365072"><ele>308.5</ele><time>2026-03-29T09:01:12.864Z</time></trkpt><trkpt lat="43.5735368" lon="11.2366913"><ele>309.75</ele><time>2026-03-29T09:01:13.86Z</time></trkpt><trkpt lat="43.5735811" lon="11.236876"><ele>311.0</ele><time>2026-03-29T09:01:14.858Z</time></trkpt><trkpt lat="43.5736269" lon="11.237058"><ele>311.0</ele><time>2026-03-29T09:01:15.858Z</time></trkpt><trkpt lat="43.573682" lon="11.2372348"><ele>311.0</ele><time>2026-03-29T09:01:16.861Z</time></trkpt><trkpt lat="43.5737545" lon="11.2373999"><ele>311.0</ele><time>2026-03-29T09:01:17.859Z</time></trkpt><trkpt lat="43.5738498" lon="11.2375463"><ele>311.0</ele><time>2026-03-29T09:01:18.857Z</time></trkpt><trkpt lat="43.5739646" lon="11.237677"><ele>312.75</ele><time>2026-03-29T09:01:19.866Z</time></trkpt><trkpt lat="43.5740837" lon="11.2377958"><ele>314.5</ele><time>2026-03-29T09:01:20.889Z</time></trkpt><trkpt lat="43.5741968" lon="11.2379099"><ele>316.25</ele><time>2026-03-29T09:01:21.894Z</time></trkpt><trkpt lat="43.5743061" lon="11.2380171"><ele>318.0</ele><time>2026-03-29T09:01:22.861Z</time></trkpt><trkpt lat="43.5744108" lon="11.2381159"><ele>317.25</ele><time>2026-03-29T09:01:23.855Z</time></trkpt><trkpt lat="43.5745083" lon="11.238209"><ele>316.5</ele><time>2026-03-29T09:01:24.89Z</time></trkpt><trkpt lat="43.5746062" lon="11.238303"><ele>315.75</ele><time>2026-03-29T09:01:25.859Z</time></trkpt><trkpt lat="43.57471" lon="11.2384004"><ele>315.0</ele><time>2026-03-29T09:01:26.892Z</time></trkpt><trkpt lat="43.5748134" lon="11.2384978"><ele>317.25</ele><time>2026-03-29T09:01:27.901Z</time></trkpt><trkpt lat="43.5749149" lon="11.2385976"><ele>319.5</ele><time>2026-03-29T09:01:28.887Z</time></trkpt><trkpt lat="43.5750162" lon="11.2386991"><ele>321.75</ele><time>2026-03-29T09:01:29.889Z</time></trkpt><trkpt lat="43.5751141" lon="11.2388"><ele>324.0</ele><time>2026-03-29T09:01:30.856Z</time></trkpt><trkpt lat="43.575208" lon="11.2388942"><ele>322.4</ele><time>2026-03-29T09:01:31.87Z</time></trkpt><trkpt lat="43.5752928" lon="11.2389817"><ele>320.79999999999995</ele><time>2026-03-29T09:01:32.893Z</time></trkpt><trkpt lat="43.5753689" lon="11.2390644"><ele>319.20000000000005</ele><time>2026-03-29T09:01:33.859Z</time></trkpt><trkpt lat="43.5754304" lon="11.2391435"><ele>317.6</ele><time>2026-03-29T09:01:34.859Z</time></trkpt><trkpt lat="43.5754772" lon="11.2392162"><ele>316.0</ele><time>2026-03-29T09:01:35.862Z</time></trkpt><trkpt lat="43.5755481" lon="11.2393251"><ele>316.0</ele><time>2026-03-29T09:01:37.889Z</time></trkpt><trkpt lat="43.5756111" lon="11.2394356"><ele>316.0</ele><time>2026-03-29T09:01:39.883Z</time></trkpt><trkpt lat="43.5756425" lon="11.2395114"><ele>316.0</ele><time>2026-03-29T09:01:40.891Z</time></trkpt><trkpt lat="43.5756685" lon="11.2395941"><ele>316.0</ele><time>2026-03-29T09:01:41.86Z</time></trkpt><trkpt lat="43.5756846" lon="11.2396836"><ele>316.0</ele><time>2026-03-29T09:01:42.86Z</time></trkpt><trkpt lat="43.5756826" lon="11.2398"><ele>316.0</ele><time>2026-03-29T09:01:43.86Z</time></trkpt><trkpt lat="43.5756689" lon="11.2399403"><ele>315.75</ele><time>2026-03-29T09:01:44.858Z</time></trkpt><trkpt lat="43.5756527" lon="11.2401031"><ele>315.5</ele><time>2026-03-29T09:01:45.895Z</time></trkpt><trkpt lat="43.5756371" lon="11.2402741"><ele>315.25</ele><time>2026-03-29T09:01:46.864Z</time></trkpt><trkpt lat="43.575622" lon="11.2404501"><ele>315.0</ele><time>2026-03-29T09:01:47.86Z</time></trkpt><trkpt lat="43.5756025" lon="11.240625"><ele>315.0</ele><time>2026-03-29T09:01:48.858Z</time></trkpt><trkpt lat="43.5755832" lon="11.2408008"><ele>315.0</ele><time>2026-03-29T09:01:49.861Z</time></trkpt><trkpt lat="43.5755678" lon="11.2409676"><ele>315.0</ele><time>2026-03-29T09:01:50.892Z</time></trkpt><trkpt lat="43.5755527" lon="11.2411246"><ele>315.0</ele><time>2026-03-29T09:01:51.863Z</time></trkpt><trkpt lat="43.5755391" lon="11.2412765"><ele>315.0</ele><time>2026-03-29T09:01:52.869Z</time></trkpt><trkpt lat="43.5755287" lon="11.2414214"><ele>315.0</ele><time>2026-03-29T09:01:53.855Z</time></trkpt><trkpt lat="43.5755241" lon="11.241557"><ele>315.0</ele><time>2026-03-29T09:01:54.872Z</time></trkpt><trkpt lat="43.5755333" lon="11.2416906"><ele>315.0</ele><time>2026-03-29T09:01:55.852Z</time></trkpt><trkpt lat="43.5755557" lon="11.2418352"><ele>315.0</ele><time>2026-03-29T09:01:56.859Z</time></trkpt><trkpt lat="43.5755989" lon="11.2419781"><ele>314.75</ele><time>2026-03-29T09:01:57.852Z</time></trkpt><trkpt lat="43.5756584" lon="11.2421172"><ele>314.5</ele><time>2026-03-29T09:01:58.857Z</time></trkpt><trkpt lat="43.5757216" lon="11.2422581"><ele>314.25</ele><time>2026-03-29T09:01:59.889Z</time></trkpt><trkpt lat="43.5757816" lon="11.2423992"><ele>314.0</ele><time>2026-03-29T09:02:00.871Z</time></trkpt><trkpt lat="43.5758378" lon="11.2425409"><ele>314.0</ele><time>2026-03-29T09:02:01.889Z</time></trkpt><trkpt lat="43.5758935" lon="11.2426859"><ele>314.0</ele><time>2026-03-29T09:02:02.855Z</time></trkpt><trkpt lat="43.5759474" lon="11.2428302"><ele>314.0</ele><time>2026-03-29T09:02:03.868Z</time></trkpt><trkpt lat="43.5759996" lon="11.2429722"><ele>314.0</ele><time>2026-03-29T09:02:04.856Z</time></trkpt><trkpt lat="43.5760547" lon="11.2431143"><ele>313.75</ele><time>2026-03-29T09:02:05.863Z</time></trkpt><trkpt lat="43.5761083" lon="11.2432603"><ele>313.5</ele><time>2026-03-29T09:02:06.859Z</time></trkpt><trkpt lat="43.5761654" lon="11.2434099"><ele>313.25</ele><time>2026-03-29T09:02:07.859Z</time></trkpt><trkpt lat="43.5762241" lon="11.2435579"><ele>313.0</ele><time>2026-03-29T09:02:08.89Z</time></trkpt><trkpt lat="43.5762817" lon="11.2437048"><ele>313.5</ele><time>2026-03-29T09:02:09.855Z</time></trkpt><trkpt lat="43.5763381" lon="11.2438526"><ele>314.0</ele><time>2026-03-29T09:02:10.892Z</time></trkpt><trkpt lat="43.5763912" lon="11.244007"><ele>314.5</ele><time>2026-03-29T09:02:11.892Z</time></trkpt><trkpt lat="43.5764467" lon="11.2441615"><ele>315.0</ele><time>2026-03-29T09:02:12.856Z</time></trkpt><trkpt lat="43.5765061" lon="11.2443122"><ele>315.0</ele><time>2026-03-29T09:02:13.883Z</time></trkpt><trkpt lat="43.5765653" lon="11.244467"><ele>315.0</ele><time>2026-03-29T09:02:14.855Z</time></trkpt><trkpt lat="43.576624" lon="11.2446231"><ele>315.0</ele><time>2026-03-29T09:02:15.884Z</time></trkpt><trkpt lat="43.5766803" lon="11.2447832"><ele>315.0</ele><time>2026-03-29T09:02:16.856Z</time></trkpt><trkpt lat="43.5767356" lon="11.2449408"><ele>316.25</ele><time>2026-03-29T09:02:17.889Z</time></trkpt><trkpt lat="43.5767902" lon="11.2450914"><ele>317.5</ele><time>2026-03-29T09:02:18.856Z</time></trkpt><trkpt lat="43.5768403" lon="11.2452362"><ele>318.75</ele><time>2026-03-29T09:02:19.863Z</time></trkpt><trkpt lat="43.5768896" lon="11.2453746"><ele>320.0</ele><time>2026-03-29T09:02:20.88Z</time></trkpt><trkpt lat="43.5769354" lon="11.2455035"><ele>320.0</ele><time>2026-03-29T09:02:21.854Z</time></trkpt><trkpt lat="43.5769803" lon="11.2456216"><ele>320.0</ele><time>2026-03-29T09:02:22.858Z</time></trkpt><trkpt lat="43.5770186" lon="11.2457366"><ele>320.0</ele><time>2026-03-29T09:02:23.854Z</time></trkpt><trkpt lat="43.57705" lon="11.2458504"><ele>320.0</ele><time>2026-03-29T09:02:24.857Z</time></trkpt><trkpt lat="43.5770796" lon="11.2459642"><ele>320.0</ele><time>2026-03-29T09:02:25.861Z</time></trkpt><trkpt lat="43.5771212" lon="11.2460694"><ele>321.5</ele><time>2026-03-29T09:02:26.886Z</time></trkpt><trkpt lat="43.5771815" lon="11.2461726"><ele>323.0</ele><time>2026-03-29T09:02:27.87Z</time></trkpt><trkpt lat="43.5772614" lon="11.2462857"><ele>324.5</ele><time>2026-03-29T09:02:28.86Z</time></trkpt><trkpt lat="43.5773514" lon="11.2464065"><ele>326.0</ele><time>2026-03-29T09:02:29.859Z</time></trkpt><trkpt lat="43.5774443" lon="11.2465134"><ele>329.25</ele><time>2026-03-29T09:02:30.859Z</time></trkpt><trkpt lat="43.5775407" lon="11.2466182"><ele>332.5</ele><time>2026-03-29T09:02:31.863Z</time></trkpt><trkpt lat="43.5776337" lon="11.246733"><ele>335.75</ele><time>2026-03-29T09:02:32.861Z</time></trkpt><trkpt lat="43.5777175" lon="11.2468671"><ele>339.0</ele><time>2026-03-29T09:02:33.875Z</time></trkpt><trkpt lat="43.577793" lon="11.2470076"><ele>339.2</ele><time>2026-03-29T09:02:34.857Z</time></trkpt><trkpt lat="43.5778596" lon="11.2471385"><ele>339.4</ele><time>2026-03-29T09:02:35.855Z</time></trkpt><trkpt lat="43.5779168" lon="11.2472613"><ele>339.6</ele><time>2026-03-29T09:02:36.87Z</time></trkpt><trkpt lat="43.5779684" lon="11.2473644"><ele>339.8</ele><time>2026-03-29T09:02:37.857Z</time></trkpt><trkpt lat="43.5780089" lon="11.2474423"><ele>340.0</ele><time>2026-03-29T09:02:38.862Z</time></trkpt><trkpt lat="43.5780435" lon="11.2475334"><ele>340.0</ele><time>2026-03-29T09:02:40.861Z</time></trkpt><trkpt lat="43.5780678" lon="11.2476448"><ele>340.0</ele><time>2026-03-29T09:02:43.858Z</time></trkpt><trkpt lat="43.5780433" lon="11.2477333"><ele>340.0</ele><time>2026-03-29T09:02:45.858Z</time></trkpt><trkpt lat="43.5779862" lon="11.2478749"><ele>340.0</ele><time>2026-03-29T09:02:47.858Z</time></trkpt><trkpt lat="43.5779802" lon="11.2479637"><ele>340.0</ele><time>2026-03-29T09:02:48.857Z</time></trkpt><trkpt lat="43.577998" lon="11.2480776"><ele>340.0</ele><time>2026-03-29T09:02:49.863Z</time></trkpt><trkpt lat="43.5780342" lon="11.2482086"><ele>340.0</ele><time>2026-03-29T09:02:50.865Z</time></trkpt><trkpt lat="43.5780709" lon="11.2483309"><ele>340.0</ele><time>2026-03-29T09:02:51.854Z</time></trkpt><trkpt lat="43.5781059" lon="11.2484493"><ele>340.0</ele><time>2026-03-29T09:02:52.857Z</time></trkpt><trkpt lat="43.5781371" lon="11.2485704"><ele>340.0</ele><time>2026-03-29T09:02:53.857Z</time></trkpt><trkpt lat="43.5781671" lon="11.2486819"><ele>340.0</ele><time>2026-03-29T09:02:54.854Z</time></trkpt><trkpt lat="43.5781975" lon="11.2487854"><ele>340.0</ele><time>2026-03-29T09:02:55.858Z</time></trkpt><trkpt lat="43.5782279" lon="11.2488844"><ele>338.5714285714286</ele><time>2026-03-29T09:02:56.856Z</time></trkpt><trkpt lat="43.5782525" lon="11.2489729"><ele>337.1428571428571</ele><time>2026-03-29T09:02:57.855Z</time></trkpt><trkpt lat="43.5782792" lon="11.2490594"><ele>335.7142857142857</ele><time>2026-03-29T09:02:58.861Z</time></trkpt><trkpt lat="43.5783063" lon="11.2491458"><ele>334.28571428571433</ele><time>2026-03-29T09:02:59.858Z</time></trkpt><trkpt lat="43.578327" lon="11.2492308"><ele>332.8571428571429</ele><time>2026-03-29T09:03:00.859Z</time></trkpt><trkpt lat="43.5783299" lon="11.2493257"><ele>331.42857142857144</ele><time>2026-03-29T09:03:01.859Z</time></trkpt><trkpt lat="43.5782993" lon="11.2494103"><ele>330.0</ele><time>2026-03-29T09:03:02.861Z</time></trkpt><trkpt lat="43.5782447" lon="11.2494761"><ele>330.0</ele><time>2026-03-29T09:03:03.853Z</time></trkpt><trkpt lat="43.5781643" lon="11.2495106"><ele>330.0</ele><time>2026-03-29T09:03:04.89Z</time></trkpt><trkpt lat="43.5780854" lon="11.2495131"><ele>330.0</ele><time>2026-03-29T09:03:05.89Z</time></trkpt><trkpt lat="43.5780085" lon="11.2494799"><ele>330.0</ele><time>2026-03-29T09:03:06.858Z</time></trkpt><trkpt lat="43.577944" lon="11.249412"><ele>330.0</ele><time>2026-03-29T09:03:07.891Z</time></trkpt><trkpt lat="43.5778897" lon="11.2493248"><ele>330.0</ele><time>2026-03-29T09:03:08.861Z</time></trkpt><trkpt lat="43.5778391" lon="11.2492367"><ele>328.5</ele><time>2026-03-29T09:03:09.855Z</time></trkpt><trkpt lat="43.5777844" lon="11.2491609"><ele>327.0</ele><time>2026-03-29T09:03:10.889Z</time></trkpt><trkpt lat="43.5777163" lon="11.2491191"><ele>325.5</ele><time>2026-03-29T09:03:11.856Z</time></trkpt><trkpt lat="43.5776458" lon="11.2491317"><ele>324.0</ele><time>2026-03-29T09:03:12.858Z</time></trkpt><trkpt lat="43.5775894" lon="11.2491862"><ele>322.5</ele><time>2026-03-29T09:03:13.889Z</time></trkpt><trkpt lat="43.5775529" lon="11.2492875"><ele>321.0</ele><time>2026-03-29T09:03:14.864Z</time></trkpt><trkpt lat="43.577535" lon="11.2494374"><ele>321.0</ele><time>2026-03-29T09:03:15.865Z</time></trkpt><trkpt lat="43.5775251" lon="11.2496065"><ele>321.0</ele><time>2026-03-29T09:03:16.887Z</time></trkpt><trkpt lat="43.5775113" lon="11.2497721"><ele>321.0</ele><time>2026-03-29T09:03:17.859Z</time></trkpt><trkpt lat="43.5775048" lon="11.2499249"><ele>321.0</ele><time>2026-03-29T09:03:18.859Z</time></trkpt><trkpt lat="43.5775068" lon="11.2500708"><ele>319.0</ele><time>2026-03-29T09:03:19.861Z</time></trkpt><trkpt lat="43.5775294" lon="11.2502113"><ele>317.0</ele><time>2026-03-29T09:03:20.861Z</time></trkpt><trkpt lat="43.5775711" lon="11.2503542"><ele>315.0</ele><time>2026-03-29T09:03:21.856Z</time></trkpt><trkpt lat="43.5776157" lon="11.2504848"><ele>313.0</ele><time>2026-03-29T09:03:22.859Z</time></trkpt><trkpt lat="43.5776656" lon="11.2506184"><ele>311.0</ele><time>2026-03-29T09:03:23.866Z</time></trkpt><trkpt lat="43.5777325" lon="11.2507447"><ele>309.75</ele><time>2026-03-29T09:03:24.855Z</time></trkpt><trkpt lat="43.577816" lon="11.2508574"><ele>308.5</ele><time>2026-03-29T09:03:25.855Z</time></trkpt><trkpt lat="43.5779118" lon="11.2509406"><ele>307.25</ele><time>2026-03-29T09:03:26.857Z</time></trkpt><trkpt lat="43.5780096" lon="11.2510162"><ele>306.0</ele><time>2026-03-29T09:03:27.864Z</time></trkpt><trkpt lat="43.5781053" lon="11.2510956"><ele>306.0</ele><time>2026-03-29T09:03:28.859Z</time></trkpt><trkpt lat="43.5781988" lon="11.2511799"><ele>306.0</ele><time>2026-03-29T09:03:29.865Z</time></trkpt><trkpt lat="43.5782837" lon="11.2512679"><ele>306.0</ele><time>2026-03-29T09:03:30.863Z</time></trkpt><trkpt lat="43.5783604" lon="11.2513563"><ele>306.0</ele><time>2026-03-29T09:03:31.859Z</time></trkpt><trkpt lat="43.5784213" lon="11.2514415"><ele>306.0</ele><time>2026-03-29T09:03:32.859Z</time></trkpt><trkpt lat="43.5784685" lon="11.2515287"><ele>305.0</ele><time>2026-03-29T09:03:33.857Z</time></trkpt><trkpt lat="43.5785015" lon="11.2516222"><ele>304.0</ele><time>2026-03-29T09:03:34.856Z</time></trkpt><trkpt lat="43.5785245" lon="11.2517301"><ele>303.0</ele><time>2026-03-29T09:03:35.859Z</time></trkpt><trkpt lat="43.5785248" lon="11.2518545"><ele>302.0</ele><time>2026-03-29T09:03:36.856Z</time></trkpt><trkpt lat="43.5785029" lon="11.2519902"><ele>301.0</ele><time>2026-03-29T09:03:37.891Z</time></trkpt><trkpt lat="43.578455" lon="11.2521179"><ele>301.0</ele><time>2026-03-29T09:03:38.856Z</time></trkpt><trkpt lat="43.5783949" lon="11.2522348"><ele>301.0</ele><time>2026-03-29T09:03:39.855Z</time></trkpt><trkpt lat="43.5783193" lon="11.2523375"><ele>301.0</ele><time>2026-03-29T09:03:40.864Z</time></trkpt><trkpt lat="43.5782196" lon="11.2524099"><ele>301.0</ele><time>2026-03-29T09:03:41.853Z</time></trkpt><trkpt lat="43.578121" lon="11.2524655"><ele>301.0</ele><time>2026-03-29T09:03:42.896Z</time></trkpt><trkpt lat="43.578027" lon="11.252512"><ele>301.40000000000003</ele><time>2026-03-29T09:03:43.858Z</time></trkpt><trkpt lat="43.5779415" lon="11.252569"><ele>301.8</ele><time>2026-03-29T09:03:44.857Z</time></trkpt><trkpt lat="43.5778574" lon="11.2526464"><ele>302.20000000000005</ele><time>2026-03-29T09:03:45.89Z</time></trkpt><trkpt lat="43.5777735" lon="11.2527396"><ele>302.6</ele><time>2026-03-29T09:03:46.861Z</time></trkpt><trkpt lat="43.5776908" lon="11.252829"><ele>303.0</ele><time>2026-03-29T09:03:47.864Z</time></trkpt><trkpt lat="43.5776055" lon="11.2528932"><ele>300.6</ele><time>2026-03-29T09:03:48.871Z</time></trkpt><trkpt lat="43.5775173" lon="11.2529155"><ele>298.20000000000005</ele><time>2026-03-29T09:03:49.862Z</time></trkpt><trkpt lat="43.5774221" lon="11.2529011"><ele>295.8</ele><time>2026-03-29T09:03:50.869Z</time></trkpt><trkpt lat="43.5773174" lon="11.2528575"><ele>293.40000000000003</ele><time>2026-03-29T09:03:51.862Z</time></trkpt><trkpt lat="43.5772107" lon="11.2528101"><ele>291.0</ele><time>2026-03-29T09:03:52.852Z</time></trkpt><trkpt lat="43.577109" lon="11.2527684"><ele>290.0</ele><time>2026-03-29T09:03:53.862Z</time></trkpt><trkpt lat="43.5770089" lon="11.2527229"><ele>289.0</ele><time>2026-03-29T09:03:54.857Z</time></trkpt><trkpt lat="43.576915" lon="11.2526874"><ele>288.0</ele><time>2026-03-29T09:03:55.867Z</time></trkpt><trkpt lat="43.5768243" lon="11.2526613"><ele>287.0</ele><time>2026-03-29T09:03:56.852Z</time></trkpt><trkpt lat="43.5767436" lon="11.2526338"><ele>286.0</ele><time>2026-03-29T09:03:57.859Z</time></trkpt><trkpt lat="43.5766728" lon="11.2526026"><ele>286.0</ele><time>2026-03-29T09:03:58.869Z</time></trkpt><trkpt lat="43.5766011" lon="11.2525757"><ele>286.0</ele><time>2026-03-29T09:03:59.855Z</time></trkpt><trkpt lat="43.5765238" lon="11.2525629"><ele>286.0</ele><time>2026-03-29T09:04:00.867Z</time></trkpt><trkpt lat="43.5764463" lon="11.2525682"><ele>286.0</ele><time>2026-03-29T09:04:01.887Z</time></trkpt><trkpt lat="43.5763701" lon="11.2525956"><ele>286.0</ele><time>2026-03-29T09:04:02.859Z</time></trkpt><trkpt lat="43.5762969" lon="11.2526565"><ele>286.0</ele><time>2026-03-29T09:04:03.86Z</time></trkpt><trkpt lat="43.57623" lon="11.2527443"><ele>285.40000000000003</ele><time>2026-03-29T09:04:04.862Z</time></trkpt><trkpt lat="43.5761717" lon="11.2528572"><ele>284.8</ele><time>2026-03-29T09:04:05.862Z</time></trkpt><trkpt lat="43.5761194" lon="11.2529807"><ele>284.20000000000005</ele><time>2026-03-29T09:04:06.86Z</time></trkpt><trkpt lat="43.5760741" lon="11.2531048"><ele>283.6</ele><time>2026-03-29T09:04:07.862Z</time></trkpt><trkpt lat="43.5760288" lon="11.2532297"><ele>283.0</ele><time>2026-03-29T09:04:08.856Z</time></trkpt><trkpt lat="43.5759825" lon="11.2533565"><ele>283.0</ele><time>2026-03-29T09:04:09.884Z</time></trkpt><trkpt lat="43.5759392" lon="11.2534841"><ele>283.0</ele><time>2026-03-29T09:04:10.862Z</time></trkpt><trkpt lat="43.5759013" lon="11.2536154"><ele>283.0</ele><time>2026-03-29T09:04:11.857Z</time></trkpt><trkpt lat="43.5758704" lon="11.2537551"><ele>283.0</ele><time>2026-03-29T09:04:12.86Z</time></trkpt><trkpt lat="43.5758446" lon="11.2539001"><ele>283.0</ele><time>2026-03-29T09:04:13.862Z</time></trkpt><trkpt lat="43.5758247" lon="11.2540492"><ele>283.8</ele><time>2026-03-29T09:04:14.857Z</time></trkpt><trkpt lat="43.5758" lon="11.2541944"><ele>284.6</ele><time>2026-03-29T09:04:15.858Z</time></trkpt><trkpt lat="43.5757699" lon="11.2543309"><ele>285.4</ele><time>2026-03-29T09:04:16.867Z</time></trkpt><trkpt lat="43.5757366" lon="11.254458"><ele>286.2</ele><time>2026-03-29T09:04:17.862Z</time></trkpt><trkpt lat="43.5756918" lon="11.2545857"><ele>287.0</ele><time>2026-03-29T09:04:18.853Z</time></trkpt><trkpt lat="43.5756356" lon="11.2547142"><ele>287.5</ele><time>2026-03-29T09:04:19.853Z</time></trkpt><trkpt lat="43.5755726" lon="11.2548453"><ele>288.0</ele><time>2026-03-29T09:04:20.862Z</time></trkpt><trkpt lat="43.575504" lon="11.2549753"><ele>288.5</ele><time>2026-03-29T09:04:21.855Z</time></trkpt><trkpt lat="43.5754286" lon="11.2551107"><ele>289.0</ele><time>2026-03-29T09:04:22.86Z</time></trkpt><trkpt lat="43.5753451" lon="11.2552568"><ele>290.25</ele><time>2026-03-29T09:04:23.858Z</time></trkpt><trkpt lat="43.5752536" lon="11.255407"><ele>291.5</ele><time>2026-03-29T09:04:24.885Z</time></trkpt><trkpt lat="43.5751619" lon="11.2555496"><ele>292.75</ele><time>2026-03-29T09:04:25.857Z</time></trkpt><trkpt lat="43.5750679" lon="11.2556929"><ele>294.0</ele><time>2026-03-29T09:04:26.861Z</time></trkpt><trkpt lat="43.5749707" lon="11.2558448"><ele>294.5</ele><time>2026-03-29T09:04:27.868Z</time></trkpt><trkpt lat="43.5748756" lon="11.2560045"><ele>295.0</ele><time>2026-03-29T09:04:28.859Z</time></trkpt><trkpt lat="43.5747807" lon="11.2561642"><ele>295.5</ele><time>2026-03-29T09:04:29.86Z</time></trkpt><trkpt lat="43.5746899" lon="11.256322"><ele>296.0</ele><time>2026-03-29T09:04:30.86Z</time></trkpt><trkpt lat="43.5745974" lon="11.2564725"><ele>299.5</ele><time>2026-03-29T09:04:31.861Z</time></trkpt><trkpt lat="43.5744977" lon="11.2566039"><ele>303.0</ele><time>2026-03-29T09:04:32.891Z</time></trkpt><trkpt lat="43.5743958" lon="11.2567137"><ele>306.5</ele><time>2026-03-29T09:04:33.858Z</time></trkpt><trkpt lat="43.574293" lon="11.2568152"><ele>310.0</ele><time>2026-03-29T09:04:34.885Z</time></trkpt><trkpt lat="43.5741993" lon="11.2569168"><ele>310.0</ele><time>2026-03-29T09:04:35.864Z</time></trkpt><trkpt lat="43.5741275" lon="11.2570103"><ele>310.0</ele><time>2026-03-29T09:04:36.859Z</time></trkpt><trkpt lat="43.5740851" lon="11.2571004"><ele>310.0</ele><time>2026-03-29T09:04:37.857Z</time></trkpt><trkpt lat="43.5740752" lon="11.2571998"><ele>310.0</ele><time>2026-03-29T09:04:38.855Z</time></trkpt><trkpt lat="43.5741184" lon="11.2573123"><ele>310.0</ele><time>2026-03-29T09:04:39.89Z</time></trkpt><trkpt lat="43.5741819" lon="11.2574112"><ele>310.0</ele><time>2026-03-29T09:04:40.862Z</time></trkpt><trkpt lat="43.5742377" lon="11.2575111"><ele>311.0</ele><time>2026-03-29T09:04:41.866Z</time></trkpt><trkpt lat="43.5742733" lon="11.2576339"><ele>312.0</ele><time>2026-03-29T09:04:42.858Z</time></trkpt><trkpt lat="43.5742721" lon="11.2577662"><ele>313.0</ele><time>2026-03-29T09:04:43.86Z</time></trkpt><trkpt lat="43.5742141" lon="11.2578873"><ele>314.0</ele><time>2026-03-29T09:04:44.884Z</time></trkpt><trkpt lat="43.5741322" lon="11.2579947"><ele>315.0</ele><time>2026-03-29T09:04:45.86Z</time></trkpt><trkpt lat="43.5740684" lon="11.258114"><ele>316.8</ele><time>2026-03-29T09:04:46.863Z</time></trkpt><trkpt lat="43.5740164" lon="11.2582346"><ele>318.6</ele><time>2026-03-29T09:04:47.859Z</time></trkpt><trkpt lat="43.5739899" lon="11.2583526"><ele>320.4</ele><time>2026-03-29T09:04:48.862Z</time></trkpt><trkpt lat="43.5740074" lon="11.258475"><ele>322.2</ele><time>2026-03-29T09:04:49.89Z</time></trkpt><trkpt lat="43.5740605" lon="11.2585977"><ele>324.0</ele><time>2026-03-29T09:04:50.858Z</time></trkpt><trkpt lat="43.5741076" lon="11.2587016"><ele>324.0</ele><time>2026-03-29T09:04:51.857Z</time></trkpt><trkpt lat="43.5741416" lon="11.2588162"><ele>324.0</ele><time>2026-03-29T09:04:52.86Z</time></trkpt><trkpt lat="43.5741608" lon="11.258946"><ele>324.0</ele><time>2026-03-29T09:04:53.866Z</time></trkpt><trkpt lat="43.5741529" lon="11.2590764"><ele>324.0</ele><time>2026-03-29T09:04:54.86Z</time></trkpt><trkpt lat="43.5741207" lon="11.2592141"><ele>324.0</ele><time>2026-03-29T09:04:55.866Z</time></trkpt><trkpt lat="43.5740676" lon="11.2593411"><ele>326.0</ele><time>2026-03-29T09:04:56.891Z</time></trkpt><trkpt lat="43.5739747" lon="11.2594513"><ele>328.0</ele><time>2026-03-29T09:04:57.886Z</time></trkpt><trkpt lat="43.57386" lon="11.2595411"><ele>330.0</ele><time>2026-03-29T09:04:58.861Z</time></trkpt><trkpt lat="43.5737208" lon="11.2596082"><ele>332.0</ele><time>2026-03-29T09:04:59.856Z</time></trkpt><trkpt lat="43.5735866" lon="11.2596544"><ele>334.40000000000003</ele><time>2026-03-29T09:05:00.856Z</time></trkpt><trkpt lat="43.5734567" lon="11.2596769"><ele>336.8</ele><time>2026-03-29T09:05:01.859Z</time></trkpt><trkpt lat="43.5733539" lon="11.2596996"><ele>339.2</ele><time>2026-03-29T09:05:02.884Z</time></trkpt><trkpt lat="43.573253" lon="11.2597065"><ele>341.6</ele><time>2026-03-29T09:05:03.864Z</time></trkpt><trkpt lat="43.5731549" lon="11.2597217"><ele>344.0</ele><time>2026-03-29T09:05:04.857Z</time></trkpt><trkpt lat="43.5730694" lon="11.2597447"><ele>344.0</ele><time>2026-03-29T09:05:05.858Z</time></trkpt><trkpt lat="43.5729925" lon="11.2597791"><ele>344.0</ele><time>2026-03-29T09:05:06.884Z</time></trkpt><trkpt lat="43.572921" lon="11.2598267"><ele>344.0</ele><time>2026-03-29T09:05:07.864Z</time></trkpt><trkpt lat="43.5728532" lon="11.2598853"><ele>344.0</ele><time>2026-03-29T09:05:08.854Z</time></trkpt><trkpt lat="43.5727957" lon="11.2599471"><ele>344.0</ele><time>2026-03-29T09:05:09.864Z</time></trkpt><trkpt lat="43.572743" lon="11.2600119"><ele>344.0</ele><time>2026-03-29T09:05:10.858Z</time></trkpt><trkpt lat="43.5726868" lon="11.2600779"><ele>346.1666666666667</ele><time>2026-03-29T09:05:11.86Z</time></trkpt><trkpt lat="43.5726298" lon="11.2601324"><ele>348.33333333333337</ele><time>2026-03-29T09:05:12.856Z</time></trkpt><trkpt lat="43.572566" lon="11.2601681"><ele>350.5</ele><time>2026-03-29T09:05:13.889Z</time></trkpt><trkpt lat="43.5724879" lon="11.2601603"><ele>352.6666666666667</ele><time>2026-03-29T09:05:14.863Z</time></trkpt><trkpt lat="43.5724064" lon="11.2601206"><ele>354.8333333333333</ele><time>2026-03-29T09:05:15.858Z</time></trkpt><trkpt lat="43.5723169" lon="11.2600704"><ele>357.0</ele><time>2026-03-29T09:05:16.867Z</time></trkpt><trkpt lat="43.5722315" lon="11.2600576"><ele>357.0</ele><time>2026-03-29T09:05:17.866Z</time></trkpt><trkpt lat="43.5721442" lon="11.2600875"><ele>357.0</ele><time>2026-03-29T09:05:18.855Z</time></trkpt><trkpt lat="43.5720621" lon="11.2601624"><ele>357.0</ele><time>2026-03-29T09:05:19.883Z</time></trkpt><trkpt lat="43.5719867" lon="11.2602569"><ele>357.0</ele><time>2026-03-29T09:05:20.855Z</time></trkpt><trkpt lat="43.571912" lon="11.2603634"><ele>357.0</ele><time>2026-03-29T09:05:21.882Z</time></trkpt><trkpt lat="43.5718567" lon="11.2605016"><ele>359.5</ele><time>2026-03-29T09:05:22.859Z</time></trkpt><trkpt lat="43.5718097" lon="11.2606451"><ele>362.0</ele><time>2026-03-29T09:05:23.855Z</time></trkpt><trkpt lat="43.57175" lon="11.2607786"><ele>364.5</ele><time>2026-03-29T09:05:24.857Z</time></trkpt><trkpt lat="43.5716648" lon="11.2609029"><ele>367.0</ele><time>2026-03-29T09:05:25.856Z</time></trkpt><trkpt lat="43.5715704" lon="11.2609868"><ele>367.0</ele><time>2026-03-29T09:05:26.859Z</time></trkpt><trkpt lat="43.5714587" lon="11.2610418"><ele>367.0</ele><time>2026-03-29T09:05:27.854Z</time></trkpt><trkpt lat="43.5713299" lon="11.261068"><ele>367.0</ele><time>2026-03-29T09:05:28.855Z</time></trkpt><trkpt lat="43.5712089" lon="11.2610538"><ele>367.0</ele><time>2026-03-29T09:05:29.86Z</time></trkpt><trkpt lat="43.5710889" lon="11.2610158"><ele>369.25</ele><time>2026-03-29T09:05:30.858Z</time></trkpt><trkpt lat="43.5709676" lon="11.2609659"><ele>371.5</ele><time>2026-03-29T09:05:31.854Z</time></trkpt><trkpt lat="43.5708478" lon="11.2609306"><ele>373.75</ele><time>2026-03-29T09:05:32.868Z</time></trkpt><trkpt lat="43.5707381" lon="11.2609092"><ele>376.0</ele><time>2026-03-29T09:05:33.861Z</time></trkpt><trkpt lat="43.5706444" lon="11.2609018"><ele>376.0</ele><time>2026-03-29T09:05:34.888Z</time></trkpt><trkpt lat="43.5705648" lon="11.2608971"><ele>376.0</ele><time>2026-03-29T09:05:35.89Z</time></trkpt><trkpt lat="43.5704679" lon="11.2609058"><ele>376.0</ele><time>2026-03-29T09:05:37.855Z</time></trkpt><trkpt lat="43.5704168" lon="11.2609819"><ele>376.0</ele><time>2026-03-29T09:06:08.863Z</time></trkpt><trkpt lat="43.5704139" lon="11.2611271"><ele>376.0</ele><time>2026-03-29T09:06:10.859Z</time></trkpt><trkpt lat="43.5704175" lon="11.2612972"><ele>376.0</ele><time>2026-03-29T09:06:12.863Z</time></trkpt><trkpt lat="43.5704308" lon="11.2614028"><ele>376.0</ele><time>2026-03-29T09:06:13.887Z</time></trkpt><trkpt lat="43.570449" lon="11.2615141"><ele>376.0</ele><time>2026-03-29T09:06:14.861Z</time></trkpt><trkpt lat="43.5704654" lon="11.2616327"><ele>376.0</ele><time>2026-03-29T09:06:15.873Z</time></trkpt><trkpt lat="43.570483" lon="11.2617583"><ele>376.0</ele><time>2026-03-29T09:06:16.862Z</time></trkpt><trkpt lat="43.5705093" lon="11.261883"><ele>376.0</ele><time>2026-03-29T09:06:17.861Z</time></trkpt><trkpt lat="43.5705353" lon="11.262002"><ele>377.16666666666663</ele><time>2026-03-29T09:06:18.859Z</time></trkpt><trkpt lat="43.5705572" lon="11.2621191"><ele>378.3333333333333</ele><time>2026-03-29T09:06:19.886Z</time></trkpt><trkpt lat="43.5705824" lon="11.2622368"><ele>379.5</ele><time>2026-03-29T09:06:20.863Z</time></trkpt><trkpt lat="43.5706144" lon="11.2623481"><ele>380.6666666666667</ele><time>2026-03-29T09:06:21.856Z</time></trkpt><trkpt lat="43.5706482" lon="11.2624471"><ele>381.83333333333337</ele><time>2026-03-29T09:06:22.858Z</time></trkpt><trkpt lat="43.5706808" lon="11.2625335"><ele>383.0</ele><time>2026-03-29T09:06:23.86Z</time></trkpt><trkpt lat="43.5707298" lon="11.2626785"><ele>383.2</ele><time>2026-03-29T09:06:25.857Z</time></trkpt><trkpt lat="43.5707413" lon="11.2628226"><ele>383.4</ele><time>2026-03-29T09:06:27.856Z</time></trkpt><trkpt lat="43.5707083" lon="11.2629751"><ele>383.59999999999997</ele><time>2026-03-29T09:06:29.888Z</time></trkpt><trkpt lat="43.5706509" lon="11.263042"><ele>383.79999999999995</ele><time>2026-03-29T09:06:30.859Z</time></trkpt><trkpt lat="43.5705497" lon="11.2631072"><ele>384.0</ele><time>2026-03-29T09:06:31.857Z</time></trkpt><trkpt lat="43.5704471" lon="11.2631284"><ele>382.3333333333333</ele><time>2026-03-29T09:06:32.864Z</time></trkpt><trkpt lat="43.5703484" lon="11.2631279"><ele>380.6666666666667</ele><time>2026-03-29T09:06:33.856Z</time></trkpt><trkpt lat="43.5702558" lon="11.263114"><ele>379.0</ele><time>2026-03-29T09:06:34.855Z</time></trkpt><trkpt lat="43.570173" lon="11.263106"><ele>377.33333333333337</ele><time>2026-03-29T09:06:35.858Z</time></trkpt><trkpt lat="43.5701004" lon="11.2631086"><ele>375.6666666666667</ele><time>2026-03-29T09:06:36.857Z</time></trkpt><trkpt lat="43.5700404" lon="11.2631389"><ele>374.0</ele><time>2026-03-29T09:06:37.86Z</time></trkpt><trkpt lat="43.5699739" lon="11.2632883"><ele>374.0</ele><time>2026-03-29T09:06:39.886Z</time></trkpt><trkpt lat="43.5699707" lon="11.2633979"><ele>374.0</ele><time>2026-03-29T09:06:40.858Z</time></trkpt><trkpt lat="43.5699634" lon="11.2635197"><ele>374.0</ele><time>2026-03-29T09:06:41.856Z</time></trkpt><trkpt lat="43.5699448" lon="11.2636415"><ele>374.0</ele><time>2026-03-29T09:06:42.886Z</time></trkpt><trkpt lat="43.5699052" lon="11.2637364"><ele>374.0</ele><time>2026-03-29T09:06:43.854Z</time></trkpt><trkpt lat="43.5698313" lon="11.2637981"><ele>374.0</ele><time>2026-03-29T09:06:44.86Z</time></trkpt><trkpt lat="43.569746" lon="11.2638272"><ele>374.0</ele><time>2026-03-29T09:06:45.885Z</time></trkpt><trkpt lat="43.5696705" lon="11.2638372"><ele>374.0</ele><time>2026-03-29T09:06:46.853Z</time></trkpt><trkpt lat="43.5696071" lon="11.2638624"><ele>374.0</ele><time>2026-03-29T09:06:47.859Z</time></trkpt><trkpt lat="43.5695518" lon="11.2639079"><ele>374.0</ele><time>2026-03-29T09:06:48.858Z</time></trkpt><trkpt lat="43.5694961" lon="11.2639921"><ele>374.0</ele><time>2026-03-29T09:06:49.884Z</time></trkpt><trkpt lat="43.5694711" lon="11.2641088"><ele>374.0</ele><time>2026-03-29T09:06:50.859Z</time></trkpt><trkpt lat="43.5694525" lon="11.2642246"><ele>373.4</ele><time>2026-03-29T09:06:51.856Z</time></trkpt><trkpt lat="43.5694145" lon="11.2643219"><ele>372.79999999999995</ele><time>2026-03-29T09:06:52.859Z</time></trkpt><trkpt lat="43.5693581" lon="11.2644124"><ele>372.20000000000005</ele><time>2026-03-29T09:06:53.859Z</time></trkpt><trkpt lat="43.5692869" lon="11.2644922"><ele>371.6</ele><time>2026-03-29T09:06:54.883Z</time></trkpt><trkpt lat="43.5692048" lon="11.2645601"><ele>371.0</ele><time>2026-03-29T09:06:55.888Z</time></trkpt><trkpt lat="43.569112" lon="11.2645995"><ele>371.0</ele><time>2026-03-29T09:06:56.853Z</time></trkpt><trkpt lat="43.5690146" lon="11.2646083"><ele>371.0</ele><time>2026-03-29T09:06:57.884Z</time></trkpt><trkpt lat="43.5689089" lon="11.2645688"><ele>371.0</ele><time>2026-03-29T09:06:58.858Z</time></trkpt><trkpt lat="43.5688134" lon="11.2645191"><ele>371.0</ele><time>2026-03-29T09:06:59.854Z</time></trkpt><trkpt lat="43.5687293" lon="11.2644783"><ele>371.0</ele><time>2026-03-29T09:07:00.878Z</time></trkpt><trkpt lat="43.5686599" lon="11.2644505"><ele>370.0</ele><time>2026-03-29T09:07:01.854Z</time></trkpt><trkpt lat="43.5685323" lon="11.2644976"><ele>369.0</ele><time>2026-03-29T09:07:03.867Z</time></trkpt><trkpt lat="43.5684626" lon="11.2645702"><ele>368.0</ele><time>2026-03-29T09:07:04.887Z</time></trkpt><trkpt lat="43.568397" lon="11.2646648"><ele>367.0</ele><time>2026-03-29T09:07:05.883Z</time></trkpt><trkpt lat="43.5683221" lon="11.2647659"><ele>366.0</ele><time>2026-03-29T09:07:06.859Z</time></trkpt><trkpt lat="43.5682391" lon="11.2648473"><ele>368.0</ele><time>2026-03-29T09:07:07.855Z</time></trkpt><trkpt lat="43.5681569" lon="11.2649217"><ele>370.0</ele><time>2026-03-29T09:07:08.854Z</time></trkpt><trkpt lat="43.5680854" lon="11.2650065"><ele>372.0</ele><time>2026-03-29T09:07:09.859Z</time></trkpt><trkpt lat="43.5680214" lon="11.2651126"><ele>374.0</ele><time>2026-03-29T09:07:10.888Z</time></trkpt><trkpt lat="43.5679669" lon="11.2652279"><ele>376.0</ele><time>2026-03-29T09:07:11.859Z</time></trkpt><trkpt lat="43.5679243" lon="11.2653572"><ele>376.0</ele><time>2026-03-29T09:07:12.855Z</time></trkpt><trkpt lat="43.5678777" lon="11.2654752"><ele>376.0</ele><time>2026-03-29T09:07:13.856Z</time></trkpt><trkpt lat="43.5678238" lon="11.2655814"><ele>376.0</ele><time>2026-03-29T09:07:14.89Z</time></trkpt><trkpt lat="43.5677649" lon="11.2656832"><ele>376.0</ele><time>2026-03-29T09:07:15.857Z</time></trkpt><trkpt lat="43.5677168" lon="11.2657854"><ele>376.0</ele><time>2026-03-29T09:07:16.86Z</time></trkpt><trkpt lat="43.5676755" lon="11.2658957"><ele>374.5</ele><time>2026-03-29T09:07:17.854Z</time></trkpt><trkpt lat="43.5676483" lon="11.2660097"><ele>373.0</ele><time>2026-03-29T09:07:18.857Z</time></trkpt><trkpt lat="43.5676236" lon="11.2661271"><ele>371.5</ele><time>2026-03-29T09:07:19.856Z</time></trkpt><trkpt lat="43.5676086" lon="11.266245"><ele>370.0</ele><time>2026-03-29T09:07:20.858Z</time></trkpt><trkpt lat="43.5676057" lon="11.266363"><ele>368.5</ele><time>2026-03-29T09:07:21.861Z</time></trkpt><trkpt lat="43.5676171" lon="11.2664903"><ele>367.0</ele><time>2026-03-29T09:07:22.861Z</time></trkpt><trkpt lat="43.5676386" lon="11.2666107"><ele>367.0</ele><time>2026-03-29T09:07:23.89Z</time></trkpt><trkpt lat="43.5676668" lon="11.2667226"><ele>367.0</ele><time>2026-03-29T09:07:24.86Z</time></trkpt><trkpt lat="43.5677056" lon="11.2668303"><ele>367.0</ele><time>2026-03-29T09:07:25.858Z</time></trkpt><trkpt lat="43.5677606" lon="11.266939"><ele>367.0</ele><time>2026-03-29T09:07:26.886Z</time></trkpt><trkpt lat="43.5678263" lon="11.2670384"><ele>367.0</ele><time>2026-03-29T09:07:27.858Z</time></trkpt><trkpt lat="43.56789" lon="11.2671173"><ele>369.0</ele><time>2026-03-29T09:07:28.854Z</time></trkpt><trkpt lat="43.5679474" lon="11.2671793"><ele>371.0</ele><time>2026-03-29T09:07:29.859Z</time></trkpt><trkpt lat="43.5680016" lon="11.2672386"><ele>373.0</ele><time>2026-03-29T09:07:30.855Z</time></trkpt><trkpt lat="43.5680575" lon="11.2672948"><ele>375.0</ele><time>2026-03-29T09:07:31.887Z</time></trkpt><trkpt lat="43.5681294" lon="11.2673833"><ele>377.0</ele><time>2026-03-29T09:07:33.852Z</time></trkpt><trkpt lat="43.56808" lon="11.2674998"><ele>379.0</ele><time>2026-03-29T09:07:36.855Z</time></trkpt><trkpt lat="43.568017" lon="11.2675223"><ele>379.0</ele><time>2026-03-29T09:07:37.857Z</time></trkpt><trkpt lat="43.5679297" lon="11.2675222"><ele>379.0</ele><time>2026-03-29T09:07:38.862Z</time></trkpt><trkpt lat="43.5678394" lon="11.2675213"><ele>379.0</ele><time>2026-03-29T09:07:39.862Z</time></trkpt><trkpt lat="43.5677429" lon="11.2675397"><ele>379.0</ele><time>2026-03-29T09:07:40.885Z</time></trkpt><trkpt lat="43.5676499" lon="11.2675823"><ele>379.0</ele><time>2026-03-29T09:07:41.865Z</time></trkpt><trkpt lat="43.5675599" lon="11.2676245"><ele>377.66666666666663</ele><time>2026-03-29T09:07:42.856Z</time></trkpt><trkpt lat="43.5674808" lon="11.2676544"><ele>376.3333333333333</ele><time>2026-03-29T09:07:43.856Z</time></trkpt><trkpt lat="43.5674061" lon="11.2676986"><ele>375.0</ele><time>2026-03-29T09:07:44.854Z</time></trkpt><trkpt lat="43.5673267" lon="11.2677468"><ele>373.6666666666667</ele><time>2026-03-29T09:07:45.888Z</time></trkpt><trkpt lat="43.5672424" lon="11.2678073"><ele>372.33333333333337</ele><time>2026-03-29T09:07:46.889Z</time></trkpt><trkpt lat="43.5671541" lon="11.2678761"><ele>371.0</ele><time>2026-03-29T09:07:47.865Z</time></trkpt><trkpt lat="43.5670649" lon="11.2679521"><ele>372.20000000000005</ele><time>2026-03-29T09:07:48.852Z</time></trkpt><trkpt lat="43.5669724" lon="11.268027"><ele>373.40000000000003</ele><time>2026-03-29T09:07:49.859Z</time></trkpt><trkpt lat="43.5668794" lon="11.2680949"><ele>374.6</ele><time>2026-03-29T09:07:50.854Z</time></trkpt><trkpt lat="43.5667847" lon="11.2681498"><ele>375.8</ele><time>2026-03-29T09:07:51.858Z</time></trkpt><trkpt lat="43.5666888" lon="11.2681876"><ele>377.0</ele><time>2026-03-29T09:07:52.855Z</time></trkpt><trkpt lat="43.5665883" lon="11.2682184"><ele>377.0</ele><time>2026-03-29T09:07:53.855Z</time></trkpt><trkpt lat="43.5664815" lon="11.2682483"><ele>377.0</ele><time>2026-03-29T09:07:54.855Z</time></trkpt><trkpt lat="43.5663726" lon="11.26828"><ele>377.0</ele><time>2026-03-29T09:07:55.86Z</time></trkpt><trkpt lat="43.5662671" lon="11.2683142"><ele>377.0</ele><time>2026-03-29T09:07:56.885Z</time></trkpt><trkpt lat="43.5661645" lon="11.2683502"><ele>377.0</ele><time>2026-03-29T09:07:57.856Z</time></trkpt><trkpt lat="43.5660637" lon="11.2683917"><ele>376.83333333333337</ele><time>2026-03-29T09:07:58.855Z</time></trkpt><trkpt lat="43.5659657" lon="11.2684404"><ele>376.6666666666667</ele><time>2026-03-29T09:07:59.857Z</time></trkpt><trkpt lat="43.5658814" lon="11.268506"><ele>376.5</ele><time>2026-03-29T09:08:00.859Z</time></trkpt><trkpt lat="43.5658043" lon="11.2685714"><ele>376.3333333333333</ele><time>2026-03-29T09:08:01.854Z</time></trkpt><trkpt lat="43.5657329" lon="11.2686282"><ele>376.16666666666663</ele><time>2026-03-29T09:08:02.883Z</time></trkpt><trkpt lat="43.5656691" lon="11.2686787"><ele>376.0</ele><time>2026-03-29T09:08:03.884Z</time></trkpt><trkpt lat="43.5656067" lon="11.2687146"><ele>376.0</ele><time>2026-03-29T09:08:04.857Z</time></trkpt><trkpt lat="43.5655003" lon="11.2687623"><ele>376.0</ele><time>2026-03-29T09:08:06.864Z</time></trkpt><trkpt lat="43.5654114" lon="11.2687274"><ele>376.0</ele><time>2026-03-29T09:08:08.892Z</time></trkpt><trkpt lat="43.5653164" lon="11.2686014"><ele>376.0</ele><time>2026-03-29T09:08:10.856Z</time></trkpt><trkpt lat="43.5652718" lon="11.2684993"><ele>376.0</ele><time>2026-03-29T09:08:11.887Z</time></trkpt><trkpt lat="43.565221" lon="11.268382"><ele>376.8</ele><time>2026-03-29T09:08:12.857Z</time></trkpt><trkpt lat="43.5651649" lon="11.2682594"><ele>377.6</ele><time>2026-03-29T09:08:13.884Z</time></trkpt><trkpt lat="43.5651054" lon="11.2681402"><ele>378.4</ele><time>2026-03-29T09:08:14.859Z</time></trkpt><trkpt lat="43.5650338" lon="11.2680323"><ele>379.2</ele><time>2026-03-29T09:08:15.86Z</time></trkpt><trkpt lat="43.5649481" lon="11.2679405"><ele>380.0</ele><time>2026-03-29T09:08:16.884Z</time></trkpt><trkpt lat="43.5648465" lon="11.267873"><ele>380.0</ele><time>2026-03-29T09:08:17.86Z</time></trkpt><trkpt lat="43.5647317" lon="11.2678087"><ele>380.0</ele><time>2026-03-29T09:08:18.854Z</time></trkpt><trkpt lat="43.5646218" lon="11.2677469"><ele>380.0</ele><time>2026-03-29T09:08:19.854Z</time></trkpt><trkpt lat="43.564527" lon="11.2676968"><ele>380.0</ele><time>2026-03-29T09:08:20.858Z</time></trkpt><trkpt lat="43.5644404" lon="11.2676657"><ele>380.0</ele><time>2026-03-29T09:08:21.89Z</time></trkpt><trkpt lat="43.5643575" lon="11.2676576"><ele>381.4</ele><time>2026-03-29T09:08:22.881Z</time></trkpt><trkpt lat="43.5642724" lon="11.2676771"><ele>382.8</ele><time>2026-03-29T09:08:23.866Z</time></trkpt><trkpt lat="43.5641913" lon="11.2677303"><ele>384.20000000000005</ele><time>2026-03-29T09:08:24.855Z</time></trkpt><trkpt lat="43.5641014" lon="11.2678015"><ele>385.6</ele><time>2026-03-29T09:08:25.885Z</time></trkpt><trkpt lat="43.564013" lon="11.2678675"><ele>387.0</ele><time>2026-03-29T09:08:26.856Z</time></trkpt><trkpt lat="43.5639223" lon="11.2679185"><ele>387.0</ele><time>2026-03-29T09:08:27.855Z</time></trkpt><trkpt lat="43.5638321" lon="11.267958"><ele>387.0</ele><time>2026-03-29T09:08:28.861Z</time></trkpt><trkpt lat="43.5637418" lon="11.2679721"><ele>387.0</ele><time>2026-03-29T09:08:29.886Z</time></trkpt><trkpt lat="43.5636426" lon="11.2679549"><ele>387.0</ele><time>2026-03-29T09:08:30.857Z</time></trkpt><trkpt lat="43.5635392" lon="11.2679064"><ele>387.0</ele><time>2026-03-29T09:08:31.854Z</time></trkpt><trkpt lat="43.5634339" lon="11.2678579"><ele>386.40000000000003</ele><time>2026-03-29T09:08:32.855Z</time></trkpt><trkpt lat="43.5633391" lon="11.2678101"><ele>385.8</ele><time>2026-03-29T09:08:33.855Z</time></trkpt><trkpt lat="43.563245" lon="11.2677622"><ele>385.2</ele><time>2026-03-29T09:08:34.856Z</time></trkpt><trkpt lat="43.5631456" lon="11.2677155"><ele>384.6</ele><time>2026-03-29T09:08:35.853Z</time></trkpt><trkpt lat="43.5630449" lon="11.2676744"><ele>384.0</ele><time>2026-03-29T09:08:36.882Z</time></trkpt><trkpt lat="43.5629439" lon="11.2676347"><ele>384.0</ele><time>2026-03-29T09:08:37.857Z</time></trkpt><trkpt lat="43.5628412" lon="11.2675941"><ele>384.0</ele><time>2026-03-29T09:08:38.861Z</time></trkpt><trkpt lat="43.5627386" lon="11.2675564"><ele>384.0</ele><time>2026-03-29T09:08:39.855Z</time></trkpt><trkpt lat="43.5626402" lon="11.2675217"><ele>384.0</ele><time>2026-03-29T09:08:40.858Z</time></trkpt><trkpt lat="43.5625416" lon="11.2674861"><ele>384.0</ele><time>2026-03-29T09:08:41.859Z</time></trkpt><trkpt lat="43.562443" lon="11.2674462"><ele>384.0</ele><time>2026-03-29T09:08:42.887Z</time></trkpt><trkpt lat="43.5623439" lon="11.2674024"><ele>384.0</ele><time>2026-03-29T09:08:43.885Z</time></trkpt><trkpt lat="43.5622462" lon="11.2673568"><ele>384.0</ele><time>2026-03-29T09:08:44.872Z</time></trkpt><trkpt lat="43.562152" lon="11.2673104"><ele>384.0</ele><time>2026-03-29T09:08:45.857Z</time></trkpt><trkpt lat="43.562067" lon="11.2672686"><ele>384.0</ele><time>2026-03-29T09:08:46.857Z</time></trkpt><trkpt lat="43.5619899" lon="11.2672293"><ele>382.79999999999995</ele><time>2026-03-29T09:08:47.856Z</time></trkpt><trkpt lat="43.5619207" lon="11.2671937"><ele>381.59999999999997</ele><time>2026-03-29T09:08:48.863Z</time></trkpt><trkpt lat="43.5618607" lon="11.2671609"><ele>380.4</ele><time>2026-03-29T09:08:49.854Z</time></trkpt><trkpt lat="43.5617423" lon="11.2670967"><ele>379.2</ele><time>2026-03-29T09:08:51.853Z</time></trkpt><trkpt lat="43.5616801" lon="11.2670674"><ele>378.0</ele><time>2026-03-29T09:08:52.86Z</time></trkpt><trkpt lat="43.5615658" lon="11.2670085"><ele>378.0</ele><time>2026-03-29T09:08:54.857Z</time></trkpt><trkpt lat="43.5614577" lon="11.2669344"><ele>378.0</ele><time>2026-03-29T09:08:56.862Z</time></trkpt><trkpt lat="43.5613584" lon="11.2668943"><ele>378.0</ele><time>2026-03-29T09:08:58.859Z</time></trkpt><trkpt lat="43.5612579" lon="11.266915"><ele>378.0</ele><time>2026-03-29T09:09:00.857Z</time></trkpt><trkpt lat="43.5611548" lon="11.2669469"><ele>378.0</ele><time>2026-03-29T09:09:02.856Z</time></trkpt><trkpt lat="43.5610495" lon="11.2669173"><ele>377.7142857142857</ele><time>2026-03-29T09:09:04.857Z</time></trkpt><trkpt lat="43.5609917" lon="11.2668778"><ele>377.42857142857144</ele><time>2026-03-29T09:09:05.857Z</time></trkpt><trkpt lat="43.5609262" lon="11.2668301"><ele>377.1428571428571</ele><time>2026-03-29T09:09:06.861Z</time></trkpt><trkpt lat="43.5608571" lon="11.2667858"><ele>376.8571428571429</ele><time>2026-03-29T09:09:07.888Z</time></trkpt><trkpt lat="43.560786" lon="11.266746"><ele>376.57142857142856</ele><time>2026-03-29T09:09:08.855Z</time></trkpt><trkpt lat="43.5607116" lon="11.2667033"><ele>376.2857142857143</ele><time>2026-03-29T09:09:09.857Z</time></trkpt><trkpt lat="43.5606419" lon="11.266667"><ele>376.0</ele><time>2026-03-29T09:09:10.858Z</time></trkpt><trkpt lat="43.5605738" lon="11.2666301"><ele>376.0</ele><time>2026-03-29T09:09:11.887Z</time></trkpt><trkpt lat="43.5605095" lon="11.2665921"><ele>376.0</ele><time>2026-03-29T09:09:12.89Z</time></trkpt><trkpt lat="43.5604421" lon="11.2665618"><ele>376.0</ele><time>2026-03-29T09:09:13.864Z</time></trkpt><trkpt lat="43.5603786" lon="11.2665287"><ele>376.0</ele><time>2026-03-29T09:09:14.868Z</time></trkpt><trkpt lat="43.5603189" lon="11.2664932"><ele>376.0</ele><time>2026-03-29T09:09:15.86Z</time></trkpt><trkpt lat="43.5602596" lon="11.266461"><ele>376.0</ele><time>2026-03-29T09:09:16.859Z</time></trkpt><trkpt lat="43.5601947" lon="11.2664322"><ele>376.0</ele><time>2026-03-29T09:09:17.884Z</time></trkpt><trkpt lat="43.5601262" lon="11.2664035"><ele>374.5</ele><time>2026-03-29T09:09:18.862Z</time></trkpt><trkpt lat="43.5600598" lon="11.2663755"><ele>373.0</ele><time>2026-03-29T09:09:19.858Z</time></trkpt><trkpt lat="43.5599894" lon="11.2663469"><ele>371.5</ele><time>2026-03-29T09:09:20.857Z</time></trkpt><trkpt lat="43.5599164" lon="11.2663155"><ele>370.0</ele><time>2026-03-29T09:09:21.858Z</time></trkpt><trkpt lat="43.5598381" lon="11.2662818"><ele>368.5</ele><time>2026-03-29T09:09:22.859Z</time></trkpt><trkpt lat="43.5597581" lon="11.2662486"><ele>367.0</ele><time>2026-03-29T09:09:23.859Z</time></trkpt><trkpt lat="43.5596826" lon="11.266216"><ele>367.0</ele><time>2026-03-29T09:09:24.86Z</time></trkpt><trkpt lat="43.5596093" lon="11.2661872"><ele>367.0</ele><time>2026-03-29T09:09:25.856Z</time></trkpt><trkpt lat="43.5595398" lon="11.2661586"><ele>367.0</ele><time>2026-03-29T09:09:26.887Z</time></trkpt><trkpt lat="43.5594733" lon="11.2661302"><ele>367.0</ele><time>2026-03-29T09:09:27.861Z</time></trkpt><trkpt lat="43.5594026" lon="11.2661019"><ele>367.0</ele><time>2026-03-29T09:09:28.86Z</time></trkpt><trkpt lat="43.5593264" lon="11.2660642"><ele>367.0</ele><time>2026-03-29T09:09:29.891Z</time></trkpt><trkpt lat="43.5592462" lon="11.266017"><ele>364.40000000000003</ele><time>2026-03-29T09:09:30.888Z</time></trkpt><trkpt lat="43.5591612" lon="11.2659655"><ele>361.8</ele><time>2026-03-29T09:09:31.888Z</time></trkpt><trkpt lat="43.5590717" lon="11.265909"><ele>359.2</ele><time>2026-03-29T09:09:32.86Z</time></trkpt><trkpt lat="43.5589807" lon="11.2658494"><ele>356.6</ele><time>2026-03-29T09:09:33.854Z</time></trkpt><trkpt lat="43.5588843" lon="11.2657925"><ele>354.0</ele><time>2026-03-29T09:09:34.885Z</time></trkpt><trkpt lat="43.5587861" lon="11.2657415"><ele>351.79999999999995</ele><time>2026-03-29T09:09:35.862Z</time></trkpt><trkpt lat="43.5586878" lon="11.2657011"><ele>349.59999999999997</ele><time>2026-03-29T09:09:36.853Z</time></trkpt><trkpt lat="43.5585884" lon="11.2656692"><ele>347.4</ele><time>2026-03-29T09:09:37.887Z</time></trkpt><trkpt lat="43.5584917" lon="11.2656534"><ele>345.2</ele><time>2026-03-29T09:09:38.885Z</time></trkpt><trkpt lat="43.5584001" lon="11.2656486"><ele>343.0</ele><time>2026-03-29T09:09:39.858Z</time></trkpt><trkpt lat="43.5583102" lon="11.2656443"><ele>343.0</ele><time>2026-03-29T09:09:40.888Z</time></trkpt><trkpt lat="43.558224" lon="11.2656384"><ele>343.0</ele><time>2026-03-29T09:09:41.855Z</time></trkpt><trkpt lat="43.5581389" lon="11.2656342"><ele>343.0</ele><time>2026-03-29T09:09:42.858Z</time></trkpt><trkpt lat="43.558053" lon="11.2656325"><ele>343.0</ele><time>2026-03-29T09:09:43.889Z</time></trkpt><trkpt lat="43.5579696" lon="11.2656353"><ele>343.0</ele><time>2026-03-29T09:09:44.863Z</time></trkpt><trkpt lat="43.5578851" lon="11.2656375"><ele>343.0</ele><time>2026-03-29T09:09:45.862Z</time></trkpt><trkpt lat="43.557801" lon="11.265645"><ele>341.8333333333333</ele><time>2026-03-29T09:09:46.886Z</time></trkpt><trkpt lat="43.5577118" lon="11.2656661"><ele>340.66666666666663</ele><time>2026-03-29T09:09:47.855Z</time></trkpt><trkpt lat="43.5576213" lon="11.2657027"><ele>339.5</ele><time>2026-03-29T09:09:48.863Z</time></trkpt><trkpt lat="43.5575353" lon="11.2657506"><ele>338.3333333333333</ele><time>2026-03-29T09:09:49.861Z</time></trkpt><trkpt lat="43.5574566" lon="11.2658017"><ele>337.1666666666667</ele><time>2026-03-29T09:09:50.861Z</time></trkpt><trkpt lat="43.5573837" lon="11.2658482"><ele>336.0</ele><time>2026-03-29T09:09:51.89Z</time></trkpt><trkpt lat="43.5573117" lon="11.2658844"><ele>336.0</ele><time>2026-03-29T09:09:52.854Z</time></trkpt><trkpt lat="43.5572446" lon="11.2659064"><ele>336.0</ele><time>2026-03-29T09:09:53.859Z</time></trkpt><trkpt lat="43.5571792" lon="11.2659129"><ele>336.0</ele><time>2026-03-29T09:09:54.884Z</time></trkpt><trkpt lat="43.5571151" lon="11.2659033"><ele>336.0</ele><time>2026-03-29T09:09:55.867Z</time></trkpt><trkpt lat="43.5570508" lon="11.2658875"><ele>336.0</ele><time>2026-03-29T09:09:56.888Z</time></trkpt><trkpt lat="43.5569797" lon="11.2658751"><ele>336.0</ele><time>2026-03-29T09:09:57.857Z</time></trkpt><trkpt lat="43.5569057" lon="11.2658645"><ele>336.0</ele><time>2026-03-29T09:09:58.894Z</time></trkpt><trkpt lat="43.5568357" lon="11.2658553"><ele>335.7142857142857</ele><time>2026-03-29T09:09:59.887Z</time></trkpt><trkpt lat="43.556768" lon="11.2658473"><ele>335.42857142857144</ele><time>2026-03-29T09:10:00.892Z</time></trkpt><trkpt lat="43.5567005" lon="11.2658352"><ele>335.1428571428571</ele><time>2026-03-29T09:10:01.86Z</time></trkpt><trkpt lat="43.556631" lon="11.2658213"><ele>334.8571428571429</ele><time>2026-03-29T09:10:02.858Z</time></trkpt><trkpt lat="43.5565616" lon="11.2658081"><ele>334.57142857142856</ele><time>2026-03-29T09:10:03.86Z</time></trkpt><trkpt lat="43.556492" lon="11.2657983"><ele>334.2857142857143</ele><time>2026-03-29T09:10:04.856Z</time></trkpt><trkpt lat="43.5564244" lon="11.2657949"><ele>334.0</ele><time>2026-03-29T09:10:05.87Z</time></trkpt><trkpt lat="43.5563588" lon="11.2657881"><ele>334.0</ele><time>2026-03-29T09:10:06.855Z</time></trkpt><trkpt lat="43.5562953" lon="11.2657743"><ele>334.0</ele><time>2026-03-29T09:10:07.868Z</time></trkpt><trkpt lat="43.5562345" lon="11.265751"><ele>334.0</ele><time>2026-03-29T09:10:08.859Z</time></trkpt><trkpt lat="43.5561745" lon="11.2657185"><ele>334.0</ele><time>2026-03-29T09:10:09.857Z</time></trkpt><trkpt lat="43.5561137" lon="11.2656677"><ele>334.0</ele><time>2026-03-29T09:10:10.855Z</time></trkpt><trkpt lat="43.5560583" lon="11.2656026"><ele>334.0</ele><time>2026-03-29T09:10:11.861Z</time></trkpt><trkpt lat="43.5560038" lon="11.265528"><ele>334.0</ele><time>2026-03-29T09:10:12.868Z</time></trkpt><trkpt lat="43.5559509" lon="11.2654531"><ele>332.66666666666663</ele><time>2026-03-29T09:10:13.854Z</time></trkpt><trkpt lat="43.5558968" lon="11.2653717"><ele>331.3333333333333</ele><time>2026-03-29T09:10:14.858Z</time></trkpt><trkpt lat="43.5558475" lon="11.2652759"><ele>330.0</ele><time>2026-03-29T09:10:15.856Z</time></trkpt><trkpt lat="43.5558145" lon="11.2651749"><ele>328.6666666666667</ele><time>2026-03-29T09:10:16.885Z</time></trkpt><trkpt lat="43.5557888" lon="11.2650708"><ele>327.33333333333337</ele><time>2026-03-29T09:10:17.862Z</time></trkpt><trkpt lat="43.5557612" lon="11.2649805"><ele>326.0</ele><time>2026-03-29T09:10:18.885Z</time></trkpt><trkpt lat="43.5557191" lon="11.2649086"><ele>326.0</ele><time>2026-03-29T09:10:19.857Z</time></trkpt><trkpt lat="43.5556598" lon="11.2648624"><ele>326.0</ele><time>2026-03-29T09:10:20.862Z</time></trkpt><trkpt lat="43.5555827" lon="11.2648368"><ele>326.0</ele><time>2026-03-29T09:10:21.859Z</time></trkpt><trkpt lat="43.5554926" lon="11.2648227"><ele>326.0</ele><time>2026-03-29T09:10:22.859Z</time></trkpt><trkpt lat="43.5553903" lon="11.2648047"><ele>326.0</ele><time>2026-03-29T09:10:23.87Z</time></trkpt><trkpt lat="43.5552853" lon="11.2647899"><ele>326.0</ele><time>2026-03-29T09:10:24.856Z</time></trkpt><trkpt lat="43.5551888" lon="11.264772"><ele>325.4</ele><time>2026-03-29T09:10:25.886Z</time></trkpt><trkpt lat="43.5550913" lon="11.2647514"><ele>324.8</ele><time>2026-03-29T09:10:26.857Z</time></trkpt><trkpt lat="43.5549913" lon="11.2647309"><ele>324.2</ele><time>2026-03-29T09:10:27.851Z</time></trkpt><trkpt lat="43.5548978" lon="11.2647134"><ele>323.59999999999997</ele><time>2026-03-29T09:10:28.858Z</time></trkpt><trkpt lat="43.5548099" lon="11.2646953"><ele>323.0</ele><time>2026-03-29T09:10:29.853Z</time></trkpt><trkpt lat="43.5547165" lon="11.2646779"><ele>323.0</ele><time>2026-03-29T09:10:30.891Z</time></trkpt><trkpt lat="43.5546232" lon="11.2646584"><ele>323.0</ele><time>2026-03-29T09:10:31.856Z</time></trkpt><trkpt lat="43.5545343" lon="11.2646491"><ele>323.0</ele><time>2026-03-29T09:10:32.858Z</time></trkpt><trkpt lat="43.5544401" lon="11.2646522"><ele>323.0</ele><time>2026-03-29T09:10:33.886Z</time></trkpt><trkpt lat="43.554351" lon="11.264662"><ele>323.0</ele><time>2026-03-29T09:10:34.884Z</time></trkpt><trkpt lat="43.5542691" lon="11.2646598"><ele>323.0</ele><time>2026-03-29T09:10:35.857Z</time></trkpt><trkpt lat="43.554193" lon="11.2646425"><ele>324.59999999999997</ele><time>2026-03-29T09:10:36.886Z</time></trkpt><trkpt lat="43.5541084" lon="11.2646056"><ele>326.2</ele><time>2026-03-29T09:10:37.86Z</time></trkpt><trkpt lat="43.5540201" lon="11.2645531"><ele>327.8</ele><time>2026-03-29T09:10:38.856Z</time></trkpt><trkpt lat="43.5539344" lon="11.2644807"><ele>329.4</ele><time>2026-03-29T09:10:39.858Z</time></trkpt><trkpt lat="43.5538489" lon="11.2644021"><ele>331.0</ele><time>2026-03-29T09:10:40.858Z</time></trkpt><trkpt lat="43.5537641" lon="11.2643239"><ele>329.6</ele><time>2026-03-29T09:10:41.86Z</time></trkpt><trkpt lat="43.5536752" lon="11.2642523"><ele>328.20000000000005</ele><time>2026-03-29T09:10:42.857Z</time></trkpt><trkpt lat="43.5535856" lon="11.2641863"><ele>326.79999999999995</ele><time>2026-03-29T09:10:43.865Z</time></trkpt><trkpt lat="43.5534945" lon="11.2641182"><ele>325.4</ele><time>2026-03-29T09:10:44.89Z</time></trkpt><trkpt lat="43.5534049" lon="11.2640525"><ele>324.0</ele><time>2026-03-29T09:10:45.867Z</time></trkpt><trkpt lat="43.5533215" lon="11.2639924"><ele>323.6666666666667</ele><time>2026-03-29T09:10:46.857Z</time></trkpt><trkpt lat="43.5532429" lon="11.2639372"><ele>323.3333333333333</ele><time>2026-03-29T09:10:47.856Z</time></trkpt><trkpt lat="43.5531724" lon="11.2638876"><ele>323.0</ele><time>2026-03-29T09:10:48.862Z</time></trkpt><trkpt lat="43.5531052" lon="11.2638402"><ele>322.66666666666663</ele><time>2026-03-29T09:10:49.885Z</time></trkpt><trkpt lat="43.5530419" lon="11.2638"><ele>322.3333333333333</ele><time>2026-03-29T09:10:50.889Z</time></trkpt><trkpt lat="43.55298" lon="11.2637653"><ele>322.0</ele><time>2026-03-29T09:10:51.887Z</time></trkpt><trkpt lat="43.5529104" lon="11.2637416"><ele>321.5</ele><time>2026-03-29T09:10:52.86Z</time></trkpt><trkpt lat="43.5528321" lon="11.2637295"><ele>321.0</ele><time>2026-03-29T09:10:53.856Z</time></trkpt><trkpt lat="43.5527447" lon="11.2637245"><ele>320.5</ele><time>2026-03-29T09:10:54.854Z</time></trkpt><trkpt lat="43.5526543" lon="11.2637228"><ele>320.0</ele><time>2026-03-29T09:10:55.86Z</time></trkpt><trkpt lat="43.5525675" lon="11.2637214"><ele>319.5</ele><time>2026-03-29T09:10:56.861Z</time></trkpt><trkpt lat="43.5524859" lon="11.2637218"><ele>319.0</ele><time>2026-03-29T09:10:57.856Z</time></trkpt><trkpt lat="43.5524141" lon="11.2637213"><ele>319.0</ele><time>2026-03-29T09:10:58.855Z</time></trkpt><trkpt lat="43.5523054" lon="11.2637231"><ele>319.0</ele><time>2026-03-29T09:11:00.859Z</time></trkpt><trkpt lat="43.5522412" lon="11.2637193"><ele>319.0</ele><time>2026-03-29T09:11:17.888Z</time></trkpt><trkpt lat="43.552153" lon="11.263738"><ele>319.0</ele><time>2026-03-29T09:11:20.864Z</time></trkpt><trkpt lat="43.5520721" lon="11.2637229"><ele>319.0</ele><time>2026-03-29T09:11:22.898Z</time></trkpt><trkpt lat="43.551994" lon="11.2636871"><ele>319.0</ele><time>2026-03-29T09:11:25.861Z</time></trkpt><trkpt lat="43.551941" lon="11.2636112"><ele>317.8</ele><time>2026-03-29T09:11:27.876Z</time></trkpt><trkpt lat="43.5518516" lon="11.2634637"><ele>316.59999999999997</ele><time>2026-03-29T09:11:29.86Z</time></trkpt><trkpt lat="43.551801" lon="11.2633672"><ele>315.4</ele><time>2026-03-29T09:11:30.898Z</time></trkpt><trkpt lat="43.5517625" lon="11.2632671"><ele>314.2</ele><time>2026-03-29T09:11:31.86Z</time></trkpt><trkpt lat="43.5517192" lon="11.2631697"><ele>313.0</ele><time>2026-03-29T09:11:32.891Z</time></trkpt><trkpt lat="43.5516642" lon="11.2630885"><ele>313.0</ele><time>2026-03-29T09:11:33.889Z</time></trkpt><trkpt lat="43.5515937" lon="11.2630117"><ele>313.0</ele><time>2026-03-29T09:11:34.899Z</time></trkpt><trkpt lat="43.5515192" lon="11.2629446"><ele>313.0</ele><time>2026-03-29T09:11:35.87Z</time></trkpt><trkpt lat="43.5514453" lon="11.2628878"><ele>313.0</ele><time>2026-03-29T09:11:36.864Z</time></trkpt><trkpt lat="43.5513734" lon="11.2628401"><ele>313.0</ele><time>2026-03-29T09:11:37.858Z</time></trkpt><trkpt lat="43.5513023" lon="11.2627986"><ele>313.0</ele><time>2026-03-29T09:11:38.863Z</time></trkpt><trkpt lat="43.5512293" lon="11.2627621"><ele>313.16666666666663</ele><time>2026-03-29T09:11:39.863Z</time></trkpt><trkpt lat="43.5511536" lon="11.262739"><ele>313.3333333333333</ele><time>2026-03-29T09:11:40.867Z</time></trkpt><trkpt lat="43.5510763" lon="11.2627191"><ele>313.5</ele><time>2026-03-29T09:11:41.861Z</time></trkpt><trkpt lat="43.5509999" lon="11.2627037"><ele>313.6666666666667</ele><time>2026-03-29T09:11:42.871Z</time></trkpt><trkpt lat="43.5509225" lon="11.2626932"><ele>313.83333333333337</ele><time>2026-03-29T09:11:43.866Z</time></trkpt><trkpt lat="43.5508453" lon="11.2626767"><ele>314.0</ele><time>2026-03-29T09:11:44.895Z</time></trkpt><trkpt lat="43.5507722" lon="11.2626585"><ele>314.0</ele><time>2026-03-29T09:11:45.871Z</time></trkpt><trkpt lat="43.5507042" lon="11.2626405"><ele>314.0</ele><time>2026-03-29T09:11:46.873Z</time></trkpt><trkpt lat="43.5506093" lon="11.2626188"><ele>314.0</ele><time>2026-03-29T09:11:48.859Z</time></trkpt><trkpt lat="43.5505415" lon="11.2626204"><ele>314.0</ele><time>2026-03-29T09:12:01.876Z</time></trkpt><trkpt lat="43.5504641" lon="11.2626398"><ele>314.0</ele><time>2026-03-29T09:12:05.864Z</time></trkpt><trkpt lat="43.550402" lon="11.2626167"><ele>314.0</ele><time>2026-03-29T09:12:07.87Z</time></trkpt><trkpt lat="43.55033" lon="11.2625366"><ele>313.83333333333337</ele><time>2026-03-29T09:12:09.856Z</time></trkpt><trkpt lat="43.5502639" lon="11.2624713"><ele>313.6666666666667</ele><time>2026-03-29T09:12:11.854Z</time></trkpt><trkpt lat="43.5501926" lon="11.2624239"><ele>313.5</ele><time>2026-03-29T09:12:13.861Z</time></trkpt><trkpt lat="43.5501135" lon="11.2623761"><ele>313.3333333333333</ele><time>2026-03-29T09:12:15.86Z</time></trkpt><trkpt lat="43.5500565" lon="11.2623308"><ele>313.16666666666663</ele><time>2026-03-29T09:12:17.858Z</time></trkpt><trkpt lat="43.5499842" lon="11.2622866"><ele>313.0</ele><time>2026-03-29T09:12:20.858Z</time></trkpt><trkpt lat="43.5499187" lon="11.2622536"><ele>310.6</ele><time>2026-03-29T09:12:24.861Z</time></trkpt><trkpt lat="43.5498666" lon="11.2621941"><ele>308.20000000000005</ele><time>2026-03-29T09:12:42.866Z</time></trkpt><trkpt lat="43.5498237" lon="11.2620935"><ele>305.8</ele><time>2026-03-29T09:12:45.898Z</time></trkpt><trkpt lat="43.5497871" lon="11.2619766"><ele>303.40000000000003</ele><time>2026-03-29T09:12:47.875Z</time></trkpt><trkpt lat="43.5497295" lon="11.2618445"><ele>301.0</ele><time>2026-03-29T09:12:49.89Z</time></trkpt><trkpt lat="43.549674" lon="11.2617159"><ele>301.0</ele><time>2026-03-29T09:12:51.857Z</time></trkpt><trkpt lat="43.5496273" lon="11.2616043"><ele>301.0</ele><time>2026-03-29T09:12:53.858Z</time></trkpt><trkpt lat="43.5495955" lon="11.2615163"><ele>301.0</ele><time>2026-03-29T09:12:55.871Z</time></trkpt><trkpt lat="43.5495693" lon="11.2613698"><ele>301.0</ele><time>2026-03-29T09:13:08.854Z</time></trkpt><trkpt lat="43.5495418" lon="11.2612881"><ele>301.0</ele><time>2026-03-29T09:13:09.861Z</time></trkpt><trkpt lat="43.549512" lon="11.2611967"><ele>301.0</ele><time>2026-03-29T09:13:10.854Z</time></trkpt><trkpt lat="43.5494812" lon="11.2611053"><ele>298.66666666666663</ele><time>2026-03-29T09:13:11.887Z</time></trkpt><trkpt lat="43.5494503" lon="11.2610215"><ele>296.3333333333333</ele><time>2026-03-29T09:13:12.861Z</time></trkpt><trkpt lat="43.5494218" lon="11.2609364"><ele>294.0</ele><time>2026-03-29T09:13:13.863Z</time></trkpt><trkpt lat="43.5493935" lon="11.2608504"><ele>291.6666666666667</ele><time>2026-03-29T09:13:14.855Z</time></trkpt><trkpt lat="43.5493486" lon="11.2607101"><ele>289.33333333333337</ele><time>2026-03-29T09:13:16.892Z</time></trkpt><trkpt lat="43.5493195" lon="11.2606265"><ele>287.0</ele><time>2026-03-29T09:13:18.891Z</time></trkpt><trkpt lat="43.5493061" lon="11.2605319"><ele>285.33333333333337</ele><time>2026-03-29T09:13:21.887Z</time></trkpt><trkpt lat="43.5492869" lon="11.2604384"><ele>283.6666666666667</ele><time>2026-03-29T09:13:26.869Z</time></trkpt><trkpt lat="43.5492542" lon="11.260322"><ele>282.0</ele><time>2026-03-29T09:13:30.857Z</time></trkpt><trkpt lat="43.5492397" lon="11.2602119"><ele>280.3333333333333</ele><time>2026-03-29T09:13:33.884Z</time></trkpt><trkpt lat="43.5493118" lon="11.2601846"><ele>278.66666666666663</ele><time>2026-03-29T09:13:37.855Z</time></trkpt><trkpt lat="43.5493857" lon="11.2602554"><ele>277.0</ele><time>2026-03-29T09:13:41.857Z</time></trkpt><trkpt lat="43.549458" lon="11.2603236"><ele>276.0</ele><time>2026-03-29T09:13:43.861Z</time></trkpt><trkpt lat="43.5495428" lon="11.2604037"><ele>275.0</ele><time>2026-03-29T09:13:45.857Z</time></trkpt><trkpt lat="43.5496436" lon="11.2605085"><ele>274.0</ele><time>2026-03-29T09:13:47.857Z</time></trkpt><trkpt lat="43.5496997" lon="11.2605627"><ele>273.0</ele><time>2026-03-29T09:13:48.859Z</time></trkpt><trkpt lat="43.5497557" lon="11.2606155"><ele>272.0</ele><time>2026-03-29T09:13:49.855Z</time></trkpt><trkpt lat="43.5498646" lon="11.260686"><ele>274.6666666666667</ele><time>2026-03-29T09:13:51.887Z</time></trkpt><trkpt lat="43.5499792" lon="11.2607135"><ele>277.33333333333337</ele><time>2026-03-29T09:13:53.856Z</time></trkpt><trkpt lat="43.550066" lon="11.2607206"><ele>280.0</ele><time>2026-03-29T09:13:55.856Z</time></trkpt><trkpt lat="43.5501369" lon="11.2607162"><ele>282.6666666666667</ele><time>2026-03-29T09:15:27.869Z</time></trkpt><trkpt lat="43.5502041" lon="11.260714"><ele>285.3333333333333</ele><time>2026-03-29T09:21:03.863Z</time></trkpt><trkpt lat="43.5501497" lon="11.2607795"><ele>288.0</ele><time>2026-03-29T09:21:51.862Z</time></trkpt><trkpt lat="43.5500934" lon="11.2608467"><ele>288.0</ele><time>2026-03-29T09:21:55.854Z</time></trkpt><trkpt lat="43.5500408" lon="11.2609187"><ele>288.0</ele><time>2026-03-29T09:21:59.864Z</time></trkpt><trkpt lat="43.5499751" lon="11.2610123"><ele>288.0</ele><time>2026-03-29T09:22:02.859Z</time></trkpt><trkpt lat="43.5499171" lon="11.2610859"><ele>288.0</ele><time>2026-03-29T09:22:04.862Z</time></trkpt><trkpt lat="43.5498588" lon="11.2611658"><ele>288.0</ele><time>2026-03-29T09:22:06.856Z</time></trkpt><trkpt lat="43.5497855" lon="11.2612709"><ele>288.0</ele><time>2026-03-29T09:22:08.888Z</time></trkpt><trkpt lat="43.549699" lon="11.2613705"><ele>288.0</ele><time>2026-03-29T09:22:10.862Z</time></trkpt><trkpt lat="43.5496247" lon="11.2614446"><ele>288.0</ele><time>2026-03-29T09:22:12.863Z</time></trkpt><trkpt lat="43.5496084" lon="11.2615317"><ele>288.0</ele><time>2026-03-29T09:22:38.863Z</time></trkpt><trkpt lat="43.5496386" lon="11.2616092"><ele>288.0</ele><time>2026-03-29T09:23:03.876Z</time></trkpt><trkpt lat="43.5497006" lon="11.2617534"><ele>288.0</ele><time>2026-03-29T09:23:05.869Z</time></trkpt><trkpt lat="43.5497345" lon="11.2618424"><ele>288.0</ele><time>2026-03-29T09:23:06.87Z</time></trkpt><trkpt lat="43.5497709" lon="11.2619428"><ele>290.1666666666667</ele><time>2026-03-29T09:23:07.875Z</time></trkpt><trkpt lat="43.5498063" lon="11.2620418"><ele>292.3333333333333</ele><time>2026-03-29T09:23:08.872Z</time></trkpt><trkpt lat="43.5498326" lon="11.2621214"><ele>294.5</ele><time>2026-03-29T09:23:09.874Z</time></trkpt><trkpt lat="43.5498844" lon="11.2622262"><ele>296.66666666666663</ele><time>2026-03-29T09:23:11.9Z</time></trkpt><trkpt lat="43.5499753" lon="11.2622897"><ele>298.8333333333333</ele><time>2026-03-29T09:23:13.876Z</time></trkpt><trkpt lat="43.5500399" lon="11.2623223"><ele>301.0</ele><time>2026-03-29T09:23:14.87Z</time></trkpt><trkpt lat="43.5501185" lon="11.26237"><ele>303.40000000000003</ele><time>2026-03-29T09:23:15.869Z</time></trkpt><trkpt lat="43.5502083" lon="11.2624387"><ele>305.8</ele><time>2026-03-29T09:23:16.877Z</time></trkpt><trkpt lat="43.5502964" lon="11.2625167"><ele>308.20000000000005</ele><time>2026-03-29T09:23:17.862Z</time></trkpt><trkpt lat="43.5503797" lon="11.2625988"><ele>310.6</ele><time>2026-03-29T09:23:18.884Z</time></trkpt><trkpt lat="43.5504563" lon="11.2626693"><ele>313.0</ele><time>2026-03-29T09:23:19.861Z</time></trkpt><trkpt lat="43.5505273" lon="11.2627163"><ele>313.16666666666663</ele><time>2026-03-29T09:23:20.89Z</time></trkpt><trkpt lat="43.5505993" lon="11.2627369"><ele>313.3333333333333</ele><time>2026-03-29T09:23:21.895Z</time></trkpt><trkpt lat="43.5506856" lon="11.2627437"><ele>313.5</ele><time>2026-03-29T09:23:22.86Z</time></trkpt><trkpt lat="43.5507805" lon="11.2627589"><ele>313.6666666666667</ele><time>2026-03-29T09:23:23.896Z</time></trkpt><trkpt lat="43.5508776" lon="11.2627647"><ele>313.83333333333337</ele><time>2026-03-29T09:23:24.86Z</time></trkpt><trkpt lat="43.5509654" lon="11.2627729"><ele>314.0</ele><time>2026-03-29T09:23:25.872Z</time></trkpt><trkpt lat="43.5510477" lon="11.2627752"><ele>314.0</ele><time>2026-03-29T09:23:26.875Z</time></trkpt><trkpt lat="43.5511207" lon="11.2627784"><ele>314.0</ele><time>2026-03-29T09:23:27.862Z</time></trkpt><trkpt lat="43.5511936" lon="11.2627804"><ele>314.0</ele><time>2026-03-29T09:23:28.867Z</time></trkpt><trkpt lat="43.5512671" lon="11.2628029"><ele>314.0</ele><time>2026-03-29T09:23:29.874Z</time></trkpt><trkpt lat="43.551344" lon="11.2628401"><ele>314.0</ele><time>2026-03-29T09:23:30.865Z</time></trkpt><trkpt lat="43.5514229" lon="11.2628869"><ele>314.0</ele><time>2026-03-29T09:23:31.864Z</time></trkpt><trkpt lat="43.5514958" lon="11.2629426"><ele>313.85714285714283</ele><time>2026-03-29T09:23:32.894Z</time></trkpt><trkpt lat="43.5515629" lon="11.26301"><ele>313.7142857142857</ele><time>2026-03-29T09:23:33.863Z</time></trkpt><trkpt lat="43.5516278" lon="11.2630828"><ele>313.57142857142856</ele><time>2026-03-29T09:23:34.877Z</time></trkpt><trkpt lat="43.551684" lon="11.2631515"><ele>313.42857142857144</ele><time>2026-03-29T09:23:35.866Z</time></trkpt><trkpt lat="43.5517264" lon="11.2632192"><ele>313.2857142857143</ele><time>2026-03-29T09:23:36.858Z</time></trkpt><trkpt lat="43.5517683" lon="11.2632916"><ele>313.1428571428571</ele><time>2026-03-29T09:23:37.907Z</time></trkpt><trkpt lat="43.5518025" lon="11.2633674"><ele>313.0</ele><time>2026-03-29T09:23:38.899Z</time></trkpt><trkpt lat="43.5518321" lon="11.2634516"><ele>314.0</ele><time>2026-03-29T09:23:39.907Z</time></trkpt><trkpt lat="43.5518665" lon="11.2635351"><ele>315.0</ele><time>2026-03-29T09:23:40.86Z</time></trkpt><trkpt lat="43.5519073" lon="11.2636065"><ele>316.0</ele><time>2026-03-29T09:23:41.891Z</time></trkpt><trkpt lat="43.5520049" lon="11.2637116"><ele>317.0</ele><time>2026-03-29T09:23:43.891Z</time></trkpt><trkpt lat="43.5520628" lon="11.2637485"><ele>318.0</ele><time>2026-03-29T09:23:44.858Z</time></trkpt><trkpt lat="43.5521311" lon="11.2637698"><ele>319.0</ele><time>2026-03-29T09:23:45.876Z</time></trkpt><trkpt lat="43.5522111" lon="11.2637762"><ele>319.0</ele><time>2026-03-29T09:23:46.875Z</time></trkpt><trkpt lat="43.552297" lon="11.263769"><ele>319.0</ele><time>2026-03-29T09:23:47.876Z</time></trkpt><trkpt lat="43.5523886" lon="11.2637541"><ele>319.0</ele><time>2026-03-29T09:23:48.866Z</time></trkpt><trkpt lat="43.5524805" lon="11.2637532"><ele>319.0</ele><time>2026-03-29T09:23:49.867Z</time></trkpt><trkpt lat="43.5525709" lon="11.2637555"><ele>319.0</ele><time>2026-03-29T09:23:50.909Z</time></trkpt><trkpt lat="43.5526619" lon="11.2637549"><ele>319.0</ele><time>2026-03-29T09:23:51.87Z</time></trkpt><trkpt lat="43.5527515" lon="11.2637554"><ele>319.0</ele><time>2026-03-29T09:23:52.861Z</time></trkpt><trkpt lat="43.55284" lon="11.2637636"><ele>319.0</ele><time>2026-03-29T09:23:53.907Z</time></trkpt><trkpt lat="43.5529295" lon="11.2637783"><ele>319.0</ele><time>2026-03-29T09:23:54.857Z</time></trkpt><trkpt lat="43.5530205" lon="11.2638101"><ele>319.0</ele><time>2026-03-29T09:23:55.861Z</time></trkpt><trkpt lat="43.5531123" lon="11.2638631"><ele>319.6</ele><time>2026-03-29T09:23:56.878Z</time></trkpt><trkpt lat="43.5532063" lon="11.2639333"><ele>320.2</ele><time>2026-03-29T09:23:57.898Z</time></trkpt><trkpt lat="43.5533006" lon="11.2640084"><ele>320.8</ele><time>2026-03-29T09:23:58.896Z</time></trkpt><trkpt lat="43.5533894" lon="11.2640772"><ele>321.40000000000003</ele><time>2026-03-29T09:23:59.907Z</time></trkpt><trkpt lat="43.5534763" lon="11.2641425"><ele>322.0</ele><time>2026-03-29T09:24:00.861Z</time></trkpt><trkpt lat="43.5535657" lon="11.2642075"><ele>322.40000000000003</ele><time>2026-03-29T09:24:01.861Z</time></trkpt><trkpt lat="43.5536565" lon="11.2642783"><ele>322.8</ele><time>2026-03-29T09:24:02.863Z</time></trkpt><trkpt lat="43.5537473" lon="11.2643522"><ele>323.2</ele><time>2026-03-29T09:24:03.896Z</time></trkpt><trkpt lat="43.5538327" lon="11.2644247"><ele>323.6</ele><time>2026-03-29T09:24:04.866Z</time></trkpt><trkpt lat="43.5539138" lon="11.2644979"><ele>324.0</ele><time>2026-03-29T09:24:05.899Z</time></trkpt><trkpt lat="43.5539932" lon="11.2645691"><ele>325.4</ele><time>2026-03-29T09:24:06.868Z</time></trkpt><trkpt lat="43.554073" lon="11.2646351"><ele>326.79999999999995</ele><time>2026-03-29T09:24:07.868Z</time></trkpt><trkpt lat="43.5541526" lon="11.2646893"><ele>328.20000000000005</ele><time>2026-03-29T09:24:08.861Z</time></trkpt><trkpt lat="43.5542365" lon="11.264729"><ele>329.6</ele><time>2026-03-29T09:24:09.859Z</time></trkpt><trkpt lat="43.5543238" lon="11.2647476"><ele>331.0</ele><time>2026-03-29T09:24:10.903Z</time></trkpt><trkpt lat="43.5544179" lon="11.2647465"><ele>331.0</ele><time>2026-03-29T09:24:11.897Z</time></trkpt><trkpt lat="43.5545141" lon="11.2647313"><ele>331.0</ele><time>2026-03-29T09:24:12.883Z</time></trkpt><trkpt lat="43.5546043" lon="11.2647151"><ele>331.0</ele><time>2026-03-29T09:24:13.893Z</time></trkpt><trkpt lat="43.554697" lon="11.2647131"><ele>331.0</ele><time>2026-03-29T09:24:14.861Z</time></trkpt><trkpt lat="43.5547906" lon="11.2647205"><ele>331.0</ele><time>2026-03-29T09:24:15.91Z</time></trkpt><trkpt lat="43.554885" lon="11.2647319"><ele>330.20000000000005</ele><time>2026-03-29T09:24:16.875Z</time></trkpt><trkpt lat="43.5549828" lon="11.2647456"><ele>329.40000000000003</ele><time>2026-03-29T09:24:17.876Z</time></trkpt><trkpt lat="43.5550765" lon="11.2647619"><ele>328.6</ele><time>2026-03-29T09:24:18.867Z</time></trkpt><trkpt lat="43.5551725" lon="11.2647806"><ele>327.8</ele><time>2026-03-29T09:24:19.897Z</time></trkpt><trkpt lat="43.555269" lon="11.2648029"><ele>327.0</ele><time>2026-03-29T09:24:20.873Z</time></trkpt><trkpt lat="43.5553579" lon="11.2648248"><ele>326.8333333333333</ele><time>2026-03-29T09:24:21.858Z</time></trkpt><trkpt lat="43.5554374" lon="11.2648433"><ele>326.6666666666667</ele><time>2026-03-29T09:24:22.878Z</time></trkpt><trkpt lat="43.5555082" lon="11.2648584"><ele>326.5</ele><time>2026-03-29T09:24:23.875Z</time></trkpt><trkpt lat="43.5555707" lon="11.2648707"><ele>326.33333333333337</ele><time>2026-03-29T09:24:24.865Z</time></trkpt><trkpt lat="43.5556785" lon="11.2649044"><ele>326.1666666666667</ele><time>2026-03-29T09:24:26.867Z</time></trkpt><trkpt lat="43.5557771" lon="11.2650035"><ele>326.0</ele><time>2026-03-29T09:24:28.875Z</time></trkpt><trkpt lat="43.5558111" lon="11.2650846"><ele>326.0</ele><time>2026-03-29T09:24:29.895Z</time></trkpt><trkpt lat="43.5558418" lon="11.2651882"><ele>326.0</ele><time>2026-03-29T09:24:30.872Z</time></trkpt><trkpt lat="43.5558694" lon="11.2653015"><ele>326.0</ele><time>2026-03-29T09:24:31.864Z</time></trkpt><trkpt lat="43.5559094" lon="11.2654186"><ele>326.0</ele><time>2026-03-29T09:24:32.872Z</time></trkpt><trkpt lat="43.5559655" lon="11.2655284"><ele>326.0</ele><time>2026-03-29T09:24:33.857Z</time></trkpt><trkpt lat="43.5560369" lon="11.2656311"><ele>326.33333333333337</ele><time>2026-03-29T09:24:34.9Z</time></trkpt><trkpt lat="43.55611" lon="11.2657133"><ele>326.6666666666667</ele><time>2026-03-29T09:24:35.897Z</time></trkpt><trkpt lat="43.5561842" lon="11.2657736"><ele>327.0</ele><time>2026-03-29T09:24:36.864Z</time></trkpt><trkpt lat="43.5562643" lon="11.2658146"><ele>327.3333333333333</ele><time>2026-03-29T09:24:37.861Z</time></trkpt><trkpt lat="43.5563498" lon="11.2658391"><ele>327.66666666666663</ele><time>2026-03-29T09:24:38.863Z</time></trkpt><trkpt lat="43.5564394" lon="11.2658464"><ele>328.0</ele><time>2026-03-29T09:24:39.894Z</time></trkpt><trkpt lat="43.5565276" lon="11.2658415"><ele>329.2</ele><time>2026-03-29T09:24:40.87Z</time></trkpt><trkpt lat="43.5566127" lon="11.2658371"><ele>330.4</ele><time>2026-03-29T09:24:41.893Z</time></trkpt><trkpt lat="43.5566969" lon="11.265839"><ele>331.59999999999997</ele><time>2026-03-29T09:24:42.9Z</time></trkpt><trkpt lat="43.556787" lon="11.2658465"><ele>332.79999999999995</ele><time>2026-03-29T09:24:43.87Z</time></trkpt><trkpt lat="43.5568825" lon="11.2658539"><ele>334.0</ele><time>2026-03-29T09:24:44.866Z</time></trkpt><trkpt lat="43.55698" lon="11.2658701"><ele>334.3333333333333</ele><time>2026-03-29T09:24:45.86Z</time></trkpt><trkpt lat="43.5570729" lon="11.2658873"><ele>334.66666666666663</ele><time>2026-03-29T09:24:46.9Z</time></trkpt><trkpt lat="43.5571597" lon="11.265901"><ele>335.0</ele><time>2026-03-29T09:24:47.863Z</time></trkpt><trkpt lat="43.5572419" lon="11.2659057"><ele>335.3333333333333</ele><time>2026-03-29T09:24:48.868Z</time></trkpt><trkpt lat="43.5573248" lon="11.265899"><ele>335.6666666666667</ele><time>2026-03-29T09:24:49.865Z</time></trkpt><trkpt lat="43.5574155" lon="11.2658694"><ele>336.0</ele><time>2026-03-29T09:24:50.9Z</time></trkpt><trkpt lat="43.5575127" lon="11.265815"><ele>336.0</ele><time>2026-03-29T09:24:51.861Z</time></trkpt><trkpt lat="43.5576156" lon="11.2657484"><ele>336.0</ele><time>2026-03-29T09:24:52.868Z</time></trkpt><trkpt lat="43.5577119" lon="11.2656895"><ele>336.0</ele><time>2026-03-29T09:24:53.868Z</time></trkpt><trkpt lat="43.5578105" lon="11.2656474"><ele>336.0</ele><time>2026-03-29T09:24:54.874Z</time></trkpt><trkpt lat="43.5579124" lon="11.2656221"><ele>336.0</ele><time>2026-03-29T09:24:55.876Z</time></trkpt><trkpt lat="43.5580192" lon="11.2656147"><ele>337.75</ele><time>2026-03-29T09:24:56.897Z</time></trkpt><trkpt lat="43.5581341" lon="11.2656161"><ele>339.5</ele><time>2026-03-29T09:24:57.862Z</time></trkpt><trkpt lat="43.5582561" lon="11.2656197"><ele>341.25</ele><time>2026-03-29T09:24:58.865Z</time></trkpt><trkpt lat="43.5583807" lon="11.2656317"><ele>343.0</ele><time>2026-03-29T09:24:59.866Z</time></trkpt><trkpt lat="43.5585056" lon="11.2656513"><ele>343.0</ele><time>2026-03-29T09:25:00.868Z</time></trkpt><trkpt lat="43.558633" lon="11.2656822"><ele>343.0</ele><time>2026-03-29T09:25:01.866Z</time></trkpt><trkpt lat="43.5587603" lon="11.2657269"><ele>343.0</ele><time>2026-03-29T09:25:02.864Z</time></trkpt><trkpt lat="43.5588817" lon="11.2657887"><ele>343.0</ele><time>2026-03-29T09:25:03.894Z</time></trkpt><trkpt lat="43.559" lon="11.2658585"><ele>345.2</ele><time>2026-03-29T09:25:04.86Z</time></trkpt><trkpt lat="43.5591095" lon="11.2659292"><ele>347.4</ele><time>2026-03-29T09:25:05.894Z</time></trkpt><trkpt lat="43.5592106" lon="11.2659959"><ele>349.59999999999997</ele><time>2026-03-29T09:25:06.864Z</time></trkpt><trkpt lat="43.5593036" lon="11.2660607"><ele>351.79999999999995</ele><time>2026-03-29T09:25:07.904Z</time></trkpt><trkpt lat="43.5593976" lon="11.2661187"><ele>354.0</ele><time>2026-03-29T09:25:08.867Z</time></trkpt><trkpt lat="43.5594933" lon="11.2661662"><ele>356.6</ele><time>2026-03-29T09:25:09.907Z</time></trkpt><trkpt lat="43.5595923" lon="11.266204"><ele>359.2</ele><time>2026-03-29T09:25:10.86Z</time></trkpt><trkpt lat="43.5596909" lon="11.2662357"><ele>361.8</ele><time>2026-03-29T09:25:11.877Z</time></trkpt><trkpt lat="43.5597614" lon="11.2662719"><ele>364.40000000000003</ele><time>2026-03-29T09:25:12.882Z</time></trkpt><trkpt lat="43.5598742" lon="11.2663119"><ele>367.0</ele><time>2026-03-29T09:25:13.865Z</time></trkpt><trkpt lat="43.5599913" lon="11.2663525"><ele>367.0</ele><time>2026-03-29T09:25:14.868Z</time></trkpt><trkpt lat="43.5600863" lon="11.2663988"><ele>367.0</ele><time>2026-03-29T09:25:15.865Z</time></trkpt><trkpt lat="43.5601952" lon="11.2664484"><ele>367.0</ele><time>2026-03-29T09:25:16.889Z</time></trkpt><trkpt lat="43.5602979" lon="11.2665009"><ele>367.0</ele><time>2026-03-29T09:25:17.897Z</time></trkpt><trkpt lat="43.5603999" lon="11.266555"><ele>367.0</ele><time>2026-03-29T09:25:18.859Z</time></trkpt><trkpt lat="43.5605034" lon="11.2666076"><ele>368.8</ele><time>2026-03-29T09:25:19.877Z</time></trkpt><trkpt lat="43.5605996" lon="11.2666519"><ele>370.6</ele><time>2026-03-29T09:25:20.869Z</time></trkpt><trkpt lat="43.5607005" lon="11.2667104"><ele>372.40000000000003</ele><time>2026-03-29T09:25:21.866Z</time></trkpt><trkpt lat="43.5607826" lon="11.2667542"><ele>374.20000000000005</ele><time>2026-03-29T09:25:22.87Z</time></trkpt><trkpt lat="43.5608709" lon="11.266799"><ele>376.0</ele><time>2026-03-29T09:25:23.862Z</time></trkpt><trkpt lat="43.5609495" lon="11.2668467"><ele>376.0</ele><time>2026-03-29T09:25:24.871Z</time></trkpt><trkpt lat="43.5610539" lon="11.266915"><ele>376.0</ele><time>2026-03-29T09:25:25.874Z</time></trkpt><trkpt lat="43.5611513" lon="11.2668379"><ele>376.0</ele><time>2026-03-29T09:25:29.862Z</time></trkpt><trkpt lat="43.5612788" lon="11.2668563"><ele>376.0</ele><time>2026-03-29T09:25:31.875Z</time></trkpt><trkpt lat="43.5613733" lon="11.2669196"><ele>376.3333333333333</ele><time>2026-03-29T09:25:32.893Z</time></trkpt><trkpt lat="43.561451" lon="11.2669777"><ele>376.66666666666663</ele><time>2026-03-29T09:25:33.863Z</time></trkpt><trkpt lat="43.5615361" lon="11.2670206"><ele>377.0</ele><time>2026-03-29T09:25:34.868Z</time></trkpt><trkpt lat="43.5616326" lon="11.2670517"><ele>377.3333333333333</ele><time>2026-03-29T09:25:35.879Z</time></trkpt><trkpt lat="43.5617184" lon="11.2670743"><ele>377.6666666666667</ele><time>2026-03-29T09:25:36.898Z</time></trkpt><trkpt lat="43.5617973" lon="11.2671025"><ele>378.0</ele><time>2026-03-29T09:25:37.864Z</time></trkpt><trkpt lat="43.5618895" lon="11.2671382"><ele>378.0</ele><time>2026-03-29T09:25:38.867Z</time></trkpt><trkpt lat="43.5619726" lon="11.2671776"><ele>378.0</ele><time>2026-03-29T09:25:39.863Z</time></trkpt><trkpt lat="43.5620848" lon="11.2672195"><ele>378.0</ele><time>2026-03-29T09:25:40.863Z</time></trkpt><trkpt lat="43.5622326" lon="11.2672678"><ele>378.0</ele><time>2026-03-29T09:25:41.902Z</time></trkpt><trkpt lat="43.5623305" lon="11.2673061"><ele>379.2</ele><time>2026-03-29T09:25:42.873Z</time></trkpt><trkpt lat="43.562418" lon="11.2673429"><ele>380.4</ele><time>2026-03-29T09:25:43.863Z</time></trkpt><trkpt lat="43.56252" lon="11.2673866"><ele>381.59999999999997</ele><time>2026-03-29T09:25:44.864Z</time></trkpt><trkpt lat="43.5626398" lon="11.2674262"><ele>382.79999999999995</ele><time>2026-03-29T09:25:45.898Z</time></trkpt><trkpt lat="43.562751" lon="11.2674679"><ele>384.0</ele><time>2026-03-29T09:25:46.895Z</time></trkpt><trkpt lat="43.5629166" lon="11.2675267"><ele>384.0</ele><time>2026-03-29T09:25:47.862Z</time></trkpt><trkpt lat="43.5630413" lon="11.267569"><ele>384.0</ele><time>2026-03-29T09:25:48.865Z</time></trkpt><trkpt lat="43.5631299" lon="11.267603"><ele>384.0</ele><time>2026-03-29T09:25:49.86Z</time></trkpt><trkpt lat="43.5632635" lon="11.2676504"><ele>384.0</ele><time>2026-03-29T09:25:50.867Z</time></trkpt><trkpt lat="43.5633882" lon="11.2676851"><ele>384.0</ele><time>2026-03-29T09:25:51.899Z</time></trkpt><trkpt lat="43.5635006" lon="11.2677209"><ele>384.0</ele><time>2026-03-29T09:25:52.861Z</time></trkpt><trkpt lat="43.5635947" lon="11.267761"><ele>384.0</ele><time>2026-03-29T09:25:53.861Z</time></trkpt><trkpt lat="43.5636795" lon="11.2678025"><ele>384.0</ele><time>2026-03-29T09:25:54.893Z</time></trkpt><trkpt lat="43.5637494" lon="11.2678231"><ele>384.0</ele><time>2026-03-29T09:25:55.859Z</time></trkpt><trkpt lat="43.5638121" lon="11.2677548"><ele>384.6</ele><time>2026-03-29T09:25:57.861Z</time></trkpt><trkpt lat="43.5638756" lon="11.2677003"><ele>385.2</ele><time>2026-03-29T09:25:58.893Z</time></trkpt><trkpt lat="43.56398" lon="11.267636"><ele>385.8</ele><time>2026-03-29T09:25:59.894Z</time></trkpt><trkpt lat="43.5640805" lon="11.2675688"><ele>386.40000000000003</ele><time>2026-03-29T09:26:00.864Z</time></trkpt><trkpt lat="43.5641847" lon="11.2675147"><ele>387.0</ele><time>2026-03-29T09:26:01.864Z</time></trkpt><trkpt lat="43.5642749" lon="11.2674875"><ele>387.0</ele><time>2026-03-29T09:26:02.902Z</time></trkpt><trkpt lat="43.5644219" lon="11.2675516"><ele>387.0</ele><time>2026-03-29T09:26:04.874Z</time></trkpt><trkpt lat="43.5646017" lon="11.2676842"><ele>387.0</ele><time>2026-03-29T09:26:06.864Z</time></trkpt><trkpt lat="43.5646836" lon="11.2677585"><ele>387.40000000000003</ele><time>2026-03-29T09:26:07.879Z</time></trkpt><trkpt lat="43.5647536" lon="11.2678423"><ele>387.8</ele><time>2026-03-29T09:26:09.87Z</time></trkpt><trkpt lat="43.5648207" lon="11.2679255"><ele>388.2</ele><time>2026-03-29T09:26:10.864Z</time></trkpt><trkpt lat="43.56487" lon="11.2680249"><ele>388.6</ele><time>2026-03-29T09:26:11.865Z</time></trkpt><trkpt lat="43.5649281" lon="11.2681209"><ele>389.0</ele><time>2026-03-29T09:26:12.865Z</time></trkpt><trkpt lat="43.5649931" lon="11.2682076"><ele>389.0</ele><time>2026-03-29T09:26:13.87Z</time></trkpt><trkpt lat="43.5650658" lon="11.2683286"><ele>389.0</ele><time>2026-03-29T09:26:14.872Z</time></trkpt><trkpt lat="43.5651254" lon="11.2684259"><ele>389.0</ele><time>2026-03-29T09:26:15.87Z</time></trkpt><trkpt lat="43.5651904" lon="11.2685002"><ele>389.0</ele><time>2026-03-29T09:26:16.861Z</time></trkpt><trkpt lat="43.565248" lon="11.268551"><ele>389.0</ele><time>2026-03-29T09:26:17.891Z</time></trkpt><trkpt lat="43.5653321" lon="11.2685986"><ele>385.75</ele><time>2026-03-29T09:26:18.901Z</time></trkpt><trkpt lat="43.5654608" lon="11.2686947"><ele>382.5</ele><time>2026-03-29T09:26:19.869Z</time></trkpt><trkpt lat="43.5655537" lon="11.268738"><ele>379.25</ele><time>2026-03-29T09:26:20.877Z</time></trkpt><trkpt lat="43.5656628" lon="11.2687864"><ele>376.0</ele><time>2026-03-29T09:26:21.865Z</time></trkpt><trkpt lat="43.5658224" lon="11.2688448"><ele>376.0</ele><time>2026-03-29T09:26:22.863Z</time></trkpt><trkpt lat="43.5659085" lon="11.2688323"><ele>376.0</ele><time>2026-03-29T09:26:23.858Z</time></trkpt><trkpt lat="43.5660223" lon="11.2688233"><ele>376.0</ele><time>2026-03-29T09:26:24.888Z</time></trkpt><trkpt lat="43.5661541" lon="11.2688364"><ele>376.0</ele><time>2026-03-29T09:26:25.869Z</time></trkpt><trkpt lat="43.5662207" lon="11.2688655"><ele>376.0</ele><time>2026-03-29T09:26:26.87Z</time></trkpt><trkpt lat="43.5663029" lon="11.268976"><ele>379.25</ele><time>2026-03-29T09:26:27.867Z</time></trkpt><trkpt lat="43.5664036" lon="11.2691348"><ele>382.5</ele><time>2026-03-29T09:26:29.87Z</time></trkpt><trkpt lat="43.566501" lon="11.2692419"><ele>385.75</ele><time>2026-03-29T09:26:30.876Z</time></trkpt><trkpt lat="43.5666309" lon="11.269386"><ele>389.0</ele><time>2026-03-29T09:26:31.899Z</time></trkpt><trkpt lat="43.5667337" lon="11.2694259"><ele>389.0</ele><time>2026-03-29T09:26:33.865Z</time></trkpt><trkpt lat="43.5668414" lon="11.269456"><ele>389.0</ele><time>2026-03-29T09:26:34.869Z</time></trkpt><trkpt lat="43.5669558" lon="11.2694961"><ele>389.0</ele><time>2026-03-29T09:26:35.875Z</time></trkpt><trkpt lat="43.5670554" lon="11.2695556"><ele>389.0</ele><time>2026-03-29T09:26:36.905Z</time></trkpt><trkpt lat="43.5671823" lon="11.2696357"><ele>389.75</ele><time>2026-03-29T09:26:37.873Z</time></trkpt><trkpt lat="43.5672765" lon="11.2697032"><ele>390.5</ele><time>2026-03-29T09:26:38.869Z</time></trkpt><trkpt lat="43.5673893" lon="11.2697966"><ele>391.25</ele><time>2026-03-29T09:26:39.859Z</time></trkpt><trkpt lat="43.5675207" lon="11.2698972"><ele>392.0</ele><time>2026-03-29T09:26:40.884Z</time></trkpt><trkpt lat="43.5676495" lon="11.2700051"><ele>395.0</ele><time>2026-03-29T09:26:41.867Z</time></trkpt><trkpt lat="43.5677799" lon="11.2701155"><ele>398.0</ele><time>2026-03-29T09:26:42.88Z</time></trkpt><trkpt lat="43.5679069" lon="11.2702179"><ele>401.0</ele><time>2026-03-29T09:26:43.895Z</time></trkpt><trkpt lat="43.5680255" lon="11.2703084"><ele>404.0</ele><time>2026-03-29T09:26:44.869Z</time></trkpt><trkpt lat="43.5681525" lon="11.2704086"><ele>406.4</ele><time>2026-03-29T09:26:45.873Z</time></trkpt><trkpt lat="43.5682685" lon="11.2705037"><ele>408.79999999999995</ele><time>2026-03-29T09:26:46.865Z</time></trkpt><trkpt lat="43.568377" lon="11.2705945"><ele>411.20000000000005</ele><time>2026-03-29T09:26:47.861Z</time></trkpt><trkpt lat="43.5684606" lon="11.2706647"><ele>413.6</ele><time>2026-03-29T09:26:48.867Z</time></trkpt><trkpt lat="43.5685422" lon="11.2707118"><ele>416.0</ele><time>2026-03-29T09:26:49.893Z</time></trkpt><trkpt lat="43.568619" lon="11.2707402"><ele>420.0</ele><time>2026-03-29T09:26:50.863Z</time></trkpt><trkpt lat="43.5686983" lon="11.2707667"><ele>424.0</ele><time>2026-03-29T09:26:51.905Z</time></trkpt><trkpt lat="43.5687915" lon="11.2707707"><ele>428.0</ele><time>2026-03-29T09:26:52.864Z</time></trkpt><trkpt lat="43.5688714" lon="11.2707522"><ele>432.0</ele><time>2026-03-29T09:26:53.87Z</time></trkpt><trkpt lat="43.5689683" lon="11.2707315"><ele>436.0</ele><time>2026-03-29T09:26:54.873Z</time></trkpt><trkpt lat="43.5690645" lon="11.2707217"><ele>436.0</ele><time>2026-03-29T09:26:55.867Z</time></trkpt><trkpt lat="43.5691868" lon="11.2707066"><ele>436.0</ele><time>2026-03-29T09:26:56.894Z</time></trkpt><trkpt lat="43.5692997" lon="11.2706968"><ele>436.0</ele><time>2026-03-29T09:26:57.864Z</time></trkpt><trkpt lat="43.569417" lon="11.2706875"><ele>436.0</ele><time>2026-03-29T09:26:58.886Z</time></trkpt><trkpt lat="43.5695314" lon="11.2706736"><ele>437.8</ele><time>2026-03-29T09:26:59.859Z</time></trkpt><trkpt lat="43.5696373" lon="11.2706622"><ele>439.6</ele><time>2026-03-29T09:27:00.894Z</time></trkpt><trkpt lat="43.569747" lon="11.2706506"><ele>441.4</ele><time>2026-03-29T09:27:01.871Z</time></trkpt><trkpt lat="43.5698504" lon="11.2706463"><ele>443.2</ele><time>2026-03-29T09:27:02.897Z</time></trkpt><trkpt lat="43.5699608" lon="11.2706685"><ele>445.0</ele><time>2026-03-29T09:27:03.882Z</time></trkpt><trkpt lat="43.5700978" lon="11.270696"><ele>445.0</ele><time>2026-03-29T09:27:04.864Z</time></trkpt><trkpt lat="43.570219" lon="11.2707128"><ele>445.0</ele><time>2026-03-29T09:27:05.858Z</time></trkpt><trkpt lat="43.5703414" lon="11.2707209"><ele>445.0</ele><time>2026-03-29T09:27:06.867Z</time></trkpt><trkpt lat="43.5704545" lon="11.2707261"><ele>445.0</ele><time>2026-03-29T09:27:07.875Z</time></trkpt><trkpt lat="43.5705653" lon="11.2707199"><ele>447.25</ele><time>2026-03-29T09:27:08.873Z</time></trkpt><trkpt lat="43.5706765" lon="11.2707027"><ele>449.5</ele><time>2026-03-29T09:27:09.869Z</time></trkpt><trkpt lat="43.5707958" lon="11.270668"><ele>451.75</ele><time>2026-03-29T09:27:10.876Z</time></trkpt><trkpt lat="43.5709288" lon="11.270631"><ele>454.0</ele><time>2026-03-29T09:27:11.892Z</time></trkpt><trkpt lat="43.57105" lon="11.2706093"><ele>455.0</ele><time>2026-03-29T09:27:12.868Z</time></trkpt><trkpt lat="43.5711537" lon="11.2705986"><ele>456.0</ele><time>2026-03-29T09:27:13.87Z</time></trkpt><trkpt lat="43.5712534" lon="11.2705746"><ele>457.0</ele><time>2026-03-29T09:27:14.87Z</time></trkpt><trkpt lat="43.5713422" lon="11.270595"><ele>458.0</ele><time>2026-03-29T09:27:16.863Z</time></trkpt><trkpt lat="43.5715333" lon="11.2706959"><ele>459.5</ele><time>2026-03-29T09:27:18.863Z</time></trkpt><trkpt lat="43.5716575" lon="11.2707197"><ele>461.0</ele><time>2026-03-29T09:27:19.872Z</time></trkpt><trkpt lat="43.5717821" lon="11.2707247"><ele>462.5</ele><time>2026-03-29T09:27:20.87Z</time></trkpt><trkpt lat="43.571886" lon="11.2707177"><ele>464.0</ele><time>2026-03-29T09:27:21.865Z</time></trkpt><trkpt lat="43.572007" lon="11.2707096"><ele>466.25</ele><time>2026-03-29T09:27:22.877Z</time></trkpt><trkpt lat="43.5721432" lon="11.2706985"><ele>468.5</ele><time>2026-03-29T09:27:23.869Z</time></trkpt><trkpt lat="43.5722649" lon="11.2706929"><ele>470.75</ele><time>2026-03-29T09:27:24.883Z</time></trkpt><trkpt lat="43.5723821" lon="11.2706857"><ele>473.0</ele><time>2026-03-29T09:27:25.864Z</time></trkpt><trkpt lat="43.572499" lon="11.2706626"><ele>473.0</ele><time>2026-03-29T09:27:26.888Z</time></trkpt><trkpt lat="43.5725875" lon="11.2706216"><ele>472.99999999999994</ele><time>2026-03-29T09:27:27.863Z</time></trkpt><trkpt lat="43.5726613" lon="11.2705676"><ele>472.99999999999994</ele><time>2026-03-29T09:27:28.876Z</time></trkpt><trkpt lat="43.5727378" lon="11.2704727"><ele>473.0</ele><time>2026-03-29T09:27:30.864Z</time></trkpt><trkpt lat="43.5727973" lon="11.2703578"><ele>473.0</ele><time>2026-03-29T09:27:31.861Z</time></trkpt><trkpt lat="43.5728596" lon="11.2702656"><ele>478.25</ele><time>2026-03-29T09:27:32.858Z</time></trkpt><trkpt lat="43.57293" lon="11.270186"><ele>483.5</ele><time>2026-03-29T09:27:34.86Z</time></trkpt><trkpt lat="43.572991" lon="11.27009"><ele>488.75</ele><time>2026-03-29T09:27:35.875Z</time></trkpt><trkpt lat="43.5730488" lon="11.2700096"><ele>494.0</ele><time>2026-03-29T09:27:36.873Z</time></trkpt><trkpt lat="43.5732629" lon="11.2698987"><ele>494.0</ele><time>2026-03-29T09:27:38.871Z</time></trkpt><trkpt lat="43.5733704" lon="11.2698364"><ele>494.0</ele><time>2026-03-29T09:27:39.87Z</time></trkpt><trkpt lat="43.5735532" lon="11.2697653"><ele>494.0</ele><time>2026-03-29T09:27:41.857Z</time></trkpt><trkpt lat="43.5736885" lon="11.2696807"><ele>495.79999999999995</ele><time>2026-03-29T09:27:42.864Z</time></trkpt><trkpt lat="43.5737529" lon="11.2696747"><ele>497.59999999999997</ele><time>2026-03-29T09:27:43.892Z</time></trkpt><trkpt lat="43.5738463" lon="11.2696435"><ele>499.4</ele><time>2026-03-29T09:27:44.894Z</time></trkpt><trkpt lat="43.5739605" lon="11.269733"><ele>501.2</ele><time>2026-03-29T09:27:46.895Z</time></trkpt><trkpt lat="43.574037" lon="11.269782"><ele>503.0</ele><time>2026-03-29T09:27:47.855Z</time></trkpt><trkpt lat="43.5741118" lon="11.269797"><ele>503.2</ele><time>2026-03-29T09:27:48.893Z</time></trkpt><trkpt lat="43.5741852" lon="11.2698067"><ele>503.4</ele><time>2026-03-29T09:27:49.882Z</time></trkpt><trkpt lat="43.574269" lon="11.2698301"><ele>503.59999999999997</ele><time>2026-03-29T09:27:50.864Z</time></trkpt><trkpt lat="43.5743549" lon="11.2698527"><ele>503.79999999999995</ele><time>2026-03-29T09:27:51.857Z</time></trkpt><trkpt lat="43.5744806" lon="11.2698732"><ele>504.0</ele><time>2026-03-29T09:27:52.879Z</time></trkpt><trkpt lat="43.5746092" lon="11.2699258"><ele>504.0</ele><time>2026-03-29T09:27:53.867Z</time></trkpt><trkpt lat="43.5746891" lon="11.2699886"><ele>504.0</ele><time>2026-03-29T09:27:54.865Z</time></trkpt><trkpt lat="43.5747007" lon="11.2701274"><ele>504.0</ele><time>2026-03-29T09:27:56.872Z</time></trkpt><trkpt lat="43.5748264" lon="11.2703665"><ele>504.0</ele><time>2026-03-29T09:27:57.861Z</time></trkpt><trkpt lat="43.5748507" lon="11.2704604"><ele>504.0</ele><time>2026-03-29T09:27:58.89Z</time></trkpt><trkpt lat="43.5749382" lon="11.2706056"><ele>504.0</ele><time>2026-03-29T09:28:00.874Z</time></trkpt><trkpt lat="43.574974" lon="11.2706871"><ele>504.0</ele><time>2026-03-29T09:28:01.876Z</time></trkpt><trkpt lat="43.5750633" lon="11.2708184"><ele>504.0</ele><time>2026-03-29T09:28:02.897Z</time></trkpt><trkpt lat="43.5751016" lon="11.2709569"><ele>504.0</ele><time>2026-03-29T09:28:03.862Z</time></trkpt><trkpt lat="43.5751326" lon="11.2710952"><ele>503.79999999999995</ele><time>2026-03-29T09:28:04.918Z</time></trkpt><trkpt lat="43.5751813" lon="11.2712729"><ele>503.59999999999997</ele><time>2026-03-29T09:28:05.862Z</time></trkpt><trkpt lat="43.5752308" lon="11.2713693"><ele>503.4</ele><time>2026-03-29T09:28:06.86Z</time></trkpt><trkpt lat="43.5753182" lon="11.2714788"><ele>503.2</ele><time>2026-03-29T09:28:07.871Z</time></trkpt><trkpt lat="43.5753693" lon="11.2715374"><ele>503.0</ele><time>2026-03-29T09:28:08.876Z</time></trkpt><trkpt lat="43.5754176" lon="11.27162"><ele>503.0</ele><time>2026-03-29T09:28:10.867Z</time></trkpt><trkpt lat="43.5754785" lon="11.2716933"><ele>502.99999999999994</ele><time>2026-03-29T09:28:11.868Z</time></trkpt><trkpt lat="43.5755202" lon="11.2717613"><ele>502.99999999999994</ele><time>2026-03-29T09:28:12.868Z</time></trkpt><trkpt lat="43.5756264" lon="11.2718501"><ele>503.0</ele><time>2026-03-29T09:28:13.875Z</time></trkpt><trkpt lat="43.5756974" lon="11.2719199"><ele>503.0</ele><time>2026-03-29T09:28:14.866Z</time></trkpt><trkpt lat="43.575789" lon="11.2720308"><ele>503.0</ele><time>2026-03-29T09:28:15.893Z</time></trkpt><trkpt lat="43.5758596" lon="11.2721656"><ele>502.99999999999994</ele><time>2026-03-29T09:28:17.869Z</time></trkpt><trkpt lat="43.5759316" lon="11.2722646"><ele>502.99999999999994</ele><time>2026-03-29T09:28:18.866Z</time></trkpt><trkpt lat="43.576014" lon="11.2723667"><ele>503.0</ele><time>2026-03-29T09:28:19.86Z</time></trkpt><trkpt lat="43.576082" lon="11.2724403"><ele>503.0</ele><time>2026-03-29T09:28:20.872Z</time></trkpt><trkpt lat="43.576154" lon="11.2725182"><ele>502.5</ele><time>2026-03-29T09:28:21.873Z</time></trkpt><trkpt lat="43.5762645" lon="11.2726154"><ele>502.0</ele><time>2026-03-29T09:28:22.859Z</time></trkpt><trkpt lat="43.576377" lon="11.2727401"><ele>501.5</ele><time>2026-03-29T09:28:23.869Z</time></trkpt><trkpt lat="43.5764915" lon="11.2728491"><ele>501.0</ele><time>2026-03-29T09:28:24.861Z</time></trkpt><trkpt lat="43.5765622" lon="11.2729264"><ele>501.0</ele><time>2026-03-29T09:28:25.866Z</time></trkpt><trkpt lat="43.5766683" lon="11.2730071"><ele>501.0</ele><time>2026-03-29T09:28:26.89Z</time></trkpt><trkpt lat="43.576789" lon="11.2730905"><ele>501.0</ele><time>2026-03-29T09:28:27.853Z</time></trkpt><trkpt lat="43.5768878" lon="11.2731597"><ele>501.0</ele><time>2026-03-29T09:28:28.87Z</time></trkpt><trkpt lat="43.577003" lon="11.2732456"><ele>500.8</ele><time>2026-03-29T09:28:29.892Z</time></trkpt><trkpt lat="43.5770889" lon="11.2733266"><ele>500.6</ele><time>2026-03-29T09:28:30.885Z</time></trkpt><trkpt lat="43.5771469" lon="11.2734002"><ele>500.4</ele><time>2026-03-29T09:28:31.861Z</time></trkpt><trkpt lat="43.5772278" lon="11.2734675"><ele>500.2</ele><time>2026-03-29T09:28:32.9Z</time></trkpt><trkpt lat="43.577348" lon="11.2735305"><ele>500.0</ele><time>2026-03-29T09:28:34.902Z</time></trkpt><trkpt lat="43.5774302" lon="11.2735851"><ele>500.0</ele><time>2026-03-29T09:28:35.867Z</time></trkpt><trkpt lat="43.57753" lon="11.2736514"><ele>500.0</ele><time>2026-03-29T09:28:36.861Z</time></trkpt><trkpt lat="43.5776072" lon="11.2736875"><ele>500.0</ele><time>2026-03-29T09:28:37.87Z</time></trkpt><trkpt lat="43.5776903" lon="11.2737248"><ele>500.0</ele><time>2026-03-29T09:28:38.896Z</time></trkpt><trkpt lat="43.5777813" lon="11.2737719"><ele>500.0</ele><time>2026-03-29T09:28:39.865Z</time></trkpt><trkpt lat="43.5778617" lon="11.2738704"><ele>498.49999999999994</ele><time>2026-03-29T09:28:40.863Z</time></trkpt><trkpt lat="43.5779721" lon="11.2738916"><ele>497.0</ele><time>2026-03-29T09:28:42.857Z</time></trkpt><trkpt lat="43.5780459" lon="11.2739013"><ele>495.5</ele><time>2026-03-29T09:28:44.86Z</time></trkpt><trkpt lat="43.5781422" lon="11.2739287"><ele>494.0</ele><time>2026-03-29T09:28:55.862Z</time></trkpt><trkpt lat="43.5782049" lon="11.2739181"><ele>492.49999999999994</ele><time>2026-03-29T09:28:56.86Z</time></trkpt><trkpt lat="43.5782789" lon="11.2739063"><ele>491.0</ele><time>2026-03-29T09:28:57.856Z</time></trkpt><trkpt lat="43.5783559" lon="11.2738886"><ele>490.99999999999994</ele><time>2026-03-29T09:28:58.864Z</time></trkpt><trkpt lat="43.5784364" lon="11.2738755"><ele>491.0</ele><time>2026-03-29T09:28:59.862Z</time></trkpt><trkpt lat="43.5785141" lon="11.2738572"><ele>491.0</ele><time>2026-03-29T09:29:00.86Z</time></trkpt><trkpt lat="43.5785847" lon="11.2738367"><ele>491.0</ele><time>2026-03-29T09:29:01.858Z</time></trkpt><trkpt lat="43.5786505" lon="11.2738181"><ele>490.99999999999994</ele><time>2026-03-29T09:29:02.859Z</time></trkpt><trkpt lat="43.5787524" lon="11.2737869"><ele>491.0</ele><time>2026-03-29T09:29:04.866Z</time></trkpt><trkpt lat="43.5788353" lon="11.2737572"><ele>491.0</ele><time>2026-03-29T09:29:07.888Z</time></trkpt><trkpt lat="43.5788832" lon="11.2736833"><ele>490.99999999999994</ele><time>2026-03-29T09:29:10.897Z</time></trkpt><trkpt lat="43.5788961" lon="11.2735923"><ele>491.0</ele><time>2026-03-29T09:29:12.857Z</time></trkpt><trkpt lat="43.5789034" lon="11.2734934"><ele>491.0</ele><time>2026-03-29T09:29:14.861Z</time></trkpt><trkpt lat="43.578919" lon="11.2734047"><ele>490.99999999999994</ele><time>2026-03-29T09:29:16.861Z</time></trkpt><trkpt lat="43.5789578" lon="11.2733235"><ele>491.0</ele><time>2026-03-29T09:29:18.89Z</time></trkpt><trkpt lat="43.579037" lon="11.2732385"><ele>491.0</ele><time>2026-03-29T09:29:20.89Z</time></trkpt><trkpt lat="43.5791299" lon="11.2731751"><ele>488.99999999999994</ele><time>2026-03-29T09:29:22.854Z</time></trkpt><trkpt lat="43.5792139" lon="11.2731027"><ele>487.0</ele><time>2026-03-29T09:29:24.859Z</time></trkpt><trkpt lat="43.5792911" lon="11.273044"><ele>485.0</ele><time>2026-03-29T09:29:26.856Z</time></trkpt><trkpt lat="43.5793669" lon="11.2729781"><ele>483.0</ele><time>2026-03-29T09:29:28.861Z</time></trkpt><trkpt lat="43.5794436" lon="11.2729203"><ele>480.99999999999994</ele><time>2026-03-29T09:29:31.861Z</time></trkpt><trkpt lat="43.5795233" lon="11.2729189"><ele>479.0</ele><time>2026-03-29T09:29:49.904Z</time></trkpt><trkpt lat="43.5795943" lon="11.272995"><ele>478.99999999999994</ele><time>2026-03-29T09:29:51.87Z</time></trkpt><trkpt lat="43.5796341" lon="11.2730922"><ele>479.0</ele><time>2026-03-29T09:29:53.868Z</time></trkpt><trkpt lat="43.5796848" lon="11.2732151"><ele>479.0</ele><time>2026-03-29T09:29:55.876Z</time></trkpt><trkpt lat="43.5797068" lon="11.2733188"><ele>479.0</ele><time>2026-03-29T09:29:57.889Z</time></trkpt><trkpt lat="43.5797185" lon="11.2734168"><ele>478.99999999999994</ele><time>2026-03-29T09:29:59.891Z</time></trkpt><trkpt lat="43.5797031" lon="11.2735229"><ele>479.0</ele><time>2026-03-29T09:30:01.868Z</time></trkpt><trkpt lat="43.5796446" lon="11.2735725"><ele>480.99999999999994</ele><time>2026-03-29T09:30:12.856Z</time></trkpt><trkpt lat="43.5795679" lon="11.2735931"><ele>483.0</ele><time>2026-03-29T09:30:15.858Z</time></trkpt><trkpt lat="43.5794883" lon="11.2735997"><ele>485.0</ele><time>2026-03-29T09:30:18.856Z</time></trkpt><trkpt lat="43.5794222" lon="11.2736075"><ele>487.0</ele><time>2026-03-29T09:46:16.863Z</time></trkpt><trkpt lat="43.5794883" lon="11.2736003"><ele>488.99999999999994</ele><time>2026-03-29T09:46:25.863Z</time></trkpt><trkpt lat="43.5795784" lon="11.2735505"><ele>491.0</ele><time>2026-03-29T09:46:27.857Z</time></trkpt><trkpt lat="43.5796738" lon="11.2735153"><ele>491.20000000000005</ele><time>2026-03-29T09:46:29.854Z</time></trkpt><trkpt lat="43.5797329" lon="11.2734701"><ele>491.40000000000003</ele><time>2026-03-29T09:46:31.857Z</time></trkpt><trkpt lat="43.5797367" lon="11.27336"><ele>491.6</ele><time>2026-03-29T09:46:33.862Z</time></trkpt><trkpt lat="43.5797071" lon="11.2732189"><ele>491.8</ele><time>2026-03-29T09:46:35.859Z</time></trkpt><trkpt lat="43.5796534" lon="11.2730836"><ele>492.0</ele><time>2026-03-29T09:46:37.855Z</time></trkpt><trkpt lat="43.5795961" lon="11.2729787"><ele>489.8333333333333</ele><time>2026-03-29T09:46:39.854Z</time></trkpt><trkpt lat="43.5795352" lon="11.2729048"><ele>487.66666666666663</ele><time>2026-03-29T09:46:41.861Z</time></trkpt><trkpt lat="43.5794771" lon="11.2728671"><ele>485.5</ele><time>2026-03-29T09:46:43.867Z</time></trkpt><trkpt lat="43.5793964" lon="11.272898"><ele>483.3333333333333</ele><time>2026-03-29T09:46:45.856Z</time></trkpt><trkpt lat="43.5793316" lon="11.2729533"><ele>481.16666666666663</ele><time>2026-03-29T09:46:46.858Z</time></trkpt><trkpt lat="43.5792547" lon="11.2730197"><ele>479.0</ele><time>2026-03-29T09:46:47.859Z</time></trkpt><trkpt lat="43.5791564" lon="11.2731034"><ele>481.4</ele><time>2026-03-29T09:46:48.858Z</time></trkpt><trkpt lat="43.5790551" lon="11.2731855"><ele>483.79999999999995</ele><time>2026-03-29T09:46:49.851Z</time></trkpt><trkpt lat="43.5789704" lon="11.273256"><ele>486.20000000000005</ele><time>2026-03-29T09:46:50.855Z</time></trkpt><trkpt lat="43.5789048" lon="11.2733311"><ele>488.6</ele><time>2026-03-29T09:46:51.856Z</time></trkpt><trkpt lat="43.5788564" lon="11.273426"><ele>491.0</ele><time>2026-03-29T09:46:52.885Z</time></trkpt><trkpt lat="43.5788342" lon="11.2735225"><ele>491.0</ele><time>2026-03-29T09:46:53.853Z</time></trkpt><trkpt lat="43.5788228" lon="11.2736113"><ele>491.0</ele><time>2026-03-29T09:46:54.862Z</time></trkpt><trkpt lat="43.5787829" lon="11.2737514"><ele>491.0</ele><time>2026-03-29T09:46:56.854Z</time></trkpt><trkpt lat="43.5786491" lon="11.2738063"><ele>491.0</ele><time>2026-03-29T09:46:58.857Z</time></trkpt><trkpt lat="43.5785401" lon="11.2738267"><ele>491.0</ele><time>2026-03-29T09:46:59.858Z</time></trkpt><trkpt lat="43.5784265" lon="11.273839"><ele>491.0</ele><time>2026-03-29T09:47:00.856Z</time></trkpt><trkpt lat="43.5783104" lon="11.2738461"><ele>491.0</ele><time>2026-03-29T09:47:01.862Z</time></trkpt><trkpt lat="43.5781936" lon="11.2738626"><ele>491.0</ele><time>2026-03-29T09:47:02.851Z</time></trkpt><trkpt lat="43.5780898" lon="11.2739127"><ele>491.0</ele><time>2026-03-29T09:47:03.867Z</time></trkpt><trkpt lat="43.577981" lon="11.2740003"><ele>492.5</ele><time>2026-03-29T09:47:04.883Z</time></trkpt><trkpt lat="43.5778746" lon="11.274114"><ele>494.0</ele><time>2026-03-29T09:47:05.882Z</time></trkpt><trkpt lat="43.5777818" lon="11.2742339"><ele>495.5</ele><time>2026-03-29T09:47:06.854Z</time></trkpt><trkpt lat="43.5776909" lon="11.2743491"><ele>497.0</ele><time>2026-03-29T09:47:07.85Z</time></trkpt><trkpt lat="43.5775975" lon="11.2744616"><ele>500.0</ele><time>2026-03-29T09:47:08.892Z</time></trkpt><trkpt lat="43.5775013" lon="11.2745733"><ele>503.0</ele><time>2026-03-29T09:47:09.859Z</time></trkpt><trkpt lat="43.5773993" lon="11.2746822"><ele>506.0</ele><time>2026-03-29T09:47:10.883Z</time></trkpt><trkpt lat="43.577293" lon="11.274788"><ele>509.0</ele><time>2026-03-29T09:47:11.863Z</time></trkpt><trkpt lat="43.5771844" lon="11.2748918"><ele>509.5</ele><time>2026-03-29T09:47:12.857Z</time></trkpt><trkpt lat="43.5770763" lon="11.274994"><ele>510.0</ele><time>2026-03-29T09:47:13.861Z</time></trkpt><trkpt lat="43.576961" lon="11.2750956"><ele>510.5</ele><time>2026-03-29T09:47:14.862Z</time></trkpt><trkpt lat="43.5768403" lon="11.2752072"><ele>511.0</ele><time>2026-03-29T09:47:15.858Z</time></trkpt><trkpt lat="43.5767169" lon="11.2753177"><ele>513.5</ele><time>2026-03-29T09:47:16.852Z</time></trkpt><trkpt lat="43.5765943" lon="11.2754196"><ele>516.0</ele><time>2026-03-29T09:47:17.86Z</time></trkpt><trkpt lat="43.5764704" lon="11.2755232"><ele>518.5</ele><time>2026-03-29T09:47:18.856Z</time></trkpt><trkpt lat="43.5763486" lon="11.2756238"><ele>521.0</ele><time>2026-03-29T09:47:19.854Z</time></trkpt><trkpt lat="43.5762223" lon="11.2757197"><ele>523.0</ele><time>2026-03-29T09:47:20.858Z</time></trkpt><trkpt lat="43.5760967" lon="11.275815"><ele>525.0</ele><time>2026-03-29T09:47:21.885Z</time></trkpt><trkpt lat="43.5759659" lon="11.2759001"><ele>527.0</ele><time>2026-03-29T09:47:22.858Z</time></trkpt><trkpt lat="43.5758379" lon="11.275983"><ele>529.0</ele><time>2026-03-29T09:47:23.868Z</time></trkpt><trkpt lat="43.5757097" lon="11.2760615"><ele>529.0</ele><time>2026-03-29T09:47:24.856Z</time></trkpt><trkpt lat="43.5755746" lon="11.2761471"><ele>529.0</ele><time>2026-03-29T09:47:25.891Z</time></trkpt><trkpt lat="43.5754321" lon="11.2762359"><ele>529.0</ele><time>2026-03-29T09:47:26.856Z</time></trkpt><trkpt lat="43.5752803" lon="11.276323"><ele>525.6666666666667</ele><time>2026-03-29T09:47:27.854Z</time></trkpt><trkpt lat="43.575129" lon="11.2764157"><ele>522.3333333333334</ele><time>2026-03-29T09:47:28.887Z</time></trkpt><trkpt lat="43.5749789" lon="11.2765098"><ele>519.0</ele><time>2026-03-29T09:47:29.861Z</time></trkpt><trkpt lat="43.5748347" lon="11.2766048"><ele>519.0</ele><time>2026-03-29T09:47:30.859Z</time></trkpt><trkpt lat="43.5746947" lon="11.276693"><ele>519.0</ele><time>2026-03-29T09:47:31.854Z</time></trkpt><trkpt lat="43.5745618" lon="11.2767799"><ele>519.0</ele><time>2026-03-29T09:47:32.89Z</time></trkpt><trkpt lat="43.5744399" lon="11.2768608"><ele>519.0</ele><time>2026-03-29T09:47:33.855Z</time></trkpt><trkpt lat="43.574317" lon="11.276945"><ele>517.75</ele><time>2026-03-29T09:47:34.864Z</time></trkpt><trkpt lat="43.5741991" lon="11.2770413"><ele>516.5</ele><time>2026-03-29T09:47:35.853Z</time></trkpt><trkpt lat="43.5740856" lon="11.2771423"><ele>515.25</ele><time>2026-03-29T09:47:36.883Z</time></trkpt><trkpt lat="43.5739789" lon="11.277248"><ele>514.0</ele><time>2026-03-29T09:47:37.858Z</time></trkpt><trkpt lat="43.5738737" lon="11.2773616"><ele>514.0</ele><time>2026-03-29T09:47:38.859Z</time></trkpt><trkpt lat="43.5737669" lon="11.2774968"><ele>514.0</ele><time>2026-03-29T09:47:39.852Z</time></trkpt><trkpt lat="43.5736591" lon="11.2776542"><ele>514.0</ele><time>2026-03-29T09:47:40.885Z</time></trkpt><trkpt lat="43.573555" lon="11.2778241"><ele>512.0</ele><time>2026-03-29T09:47:41.859Z</time></trkpt><trkpt lat="43.5734515" lon="11.2779854"><ele>510.0</ele><time>2026-03-29T09:47:42.857Z</time></trkpt><trkpt lat="43.5733449" lon="11.2781233"><ele>508.0</ele><time>2026-03-29T09:47:43.852Z</time></trkpt><trkpt lat="43.5732284" lon="11.2782335"><ele>506.0</ele><time>2026-03-29T09:47:44.851Z</time></trkpt><trkpt lat="43.5731059" lon="11.2783242"><ele>506.0</ele><time>2026-03-29T09:47:45.856Z</time></trkpt><trkpt lat="43.5729869" lon="11.2784053"><ele>506.0</ele><time>2026-03-29T09:47:46.859Z</time></trkpt><trkpt lat="43.5728756" lon="11.2784944"><ele>506.0</ele><time>2026-03-29T09:47:47.858Z</time></trkpt><trkpt lat="43.57277" lon="11.2786027"><ele>506.0</ele><time>2026-03-29T09:47:48.887Z</time></trkpt><trkpt lat="43.5726691" lon="11.2787225"><ele>504.5</ele><time>2026-03-29T09:47:49.889Z</time></trkpt><trkpt lat="43.5725722" lon="11.2788533"><ele>503.0</ele><time>2026-03-29T09:47:50.855Z</time></trkpt><trkpt lat="43.5724794" lon="11.279008"><ele>501.5</ele><time>2026-03-29T09:47:51.856Z</time></trkpt><trkpt lat="43.5723924" lon="11.2791703"><ele>500.0</ele><time>2026-03-29T09:47:52.857Z</time></trkpt><trkpt lat="43.5723185" lon="11.2793339"><ele>499.5</ele><time>2026-03-29T09:47:53.855Z</time></trkpt><trkpt lat="43.572267" lon="11.2794885"><ele>499.0</ele><time>2026-03-29T09:47:54.858Z</time></trkpt><trkpt lat="43.5722184" lon="11.279631"><ele>498.5</ele><time>2026-03-29T09:47:55.863Z</time></trkpt><trkpt lat="43.5721863" lon="11.2797775"><ele>498.0</ele><time>2026-03-29T09:47:56.885Z</time></trkpt><trkpt lat="43.57214" lon="11.2799142"><ele>495.25</ele><time>2026-03-29T09:47:57.854Z</time></trkpt><trkpt lat="43.5720716" lon="11.2800362"><ele>492.5</ele><time>2026-03-29T09:47:58.883Z</time></trkpt><trkpt lat="43.5719749" lon="11.2801327"><ele>489.75</ele><time>2026-03-29T09:47:59.864Z</time></trkpt><trkpt lat="43.5718437" lon="11.2801923"><ele>487.0</ele><time>2026-03-29T09:48:00.857Z</time></trkpt><trkpt lat="43.5717053" lon="11.2802315"><ele>487.0</ele><time>2026-03-29T09:48:01.86Z</time></trkpt><trkpt lat="43.5715707" lon="11.2802576"><ele>487.0</ele><time>2026-03-29T09:48:02.858Z</time></trkpt><trkpt lat="43.5714359" lon="11.2802834"><ele>487.0</ele><time>2026-03-29T09:48:03.857Z</time></trkpt><trkpt lat="43.5713058" lon="11.280304"><ele>487.0</ele><time>2026-03-29T09:48:04.858Z</time></trkpt><trkpt lat="43.571192" lon="11.2803056"><ele>484.83333333333337</ele><time>2026-03-29T09:48:05.861Z</time></trkpt><trkpt lat="43.5710987" lon="11.2802831"><ele>482.6666666666667</ele><time>2026-03-29T09:48:06.861Z</time></trkpt><trkpt lat="43.5710111" lon="11.2802451"><ele>480.5</ele><time>2026-03-29T09:48:07.857Z</time></trkpt><trkpt lat="43.5709268" lon="11.2801982"><ele>478.33333333333337</ele><time>2026-03-29T09:48:08.862Z</time></trkpt><trkpt lat="43.570851" lon="11.2801519"><ele>476.1666666666667</ele><time>2026-03-29T09:48:09.887Z</time></trkpt><trkpt lat="43.5707843" lon="11.2801138"><ele>474.0</ele><time>2026-03-29T09:48:10.857Z</time></trkpt><trkpt lat="43.5707183" lon="11.280101"><ele>474.0</ele><time>2026-03-29T09:48:11.863Z</time></trkpt><trkpt lat="43.5706536" lon="11.2801301"><ele>474.0</ele><time>2026-03-29T09:48:12.864Z</time></trkpt><trkpt lat="43.5706054" lon="11.2802044"><ele>474.0</ele><time>2026-03-29T09:48:13.855Z</time></trkpt><trkpt lat="43.5705833" lon="11.280322"><ele>474.0</ele><time>2026-03-29T09:48:14.886Z</time></trkpt><trkpt lat="43.5705857" lon="11.2804608"><ele>474.0</ele><time>2026-03-29T09:48:15.856Z</time></trkpt><trkpt lat="43.5706092" lon="11.2805988"><ele>474.0</ele><time>2026-03-29T09:48:16.896Z</time></trkpt><trkpt lat="43.5706448" lon="11.2807251"><ele>472.6</ele><time>2026-03-29T09:48:17.858Z</time></trkpt><trkpt lat="43.5706957" lon="11.2808409"><ele>471.2</ele><time>2026-03-29T09:48:18.854Z</time></trkpt><trkpt lat="43.5707678" lon="11.28095"><ele>469.80000000000007</ele><time>2026-03-29T09:48:19.854Z</time></trkpt><trkpt lat="43.5708623" lon="11.2810461"><ele>468.40000000000003</ele><time>2026-03-29T09:48:20.854Z</time></trkpt><trkpt lat="43.5709731" lon="11.2811231"><ele>467.0</ele><time>2026-03-29T09:48:21.888Z</time></trkpt><trkpt lat="43.571087" lon="11.2811813"><ele>468.20000000000005</ele><time>2026-03-29T09:48:22.855Z</time></trkpt><trkpt lat="43.5711935" lon="11.2812276"><ele>469.40000000000003</ele><time>2026-03-29T09:48:23.886Z</time></trkpt><trkpt lat="43.571294" lon="11.2812754"><ele>470.59999999999997</ele><time>2026-03-29T09:48:24.858Z</time></trkpt><trkpt lat="43.5713917" lon="11.2813286"><ele>471.79999999999995</ele><time>2026-03-29T09:48:25.857Z</time></trkpt><trkpt lat="43.5714768" lon="11.2814069"><ele>473.0</ele><time>2026-03-29T09:48:26.857Z</time></trkpt><trkpt lat="43.571546" lon="11.2815184"><ele>469.25</ele><time>2026-03-29T09:48:27.856Z</time></trkpt><trkpt lat="43.5715895" lon="11.2816648"><ele>465.5</ele><time>2026-03-29T09:48:28.857Z</time></trkpt><trkpt lat="43.5715981" lon="11.2818261"><ele>461.75</ele><time>2026-03-29T09:48:29.855Z</time></trkpt><trkpt lat="43.5715684" lon="11.2819968"><ele>458.0</ele><time>2026-03-29T09:48:30.87Z</time></trkpt><trkpt lat="43.5715084" lon="11.2821746"><ele>455.0</ele><time>2026-03-29T09:48:31.855Z</time></trkpt><trkpt lat="43.5714337" lon="11.2823544"><ele>452.0</ele><time>2026-03-29T09:48:32.853Z</time></trkpt><trkpt lat="43.5713396" lon="11.2825251"><ele>449.0</ele><time>2026-03-29T09:48:33.852Z</time></trkpt><trkpt lat="43.5712413" lon="11.2826844"><ele>449.25</ele><time>2026-03-29T09:48:34.883Z</time></trkpt><trkpt lat="43.5711507" lon="11.2828316"><ele>449.5</ele><time>2026-03-29T09:48:35.856Z</time></trkpt><trkpt lat="43.5710712" lon="11.2829711"><ele>449.75</ele><time>2026-03-29T09:48:36.853Z</time></trkpt><trkpt lat="43.571004" lon="11.2831053"><ele>450.0</ele><time>2026-03-29T09:48:37.853Z</time></trkpt><trkpt lat="43.5709397" lon="11.2832389"><ele>449.6</ele><time>2026-03-29T09:48:38.888Z</time></trkpt><trkpt lat="43.5708725" lon="11.2833709"><ele>449.2</ele><time>2026-03-29T09:48:39.859Z</time></trkpt><trkpt lat="43.570806" lon="11.2835014"><ele>448.79999999999995</ele><time>2026-03-29T09:48:40.883Z</time></trkpt><trkpt lat="43.5707462" lon="11.2836271"><ele>448.4</ele><time>2026-03-29T09:48:41.854Z</time></trkpt><trkpt lat="43.5706963" lon="11.2837482"><ele>448.0</ele><time>2026-03-29T09:48:42.885Z</time></trkpt><trkpt lat="43.5706543" lon="11.2838673"><ele>446.4</ele><time>2026-03-29T09:48:43.855Z</time></trkpt><trkpt lat="43.5706108" lon="11.2839832"><ele>444.79999999999995</ele><time>2026-03-29T09:48:44.862Z</time></trkpt><trkpt lat="43.5705603" lon="11.2840956"><ele>443.2</ele><time>2026-03-29T09:48:45.853Z</time></trkpt><trkpt lat="43.5704892" lon="11.2841994"><ele>441.6</ele><time>2026-03-29T09:48:46.886Z</time></trkpt><trkpt lat="43.5703954" lon="11.2842951"><ele>440.0</ele><time>2026-03-29T09:48:47.854Z</time></trkpt><trkpt lat="43.5702769" lon="11.2843783"><ele>438.5</ele><time>2026-03-29T09:48:48.866Z</time></trkpt><trkpt lat="43.570141" lon="11.2844457"><ele>437.0</ele><time>2026-03-29T09:48:49.858Z</time></trkpt><trkpt lat="43.5700026" lon="11.2845145"><ele>435.5</ele><time>2026-03-29T09:48:50.857Z</time></trkpt><trkpt lat="43.5698729" lon="11.2845914"><ele>434.0</ele><time>2026-03-29T09:48:51.858Z</time></trkpt><trkpt lat="43.5697544" lon="11.2846828"><ele>431.0</ele><time>2026-03-29T09:48:52.859Z</time></trkpt><trkpt lat="43.5696411" lon="11.2847867"><ele>428.0</ele><time>2026-03-29T09:48:53.862Z</time></trkpt><trkpt lat="43.5695357" lon="11.2849025"><ele>425.0</ele><time>2026-03-29T09:48:54.858Z</time></trkpt><trkpt lat="43.5694387" lon="11.2850367"><ele>422.0</ele><time>2026-03-29T09:48:55.853Z</time></trkpt><trkpt lat="43.5693595" lon="11.2851901"><ele>422.5</ele><time>2026-03-29T09:48:56.852Z</time></trkpt><trkpt lat="43.5693012" lon="11.2853638"><ele>423.0</ele><time>2026-03-29T09:48:57.854Z</time></trkpt><trkpt lat="43.5692688" lon="11.2855403"><ele>423.5</ele><time>2026-03-29T09:48:58.853Z</time></trkpt><trkpt lat="43.5692595" lon="11.2857082"><ele>424.0</ele><time>2026-03-29T09:48:59.853Z</time></trkpt><trkpt lat="43.5692683" lon="11.2858675"><ele>424.0</ele><time>2026-03-29T09:49:00.858Z</time></trkpt><trkpt lat="43.5692932" lon="11.2860261"><ele>424.0</ele><time>2026-03-29T09:49:01.89Z</time></trkpt><trkpt lat="43.5693232" lon="11.2861815"><ele>424.0</ele><time>2026-03-29T09:49:02.855Z</time></trkpt><trkpt lat="43.569345" lon="11.2863305"><ele>424.0</ele><time>2026-03-29T09:49:03.888Z</time></trkpt><trkpt lat="43.5693478" lon="11.2864685"><ele>424.0</ele><time>2026-03-29T09:49:04.859Z</time></trkpt><trkpt lat="43.5693291" lon="11.2865962"><ele>425.2</ele><time>2026-03-29T09:49:05.861Z</time></trkpt><trkpt lat="43.5692932" lon="11.2867074"><ele>426.4</ele><time>2026-03-29T09:49:06.853Z</time></trkpt><trkpt lat="43.5692224" lon="11.2868028"><ele>427.6</ele><time>2026-03-29T09:49:07.853Z</time></trkpt><trkpt lat="43.5691252" lon="11.2868838"><ele>428.8</ele><time>2026-03-29T09:49:08.856Z</time></trkpt><trkpt lat="43.5690025" lon="11.2869529"><ele>430.0</ele><time>2026-03-29T09:49:09.857Z</time></trkpt><trkpt lat="43.5688754" lon="11.2870135"><ele>430.0</ele><time>2026-03-29T09:49:10.866Z</time></trkpt><trkpt lat="43.5687522" lon="11.2870813"><ele>430.0</ele><time>2026-03-29T09:49:11.885Z</time></trkpt><trkpt lat="43.5686367" lon="11.2871724"><ele>430.0</ele><time>2026-03-29T09:49:12.855Z</time></trkpt><trkpt lat="43.5685286" lon="11.28731"><ele>430.0</ele><time>2026-03-29T09:49:13.859Z</time></trkpt><trkpt lat="43.568425" lon="11.2874862"><ele>432.75</ele><time>2026-03-29T09:49:14.858Z</time></trkpt><trkpt lat="43.5683303" lon="11.2876653"><ele>435.5</ele><time>2026-03-29T09:49:15.888Z</time></trkpt><trkpt lat="43.5682446" lon="11.2878306"><ele>438.25</ele><time>2026-03-29T09:49:16.883Z</time></trkpt><trkpt lat="43.5681654" lon="11.2879856"><ele>441.0</ele><time>2026-03-29T09:49:17.856Z</time></trkpt><trkpt lat="43.5680884" lon="11.2881386"><ele>442.5</ele><time>2026-03-29T09:49:18.859Z</time></trkpt><trkpt lat="43.5680113" lon="11.2882997"><ele>444.0</ele><time>2026-03-29T09:49:19.856Z</time></trkpt><trkpt lat="43.5679393" lon="11.2884579"><ele>445.5</ele><time>2026-03-29T09:49:20.857Z</time></trkpt><trkpt lat="43.5678801" lon="11.2886135"><ele>447.0</ele><time>2026-03-29T09:49:21.855Z</time></trkpt><trkpt lat="43.5678255" lon="11.2887627"><ele>447.0</ele><time>2026-03-29T09:49:22.856Z</time></trkpt><trkpt lat="43.5677669" lon="11.288912"><ele>447.0</ele><time>2026-03-29T09:49:23.856Z</time></trkpt><trkpt lat="43.5677005" lon="11.2890539"><ele>447.0</ele><time>2026-03-29T09:49:24.854Z</time></trkpt><trkpt lat="43.5676204" lon="11.2891917"><ele>447.0</ele><time>2026-03-29T09:49:25.885Z</time></trkpt><trkpt lat="43.5675244" lon="11.2893233"><ele>447.0</ele><time>2026-03-29T09:49:26.856Z</time></trkpt><trkpt lat="43.5674325" lon="11.2894458"><ele>447.00000000000006</ele><time>2026-03-29T09:49:27.86Z</time></trkpt><trkpt lat="43.5673506" lon="11.2895614"><ele>447.00000000000006</ele><time>2026-03-29T09:49:28.857Z</time></trkpt><trkpt lat="43.5672827" lon="11.2896742"><ele>447.0</ele><time>2026-03-29T09:49:29.854Z</time></trkpt><trkpt lat="43.5672215" lon="11.2897795"><ele>447.0</ele><time>2026-03-29T09:49:30.859Z</time></trkpt><trkpt lat="43.5671423" lon="11.2898657"><ele>447.0</ele><time>2026-03-29T09:49:31.856Z</time></trkpt><trkpt lat="43.5670456" lon="11.2899294"><ele>447.0</ele><time>2026-03-29T09:49:32.865Z</time></trkpt><trkpt lat="43.5669331" lon="11.2899615"><ele>447.0</ele><time>2026-03-29T09:49:33.884Z</time></trkpt><trkpt lat="43.5668046" lon="11.2899685"><ele>447.0</ele><time>2026-03-29T09:49:34.856Z</time></trkpt><trkpt lat="43.5666813" lon="11.2899617"><ele>448.40000000000003</ele><time>2026-03-29T09:49:35.852Z</time></trkpt><trkpt lat="43.5665675" lon="11.2899608"><ele>449.80000000000007</ele><time>2026-03-29T09:49:36.856Z</time></trkpt><trkpt lat="43.5664747" lon="11.2899729"><ele>451.2</ele><time>2026-03-29T09:49:37.856Z</time></trkpt><trkpt lat="43.5664026" lon="11.2899709"><ele>452.6</ele><time>2026-03-29T09:49:38.861Z</time></trkpt><trkpt lat="43.5663057" lon="11.2899013"><ele>454.0</ele><time>2026-03-29T09:49:40.885Z</time></trkpt><trkpt lat="43.5662644" lon="11.2898324"><ele>454.0</ele><time>2026-03-29T09:49:41.889Z</time></trkpt><trkpt lat="43.5662147" lon="11.2897392"><ele>454.0</ele><time>2026-03-29T09:49:42.89Z</time></trkpt><trkpt lat="43.5661515" lon="11.2896383"><ele>454.0</ele><time>2026-03-29T09:49:43.863Z</time></trkpt><trkpt lat="43.5660737" lon="11.2895509"><ele>454.0</ele><time>2026-03-29T09:49:44.864Z</time></trkpt><trkpt lat="43.5659818" lon="11.2894844"><ele>454.0</ele><time>2026-03-29T09:49:45.888Z</time></trkpt><trkpt lat="43.5658732" lon="11.2894345"><ele>454.0</ele><time>2026-03-29T09:49:46.864Z</time></trkpt><trkpt lat="43.5657585" lon="11.2893816"><ele>454.0</ele><time>2026-03-29T09:49:47.855Z</time></trkpt><trkpt lat="43.5656489" lon="11.2893277"><ele>454.0</ele><time>2026-03-29T09:49:48.858Z</time></trkpt><trkpt lat="43.5655509" lon="11.2892702"><ele>454.0</ele><time>2026-03-29T09:49:49.863Z</time></trkpt><trkpt lat="43.5654509" lon="11.2892141"><ele>454.79999999999995</ele><time>2026-03-29T09:49:50.861Z</time></trkpt><trkpt lat="43.5653475" lon="11.2891675"><ele>455.59999999999997</ele><time>2026-03-29T09:49:51.883Z</time></trkpt><trkpt lat="43.5652518" lon="11.2891217"><ele>456.4</ele><time>2026-03-29T09:49:52.856Z</time></trkpt><trkpt lat="43.5651628" lon="11.2890662"><ele>457.2</ele><time>2026-03-29T09:49:53.856Z</time></trkpt><trkpt lat="43.5650812" lon="11.2889993"><ele>458.0</ele><time>2026-03-29T09:49:54.858Z</time></trkpt><trkpt lat="43.5650002" lon="11.2889247"><ele>456.2</ele><time>2026-03-29T09:49:55.853Z</time></trkpt><trkpt lat="43.5649138" lon="11.288857"><ele>454.4</ele><time>2026-03-29T09:49:56.858Z</time></trkpt><trkpt lat="43.5648181" lon="11.2887969"><ele>452.59999999999997</ele><time>2026-03-29T09:49:57.863Z</time></trkpt><trkpt lat="43.5647252" lon="11.2887343"><ele>450.79999999999995</ele><time>2026-03-29T09:49:58.885Z</time></trkpt><trkpt lat="43.564629" lon="11.2886673"><ele>449.0</ele><time>2026-03-29T09:49:59.856Z</time></trkpt><trkpt lat="43.564547" lon="11.2885958"><ele>449.5</ele><time>2026-03-29T09:50:00.859Z</time></trkpt><trkpt lat="43.5644673" lon="11.2885027"><ele>450.0</ele><time>2026-03-29T09:50:01.888Z</time></trkpt><trkpt lat="43.5643937" lon="11.2883858"><ele>450.5</ele><time>2026-03-29T09:50:02.861Z</time></trkpt><trkpt lat="43.5643174" lon="11.2882458"><ele>451.0</ele><time>2026-03-29T09:50:03.857Z</time></trkpt><trkpt lat="43.5642374" lon="11.2880941"><ele>449.75</ele><time>2026-03-29T09:50:04.86Z</time></trkpt><trkpt lat="43.5641562" lon="11.2879502"><ele>448.5</ele><time>2026-03-29T09:50:05.854Z</time></trkpt><trkpt lat="43.5640702" lon="11.2878218"><ele>447.25</ele><time>2026-03-29T09:50:06.854Z</time></trkpt><trkpt lat="43.5639871" lon="11.2877092"><ele>446.0</ele><time>2026-03-29T09:50:07.889Z</time></trkpt><trkpt lat="43.5639088" lon="11.287599"><ele>446.0</ele><time>2026-03-29T09:50:08.853Z</time></trkpt><trkpt lat="43.5638303" lon="11.2874834"><ele>446.0</ele><time>2026-03-29T09:50:09.855Z</time></trkpt><trkpt lat="43.5637477" lon="11.2873884"><ele>446.0</ele><time>2026-03-29T09:50:10.86Z</time></trkpt><trkpt lat="43.563654" lon="11.287304"><ele>446.0</ele><time>2026-03-29T09:50:11.866Z</time></trkpt><trkpt lat="43.5635536" lon="11.2872446"><ele>446.0</ele><time>2026-03-29T09:50:12.855Z</time></trkpt><trkpt lat="43.5634483" lon="11.2872116"><ele>445.4</ele><time>2026-03-29T09:50:13.856Z</time></trkpt><trkpt lat="43.5633416" lon="11.2872019"><ele>444.8</ele><time>2026-03-29T09:50:14.854Z</time></trkpt><trkpt lat="43.5632437" lon="11.2871962"><ele>444.19999999999993</ele><time>2026-03-29T09:50:15.858Z</time></trkpt><trkpt lat="43.5631588" lon="11.2871845"><ele>443.59999999999997</ele><time>2026-03-29T09:50:16.86Z</time></trkpt><trkpt lat="43.5630892" lon="11.287173"><ele>443.0</ele><time>2026-03-29T09:50:17.852Z</time></trkpt><trkpt lat="43.5629729" lon="11.2871813"><ele>443.0</ele><time>2026-03-29T09:50:19.859Z</time></trkpt><trkpt lat="43.5628654" lon="11.2872437"><ele>442.99999999999994</ele><time>2026-03-29T09:50:21.86Z</time></trkpt><trkpt lat="43.562765" lon="11.2873403"><ele>442.99999999999994</ele><time>2026-03-29T09:50:23.87Z</time></trkpt><trkpt lat="43.5627113" lon="11.2873971"><ele>443.0</ele><time>2026-03-29T09:50:24.866Z</time></trkpt><trkpt lat="43.5626126" lon="11.2874926"><ele>443.0</ele><time>2026-03-29T09:50:26.889Z</time></trkpt><trkpt lat="43.5625001" lon="11.287542"><ele>443.79999999999995</ele><time>2026-03-29T09:50:28.859Z</time></trkpt><trkpt lat="43.5623836" lon="11.2875846"><ele>444.59999999999997</ele><time>2026-03-29T09:50:30.856Z</time></trkpt><trkpt lat="43.5622671" lon="11.2876309"><ele>445.40000000000003</ele><time>2026-03-29T09:50:32.863Z</time></trkpt><trkpt lat="43.5621698" lon="11.2876776"><ele>446.20000000000005</ele><time>2026-03-29T09:50:34.884Z</time></trkpt><trkpt lat="43.5620986" lon="11.2877179"><ele>447.0</ele><time>2026-03-29T09:50:36.854Z</time></trkpt><trkpt lat="43.5620389" lon="11.2877723"><ele>447.0</ele><time>2026-03-29T09:50:39.863Z</time></trkpt><trkpt lat="43.5620203" lon="11.2878922"><ele>447.00000000000006</ele><time>2026-03-29T09:50:42.889Z</time></trkpt><trkpt lat="43.5620364" lon="11.2879773"><ele>447.00000000000006</ele><time>2026-03-29T09:50:44.856Z</time></trkpt><trkpt lat="43.5620669" lon="11.288085"><ele>447.0</ele><time>2026-03-29T09:50:47.859Z</time></trkpt><trkpt lat="43.5621331" lon="11.2882118"><ele>447.0</ele><time>2026-03-29T09:50:58.883Z</time></trkpt><trkpt lat="43.5621986" lon="11.2883928"><ele>445.5</ele><time>2026-03-29T09:51:01.854Z</time></trkpt><trkpt lat="43.5622084" lon="11.2884873"><ele>444.0</ele><time>2026-03-29T09:51:02.882Z</time></trkpt><trkpt lat="43.5622059" lon="11.2886041"><ele>442.5</ele><time>2026-03-29T09:51:03.859Z</time></trkpt><trkpt lat="43.5621956" lon="11.2887269"><ele>441.0</ele><time>2026-03-29T09:51:04.854Z</time></trkpt><trkpt lat="43.5621788" lon="11.2888568"><ele>439.5</ele><time>2026-03-29T09:51:05.858Z</time></trkpt><trkpt lat="43.5621619" lon="11.2889962"><ele>438.0</ele><time>2026-03-29T09:51:06.853Z</time></trkpt><trkpt lat="43.5621388" lon="11.2891267"><ele>437.6666666666667</ele><time>2026-03-29T09:51:07.857Z</time></trkpt><trkpt lat="43.5621076" lon="11.2892379"><ele>437.33333333333337</ele><time>2026-03-29T09:51:08.885Z</time></trkpt><trkpt lat="43.5620713" lon="11.2893401"><ele>437.0</ele><time>2026-03-29T09:51:09.854Z</time></trkpt><trkpt lat="43.5620262" lon="11.2894224"><ele>436.6666666666667</ele><time>2026-03-29T09:51:10.862Z</time></trkpt><trkpt lat="43.5619648" lon="11.2894797"><ele>436.33333333333337</ele><time>2026-03-29T09:51:11.884Z</time></trkpt><trkpt lat="43.5618975" lon="11.2895128"><ele>436.0</ele><time>2026-03-29T09:51:12.885Z</time></trkpt><trkpt lat="43.5618268" lon="11.2895495"><ele>436.6</ele><time>2026-03-29T09:51:13.857Z</time></trkpt><trkpt lat="43.5617359" lon="11.2895951"><ele>437.20000000000005</ele><time>2026-03-29T09:51:15.857Z</time></trkpt><trkpt lat="43.5616192" lon="11.2897158"><ele>437.79999999999995</ele><time>2026-03-29T09:51:25.856Z</time></trkpt><trkpt lat="43.5615481" lon="11.2897738"><ele>438.4</ele><time>2026-03-29T09:51:27.883Z</time></trkpt><trkpt lat="43.561495" lon="11.2898213"><ele>439.0</ele><time>2026-03-29T09:51:29.858Z</time></trkpt><trkpt lat="43.5614409" lon="11.2899071"><ele>439.0</ele><time>2026-03-29T09:51:31.857Z</time></trkpt><trkpt lat="43.5613615" lon="11.2900567"><ele>439.0</ele><time>2026-03-29T09:51:33.863Z</time></trkpt><trkpt lat="43.5613165" lon="11.2901364"><ele>439.0</ele><time>2026-03-29T09:51:34.855Z</time></trkpt><trkpt lat="43.561269" lon="11.2902196"><ele>439.0</ele><time>2026-03-29T09:51:35.858Z</time></trkpt><trkpt lat="43.5612168" lon="11.2903076"><ele>439.0</ele><time>2026-03-29T09:51:36.853Z</time></trkpt><trkpt lat="43.5611646" lon="11.2904016"><ele>439.6</ele><time>2026-03-29T09:51:37.859Z</time></trkpt><trkpt lat="43.5611152" lon="11.2904978"><ele>440.2</ele><time>2026-03-29T09:51:38.897Z</time></trkpt><trkpt lat="43.5610673" lon="11.2905964"><ele>440.80000000000007</ele><time>2026-03-29T09:51:39.855Z</time></trkpt><trkpt lat="43.5610127" lon="11.2907008"><ele>441.40000000000003</ele><time>2026-03-29T09:51:40.86Z</time></trkpt><trkpt lat="43.5609587" lon="11.2908087"><ele>442.0</ele><time>2026-03-29T09:51:41.888Z</time></trkpt><trkpt lat="43.5609076" lon="11.2909148"><ele>442.00000000000006</ele><time>2026-03-29T09:51:42.886Z</time></trkpt><trkpt lat="43.5608564" lon="11.291019"><ele>442.0</ele><time>2026-03-29T09:51:43.854Z</time></trkpt><trkpt lat="43.5608081" lon="11.2911217"><ele>442.0</ele><time>2026-03-29T09:51:44.859Z</time></trkpt><trkpt lat="43.5607644" lon="11.2912146"><ele>442.0</ele><time>2026-03-29T09:51:45.861Z</time></trkpt><trkpt lat="43.5607281" lon="11.291289"><ele>442.00000000000006</ele><time>2026-03-29T09:51:46.862Z</time></trkpt><trkpt lat="43.560663" lon="11.2914023"><ele>442.0</ele><time>2026-03-29T09:51:48.862Z</time></trkpt><trkpt lat="43.5605997" lon="11.2915219"><ele>442.40000000000003</ele><time>2026-03-29T09:51:50.854Z</time></trkpt><trkpt lat="43.5605307" lon="11.2916328"><ele>442.80000000000007</ele><time>2026-03-29T09:51:52.855Z</time></trkpt><trkpt lat="43.560459" lon="11.291739"><ele>443.2</ele><time>2026-03-29T09:51:54.872Z</time></trkpt><trkpt lat="43.5604036" lon="11.2918896"><ele>443.6</ele><time>2026-03-29T09:51:56.884Z</time></trkpt><trkpt lat="43.5603773" lon="11.2919785"><ele>444.0</ele><time>2026-03-29T09:51:57.861Z</time></trkpt><trkpt lat="43.5603489" lon="11.292065"><ele>444.0</ele><time>2026-03-29T09:51:58.861Z</time></trkpt><trkpt lat="43.5602872" lon="11.2921887"><ele>444.0</ele><time>2026-03-29T09:52:00.859Z</time></trkpt><trkpt lat="43.560214" lon="11.2922531"><ele>444.0</ele><time>2026-03-29T09:52:02.863Z</time></trkpt><trkpt lat="43.5601631" lon="11.2923072"><ele>444.0</ele><time>2026-03-29T09:52:09.859Z</time></trkpt><trkpt lat="43.5601118" lon="11.2923579"><ele>444.0</ele><time>2026-03-29T09:52:11.858Z</time></trkpt><trkpt lat="43.5600545" lon="11.2924038"><ele>444.0</ele><time>2026-03-29T09:52:23.859Z</time></trkpt><trkpt lat="43.5599908" lon="11.2924256"><ele>444.0</ele><time>2026-03-29T09:52:27.86Z</time></trkpt><trkpt lat="43.5600807" lon="11.2924497"><ele>444.0</ele><time>2026-03-29T09:52:32.855Z</time></trkpt><trkpt lat="43.560137" lon="11.2923332"><ele>444.0</ele><time>2026-03-29T09:52:34.862Z</time></trkpt><trkpt lat="43.5601864" lon="11.2922394"><ele>444.0</ele><time>2026-03-29T09:52:36.857Z</time></trkpt><trkpt lat="43.5602746" lon="11.292169"><ele>444.0</ele><time>2026-03-29T09:52:38.88Z</time></trkpt><trkpt lat="43.5603667" lon="11.2920601"><ele>445.5</ele><time>2026-03-29T09:52:40.859Z</time></trkpt><trkpt lat="43.5604037" lon="11.2919867"><ele>447.0</ele><time>2026-03-29T09:52:41.859Z</time></trkpt><trkpt lat="43.5604317" lon="11.2919064"><ele>448.5</ele><time>2026-03-29T09:52:42.853Z</time></trkpt><trkpt lat="43.5604709" lon="11.2917602"><ele>450.0</ele><time>2026-03-29T09:52:44.893Z</time></trkpt><trkpt lat="43.5605328" lon="11.2916548"><ele>451.5</ele><time>2026-03-29T09:52:46.885Z</time></trkpt><trkpt lat="43.5606073" lon="11.291598"><ele>453.0</ele><time>2026-03-29T09:53:12.861Z</time></trkpt><trkpt lat="43.5606734" lon="11.2914873"><ele>451.1666666666667</ele><time>2026-03-29T09:53:14.855Z</time></trkpt><trkpt lat="43.5607162" lon="11.2914017"><ele>449.33333333333337</ele><time>2026-03-29T09:53:20.857Z</time></trkpt><trkpt lat="43.5607731" lon="11.2912864"><ele>447.5</ele><time>2026-03-29T09:53:22.857Z</time></trkpt><trkpt lat="43.5608359" lon="11.2911463"><ele>445.6666666666667</ele><time>2026-03-29T09:53:24.858Z</time></trkpt><trkpt lat="43.5608702" lon="11.2910669"><ele>443.83333333333337</ele><time>2026-03-29T09:53:25.859Z</time></trkpt><trkpt lat="43.560906" lon="11.2909859"><ele>442.0</ele><time>2026-03-29T09:53:26.856Z</time></trkpt><trkpt lat="43.5609422" lon="11.2909053"><ele>442.00000000000006</ele><time>2026-03-29T09:53:27.894Z</time></trkpt><trkpt lat="43.5609816" lon="11.2908199"><ele>442.0</ele><time>2026-03-29T09:53:28.853Z</time></trkpt><trkpt lat="43.5610245" lon="11.2907356"><ele>442.0</ele><time>2026-03-29T09:53:29.859Z</time></trkpt><trkpt lat="43.561068" lon="11.2906506"><ele>442.0</ele><time>2026-03-29T09:53:30.868Z</time></trkpt><trkpt lat="43.5611104" lon="11.2905667"><ele>442.0</ele><time>2026-03-29T09:53:31.885Z</time></trkpt><trkpt lat="43.5611491" lon="11.2904844"><ele>442.00000000000006</ele><time>2026-03-29T09:53:32.857Z</time></trkpt><trkpt lat="43.5611878" lon="11.2904032"><ele>442.0</ele><time>2026-03-29T09:53:33.858Z</time></trkpt><trkpt lat="43.5612266" lon="11.2903233"><ele>441.50000000000006</ele><time>2026-03-29T09:53:34.86Z</time></trkpt><trkpt lat="43.5612655" lon="11.2902441"><ele>441.0</ele><time>2026-03-29T09:53:35.858Z</time></trkpt><trkpt lat="43.5613054" lon="11.290165"><ele>440.5</ele><time>2026-03-29T09:53:36.871Z</time></trkpt><trkpt lat="43.5613461" lon="11.2900856"><ele>440.0</ele><time>2026-03-29T09:53:37.855Z</time></trkpt><trkpt lat="43.5613844" lon="11.2900086"><ele>439.50000000000006</ele><time>2026-03-29T09:53:38.887Z</time></trkpt><trkpt lat="43.5614202" lon="11.289936"><ele>439.0</ele><time>2026-03-29T09:53:39.856Z</time></trkpt><trkpt lat="43.561497" lon="11.2898225"><ele>437.2</ele><time>2026-03-29T09:53:41.884Z</time></trkpt><trkpt lat="43.5615776" lon="11.2897533"><ele>435.4</ele><time>2026-03-29T09:53:43.891Z</time></trkpt><trkpt lat="43.5616813" lon="11.2896773"><ele>433.6</ele><time>2026-03-29T09:53:45.86Z</time></trkpt><trkpt lat="43.5617681" lon="11.2895855"><ele>431.8</ele><time>2026-03-29T09:53:47.858Z</time></trkpt><trkpt lat="43.5618459" lon="11.2895156"><ele>430.0</ele><time>2026-03-29T09:53:49.883Z</time></trkpt><trkpt lat="43.5619206" lon="11.2894811"><ele>430.00000000000006</ele><time>2026-03-29T09:53:51.858Z</time></trkpt><trkpt lat="43.5619961" lon="11.2894465"><ele>430.0</ele><time>2026-03-29T09:53:53.854Z</time></trkpt><trkpt lat="43.5620492" lon="11.2893796"><ele>430.0</ele><time>2026-03-29T09:53:56.857Z</time></trkpt><trkpt lat="43.5620873" lon="11.2892648"><ele>430.0</ele><time>2026-03-29T09:54:02.858Z</time></trkpt><trkpt lat="43.5621127" lon="11.2891744"><ele>430.00000000000006</ele><time>2026-03-29T09:54:03.888Z</time></trkpt><trkpt lat="43.5621371" lon="11.2890721"><ele>430.0</ele><time>2026-03-29T09:54:04.86Z</time></trkpt><trkpt lat="43.5621532" lon="11.2889568"><ele>431.33333333333337</ele><time>2026-03-29T09:54:05.857Z</time></trkpt><trkpt lat="43.5621527" lon="11.2888301"><ele>432.6666666666667</ele><time>2026-03-29T09:54:06.854Z</time></trkpt><trkpt lat="43.5621578" lon="11.2887094"><ele>434.0</ele><time>2026-03-29T09:54:07.854Z</time></trkpt><trkpt lat="43.562163" lon="11.2885846"><ele>435.33333333333337</ele><time>2026-03-29T09:54:08.857Z</time></trkpt><trkpt lat="43.5621723" lon="11.2884711"><ele>436.6666666666667</ele><time>2026-03-29T09:54:09.855Z</time></trkpt><trkpt lat="43.5621714" lon="11.288369"><ele>438.0</ele><time>2026-03-29T09:54:10.862Z</time></trkpt><trkpt lat="43.5621514" lon="11.2882752"><ele>438.0</ele><time>2026-03-29T09:54:11.855Z</time></trkpt><trkpt lat="43.5621157" lon="11.2881967"><ele>437.99999999999994</ele><time>2026-03-29T09:54:12.855Z</time></trkpt><trkpt lat="43.5620456" lon="11.2880845"><ele>437.99999999999994</ele><time>2026-03-29T09:54:14.857Z</time></trkpt><trkpt lat="43.562012" lon="11.28794"><ele>438.0</ele><time>2026-03-29T09:54:16.855Z</time></trkpt><trkpt lat="43.5620095" lon="11.2877818"><ele>438.0</ele><time>2026-03-29T09:54:18.859Z</time></trkpt><trkpt lat="43.562044" lon="11.2876873"><ele>439.79999999999995</ele><time>2026-03-29T09:54:20.858Z</time></trkpt><trkpt lat="43.5621245" lon="11.2876546"><ele>441.59999999999997</ele><time>2026-03-29T09:54:22.858Z</time></trkpt><trkpt lat="43.5622457" lon="11.2876167"><ele>443.40000000000003</ele><time>2026-03-29T09:54:24.853Z</time></trkpt><trkpt lat="43.5623214" lon="11.2875901"><ele>445.20000000000005</ele><time>2026-03-29T09:54:25.887Z</time></trkpt><trkpt lat="43.5624025" lon="11.2875592"><ele>447.0</ele><time>2026-03-29T09:54:26.859Z</time></trkpt><trkpt lat="43.5624854" lon="11.2875294"><ele>447.0</ele><time>2026-03-29T09:54:27.856Z</time></trkpt><trkpt lat="43.562568" lon="11.2875025"><ele>447.0</ele><time>2026-03-29T09:54:28.858Z</time></trkpt><trkpt lat="43.5626465" lon="11.2874718"><ele>447.0</ele><time>2026-03-29T09:54:29.865Z</time></trkpt><trkpt lat="43.5627219" lon="11.287431"><ele>447.0</ele><time>2026-03-29T09:54:30.871Z</time></trkpt><trkpt lat="43.5627931" lon="11.2873781"><ele>447.0</ele><time>2026-03-29T09:54:31.855Z</time></trkpt><trkpt lat="43.5628554" lon="11.2873181"><ele>447.0</ele><time>2026-03-29T09:54:32.857Z</time></trkpt><trkpt lat="43.562905" lon="11.2872572"><ele>446.8333333333333</ele><time>2026-03-29T09:54:33.857Z</time></trkpt><trkpt lat="43.5629748" lon="11.2871818"><ele>446.66666666666663</ele><time>2026-03-29T09:54:35.854Z</time></trkpt><trkpt lat="43.5630391" lon="11.2871886"><ele>446.5</ele><time>2026-03-29T09:54:38.856Z</time></trkpt><trkpt lat="43.563123" lon="11.2872086"><ele>446.3333333333333</ele><time>2026-03-29T09:54:40.865Z</time></trkpt><trkpt lat="43.5631971" lon="11.287231"><ele>446.16666666666663</ele><time>2026-03-29T09:54:41.856Z</time></trkpt><trkpt lat="43.5632995" lon="11.2872587"><ele>446.0</ele><time>2026-03-29T09:54:42.862Z</time></trkpt><trkpt lat="43.5634131" lon="11.2872807"><ele>446.0</ele><time>2026-03-29T09:54:43.854Z</time></trkpt><trkpt lat="43.5635225" lon="11.2873034"><ele>446.0</ele><time>2026-03-29T09:54:44.858Z</time></trkpt><trkpt lat="43.5636237" lon="11.2873305"><ele>446.0</ele><time>2026-03-29T09:54:45.86Z</time></trkpt><trkpt lat="43.5637185" lon="11.2873703"><ele>446.0</ele><time>2026-03-29T09:54:46.865Z</time></trkpt><trkpt lat="43.5638079" lon="11.2874222"><ele>446.0</ele><time>2026-03-29T09:54:47.858Z</time></trkpt><trkpt lat="43.5638882" lon="11.2874917"><ele>446.0</ele><time>2026-03-29T09:54:48.854Z</time></trkpt><trkpt lat="43.563966" lon="11.2875792"><ele>446.0</ele><time>2026-03-29T09:54:49.854Z</time></trkpt><trkpt lat="43.5640407" lon="11.2876818"><ele>446.0</ele><time>2026-03-29T09:54:50.89Z</time></trkpt><trkpt lat="43.5641166" lon="11.2877943"><ele>446.0</ele><time>2026-03-29T09:54:51.855Z</time></trkpt><trkpt lat="43.5641894" lon="11.2879049"><ele>446.0</ele><time>2026-03-29T09:54:52.861Z</time></trkpt><trkpt lat="43.5642588" lon="11.2880217"><ele>446.6</ele><time>2026-03-29T09:54:53.852Z</time></trkpt><trkpt lat="43.5643306" lon="11.2881461"><ele>447.20000000000005</ele><time>2026-03-29T09:54:54.853Z</time></trkpt><trkpt lat="43.5644024" lon="11.2882696"><ele>447.79999999999995</ele><time>2026-03-29T09:54:55.855Z</time></trkpt><trkpt lat="43.5644705" lon="11.2883849"><ele>448.4</ele><time>2026-03-29T09:54:56.857Z</time></trkpt><trkpt lat="43.5645207" lon="11.2884797"><ele>449.0</ele><time>2026-03-29T09:54:57.855Z</time></trkpt><trkpt lat="43.564567" lon="11.2885745"><ele>448.99999999999994</ele><time>2026-03-29T09:54:59.856Z</time></trkpt><trkpt lat="43.5646051" lon="11.2886764"><ele>449.0</ele><time>2026-03-29T09:55:01.859Z</time></trkpt><trkpt lat="43.5646359" lon="11.2887542"><ele>449.0</ele><time>2026-03-29T09:55:02.861Z</time></trkpt><trkpt lat="43.5646663" lon="11.288857"><ele>449.0</ele><time>2026-03-29T09:55:03.856Z</time></trkpt><trkpt lat="43.5647028" lon="11.2889762"><ele>448.99999999999994</ele><time>2026-03-29T09:55:04.853Z</time></trkpt><trkpt lat="43.5647419" lon="11.2891012"><ele>449.0</ele><time>2026-03-29T09:55:05.853Z</time></trkpt><trkpt lat="43.5647849" lon="11.289217"><ele>450.3333333333333</ele><time>2026-03-29T09:55:06.887Z</time></trkpt><trkpt lat="43.5648271" lon="11.2893274"><ele>451.66666666666663</ele><time>2026-03-29T09:55:07.854Z</time></trkpt><trkpt lat="43.5648675" lon="11.2894316"><ele>453.0</ele><time>2026-03-29T09:55:08.861Z</time></trkpt><trkpt lat="43.5649018" lon="11.289537"><ele>454.33333333333337</ele><time>2026-03-29T09:55:09.857Z</time></trkpt><trkpt lat="43.5649344" lon="11.2896422"><ele>455.6666666666667</ele><time>2026-03-29T09:55:10.864Z</time></trkpt><trkpt lat="43.5649695" lon="11.2897398"><ele>457.0</ele><time>2026-03-29T09:55:11.891Z</time></trkpt><trkpt lat="43.5650036" lon="11.2898261"><ele>457.00000000000006</ele><time>2026-03-29T09:55:12.882Z</time></trkpt><trkpt lat="43.5650647" lon="11.2899582"><ele>457.0</ele><time>2026-03-29T09:55:14.858Z</time></trkpt><trkpt lat="43.5651094" lon="11.2900728"><ele>457.0</ele><time>2026-03-29T09:55:16.861Z</time></trkpt><trkpt lat="43.5651381" lon="11.2901589"><ele>457.0</ele><time>2026-03-29T09:55:18.855Z</time></trkpt><trkpt lat="43.5651491" lon="11.2902684"><ele>457.00000000000006</ele><time>2026-03-29T09:55:37.893Z</time></trkpt><trkpt lat="43.5651055" lon="11.290338"><ele>457.0</ele><time>2026-03-29T09:55:38.895Z</time></trkpt><trkpt lat="43.5650321" lon="11.290431"><ele>457.0</ele><time>2026-03-29T09:55:39.897Z</time></trkpt><trkpt lat="43.5649579" lon="11.2905095"><ele>457.00000000000006</ele><time>2026-03-29T09:55:40.898Z</time></trkpt><trkpt lat="43.5648807" lon="11.2905813"><ele>457.00000000000006</ele><time>2026-03-29T09:55:41.859Z</time></trkpt><trkpt lat="43.5647971" lon="11.2906591"><ele>457.0</ele><time>2026-03-29T09:55:42.871Z</time></trkpt><trkpt lat="43.5647106" lon="11.2907304"><ele>457.0</ele><time>2026-03-29T09:55:43.864Z</time></trkpt><trkpt lat="43.5646216" lon="11.2908058"><ele>456.83333333333337</ele><time>2026-03-29T09:55:44.874Z</time></trkpt><trkpt lat="43.5645355" lon="11.290874"><ele>456.6666666666667</ele><time>2026-03-29T09:55:45.866Z</time></trkpt><trkpt lat="43.5644533" lon="11.2909368"><ele>456.5</ele><time>2026-03-29T09:55:46.857Z</time></trkpt><trkpt lat="43.5643782" lon="11.2909992"><ele>456.33333333333337</ele><time>2026-03-29T09:55:47.863Z</time></trkpt><trkpt lat="43.5643152" lon="11.2910661"><ele>456.1666666666667</ele><time>2026-03-29T09:55:48.87Z</time></trkpt><trkpt lat="43.5642677" lon="11.291149"><ele>456.0</ele><time>2026-03-29T09:55:49.902Z</time></trkpt><trkpt lat="43.5642465" lon="11.2912485"><ele>456.0</ele><time>2026-03-29T09:55:50.863Z</time></trkpt><trkpt lat="43.5642548" lon="11.2913474"><ele>456.0</ele><time>2026-03-29T09:55:51.89Z</time></trkpt><trkpt lat="43.5642933" lon="11.2914375"><ele>456.0</ele><time>2026-03-29T09:55:52.858Z</time></trkpt><trkpt lat="43.5643311" lon="11.2915366"><ele>456.0</ele><time>2026-03-29T09:55:53.86Z</time></trkpt><trkpt lat="43.5643499" lon="11.2916442"><ele>456.0</ele><time>2026-03-29T09:55:54.889Z</time></trkpt><trkpt lat="43.5643343" lon="11.2917496"><ele>456.0</ele><time>2026-03-29T09:55:55.858Z</time></trkpt><trkpt lat="43.5642756" lon="11.2918349"><ele>457.4</ele><time>2026-03-29T09:55:56.86Z</time></trkpt><trkpt lat="43.5641759" lon="11.2918959"><ele>458.8</ele><time>2026-03-29T09:55:57.868Z</time></trkpt><trkpt lat="43.5640693" lon="11.2919347"><ele>460.19999999999993</ele><time>2026-03-29T09:55:58.858Z</time></trkpt><trkpt lat="43.5639673" lon="11.2919631"><ele>461.59999999999997</ele><time>2026-03-29T09:55:59.883Z</time></trkpt><trkpt lat="43.5638774" lon="11.2919893"><ele>463.0</ele><time>2026-03-29T09:56:00.858Z</time></trkpt><trkpt lat="43.5637871" lon="11.2920278"><ele>463.4</ele><time>2026-03-29T09:56:01.887Z</time></trkpt><trkpt lat="43.5636926" lon="11.2920745"><ele>463.79999999999995</ele><time>2026-03-29T09:56:02.885Z</time></trkpt><trkpt lat="43.5635906" lon="11.2921292"><ele>464.2</ele><time>2026-03-29T09:56:03.851Z</time></trkpt><trkpt lat="43.5634858" lon="11.2921973"><ele>464.6</ele><time>2026-03-29T09:56:04.857Z</time></trkpt><trkpt lat="43.5633823" lon="11.2922767"><ele>465.0</ele><time>2026-03-29T09:56:05.855Z</time></trkpt><trkpt lat="43.563281" lon="11.2923672"><ele>467.2</ele><time>2026-03-29T09:56:06.863Z</time></trkpt><trkpt lat="43.5631898" lon="11.2924662"><ele>469.4</ele><time>2026-03-29T09:56:07.853Z</time></trkpt><trkpt lat="43.5631134" lon="11.2925671"><ele>471.6</ele><time>2026-03-29T09:56:08.864Z</time></trkpt><trkpt lat="43.5630502" lon="11.292663"><ele>473.8</ele><time>2026-03-29T09:56:09.856Z</time></trkpt><trkpt lat="43.5629968" lon="11.2927527"><ele>476.0</ele><time>2026-03-29T09:56:10.854Z</time></trkpt><trkpt lat="43.5629458" lon="11.292843"><ele>476.0</ele><time>2026-03-29T09:56:11.89Z</time></trkpt><trkpt lat="43.562895" lon="11.2929361"><ele>476.0</ele><time>2026-03-29T09:56:12.858Z</time></trkpt><trkpt lat="43.5628398" lon="11.2930436"><ele>476.0</ele><time>2026-03-29T09:56:13.856Z</time></trkpt><trkpt lat="43.5627787" lon="11.2931754"><ele>476.0</ele><time>2026-03-29T09:56:14.855Z</time></trkpt><trkpt lat="43.5627132" lon="11.2933334"><ele>476.0</ele><time>2026-03-29T09:56:15.858Z</time></trkpt><trkpt lat="43.5626495" lon="11.2935118"><ele>480.0</ele><time>2026-03-29T09:56:16.884Z</time></trkpt><trkpt lat="43.5625821" lon="11.2937108"><ele>484.0</ele><time>2026-03-29T09:56:17.858Z</time></trkpt><trkpt lat="43.5625083" lon="11.2939307"><ele>488.0</ele><time>2026-03-29T09:56:18.86Z</time></trkpt><trkpt lat="43.5624334" lon="11.294161"><ele>489.3333333333333</ele><time>2026-03-29T09:56:19.887Z</time></trkpt><trkpt lat="43.5623704" lon="11.2943827"><ele>490.66666666666663</ele><time>2026-03-29T09:56:20.863Z</time></trkpt><trkpt lat="43.5623226" lon="11.2945938"><ele>492.0</ele><time>2026-03-29T09:56:21.859Z</time></trkpt><trkpt lat="43.5622923" lon="11.2947889"><ele>492.6</ele><time>2026-03-29T09:56:22.855Z</time></trkpt><trkpt lat="43.5622718" lon="11.2949627"><ele>493.20000000000005</ele><time>2026-03-29T09:56:23.862Z</time></trkpt><trkpt lat="43.562261" lon="11.2951158"><ele>493.8</ele><time>2026-03-29T09:56:24.855Z</time></trkpt><trkpt lat="43.5622428" lon="11.295246"><ele>494.4</ele><time>2026-03-29T09:56:25.855Z</time></trkpt><trkpt lat="43.5621987" lon="11.2953511"><ele>495.0</ele><time>2026-03-29T09:56:26.858Z</time></trkpt><trkpt lat="43.5621141" lon="11.2954317"><ele>495.0</ele><time>2026-03-29T09:56:27.852Z</time></trkpt><trkpt lat="43.5619992" lon="11.29548"><ele>495.0</ele><time>2026-03-29T09:56:28.854Z</time></trkpt><trkpt lat="43.5618758" lon="11.2955186"><ele>495.0</ele><time>2026-03-29T09:56:29.864Z</time></trkpt><trkpt lat="43.5617535" lon="11.295547"><ele>495.0</ele><time>2026-03-29T09:56:30.889Z</time></trkpt><trkpt lat="43.5616453" lon="11.295581"><ele>496.0</ele><time>2026-03-29T09:56:31.859Z</time></trkpt><trkpt lat="43.5615353" lon="11.2956571"><ele>497.0</ele><time>2026-03-29T09:56:32.887Z</time></trkpt><trkpt lat="43.561412" lon="11.2957658"><ele>498.0</ele><time>2026-03-29T09:56:33.86Z</time></trkpt><trkpt lat="43.5612876" lon="11.2959009"><ele>499.0</ele><time>2026-03-29T09:56:34.866Z</time></trkpt><trkpt lat="43.5611447" lon="11.2960382"><ele>499.0</ele><time>2026-03-29T09:56:35.857Z</time></trkpt><trkpt lat="43.5609871" lon="11.2961595"><ele>499.0</ele><time>2026-03-29T09:56:36.867Z</time></trkpt><trkpt lat="43.5608307" lon="11.296263"><ele>499.0</ele><time>2026-03-29T09:56:37.853Z</time></trkpt><trkpt lat="43.5606726" lon="11.2963578"><ele>499.6666666666667</ele><time>2026-03-29T09:56:38.88Z</time></trkpt><trkpt lat="43.5605191" lon="11.2964466"><ele>500.33333333333337</ele><time>2026-03-29T09:56:39.852Z</time></trkpt><trkpt lat="43.5603664" lon="11.2965277"><ele>501.0</ele><time>2026-03-29T09:56:40.857Z</time></trkpt><trkpt lat="43.5602141" lon="11.2965968"><ele>501.0</ele><time>2026-03-29T09:56:41.854Z</time></trkpt><trkpt lat="43.5600645" lon="11.2966532"><ele>501.0</ele><time>2026-03-29T09:56:42.859Z</time></trkpt><trkpt lat="43.5599056" lon="11.2966833"><ele>501.0</ele><time>2026-03-29T09:56:43.885Z</time></trkpt><trkpt lat="43.5597366" lon="11.2966893"><ele>501.0</ele><time>2026-03-29T09:56:44.868Z</time></trkpt><trkpt lat="43.5595582" lon="11.296687"><ele>501.0</ele><time>2026-03-29T09:56:45.858Z</time></trkpt><trkpt lat="43.5593694" lon="11.2966873"><ele>501.0</ele><time>2026-03-29T09:56:46.868Z</time></trkpt><trkpt lat="43.5591792" lon="11.2967182"><ele>501.33333333333337</ele><time>2026-03-29T09:56:47.854Z</time></trkpt><trkpt lat="43.5589964" lon="11.2967751"><ele>501.6666666666667</ele><time>2026-03-29T09:56:48.858Z</time></trkpt><trkpt lat="43.5588118" lon="11.2968429"><ele>502.0</ele><time>2026-03-29T09:56:49.89Z</time></trkpt><trkpt lat="43.5586351" lon="11.2969069"><ele>502.0</ele><time>2026-03-29T09:56:50.856Z</time></trkpt><trkpt lat="43.558462" lon="11.2969642"><ele>502.0</ele><time>2026-03-29T09:56:51.854Z</time></trkpt><trkpt lat="43.5582894" lon="11.2970186"><ele>502.0</ele><time>2026-03-29T09:56:52.863Z</time></trkpt><trkpt lat="43.5581289" lon="11.2970926"><ele>502.0</ele><time>2026-03-29T09:56:53.857Z</time></trkpt><trkpt lat="43.5579854" lon="11.2971848"><ele>502.0</ele><time>2026-03-29T09:56:54.856Z</time></trkpt><trkpt lat="43.5578589" lon="11.2972774"><ele>502.0</ele><time>2026-03-29T09:56:55.853Z</time></trkpt><trkpt lat="43.5577433" lon="11.2973598"><ele>502.0</ele><time>2026-03-29T09:56:56.858Z</time></trkpt><trkpt lat="43.5576341" lon="11.2974079"><ele>501.25</ele><time>2026-03-29T09:56:57.856Z</time></trkpt><trkpt lat="43.5575126" lon="11.2974095"><ele>500.5</ele><time>2026-03-29T09:56:58.859Z</time></trkpt><trkpt lat="43.5573831" lon="11.2973777"><ele>499.75</ele><time>2026-03-29T09:56:59.856Z</time></trkpt><trkpt lat="43.5572343" lon="11.2973402"><ele>499.0</ele><time>2026-03-29T09:57:00.858Z</time></trkpt><trkpt lat="43.5570766" lon="11.2973376"><ele>497.0</ele><time>2026-03-29T09:57:01.854Z</time></trkpt><trkpt lat="43.5569101" lon="11.2973787"><ele>495.0</ele><time>2026-03-29T09:57:02.888Z</time></trkpt><trkpt lat="43.5567523" lon="11.2974417"><ele>493.0</ele><time>2026-03-29T09:57:03.861Z</time></trkpt><trkpt lat="43.556625" lon="11.2975012"><ele>493.00000000000006</ele><time>2026-03-29T09:57:04.856Z</time></trkpt><trkpt lat="43.5565364" lon="11.2975521"><ele>493.0</ele><time>2026-03-29T09:57:05.856Z</time></trkpt><trkpt lat="43.5564702" lon="11.2975958"><ele>493.0</ele><time>2026-03-29T09:57:07.858Z</time></trkpt><trkpt lat="43.5564584" lon="11.2974876"><ele>493.0</ele><time>2026-03-29T09:57:19.863Z</time></trkpt><trkpt lat="43.5564667" lon="11.2973668"><ele>493.00000000000006</ele><time>2026-03-29T09:57:21.858Z</time></trkpt><trkpt lat="43.5564716" lon="11.2972341"><ele>493.0</ele><time>2026-03-29T09:57:23.858Z</time></trkpt><trkpt lat="43.5564889" lon="11.2970681"><ele>491.59999999999997</ele><time>2026-03-29T09:57:25.86Z</time></trkpt><trkpt lat="43.5565069" lon="11.2969845"><ele>490.19999999999993</ele><time>2026-03-29T09:57:26.893Z</time></trkpt><trkpt lat="43.5565512" lon="11.2968461"><ele>488.8</ele><time>2026-03-29T09:57:28.86Z</time></trkpt><trkpt lat="43.5566033" lon="11.2967301"><ele>487.4</ele><time>2026-03-29T09:57:30.853Z</time></trkpt><trkpt lat="43.5566721" lon="11.2965945"><ele>486.0</ele><time>2026-03-29T09:57:32.894Z</time></trkpt><trkpt lat="43.5567676" lon="11.2964699"><ele>485.1666666666667</ele><time>2026-03-29T09:57:34.853Z</time></trkpt><trkpt lat="43.5568367" lon="11.2964127"><ele>484.33333333333337</ele><time>2026-03-29T09:57:35.861Z</time></trkpt><trkpt lat="43.5569123" lon="11.2963574"><ele>483.5</ele><time>2026-03-29T09:57:36.856Z</time></trkpt><trkpt lat="43.5569877" lon="11.2962973"><ele>482.6666666666667</ele><time>2026-03-29T09:57:37.862Z</time></trkpt><trkpt lat="43.5570596" lon="11.2962225"><ele>481.83333333333337</ele><time>2026-03-29T09:57:38.858Z</time></trkpt><trkpt lat="43.5571256" lon="11.2961284"><ele>481.0</ele><time>2026-03-29T09:57:39.864Z</time></trkpt><trkpt lat="43.5571769" lon="11.2960232"><ele>481.0</ele><time>2026-03-29T09:57:40.859Z</time></trkpt><trkpt lat="43.5572195" lon="11.295906"><ele>481.0</ele><time>2026-03-29T09:57:41.854Z</time></trkpt><trkpt lat="43.557256" lon="11.295784"><ele>481.0</ele><time>2026-03-29T09:57:42.856Z</time></trkpt><trkpt lat="43.5572903" lon="11.2956595"><ele>481.0</ele><time>2026-03-29T09:57:43.858Z</time></trkpt><trkpt lat="43.5573242" lon="11.2955464"><ele>481.0</ele><time>2026-03-29T09:57:44.855Z</time></trkpt><trkpt lat="43.5573646" lon="11.2954435"><ele>478.50000000000006</ele><time>2026-03-29T09:57:45.857Z</time></trkpt><trkpt lat="43.5574129" lon="11.2953622"><ele>476.0</ele><time>2026-03-29T09:57:46.859Z</time></trkpt><trkpt lat="43.5574586" lon="11.2952978"><ele>473.5</ele><time>2026-03-29T09:57:47.862Z</time></trkpt><trkpt lat="43.557534" lon="11.2952088"><ele>471.0</ele><time>2026-03-29T09:57:49.855Z</time></trkpt><trkpt lat="43.557577" lon="11.2951287"><ele>468.50000000000006</ele><time>2026-03-29T09:57:51.857Z</time></trkpt><trkpt lat="43.5575702" lon="11.2950109"><ele>466.0</ele><time>2026-03-29T09:57:53.86Z</time></trkpt><trkpt lat="43.5575278" lon="11.2948442"><ele>466.0</ele><time>2026-03-29T09:57:55.857Z</time></trkpt><trkpt lat="43.5575069" lon="11.2947568"><ele>466.0</ele><time>2026-03-29T09:57:56.862Z</time></trkpt><trkpt lat="43.5574774" lon="11.2946722"><ele>466.0</ele><time>2026-03-29T09:57:57.854Z</time></trkpt><trkpt lat="43.5574475" lon="11.2945833"><ele>466.0</ele><time>2026-03-29T09:57:58.859Z</time></trkpt><trkpt lat="43.5574221" lon="11.2944936"><ele>466.0</ele><time>2026-03-29T09:57:59.857Z</time></trkpt><trkpt lat="43.5573947" lon="11.2944036"><ele>466.0</ele><time>2026-03-29T09:58:00.854Z</time></trkpt><trkpt lat="43.5573656" lon="11.2943173"><ele>466.0</ele><time>2026-03-29T09:58:01.865Z</time></trkpt><trkpt lat="43.5573418" lon="11.2942328"><ele>463.0</ele><time>2026-03-29T09:58:02.884Z</time></trkpt><trkpt lat="43.5573087" lon="11.2940866"><ele>460.0</ele><time>2026-03-29T09:58:04.856Z</time></trkpt><trkpt lat="43.5572733" lon="11.2939628"><ele>457.0</ele><time>2026-03-29T09:58:06.853Z</time></trkpt><trkpt lat="43.5572328" lon="11.2938139"><ele>454.0</ele><time>2026-03-29T09:58:08.863Z</time></trkpt><trkpt lat="43.557213" lon="11.293724"><ele>451.0</ele><time>2026-03-29T09:58:09.859Z</time></trkpt><trkpt lat="43.5572046" lon="11.2936254"><ele>449.00000000000006</ele><time>2026-03-29T09:58:10.856Z</time></trkpt><trkpt lat="43.5572047" lon="11.2935324"><ele>447.0</ele><time>2026-03-29T09:58:11.888Z</time></trkpt><trkpt lat="43.5571861" lon="11.2933797"><ele>445.0</ele><time>2026-03-29T09:58:13.855Z</time></trkpt><trkpt lat="43.5570903" lon="11.2933432"><ele>443.0</ele><time>2026-03-29T09:58:16.857Z</time></trkpt><trkpt lat="43.5569977" lon="11.2933834"><ele>441.00000000000006</ele><time>2026-03-29T09:58:18.892Z</time></trkpt><trkpt lat="43.5569347" lon="11.2934154"><ele>439.0</ele><time>2026-03-29T09:58:20.855Z</time></trkpt><trkpt lat="43.5568596" lon="11.2934426"><ele>439.0</ele><time>2026-03-29T09:58:23.859Z</time></trkpt><trkpt lat="43.5567696" lon="11.2934694"><ele>439.0</ele><time>2026-03-29T09:58:26.887Z</time></trkpt><trkpt lat="43.5566718" lon="11.2935135"><ele>439.0</ele><time>2026-03-29T09:58:28.887Z</time></trkpt><trkpt lat="43.5565455" lon="11.2935545"><ele>439.0</ele><time>2026-03-29T09:58:30.859Z</time></trkpt><trkpt lat="43.5564723" lon="11.2935818"><ele>439.0</ele><time>2026-03-29T09:58:31.863Z</time></trkpt><trkpt lat="43.5563905" lon="11.2936079"><ele>439.00000000000006</ele><time>2026-03-29T09:58:32.855Z</time></trkpt><trkpt lat="43.5563047" lon="11.2936365"><ele>439.0</ele><time>2026-03-29T09:58:33.883Z</time></trkpt><trkpt lat="43.5562172" lon="11.2936684"><ele>439.0</ele><time>2026-03-29T09:58:34.862Z</time></trkpt><trkpt lat="43.5561311" lon="11.2937027"><ele>439.0</ele><time>2026-03-29T09:58:35.856Z</time></trkpt><trkpt lat="43.5560503" lon="11.2937295"><ele>439.00000000000006</ele><time>2026-03-29T09:58:36.855Z</time></trkpt><trkpt lat="43.5559762" lon="11.2937507"><ele>439.0</ele><time>2026-03-29T09:58:37.857Z</time></trkpt><trkpt lat="43.5559051" lon="11.2937689"><ele>439.2</ele><time>2026-03-29T09:58:38.856Z</time></trkpt><trkpt lat="43.5558409" lon="11.2937905"><ele>439.4</ele><time>2026-03-29T09:58:39.853Z</time></trkpt><trkpt lat="43.5557554" lon="11.2938357"><ele>439.6</ele><time>2026-03-29T09:58:41.857Z</time></trkpt><trkpt lat="43.5556863" lon="11.2937908"><ele>439.8</ele><time>2026-03-29T09:58:46.856Z</time></trkpt><trkpt lat="43.555661" lon="11.2936046"><ele>440.0</ele><time>2026-03-29T09:58:48.854Z</time></trkpt><trkpt lat="43.5556382" lon="11.2934911"><ele>439.99999999999994</ele><time>2026-03-29T09:58:49.873Z</time></trkpt><trkpt lat="43.5556144" lon="11.2933856"><ele>440.0</ele><time>2026-03-29T09:58:50.851Z</time></trkpt><trkpt lat="43.5555926" lon="11.2932927"><ele>440.0</ele><time>2026-03-29T09:58:51.856Z</time></trkpt><trkpt lat="43.5555715" lon="11.2932086"><ele>440.0</ele><time>2026-03-29T09:58:52.855Z</time></trkpt><trkpt lat="43.5555469" lon="11.2931237"><ele>439.99999999999994</ele><time>2026-03-29T09:58:53.855Z</time></trkpt><trkpt lat="43.5555097" lon="11.2930473"><ele>440.0</ele><time>2026-03-29T09:58:54.855Z</time></trkpt><trkpt lat="43.5554169" lon="11.2929481"><ele>437.4</ele><time>2026-03-29T09:58:56.855Z</time></trkpt><trkpt lat="43.5552872" lon="11.2929235"><ele>434.8</ele><time>2026-03-29T09:58:58.856Z</time></trkpt><trkpt lat="43.5552147" lon="11.2929325"><ele>432.20000000000005</ele><time>2026-03-29T09:58:59.853Z</time></trkpt><trkpt lat="43.555134" lon="11.2929591"><ele>429.6</ele><time>2026-03-29T09:59:00.859Z</time></trkpt><trkpt lat="43.5550511" lon="11.2929927"><ele>427.0</ele><time>2026-03-29T09:59:01.865Z</time></trkpt><trkpt lat="43.5549667" lon="11.2930237"><ele>427.0</ele><time>2026-03-29T09:59:02.885Z</time></trkpt><trkpt lat="43.5548821" lon="11.2930592"><ele>427.00000000000006</ele><time>2026-03-29T09:59:03.886Z</time></trkpt><trkpt lat="43.5547938" lon="11.2930804"><ele>427.00000000000006</ele><time>2026-03-29T09:59:04.853Z</time></trkpt><trkpt lat="43.5547008" lon="11.2930948"><ele>427.0</ele><time>2026-03-29T09:59:05.856Z</time></trkpt><trkpt lat="43.5546084" lon="11.2931155"><ele>427.0</ele><time>2026-03-29T09:59:06.855Z</time></trkpt><trkpt lat="43.5545233" lon="11.2931386"><ele>426.1666666666667</ele><time>2026-03-29T09:59:07.887Z</time></trkpt><trkpt lat="43.5544448" lon="11.2931751"><ele>425.33333333333337</ele><time>2026-03-29T09:59:08.897Z</time></trkpt><trkpt lat="43.5543706" lon="11.2932308"><ele>424.5</ele><time>2026-03-29T09:59:09.883Z</time></trkpt><trkpt lat="43.5543025" lon="11.2932912"><ele>423.66666666666663</ele><time>2026-03-29T09:59:10.858Z</time></trkpt><trkpt lat="43.5542436" lon="11.2933522"><ele>422.8333333333333</ele><time>2026-03-29T09:59:11.855Z</time></trkpt><trkpt lat="43.5541891" lon="11.2934042"><ele>422.0</ele><time>2026-03-29T09:59:12.889Z</time></trkpt><trkpt lat="43.5541071" lon="11.2934924"><ele>422.0</ele><time>2026-03-29T09:59:14.888Z</time></trkpt><trkpt lat="43.554042" lon="11.2936383"><ele>422.0</ele><time>2026-03-29T09:59:16.854Z</time></trkpt><trkpt lat="43.5540085" lon="11.2937372"><ele>422.0</ele><time>2026-03-29T09:59:17.86Z</time></trkpt><trkpt lat="43.5539782" lon="11.2938415"><ele>422.0</ele><time>2026-03-29T09:59:18.857Z</time></trkpt><trkpt lat="43.5539314" lon="11.2939453"><ele>422.0</ele><time>2026-03-29T09:59:19.888Z</time></trkpt><trkpt lat="43.5538741" lon="11.2940529"><ele>421.75</ele><time>2026-03-29T09:59:20.858Z</time></trkpt><trkpt lat="43.5538004" lon="11.2941653"><ele>421.5</ele><time>2026-03-29T09:59:21.854Z</time></trkpt><trkpt lat="43.5537225" lon="11.2942809"><ele>421.25</ele><time>2026-03-29T09:59:22.886Z</time></trkpt><trkpt lat="43.5536396" lon="11.2944"><ele>421.0</ele><time>2026-03-29T09:59:23.856Z</time></trkpt><trkpt lat="43.5535569" lon="11.2945282"><ele>421.0</ele><time>2026-03-29T09:59:24.852Z</time></trkpt><trkpt lat="43.5534744" lon="11.2946545"><ele>421.0</ele><time>2026-03-29T09:59:25.858Z</time></trkpt><trkpt lat="43.5533955" lon="11.2947823"><ele>421.0</ele><time>2026-03-29T09:59:26.859Z</time></trkpt><trkpt lat="43.5533216" lon="11.2949162"><ele>421.0</ele><time>2026-03-29T09:59:27.858Z</time></trkpt><trkpt lat="43.5532549" lon="11.29505"><ele>422.5</ele><time>2026-03-29T09:59:28.86Z</time></trkpt><trkpt lat="43.5531934" lon="11.2951832"><ele>424.0</ele><time>2026-03-29T09:59:29.856Z</time></trkpt><trkpt lat="43.5531345" lon="11.2953141"><ele>425.5</ele><time>2026-03-29T09:59:30.859Z</time></trkpt><trkpt lat="43.5530756" lon="11.2954466"><ele>427.0</ele><time>2026-03-29T09:59:31.854Z</time></trkpt><trkpt lat="43.553016" lon="11.2955808"><ele>428.20000000000005</ele><time>2026-03-29T09:59:32.859Z</time></trkpt><trkpt lat="43.5529587" lon="11.2957156"><ele>429.40000000000003</ele><time>2026-03-29T09:59:33.889Z</time></trkpt><trkpt lat="43.5529073" lon="11.2958416"><ele>430.59999999999997</ele><time>2026-03-29T09:59:34.858Z</time></trkpt><trkpt lat="43.5528606" lon="11.2959557"><ele>431.79999999999995</ele><time>2026-03-29T09:59:35.854Z</time></trkpt><trkpt lat="43.5528116" lon="11.2960487"><ele>433.0</ele><time>2026-03-29T09:59:36.853Z</time></trkpt><trkpt lat="43.5527614" lon="11.296121"><ele>433.00000000000006</ele><time>2026-03-29T09:59:37.887Z</time></trkpt><trkpt lat="43.5527002" lon="11.29618"><ele>433.0</ele><time>2026-03-29T09:59:38.884Z</time></trkpt><trkpt lat="43.5526313" lon="11.2962339"><ele>433.0</ele><time>2026-03-29T09:59:39.889Z</time></trkpt><trkpt lat="43.5525581" lon="11.2962954"><ele>433.0</ele><time>2026-03-29T09:59:40.857Z</time></trkpt><trkpt lat="43.5524776" lon="11.2963671"><ele>433.00000000000006</ele><time>2026-03-29T09:59:41.855Z</time></trkpt><trkpt lat="43.5523893" lon="11.2964425"><ele>433.0</ele><time>2026-03-29T09:59:42.86Z</time></trkpt><trkpt lat="43.5522946" lon="11.2965235"><ele>436.2</ele><time>2026-03-29T09:59:43.854Z</time></trkpt><trkpt lat="43.5521926" lon="11.2966"><ele>439.4</ele><time>2026-03-29T09:59:44.858Z</time></trkpt><trkpt lat="43.5520901" lon="11.2966738"><ele>442.59999999999997</ele><time>2026-03-29T09:59:45.888Z</time></trkpt><trkpt lat="43.5519887" lon="11.2967498"><ele>445.79999999999995</ele><time>2026-03-29T09:59:46.888Z</time></trkpt><trkpt lat="43.5518995" lon="11.2968183"><ele>449.0</ele><time>2026-03-29T09:59:47.857Z</time></trkpt><trkpt lat="43.5518257" lon="11.296877"><ele>448.99999999999994</ele><time>2026-03-29T09:59:48.853Z</time></trkpt><trkpt lat="43.5517601" lon="11.2969255"><ele>449.0</ele><time>2026-03-29T09:59:49.853Z</time></trkpt><trkpt lat="43.5517028" lon="11.2969701"><ele>449.0</ele><time>2026-03-29T09:59:50.858Z</time></trkpt><trkpt lat="43.5516159" lon="11.2970966"><ele>449.0</ele><time>2026-03-29T09:59:52.861Z</time></trkpt><trkpt lat="43.5515716" lon="11.2971877"><ele>448.99999999999994</ele><time>2026-03-29T09:59:53.858Z</time></trkpt><trkpt lat="43.5515191" lon="11.2972946"><ele>449.0</ele><time>2026-03-29T09:59:54.858Z</time></trkpt><trkpt lat="43.5514611" lon="11.297396"><ele>448.6</ele><time>2026-03-29T09:59:55.857Z</time></trkpt><trkpt lat="43.5514057" lon="11.2974917"><ele>448.2</ele><time>2026-03-29T09:59:56.857Z</time></trkpt><trkpt lat="43.551347" lon="11.2975998"><ele>447.80000000000007</ele><time>2026-03-29T09:59:57.889Z</time></trkpt><trkpt lat="43.5512859" lon="11.2977112"><ele>447.40000000000003</ele><time>2026-03-29T09:59:58.886Z</time></trkpt><trkpt lat="43.5512244" lon="11.2978116"><ele>447.0</ele><time>2026-03-29T09:59:59.87Z</time></trkpt><trkpt lat="43.5511588" lon="11.2979117"><ele>447.0</ele><time>2026-03-29T10:00:00.861Z</time></trkpt><trkpt lat="43.5510808" lon="11.2980044"><ele>447.0</ele><time>2026-03-29T10:00:01.892Z</time></trkpt><trkpt lat="43.5509846" lon="11.2980963"><ele>447.0</ele><time>2026-03-29T10:00:02.852Z</time></trkpt><trkpt lat="43.5508858" lon="11.2981781"><ele>447.0</ele><time>2026-03-29T10:00:03.892Z</time></trkpt><trkpt lat="43.5507891" lon="11.2982634"><ele>446.75</ele><time>2026-03-29T10:00:04.885Z</time></trkpt><trkpt lat="43.5506916" lon="11.2983547"><ele>446.5</ele><time>2026-03-29T10:00:05.884Z</time></trkpt><trkpt lat="43.55059" lon="11.2984491"><ele>446.25</ele><time>2026-03-29T10:00:06.855Z</time></trkpt><trkpt lat="43.5504813" lon="11.2985497"><ele>446.0</ele><time>2026-03-29T10:00:07.862Z</time></trkpt><trkpt lat="43.5503672" lon="11.2986477"><ele>446.0</ele><time>2026-03-29T10:00:08.859Z</time></trkpt><trkpt lat="43.5502531" lon="11.2987386"><ele>446.0</ele><time>2026-03-29T10:00:09.892Z</time></trkpt><trkpt lat="43.5501441" lon="11.2988247"><ele>446.0</ele><time>2026-03-29T10:00:10.857Z</time></trkpt><trkpt lat="43.5500464" lon="11.2989053"><ele>446.0</ele><time>2026-03-29T10:00:11.856Z</time></trkpt><trkpt lat="43.5499627" lon="11.2989844"><ele>448.75</ele><time>2026-03-29T10:00:12.855Z</time></trkpt><trkpt lat="43.5498915" lon="11.2990766"><ele>451.5</ele><time>2026-03-29T10:00:13.875Z</time></trkpt><trkpt lat="43.5498181" lon="11.29919"><ele>454.25</ele><time>2026-03-29T10:00:14.856Z</time></trkpt><trkpt lat="43.5497441" lon="11.2993187"><ele>457.0</ele><time>2026-03-29T10:00:15.859Z</time></trkpt><trkpt lat="43.5496731" lon="11.2994606"><ele>457.0</ele><time>2026-03-29T10:00:16.859Z</time></trkpt><trkpt lat="43.5496063" lon="11.2996078"><ele>457.0</ele><time>2026-03-29T10:00:17.853Z</time></trkpt><trkpt lat="43.5495428" lon="11.2997585"><ele>457.0</ele><time>2026-03-29T10:00:18.86Z</time></trkpt><trkpt lat="43.549476" lon="11.2999088"><ele>457.0</ele><time>2026-03-29T10:00:19.859Z</time></trkpt><trkpt lat="43.5494053" lon="11.3000629"><ele>457.5</ele><time>2026-03-29T10:00:20.863Z</time></trkpt><trkpt lat="43.5493348" lon="11.3002199"><ele>458.0</ele><time>2026-03-29T10:00:21.861Z</time></trkpt><trkpt lat="43.5492605" lon="11.3003793"><ele>458.5</ele><time>2026-03-29T10:00:22.858Z</time></trkpt><trkpt lat="43.5491814" lon="11.3005386"><ele>459.0</ele><time>2026-03-29T10:00:23.854Z</time></trkpt><trkpt lat="43.5491103" lon="11.3006849"><ele>459.0</ele><time>2026-03-29T10:00:24.859Z</time></trkpt><trkpt lat="43.5490414" lon="11.3008228"><ele>459.0</ele><time>2026-03-29T10:00:25.856Z</time></trkpt><trkpt lat="43.5489732" lon="11.3009571"><ele>459.0</ele><time>2026-03-29T10:00:26.887Z</time></trkpt><trkpt lat="43.5489089" lon="11.301088"><ele>459.0</ele><time>2026-03-29T10:00:27.853Z</time></trkpt><trkpt lat="43.5488463" lon="11.3012127"><ele>459.0</ele><time>2026-03-29T10:00:28.855Z</time></trkpt><trkpt lat="43.5487866" lon="11.3013292"><ele>459.0</ele><time>2026-03-29T10:00:29.859Z</time></trkpt><trkpt lat="43.5487332" lon="11.3014461"><ele>459.0</ele><time>2026-03-29T10:00:30.859Z</time></trkpt><trkpt lat="43.5486917" lon="11.3015738"><ele>459.0</ele><time>2026-03-29T10:00:31.859Z</time></trkpt><trkpt lat="43.5486652" lon="11.3017075"><ele>459.0</ele><time>2026-03-29T10:00:32.883Z</time></trkpt><trkpt lat="43.5486375" lon="11.3018448"><ele>458.5</ele><time>2026-03-29T10:00:33.856Z</time></trkpt><trkpt lat="43.5486041" lon="11.3019853"><ele>458.0</ele><time>2026-03-29T10:00:34.858Z</time></trkpt><trkpt lat="43.5485573" lon="11.302122"><ele>457.5</ele><time>2026-03-29T10:00:35.855Z</time></trkpt><trkpt lat="43.5484976" lon="11.3022567"><ele>457.0</ele><time>2026-03-29T10:00:36.854Z</time></trkpt><trkpt lat="43.5484273" lon="11.3023931"><ele>458.5</ele><time>2026-03-29T10:00:37.889Z</time></trkpt><trkpt lat="43.54835" lon="11.3025316"><ele>460.0</ele><time>2026-03-29T10:00:38.862Z</time></trkpt><trkpt lat="43.5482734" lon="11.3026754"><ele>461.5</ele><time>2026-03-29T10:00:39.855Z</time></trkpt><trkpt lat="43.5482002" lon="11.3028205"><ele>463.0</ele><time>2026-03-29T10:00:40.89Z</time></trkpt><trkpt lat="43.5481335" lon="11.302966"><ele>465.25</ele><time>2026-03-29T10:00:41.875Z</time></trkpt><trkpt lat="43.5480787" lon="11.3031131"><ele>467.5</ele><time>2026-03-29T10:00:42.855Z</time></trkpt><trkpt lat="43.5480307" lon="11.3032689"><ele>469.75</ele><time>2026-03-29T10:00:43.859Z</time></trkpt><trkpt lat="43.5479933" lon="11.3034201"><ele>472.0</ele><time>2026-03-29T10:00:44.855Z</time></trkpt><trkpt lat="43.5479701" lon="11.3035559"><ele>472.0</ele><time>2026-03-29T10:00:45.856Z</time></trkpt><trkpt lat="43.5479556" lon="11.3036883"><ele>472.00000000000006</ele><time>2026-03-29T10:00:46.854Z</time></trkpt><trkpt lat="43.5479476" lon="11.3038241"><ele>472.00000000000006</ele><time>2026-03-29T10:00:47.854Z</time></trkpt><trkpt lat="43.5479455" lon="11.3039691"><ele>472.0</ele><time>2026-03-29T10:00:48.885Z</time></trkpt><trkpt lat="43.5479431" lon="11.3041117"><ele>472.0</ele><time>2026-03-29T10:00:49.856Z</time></trkpt><trkpt lat="43.547951" lon="11.3042623"><ele>472.25</ele><time>2026-03-29T10:00:50.856Z</time></trkpt><trkpt lat="43.5479716" lon="11.3044207"><ele>472.5</ele><time>2026-03-29T10:00:51.858Z</time></trkpt><trkpt lat="43.5480088" lon="11.3045862"><ele>472.75</ele><time>2026-03-29T10:00:52.859Z</time></trkpt><trkpt lat="43.5480683" lon="11.3047537"><ele>473.0</ele><time>2026-03-29T10:00:53.876Z</time></trkpt><trkpt lat="43.5481329" lon="11.304925"><ele>473.0</ele><time>2026-03-29T10:00:54.856Z</time></trkpt><trkpt lat="43.5481961" lon="11.3050817"><ele>472.99999999999994</ele><time>2026-03-29T10:00:55.856Z</time></trkpt><trkpt lat="43.5482518" lon="11.3052143"><ele>472.99999999999994</ele><time>2026-03-29T10:00:56.857Z</time></trkpt><trkpt lat="43.5483026" lon="11.3053297"><ele>473.0</ele><time>2026-03-29T10:00:57.869Z</time></trkpt><trkpt lat="43.5483515" lon="11.3054358"><ele>473.0</ele><time>2026-03-29T10:00:58.893Z</time></trkpt><trkpt lat="43.5483966" lon="11.3055353"><ele>472.59999999999997</ele><time>2026-03-29T10:00:59.866Z</time></trkpt><trkpt lat="43.5484386" lon="11.30563"><ele>472.19999999999993</ele><time>2026-03-29T10:01:00.858Z</time></trkpt><trkpt lat="43.5484726" lon="11.305727"><ele>471.8</ele><time>2026-03-29T10:01:01.86Z</time></trkpt><trkpt lat="43.5484981" lon="11.3058184"><ele>471.4</ele><time>2026-03-29T10:01:02.882Z</time></trkpt><trkpt lat="43.5485496" lon="11.3059777"><ele>471.0</ele><time>2026-03-29T10:01:04.856Z</time></trkpt><trkpt lat="43.548588" lon="11.306118"><ele>471.0</ele><time>2026-03-29T10:01:06.854Z</time></trkpt><trkpt lat="43.5486042" lon="11.3062318"><ele>471.0</ele><time>2026-03-29T10:01:08.865Z</time></trkpt><trkpt lat="43.5485433" lon="11.3063617"><ele>471.0</ele><time>2026-03-29T10:01:10.855Z</time></trkpt><trkpt lat="43.5484804" lon="11.3064324"><ele>471.0</ele><time>2026-03-29T10:01:11.853Z</time></trkpt><trkpt lat="43.5484038" lon="11.3064852"><ele>471.0</ele><time>2026-03-29T10:01:12.858Z</time></trkpt><trkpt lat="43.5483223" lon="11.3065095"><ele>471.0</ele><time>2026-03-29T10:01:13.853Z</time></trkpt><trkpt lat="43.5482204" lon="11.3065004"><ele>471.0</ele><time>2026-03-29T10:01:14.886Z</time></trkpt><trkpt lat="43.5481189" lon="11.3064494"><ele>471.0</ele><time>2026-03-29T10:01:15.86Z</time></trkpt><trkpt lat="43.5480229" lon="11.3063863"><ele>471.0</ele><time>2026-03-29T10:01:16.886Z</time></trkpt><trkpt lat="43.5479335" lon="11.3063228"><ele>471.0</ele><time>2026-03-29T10:01:17.861Z</time></trkpt><trkpt lat="43.5478319" lon="11.306285"><ele>471.0</ele><time>2026-03-29T10:01:18.887Z</time></trkpt><trkpt lat="43.5477118" lon="11.3062851"><ele>470.0</ele><time>2026-03-29T10:01:19.861Z</time></trkpt><trkpt lat="43.5475808" lon="11.3063068"><ele>469.0</ele><time>2026-03-29T10:01:20.858Z</time></trkpt><trkpt lat="43.5474473" lon="11.3063621"><ele>468.0</ele><time>2026-03-29T10:01:21.855Z</time></trkpt><trkpt lat="43.5473247" lon="11.3064314"><ele>467.0</ele><time>2026-03-29T10:01:22.855Z</time></trkpt><trkpt lat="43.5472108" lon="11.3065146"><ele>467.0</ele><time>2026-03-29T10:01:23.854Z</time></trkpt><trkpt lat="43.5471045" lon="11.3065954"><ele>467.00000000000006</ele><time>2026-03-29T10:01:24.858Z</time></trkpt><trkpt lat="43.5470078" lon="11.3066718"><ele>467.00000000000006</ele><time>2026-03-29T10:01:25.857Z</time></trkpt><trkpt lat="43.5469239" lon="11.3067431"><ele>467.0</ele><time>2026-03-29T10:01:26.858Z</time></trkpt><trkpt lat="43.5468547" lon="11.306826"><ele>467.0</ele><time>2026-03-29T10:01:27.886Z</time></trkpt><trkpt lat="43.5467905" lon="11.3069506"><ele>464.25</ele><time>2026-03-29T10:01:28.854Z</time></trkpt><trkpt lat="43.5467417" lon="11.3071058"><ele>461.5</ele><time>2026-03-29T10:01:29.884Z</time></trkpt><trkpt lat="43.5467073" lon="11.3072853"><ele>458.75</ele><time>2026-03-29T10:01:30.853Z</time></trkpt><trkpt lat="43.5466683" lon="11.3074635"><ele>456.0</ele><time>2026-03-29T10:01:31.857Z</time></trkpt><trkpt lat="43.5466133" lon="11.307631"><ele>456.0</ele><time>2026-03-29T10:01:32.887Z</time></trkpt><trkpt lat="43.5465352" lon="11.3077729"><ele>456.0</ele><time>2026-03-29T10:01:33.856Z</time></trkpt><trkpt lat="43.5464371" lon="11.3079079"><ele>456.0</ele><time>2026-03-29T10:01:34.856Z</time></trkpt><trkpt lat="43.5463445" lon="11.3080443"><ele>456.0</ele><time>2026-03-29T10:01:35.857Z</time></trkpt><trkpt lat="43.5462605" lon="11.3081698"><ele>454.20000000000005</ele><time>2026-03-29T10:01:36.894Z</time></trkpt><trkpt lat="43.5461839" lon="11.3082813"><ele>452.40000000000003</ele><time>2026-03-29T10:01:37.855Z</time></trkpt><trkpt lat="43.5461075" lon="11.3083846"><ele>450.6</ele><time>2026-03-29T10:01:38.855Z</time></trkpt><trkpt lat="43.5460285" lon="11.3084866"><ele>448.8</ele><time>2026-03-29T10:01:39.857Z</time></trkpt><trkpt lat="43.5459524" lon="11.3085938"><ele>447.0</ele><time>2026-03-29T10:01:40.886Z</time></trkpt><trkpt lat="43.5458805" lon="11.3087173"><ele>447.0</ele><time>2026-03-29T10:01:41.853Z</time></trkpt><trkpt lat="43.5458157" lon="11.3088578"><ele>447.0</ele><time>2026-03-29T10:01:42.883Z</time></trkpt><trkpt lat="43.5457512" lon="11.3090019"><ele>447.0</ele><time>2026-03-29T10:01:43.856Z</time></trkpt><trkpt lat="43.5456832" lon="11.3091429"><ele>447.0</ele><time>2026-03-29T10:01:44.89Z</time></trkpt><trkpt lat="43.545614" lon="11.3092724"><ele>448.40000000000003</ele><time>2026-03-29T10:01:45.855Z</time></trkpt><trkpt lat="43.5455468" lon="11.309398"><ele>449.80000000000007</ele><time>2026-03-29T10:01:46.855Z</time></trkpt><trkpt lat="43.5454881" lon="11.3095255"><ele>451.2</ele><time>2026-03-29T10:01:47.86Z</time></trkpt><trkpt lat="43.5454465" lon="11.3096548"><ele>452.6</ele><time>2026-03-29T10:01:48.856Z</time></trkpt><trkpt lat="43.5454163" lon="11.3098001"><ele>454.0</ele><time>2026-03-29T10:01:49.855Z</time></trkpt><trkpt lat="43.5453959" lon="11.3099417"><ele>454.83333333333337</ele><time>2026-03-29T10:01:50.855Z</time></trkpt><trkpt lat="43.5453859" lon="11.3100607"><ele>455.6666666666667</ele><time>2026-03-29T10:01:51.858Z</time></trkpt><trkpt lat="43.5453834" lon="11.3101595"><ele>456.5</ele><time>2026-03-29T10:01:52.854Z</time></trkpt><trkpt lat="43.545356" lon="11.3103031"><ele>457.33333333333337</ele><time>2026-03-29T10:01:54.857Z</time></trkpt><trkpt lat="43.5453273" lon="11.3103886"><ele>458.1666666666667</ele><time>2026-03-29T10:01:55.884Z</time></trkpt><trkpt lat="43.5452885" lon="11.31049"><ele>459.0</ele><time>2026-03-29T10:01:56.891Z</time></trkpt><trkpt lat="43.5452514" lon="11.3106234"><ele>456.25</ele><time>2026-03-29T10:01:57.86Z</time></trkpt><trkpt lat="43.5452144" lon="11.3107834"><ele>453.5</ele><time>2026-03-29T10:01:58.888Z</time></trkpt><trkpt lat="43.5451802" lon="11.3109667"><ele>450.75</ele><time>2026-03-29T10:01:59.855Z</time></trkpt><trkpt lat="43.5451462" lon="11.3111431"><ele>448.0</ele><time>2026-03-29T10:02:00.856Z</time></trkpt><trkpt lat="43.5451107" lon="11.3113082"><ele>448.5</ele><time>2026-03-29T10:02:01.893Z</time></trkpt><trkpt lat="43.5450726" lon="11.3114767"><ele>449.0</ele><time>2026-03-29T10:02:02.863Z</time></trkpt><trkpt lat="43.5450079" lon="11.3116311"><ele>449.5</ele><time>2026-03-29T10:02:03.883Z</time></trkpt><trkpt lat="43.544923" lon="11.3117807"><ele>450.0</ele><time>2026-03-29T10:02:04.854Z</time></trkpt><trkpt lat="43.5448245" lon="11.3119196"><ele>450.0</ele><time>2026-03-29T10:02:05.857Z</time></trkpt><trkpt lat="43.5447192" lon="11.3120381"><ele>450.0</ele><time>2026-03-29T10:02:06.857Z</time></trkpt><trkpt lat="43.5446086" lon="11.3121509"><ele>450.0</ele><time>2026-03-29T10:02:07.855Z</time></trkpt><trkpt lat="43.544502" lon="11.3122584"><ele>450.0</ele><time>2026-03-29T10:02:08.865Z</time></trkpt><trkpt lat="43.5443989" lon="11.31236"><ele>449.6</ele><time>2026-03-29T10:02:09.864Z</time></trkpt><trkpt lat="43.5443015" lon="11.3124534"><ele>449.2</ele><time>2026-03-29T10:02:10.861Z</time></trkpt><trkpt lat="43.5442073" lon="11.3125438"><ele>448.79999999999995</ele><time>2026-03-29T10:02:11.858Z</time></trkpt><trkpt lat="43.5441201" lon="11.3126254"><ele>448.4</ele><time>2026-03-29T10:02:12.856Z</time></trkpt><trkpt lat="43.5440342" lon="11.3126993"><ele>448.0</ele><time>2026-03-29T10:02:13.867Z</time></trkpt><trkpt lat="43.5439516" lon="11.3127792"><ele>448.0</ele><time>2026-03-29T10:02:14.855Z</time></trkpt><trkpt lat="43.5438827" lon="11.31287"><ele>447.99999999999994</ele><time>2026-03-29T10:02:15.856Z</time></trkpt><trkpt lat="43.5438315" lon="11.3129682"><ele>447.99999999999994</ele><time>2026-03-29T10:02:16.856Z</time></trkpt><trkpt lat="43.5437974" lon="11.3130799"><ele>448.0</ele><time>2026-03-29T10:02:17.861Z</time></trkpt><trkpt lat="43.5437922" lon="11.3132056"><ele>448.0</ele><time>2026-03-29T10:02:18.887Z</time></trkpt><trkpt lat="43.5438205" lon="11.313344"><ele>449.25</ele><time>2026-03-29T10:02:19.859Z</time></trkpt><trkpt lat="43.5438752" lon="11.3134891"><ele>450.5</ele><time>2026-03-29T10:02:20.863Z</time></trkpt><trkpt lat="43.5439338" lon="11.3136444"><ele>451.75</ele><time>2026-03-29T10:02:21.859Z</time></trkpt><trkpt lat="43.5439852" lon="11.3137939"><ele>453.0</ele><time>2026-03-29T10:02:22.857Z</time></trkpt><trkpt lat="43.5440182" lon="11.3139419"><ele>453.4</ele><time>2026-03-29T10:02:23.86Z</time></trkpt><trkpt lat="43.5440317" lon="11.314091"><ele>453.79999999999995</ele><time>2026-03-29T10:02:24.855Z</time></trkpt><trkpt lat="43.544015" lon="11.3142303"><ele>454.2</ele><time>2026-03-29T10:02:25.861Z</time></trkpt><trkpt lat="43.5439725" lon="11.3143664"><ele>454.6</ele><time>2026-03-29T10:02:26.858Z</time></trkpt><trkpt lat="43.5439099" lon="11.3144972"><ele>455.0</ele><time>2026-03-29T10:02:27.885Z</time></trkpt><trkpt lat="43.543832" lon="11.3146141"><ele>455.0</ele><time>2026-03-29T10:02:28.853Z</time></trkpt><trkpt lat="43.5437388" lon="11.3147148"><ele>455.0</ele><time>2026-03-29T10:02:29.884Z</time></trkpt><trkpt lat="43.5436356" lon="11.3148107"><ele>455.0</ele><time>2026-03-29T10:02:30.884Z</time></trkpt><trkpt lat="43.5435331" lon="11.3149033"><ele>455.0</ele><time>2026-03-29T10:02:31.858Z</time></trkpt><trkpt lat="43.543433" lon="11.3149879"><ele>453.5</ele><time>2026-03-29T10:02:32.856Z</time></trkpt><trkpt lat="43.5433257" lon="11.3150619"><ele>452.0</ele><time>2026-03-29T10:02:33.862Z</time></trkpt><trkpt lat="43.5432165" lon="11.3151301"><ele>450.5</ele><time>2026-03-29T10:02:34.859Z</time></trkpt><trkpt lat="43.5431031" lon="11.3151954"><ele>449.0</ele><time>2026-03-29T10:02:35.858Z</time></trkpt><trkpt lat="43.542991" lon="11.3152555"><ele>445.5</ele><time>2026-03-29T10:02:36.885Z</time></trkpt><trkpt lat="43.5428801" lon="11.3153062"><ele>442.0</ele><time>2026-03-29T10:02:37.883Z</time></trkpt><trkpt lat="43.54277" lon="11.3153554"><ele>438.5</ele><time>2026-03-29T10:02:38.858Z</time></trkpt><trkpt lat="43.542663" lon="11.3154092"><ele>435.0</ele><time>2026-03-29T10:02:39.854Z</time></trkpt><trkpt lat="43.5425513" lon="11.3154639"><ele>435.0</ele><time>2026-03-29T10:02:40.86Z</time></trkpt><trkpt lat="43.5424362" lon="11.3155143"><ele>435.0</ele><time>2026-03-29T10:02:41.856Z</time></trkpt><trkpt lat="43.5423231" lon="11.3155618"><ele>435.0</ele><time>2026-03-29T10:02:42.891Z</time></trkpt><trkpt lat="43.5422152" lon="11.3156059"><ele>435.0</ele><time>2026-03-29T10:02:43.854Z</time></trkpt><trkpt lat="43.5421075" lon="11.315647"><ele>435.8</ele><time>2026-03-29T10:02:44.859Z</time></trkpt><trkpt lat="43.5420025" lon="11.3156946"><ele>436.6</ele><time>2026-03-29T10:02:45.855Z</time></trkpt><trkpt lat="43.5418976" lon="11.3157347"><ele>437.4</ele><time>2026-03-29T10:02:46.856Z</time></trkpt><trkpt lat="43.5417974" lon="11.3157503"><ele>438.2</ele><time>2026-03-29T10:02:47.887Z</time></trkpt><trkpt lat="43.5416952" lon="11.3157494"><ele>439.0</ele><time>2026-03-29T10:02:48.887Z</time></trkpt><trkpt lat="43.5415928" lon="11.3157308"><ele>439.0</ele><time>2026-03-29T10:02:49.856Z</time></trkpt><trkpt lat="43.5414889" lon="11.3156966"><ele>439.0</ele><time>2026-03-29T10:02:50.862Z</time></trkpt><trkpt lat="43.541387" lon="11.3156483"><ele>439.0</ele><time>2026-03-29T10:02:51.875Z</time></trkpt><trkpt lat="43.5412854" lon="11.3156093"><ele>439.0</ele><time>2026-03-29T10:02:52.851Z</time></trkpt><trkpt lat="43.5411823" lon="11.315586"><ele>439.0</ele><time>2026-03-29T10:02:53.853Z</time></trkpt><trkpt lat="43.5410746" lon="11.3155777"><ele>438.75</ele><time>2026-03-29T10:02:54.857Z</time></trkpt><trkpt lat="43.5409628" lon="11.3156004"><ele>438.5</ele><time>2026-03-29T10:02:55.884Z</time></trkpt><trkpt lat="43.5408482" lon="11.3156514"><ele>438.25</ele><time>2026-03-29T10:02:56.855Z</time></trkpt><trkpt lat="43.5407357" lon="11.315722"><ele>438.0</ele><time>2026-03-29T10:02:57.884Z</time></trkpt><trkpt lat="43.5406188" lon="11.315823"><ele>438.0</ele><time>2026-03-29T10:02:58.858Z</time></trkpt><trkpt lat="43.5405045" lon="11.3159469"><ele>438.0</ele><time>2026-03-29T10:02:59.855Z</time></trkpt><trkpt lat="43.5404038" lon="11.316088"><ele>438.0</ele><time>2026-03-29T10:03:00.858Z</time></trkpt><trkpt lat="43.5403081" lon="11.3162433"><ele>438.0</ele><time>2026-03-29T10:03:01.861Z</time></trkpt><trkpt lat="43.5402207" lon="11.3163939"><ele>440.0</ele><time>2026-03-29T10:03:02.863Z</time></trkpt><trkpt lat="43.5401158" lon="11.3165285"><ele>442.0</ele><time>2026-03-29T10:03:03.852Z</time></trkpt><trkpt lat="43.5399949" lon="11.3166264"><ele>444.0</ele><time>2026-03-29T10:03:04.885Z</time></trkpt><trkpt lat="43.5398542" lon="11.3166996"><ele>446.0</ele><time>2026-03-29T10:03:05.854Z</time></trkpt><trkpt lat="43.5397177" lon="11.3167508"><ele>446.0</ele><time>2026-03-29T10:03:06.882Z</time></trkpt><trkpt lat="43.5395987" lon="11.316785"><ele>446.0</ele><time>2026-03-29T10:03:07.859Z</time></trkpt><trkpt lat="43.5395026" lon="11.3168129"><ele>446.0</ele><time>2026-03-29T10:03:08.855Z</time></trkpt><trkpt lat="43.5394249" lon="11.3168406"><ele>446.0</ele><time>2026-03-29T10:03:09.856Z</time></trkpt><trkpt lat="43.539315" lon="11.3168919"><ele>446.0</ele><time>2026-03-29T10:03:11.887Z</time></trkpt><trkpt lat="43.5392475" lon="11.3169822"><ele>445.4</ele><time>2026-03-29T10:03:13.868Z</time></trkpt><trkpt lat="43.5392838" lon="11.317088"><ele>444.8</ele><time>2026-03-29T10:03:21.864Z</time></trkpt><trkpt lat="43.5393717" lon="11.3172087"><ele>444.19999999999993</ele><time>2026-03-29T10:03:23.856Z</time></trkpt><trkpt lat="43.5394536" lon="11.3172566"><ele>443.59999999999997</ele><time>2026-03-29T10:03:24.859Z</time></trkpt><trkpt lat="43.539551" lon="11.3172937"><ele>443.0</ele><time>2026-03-29T10:03:25.854Z</time></trkpt><trkpt lat="43.5396701" lon="11.3173211"><ele>447.25</ele><time>2026-03-29T10:03:26.853Z</time></trkpt><trkpt lat="43.5398061" lon="11.3173388"><ele>451.5</ele><time>2026-03-29T10:03:27.867Z</time></trkpt><trkpt lat="43.5399449" lon="11.3173347"><ele>455.75</ele><time>2026-03-29T10:03:28.888Z</time></trkpt><trkpt lat="43.5400781" lon="11.3173026"><ele>460.0</ele><time>2026-03-29T10:03:29.854Z</time></trkpt><trkpt lat="43.5402059" lon="11.3172437"><ele>458.25</ele><time>2026-03-29T10:03:30.858Z</time></trkpt><trkpt lat="43.5403299" lon="11.3171688"><ele>456.5</ele><time>2026-03-29T10:03:31.865Z</time></trkpt><trkpt lat="43.5404498" lon="11.3170897"><ele>454.75</ele><time>2026-03-29T10:03:32.853Z</time></trkpt><trkpt lat="43.5405658" lon="11.3170108"><ele>453.0</ele><time>2026-03-29T10:03:33.874Z</time></trkpt><trkpt lat="43.5406789" lon="11.3169407"><ele>453.0</ele><time>2026-03-29T10:03:34.854Z</time></trkpt><trkpt lat="43.5407881" lon="11.3168882"><ele>453.0</ele><time>2026-03-29T10:03:35.857Z</time></trkpt><trkpt lat="43.5408993" lon="11.3168621"><ele>453.0</ele><time>2026-03-29T10:03:36.888Z</time></trkpt><trkpt lat="43.5410147" lon="11.3168608"><ele>453.0</ele><time>2026-03-29T10:03:37.887Z</time></trkpt><trkpt lat="43.5411341" lon="11.3168826"><ele>453.5</ele><time>2026-03-29T10:03:38.859Z</time></trkpt><trkpt lat="43.5412534" lon="11.3169237"><ele>454.0</ele><time>2026-03-29T10:03:39.857Z</time></trkpt><trkpt lat="43.541374" lon="11.3169726"><ele>454.5</ele><time>2026-03-29T10:03:40.86Z</time></trkpt><trkpt lat="43.5414925" lon="11.3170223"><ele>455.0</ele><time>2026-03-29T10:03:41.857Z</time></trkpt><trkpt lat="43.5416093" lon="11.3170667"><ele>455.0</ele><time>2026-03-29T10:03:42.854Z</time></trkpt><trkpt lat="43.5417313" lon="11.3171051"><ele>455.0</ele><time>2026-03-29T10:03:43.856Z</time></trkpt><trkpt lat="43.5418524" lon="11.3171471"><ele>455.0</ele><time>2026-03-29T10:03:44.852Z</time></trkpt><trkpt lat="43.5419701" lon="11.3171896"><ele>455.0</ele><time>2026-03-29T10:03:45.859Z</time></trkpt><trkpt lat="43.5420838" lon="11.3172171"><ele>457.3333333333333</ele><time>2026-03-29T10:03:46.855Z</time></trkpt><trkpt lat="43.5421752" lon="11.3172169"><ele>459.66666666666663</ele><time>2026-03-29T10:03:47.885Z</time></trkpt><trkpt lat="43.5422478" lon="11.3171907"><ele>462.0</ele><time>2026-03-29T10:03:48.856Z</time></trkpt><trkpt lat="43.5423315" lon="11.3171041"><ele>464.33333333333337</ele><time>2026-03-29T10:03:50.852Z</time></trkpt><trkpt lat="43.5422726" lon="11.3170032"><ele>466.6666666666667</ele><time>2026-03-29T10:04:12.86Z</time></trkpt><trkpt lat="43.5422168" lon="11.3170489"><ele>469.0</ele><time>2026-03-29T10:04:13.892Z</time></trkpt><trkpt lat="43.542146" lon="11.3170895"><ele>469.0</ele><time>2026-03-29T10:04:14.858Z</time></trkpt><trkpt lat="43.5420649" lon="11.3171197"><ele>469.0</ele><time>2026-03-29T10:04:15.885Z</time></trkpt><trkpt lat="43.5419742" lon="11.3171279"><ele>469.0</ele><time>2026-03-29T10:04:16.898Z</time></trkpt><trkpt lat="43.5418797" lon="11.3171217"><ele>469.0</ele><time>2026-03-29T10:04:17.855Z</time></trkpt><trkpt lat="43.5417873" lon="11.3171001"><ele>469.0</ele><time>2026-03-29T10:04:18.858Z</time></trkpt><trkpt lat="43.541697" lon="11.3170743"><ele>466.2</ele><time>2026-03-29T10:04:19.861Z</time></trkpt><trkpt lat="43.5416006" lon="11.3170524"><ele>463.4</ele><time>2026-03-29T10:04:20.859Z</time></trkpt><trkpt lat="43.5415089" lon="11.3170258"><ele>460.6</ele><time>2026-03-29T10:04:21.878Z</time></trkpt><trkpt lat="43.5414188" lon="11.317"><ele>457.8</ele><time>2026-03-29T10:04:22.857Z</time></trkpt><trkpt lat="43.5413229" lon="11.3169809"><ele>455.0</ele><time>2026-03-29T10:04:23.854Z</time></trkpt><trkpt lat="43.54122" lon="11.3169532"><ele>454.6</ele><time>2026-03-29T10:04:24.856Z</time></trkpt><trkpt lat="43.5411123" lon="11.3169247"><ele>454.2</ele><time>2026-03-29T10:04:25.856Z</time></trkpt><trkpt lat="43.5409987" lon="11.3169013"><ele>453.79999999999995</ele><time>2026-03-29T10:04:26.854Z</time></trkpt><trkpt lat="43.5408937" lon="11.3168843"><ele>453.4</ele><time>2026-03-29T10:04:27.859Z</time></trkpt><trkpt lat="43.5407964" lon="11.3168778"><ele>453.0</ele><time>2026-03-29T10:04:28.861Z</time></trkpt><trkpt lat="43.5406989" lon="11.3168848"><ele>453.0</ele><time>2026-03-29T10:04:29.894Z</time></trkpt><trkpt lat="43.5406108" lon="11.3169192"><ele>453.0</ele><time>2026-03-29T10:04:30.856Z</time></trkpt><trkpt lat="43.5405303" lon="11.3169717"><ele>453.0</ele><time>2026-03-29T10:04:31.858Z</time></trkpt><trkpt lat="43.5404548" lon="11.3170289"><ele>453.0</ele><time>2026-03-29T10:04:32.853Z</time></trkpt><trkpt lat="43.5403814" lon="11.3170797"><ele>453.0</ele><time>2026-03-29T10:04:33.885Z</time></trkpt><trkpt lat="43.5403158" lon="11.31712"><ele>453.0</ele><time>2026-03-29T10:04:34.853Z</time></trkpt><trkpt lat="43.5402207" lon="11.3171731"><ele>451.59999999999997</ele><time>2026-03-29T10:04:36.856Z</time></trkpt><trkpt lat="43.5401604" lon="11.3172229"><ele>450.19999999999993</ele><time>2026-03-29T10:04:40.858Z</time></trkpt><trkpt lat="43.5401633" lon="11.3173328"><ele>448.8</ele><time>2026-03-29T10:04:43.885Z</time></trkpt><trkpt lat="43.5402119" lon="11.3174269"><ele>447.4</ele><time>2026-03-29T10:04:45.892Z</time></trkpt><trkpt lat="43.5403346" lon="11.3175069"><ele>446.0</ele><time>2026-03-29T10:04:47.857Z</time></trkpt><trkpt lat="43.5404185" lon="11.3175447"><ele>450.6</ele><time>2026-03-29T10:04:48.855Z</time></trkpt><trkpt lat="43.5405143" lon="11.3175779"><ele>455.20000000000005</ele><time>2026-03-29T10:04:49.857Z</time></trkpt><trkpt lat="43.5406165" lon="11.3175993"><ele>459.79999999999995</ele><time>2026-03-29T10:04:50.885Z</time></trkpt><trkpt lat="43.5407289" lon="11.3176093"><ele>464.4</ele><time>2026-03-29T10:04:51.893Z</time></trkpt><trkpt lat="43.5408436" lon="11.3176092"><ele>469.0</ele><time>2026-03-29T10:04:52.859Z</time></trkpt><trkpt lat="43.5409686" lon="11.3176137"><ele>469.0</ele><time>2026-03-29T10:04:53.857Z</time></trkpt><trkpt lat="43.5410932" lon="11.3176224"><ele>469.0</ele><time>2026-03-29T10:04:54.872Z</time></trkpt><trkpt lat="43.5412224" lon="11.317631"><ele>469.0</ele><time>2026-03-29T10:04:55.861Z</time></trkpt><trkpt lat="43.5413511" lon="11.3176453"><ele>469.0</ele><time>2026-03-29T10:04:56.887Z</time></trkpt><trkpt lat="43.5414776" lon="11.3176748"><ele>470.25</ele><time>2026-03-29T10:04:57.854Z</time></trkpt><trkpt lat="43.5416012" lon="11.3177261"><ele>471.5</ele><time>2026-03-29T10:04:58.886Z</time></trkpt><trkpt lat="43.5417212" lon="11.3178019"><ele>472.75</ele><time>2026-03-29T10:04:59.856Z</time></trkpt><trkpt lat="43.5418411" lon="11.3178884"><ele>474.0</ele><time>2026-03-29T10:05:00.859Z</time></trkpt><trkpt lat="43.5419562" lon="11.3179796"><ele>475.2</ele><time>2026-03-29T10:05:01.859Z</time></trkpt><trkpt lat="43.5420645" lon="11.3180414"><ele>476.4</ele><time>2026-03-29T10:05:02.853Z</time></trkpt><trkpt lat="43.5421632" lon="11.3180988"><ele>477.6</ele><time>2026-03-29T10:05:03.864Z</time></trkpt><trkpt lat="43.5422598" lon="11.3181217"><ele>478.8</ele><time>2026-03-29T10:05:04.855Z</time></trkpt><trkpt lat="43.5423658" lon="11.3181058"><ele>480.0</ele><time>2026-03-29T10:05:05.857Z</time></trkpt><trkpt lat="43.5424667" lon="11.3180464"><ele>480.0</ele><time>2026-03-29T10:05:06.885Z</time></trkpt><trkpt lat="43.5425707" lon="11.3179443"><ele>480.0</ele><time>2026-03-29T10:05:07.855Z</time></trkpt><trkpt lat="43.5426702" lon="11.3178162"><ele>480.0</ele><time>2026-03-29T10:05:08.857Z</time></trkpt><trkpt lat="43.5427573" lon="11.3176956"><ele>480.0</ele><time>2026-03-29T10:05:09.861Z</time></trkpt><trkpt lat="43.5428354" lon="11.3176114"><ele>482.0</ele><time>2026-03-29T10:05:10.854Z</time></trkpt><trkpt lat="43.542919" lon="11.3175608"><ele>484.0</ele><time>2026-03-29T10:05:11.854Z</time></trkpt><trkpt lat="43.5430175" lon="11.3175549"><ele>486.0</ele><time>2026-03-29T10:05:12.86Z</time></trkpt><trkpt lat="43.5431095" lon="11.3175862"><ele>488.0</ele><time>2026-03-29T10:05:13.851Z</time></trkpt><trkpt lat="43.5431768" lon="11.3176298"><ele>490.0</ele><time>2026-03-29T10:05:14.856Z</time></trkpt><trkpt lat="43.5432274" lon="11.3177826"><ele>490.00000000000006</ele><time>2026-03-29T10:05:16.857Z</time></trkpt><trkpt lat="43.5432197" lon="11.3178791"><ele>490.0</ele><time>2026-03-29T10:05:17.855Z</time></trkpt><trkpt lat="43.5431983" lon="11.3179856"><ele>490.0</ele><time>2026-03-29T10:05:18.885Z</time></trkpt><trkpt lat="43.5431613" lon="11.3180845"><ele>490.0</ele><time>2026-03-29T10:05:19.854Z</time></trkpt><trkpt lat="43.5431077" lon="11.318193"><ele>490.00000000000006</ele><time>2026-03-29T10:05:20.86Z</time></trkpt><trkpt lat="43.5430412" lon="11.3182997"><ele>490.0</ele><time>2026-03-29T10:05:21.857Z</time></trkpt><trkpt lat="43.5429638" lon="11.3184108"><ele>489.5</ele><time>2026-03-29T10:05:22.853Z</time></trkpt><trkpt lat="43.5428748" lon="11.3185155"><ele>489.0</ele><time>2026-03-29T10:05:23.886Z</time></trkpt><trkpt lat="43.5427755" lon="11.3186216"><ele>488.5</ele><time>2026-03-29T10:05:24.855Z</time></trkpt><trkpt lat="43.5426755" lon="11.3187289"><ele>488.0</ele><time>2026-03-29T10:05:25.857Z</time></trkpt><trkpt lat="43.5425635" lon="11.3188507"><ele>488.5</ele><time>2026-03-29T10:05:26.864Z</time></trkpt><trkpt lat="43.5424489" lon="11.3189728"><ele>489.0</ele><time>2026-03-29T10:05:27.859Z</time></trkpt><trkpt lat="43.542335" lon="11.3190913"><ele>489.5</ele><time>2026-03-29T10:05:28.854Z</time></trkpt><trkpt lat="43.5422215" lon="11.3192111"><ele>490.0</ele><time>2026-03-29T10:05:29.858Z</time></trkpt><trkpt lat="43.5421056" lon="11.3193341"><ele>491.0</ele><time>2026-03-29T10:05:30.887Z</time></trkpt><trkpt lat="43.5419892" lon="11.3194621"><ele>492.0</ele><time>2026-03-29T10:05:31.86Z</time></trkpt><trkpt lat="43.5418693" lon="11.3195939"><ele>493.0</ele><time>2026-03-29T10:05:32.891Z</time></trkpt><trkpt lat="43.5417465" lon="11.3197286"><ele>493.5</ele><time>2026-03-29T10:05:33.858Z</time></trkpt><trkpt lat="43.5416218" lon="11.3198565"><ele>494.0</ele><time>2026-03-29T10:05:34.861Z</time></trkpt><trkpt lat="43.5414997" lon="11.3199742"><ele>494.5</ele><time>2026-03-29T10:05:35.859Z</time></trkpt><trkpt lat="43.5413803" lon="11.320087"><ele>495.0</ele><time>2026-03-29T10:05:36.885Z</time></trkpt><trkpt lat="43.5412615" lon="11.3201994"><ele>496.25</ele><time>2026-03-29T10:05:37.859Z</time></trkpt><trkpt lat="43.5411534" lon="11.3203211"><ele>497.5</ele><time>2026-03-29T10:05:38.89Z</time></trkpt><trkpt lat="43.5410581" lon="11.3204574"><ele>498.75</ele><time>2026-03-29T10:05:39.86Z</time></trkpt><trkpt lat="43.54097" lon="11.3206051"><ele>500.0</ele><time>2026-03-29T10:05:40.857Z</time></trkpt><trkpt lat="43.5408939" lon="11.3207659"><ele>500.5</ele><time>2026-03-29T10:05:41.863Z</time></trkpt><trkpt lat="43.54082" lon="11.3209258"><ele>501.0</ele><time>2026-03-29T10:05:42.854Z</time></trkpt><trkpt lat="43.5407467" lon="11.3210877"><ele>501.5</ele><time>2026-03-29T10:05:43.883Z</time></trkpt><trkpt lat="43.5406722" lon="11.3212505"><ele>502.0</ele><time>2026-03-29T10:05:44.891Z</time></trkpt><trkpt lat="43.5405981" lon="11.3214142"><ele>502.0</ele><time>2026-03-29T10:05:45.859Z</time></trkpt><trkpt lat="43.5405236" lon="11.3215769"><ele>502.0</ele><time>2026-03-29T10:05:46.882Z</time></trkpt><trkpt lat="43.5404514" lon="11.32173"><ele>502.0</ele><time>2026-03-29T10:05:47.856Z</time></trkpt><trkpt lat="43.540385" lon="11.3218749"><ele>502.0</ele><time>2026-03-29T10:05:48.859Z</time></trkpt><trkpt lat="43.5403292" lon="11.3220104"><ele>504.00000000000006</ele><time>2026-03-29T10:05:49.86Z</time></trkpt><trkpt lat="43.5402837" lon="11.3221398"><ele>506.0</ele><time>2026-03-29T10:05:50.888Z</time></trkpt><trkpt lat="43.540249" lon="11.3222664"><ele>508.0</ele><time>2026-03-29T10:05:51.857Z</time></trkpt><trkpt lat="43.5402215" lon="11.322385"><ele>510.0</ele><time>2026-03-29T10:05:52.888Z</time></trkpt><trkpt lat="43.5401936" lon="11.3224897"><ele>512.0</ele><time>2026-03-29T10:05:53.853Z</time></trkpt><trkpt lat="43.5401586" lon="11.3225819"><ele>514.0</ele><time>2026-03-29T10:05:54.856Z</time></trkpt><trkpt lat="43.5401098" lon="11.3226669"><ele>514.0</ele><time>2026-03-29T10:05:55.861Z</time></trkpt><trkpt lat="43.5400446" lon="11.3227439"><ele>514.0</ele><time>2026-03-29T10:05:56.856Z</time></trkpt><trkpt lat="43.5399626" lon="11.3228184"><ele>514.0</ele><time>2026-03-29T10:05:57.859Z</time></trkpt><trkpt lat="43.5398763" lon="11.3229023"><ele>514.0</ele><time>2026-03-29T10:05:58.863Z</time></trkpt><trkpt lat="43.5397877" lon="11.3230048"><ele>514.0</ele><time>2026-03-29T10:05:59.887Z</time></trkpt><trkpt lat="43.5396975" lon="11.3231274"><ele>511.25</ele><time>2026-03-29T10:06:00.892Z</time></trkpt><trkpt lat="43.5396122" lon="11.3232706"><ele>508.5</ele><time>2026-03-29T10:06:01.875Z</time></trkpt><trkpt lat="43.5395269" lon="11.3234405"><ele>505.75</ele><time>2026-03-29T10:06:02.854Z</time></trkpt><trkpt lat="43.5394466" lon="11.3236231"><ele>503.0</ele><time>2026-03-29T10:06:03.855Z</time></trkpt><trkpt lat="43.539366" lon="11.3238023"><ele>503.5</ele><time>2026-03-29T10:06:04.859Z</time></trkpt><trkpt lat="43.5392847" lon="11.3239734"><ele>504.0</ele><time>2026-03-29T10:06:05.887Z</time></trkpt><trkpt lat="43.5392095" lon="11.3241394"><ele>504.5</ele><time>2026-03-29T10:06:06.857Z</time></trkpt><trkpt lat="43.5391349" lon="11.3242989"><ele>505.0</ele><time>2026-03-29T10:06:07.857Z</time></trkpt><trkpt lat="43.5390675" lon="11.324454"><ele>505.0</ele><time>2026-03-29T10:06:08.862Z</time></trkpt><trkpt lat="43.539019" lon="11.3246016"><ele>505.0</ele><time>2026-03-29T10:06:09.857Z</time></trkpt><trkpt lat="43.5389818" lon="11.3247393"><ele>505.0</ele><time>2026-03-29T10:06:10.863Z</time></trkpt><trkpt lat="43.5389491" lon="11.3248572"><ele>505.0</ele><time>2026-03-29T10:06:11.852Z</time></trkpt><trkpt lat="43.5389192" lon="11.3249647"><ele>505.0</ele><time>2026-03-29T10:06:12.889Z</time></trkpt><trkpt lat="43.5388867" lon="11.3250709"><ele>505.8</ele><time>2026-03-29T10:06:13.857Z</time></trkpt><trkpt lat="43.5388539" lon="11.3251804"><ele>506.6</ele><time>2026-03-29T10:06:14.885Z</time></trkpt><trkpt lat="43.5388188" lon="11.3252944"><ele>507.4</ele><time>2026-03-29T10:06:15.861Z</time></trkpt><trkpt lat="43.5387827" lon="11.325411"><ele>508.2</ele><time>2026-03-29T10:06:16.859Z</time></trkpt><trkpt lat="43.5387498" lon="11.3255364"><ele>509.0</ele><time>2026-03-29T10:06:17.857Z</time></trkpt><trkpt lat="43.5387186" lon="11.3256708"><ele>507.79999999999995</ele><time>2026-03-29T10:06:18.857Z</time></trkpt><trkpt lat="43.5386898" lon="11.3258016"><ele>506.59999999999997</ele><time>2026-03-29T10:06:19.857Z</time></trkpt><trkpt lat="43.5386706" lon="11.3259424"><ele>505.4</ele><time>2026-03-29T10:06:20.864Z</time></trkpt><trkpt lat="43.5386655" lon="11.3260868"><ele>504.2</ele><time>2026-03-29T10:06:21.856Z</time></trkpt><trkpt lat="43.5386802" lon="11.326224"><ele>503.0</ele><time>2026-03-29T10:06:22.857Z</time></trkpt><trkpt lat="43.5387131" lon="11.3263497"><ele>505.8333333333333</ele><time>2026-03-29T10:06:23.857Z</time></trkpt><trkpt lat="43.5387515" lon="11.326475"><ele>508.66666666666663</ele><time>2026-03-29T10:06:24.857Z</time></trkpt><trkpt lat="43.5387878" lon="11.3265904"><ele>511.5</ele><time>2026-03-29T10:06:25.893Z</time></trkpt><trkpt lat="43.5388186" lon="11.3266992"><ele>514.3333333333334</ele><time>2026-03-29T10:06:26.861Z</time></trkpt><trkpt lat="43.5388416" lon="11.3268051"><ele>517.1666666666667</ele><time>2026-03-29T10:06:27.86Z</time></trkpt><trkpt lat="43.5388501" lon="11.3269119"><ele>520.0</ele><time>2026-03-29T10:06:28.885Z</time></trkpt><trkpt lat="43.5388448" lon="11.3270176"><ele>520.0</ele><time>2026-03-29T10:06:29.859Z</time></trkpt><trkpt lat="43.5388245" lon="11.3271243"><ele>520.0</ele><time>2026-03-29T10:06:30.859Z</time></trkpt><trkpt lat="43.5387991" lon="11.3272203"><ele>520.0</ele><time>2026-03-29T10:06:31.855Z</time></trkpt><trkpt lat="43.5387704" lon="11.3273145"><ele>520.0</ele><time>2026-03-29T10:06:32.857Z</time></trkpt><trkpt lat="43.5387387" lon="11.3274089"><ele>520.0</ele><time>2026-03-29T10:06:33.86Z</time></trkpt><trkpt lat="43.5387006" lon="11.3275056"><ele>520.0</ele><time>2026-03-29T10:06:34.857Z</time></trkpt><trkpt lat="43.5386468" lon="11.3276067"><ele>520.4</ele><time>2026-03-29T10:06:35.887Z</time></trkpt><trkpt lat="43.5385876" lon="11.3277127"><ele>520.8</ele><time>2026-03-29T10:06:36.86Z</time></trkpt><trkpt lat="43.5385244" lon="11.3278135"><ele>521.2</ele><time>2026-03-29T10:06:37.862Z</time></trkpt><trkpt lat="43.5384547" lon="11.3279135"><ele>521.6</ele><time>2026-03-29T10:06:38.855Z</time></trkpt><trkpt lat="43.5383838" lon="11.3280144"><ele>522.0</ele><time>2026-03-29T10:06:39.858Z</time></trkpt><trkpt lat="43.5383179" lon="11.3281127"><ele>522.0</ele><time>2026-03-29T10:06:40.885Z</time></trkpt><trkpt lat="43.5382554" lon="11.3282147"><ele>522.0</ele><time>2026-03-29T10:06:41.89Z</time></trkpt><trkpt lat="43.5381954" lon="11.3283183"><ele>522.0</ele><time>2026-03-29T10:06:42.856Z</time></trkpt><trkpt lat="43.5381445" lon="11.328415"><ele>522.0</ele><time>2026-03-29T10:06:43.888Z</time></trkpt><trkpt lat="43.5381028" lon="11.3285102"><ele>522.0</ele><time>2026-03-29T10:06:44.886Z</time></trkpt><trkpt lat="43.5380688" lon="11.3286139"><ele>522.0</ele><time>2026-03-29T10:06:45.852Z</time></trkpt><trkpt lat="43.5380415" lon="11.3287295"><ele>522.0</ele><time>2026-03-29T10:06:46.854Z</time></trkpt><trkpt lat="43.5380239" lon="11.3288544"><ele>522.0</ele><time>2026-03-29T10:06:47.854Z</time></trkpt><trkpt lat="43.5380173" lon="11.3289934"><ele>522.0</ele><time>2026-03-29T10:06:48.855Z</time></trkpt><trkpt lat="43.538018" lon="11.3291517"><ele>522.0</ele><time>2026-03-29T10:06:49.862Z</time></trkpt><trkpt lat="43.5380188" lon="11.3293211"><ele>522.0</ele><time>2026-03-29T10:06:50.856Z</time></trkpt><trkpt lat="43.538024" lon="11.3294966"><ele>522.75</ele><time>2026-03-29T10:06:51.891Z</time></trkpt><trkpt lat="43.5380323" lon="11.3296813"><ele>523.5</ele><time>2026-03-29T10:06:52.886Z</time></trkpt><trkpt lat="43.5380449" lon="11.3298756"><ele>524.25</ele><time>2026-03-29T10:06:53.853Z</time></trkpt><trkpt lat="43.5380587" lon="11.3300705"><ele>525.0</ele><time>2026-03-29T10:06:54.859Z</time></trkpt><trkpt lat="43.5380729" lon="11.3302633"><ele>525.0</ele><time>2026-03-29T10:06:55.888Z</time></trkpt><trkpt lat="43.538087" lon="11.3304565"><ele>525.0</ele><time>2026-03-29T10:06:56.857Z</time></trkpt><trkpt lat="43.5381015" lon="11.3306491"><ele>525.0</ele><time>2026-03-29T10:06:57.857Z</time></trkpt><trkpt lat="43.5381153" lon="11.3308314"><ele>525.0</ele><time>2026-03-29T10:06:58.858Z</time></trkpt><trkpt lat="43.5381296" lon="11.3309998"><ele>523.6</ele><time>2026-03-29T10:06:59.858Z</time></trkpt><trkpt lat="43.5381374" lon="11.3311554"><ele>522.2</ele><time>2026-03-29T10:07:00.886Z</time></trkpt><trkpt lat="43.5381365" lon="11.3312991"><ele>520.8</ele><time>2026-03-29T10:07:01.89Z</time></trkpt><trkpt lat="43.5381245" lon="11.3314301"><ele>519.4</ele><time>2026-03-29T10:07:02.891Z</time></trkpt><trkpt lat="43.5380983" lon="11.3315592"><ele>518.0</ele><time>2026-03-29T10:07:03.896Z</time></trkpt><trkpt lat="43.5380631" lon="11.3316863"><ele>517.1999999999999</ele><time>2026-03-29T10:07:04.855Z</time></trkpt><trkpt lat="43.5380155" lon="11.3318076"><ele>516.4</ele><time>2026-03-29T10:07:05.855Z</time></trkpt><trkpt lat="43.5379537" lon="11.331917"><ele>515.5999999999999</ele><time>2026-03-29T10:07:06.862Z</time></trkpt><trkpt lat="43.5378786" lon="11.3320194"><ele>514.8</ele><time>2026-03-29T10:07:07.889Z</time></trkpt><trkpt lat="43.537799" lon="11.3321242"><ele>514.0</ele><time>2026-03-29T10:07:08.884Z</time></trkpt><trkpt lat="43.5377234" lon="11.3322373"><ele>512.75</ele><time>2026-03-29T10:07:09.854Z</time></trkpt><trkpt lat="43.5376533" lon="11.3323691"><ele>511.5</ele><time>2026-03-29T10:07:10.861Z</time></trkpt><trkpt lat="43.5375954" lon="11.3325188"><ele>510.25</ele><time>2026-03-29T10:07:11.855Z</time></trkpt><trkpt lat="43.537545" lon="11.3326705"><ele>509.0</ele><time>2026-03-29T10:07:12.888Z</time></trkpt><trkpt lat="43.5375032" lon="11.3328186"><ele>509.0</ele><time>2026-03-29T10:07:13.857Z</time></trkpt><trkpt lat="43.5374688" lon="11.3329641"><ele>509.0</ele><time>2026-03-29T10:07:14.856Z</time></trkpt><trkpt lat="43.5374362" lon="11.333101"><ele>509.0</ele><time>2026-03-29T10:07:15.854Z</time></trkpt><trkpt lat="43.537411" lon="11.333231"><ele>509.0</ele><time>2026-03-29T10:07:16.859Z</time></trkpt><trkpt lat="43.5373939" lon="11.3333565"><ele>509.0</ele><time>2026-03-29T10:07:17.887Z</time></trkpt><trkpt lat="43.537387" lon="11.3334921"><ele>508.79999999999995</ele><time>2026-03-29T10:07:18.855Z</time></trkpt><trkpt lat="43.5373939" lon="11.3336275"><ele>508.59999999999997</ele><time>2026-03-29T10:07:19.866Z</time></trkpt><trkpt lat="43.5374103" lon="11.3337752"><ele>508.4</ele><time>2026-03-29T10:07:20.858Z</time></trkpt><trkpt lat="43.5374221" lon="11.3339333"><ele>508.2</ele><time>2026-03-29T10:07:21.855Z</time></trkpt><trkpt lat="43.5374249" lon="11.3340945"><ele>508.0</ele><time>2026-03-29T10:07:22.858Z</time></trkpt><trkpt lat="43.5374165" lon="11.3342567"><ele>508.5</ele><time>2026-03-29T10:07:23.858Z</time></trkpt><trkpt lat="43.5374012" lon="11.3344211"><ele>509.0</ele><time>2026-03-29T10:07:24.863Z</time></trkpt><trkpt lat="43.5373773" lon="11.3345833"><ele>509.5</ele><time>2026-03-29T10:07:25.854Z</time></trkpt><trkpt lat="43.5373429" lon="11.3347436"><ele>510.0</ele><time>2026-03-29T10:07:26.857Z</time></trkpt><trkpt lat="43.5372973" lon="11.3349009"><ele>511.5</ele><time>2026-03-29T10:07:27.861Z</time></trkpt><trkpt lat="43.5372507" lon="11.335051"><ele>513.0</ele><time>2026-03-29T10:07:28.862Z</time></trkpt><trkpt lat="43.5372085" lon="11.3351985"><ele>514.5</ele><time>2026-03-29T10:07:29.886Z</time></trkpt><trkpt lat="43.5371664" lon="11.3353378"><ele>516.0</ele><time>2026-03-29T10:07:30.857Z</time></trkpt><trkpt lat="43.5371161" lon="11.33547"><ele>517.8</ele><time>2026-03-29T10:07:31.883Z</time></trkpt><trkpt lat="43.5370612" lon="11.3355903"><ele>519.6</ele><time>2026-03-29T10:07:32.855Z</time></trkpt><trkpt lat="43.5369993" lon="11.3356988"><ele>521.4</ele><time>2026-03-29T10:07:33.863Z</time></trkpt><trkpt lat="43.5369225" lon="11.335783"><ele>523.2</ele><time>2026-03-29T10:07:34.863Z</time></trkpt><trkpt lat="43.536824" lon="11.3358499"><ele>525.0</ele><time>2026-03-29T10:07:35.856Z</time></trkpt><trkpt lat="43.5367071" lon="11.335907"><ele>525.75</ele><time>2026-03-29T10:07:36.892Z</time></trkpt><trkpt lat="43.5365776" lon="11.3359554"><ele>526.5</ele><time>2026-03-29T10:07:37.857Z</time></trkpt><trkpt lat="43.5364544" lon="11.3359987"><ele>527.25</ele><time>2026-03-29T10:07:38.855Z</time></trkpt><trkpt lat="43.5363434" lon="11.3360366"><ele>528.0</ele><time>2026-03-29T10:07:39.886Z</time></trkpt><trkpt lat="43.5362387" lon="11.3360668"><ele>528.1999999999999</ele><time>2026-03-29T10:07:40.887Z</time></trkpt><trkpt lat="43.5361334" lon="11.3360728"><ele>528.4</ele><time>2026-03-29T10:07:41.855Z</time></trkpt><trkpt lat="43.5360345" lon="11.3360402"><ele>528.5999999999999</ele><time>2026-03-29T10:07:42.862Z</time></trkpt><trkpt lat="43.5359494" lon="11.336004"><ele>528.8</ele><time>2026-03-29T10:07:43.859Z</time></trkpt><trkpt lat="43.5358874" lon="11.3359739"><ele>529.0</ele><time>2026-03-29T10:07:44.867Z</time></trkpt><trkpt lat="43.5357925" lon="11.3360118"><ele>529.0</ele><time>2026-03-29T10:07:46.863Z</time></trkpt><trkpt lat="43.535739" lon="11.3361933"><ele>529.0</ele><time>2026-03-29T10:07:48.859Z</time></trkpt><trkpt lat="43.5357339" lon="11.3363271"><ele>529.0</ele><time>2026-03-29T10:07:49.854Z</time></trkpt><trkpt lat="43.535732" lon="11.3364582"><ele>529.0</ele><time>2026-03-29T10:07:50.857Z</time></trkpt><trkpt lat="43.5357209" lon="11.3365712"><ele>529.0</ele><time>2026-03-29T10:07:51.859Z</time></trkpt><trkpt lat="43.5356844" lon="11.3366769"><ele>530.5</ele><time>2026-03-29T10:07:52.854Z</time></trkpt><trkpt lat="43.5356094" lon="11.3367744"><ele>532.0</ele><time>2026-03-29T10:07:53.855Z</time></trkpt><trkpt lat="43.5355045" lon="11.3368793"><ele>533.5</ele><time>2026-03-29T10:07:54.856Z</time></trkpt><trkpt lat="43.5353761" lon="11.3369836"><ele>535.0</ele><time>2026-03-29T10:07:55.887Z</time></trkpt><trkpt lat="43.5352421" lon="11.3370799"><ele>535.0</ele><time>2026-03-29T10:07:56.865Z</time></trkpt><trkpt lat="43.5351198" lon="11.3371805"><ele>535.0</ele><time>2026-03-29T10:07:57.86Z</time></trkpt><trkpt lat="43.5350024" lon="11.3372832"><ele>535.0</ele><time>2026-03-29T10:07:58.885Z</time></trkpt><trkpt lat="43.5348944" lon="11.3373818"><ele>535.0</ele><time>2026-03-29T10:07:59.854Z</time></trkpt><trkpt lat="43.5347899" lon="11.3374824"><ele>537.2</ele><time>2026-03-29T10:08:00.859Z</time></trkpt><trkpt lat="43.5347007" lon="11.3375724"><ele>539.4</ele><time>2026-03-29T10:08:01.856Z</time></trkpt><trkpt lat="43.5346151" lon="11.3376502"><ele>541.6</ele><time>2026-03-29T10:08:02.887Z</time></trkpt><trkpt lat="43.534535" lon="11.3377175"><ele>543.8</ele><time>2026-03-29T10:08:03.858Z</time></trkpt><trkpt lat="43.5344625" lon="11.3377755"><ele>546.0</ele><time>2026-03-29T10:08:04.883Z</time></trkpt><trkpt lat="43.5344023" lon="11.33784"><ele>546.0</ele><time>2026-03-29T10:08:05.859Z</time></trkpt><trkpt lat="43.5343513" lon="11.3379201"><ele>546.0</ele><time>2026-03-29T10:08:06.869Z</time></trkpt><trkpt lat="43.5343165" lon="11.3380071"><ele>546.0</ele><time>2026-03-29T10:08:07.859Z</time></trkpt><trkpt lat="43.5343062" lon="11.3380978"><ele>546.0</ele><time>2026-03-29T10:08:08.864Z</time></trkpt><trkpt lat="43.534326" lon="11.3381913"><ele>546.0</ele><time>2026-03-29T10:08:09.856Z</time></trkpt><trkpt lat="43.5343617" lon="11.3382707"><ele>546.0</ele><time>2026-03-29T10:08:10.86Z</time></trkpt><trkpt lat="43.534403" lon="11.3383538"><ele>546.0</ele><time>2026-03-29T10:08:11.855Z</time></trkpt><trkpt lat="43.5344542" lon="11.3384419"><ele>548.5</ele><time>2026-03-29T10:08:12.857Z</time></trkpt><trkpt lat="43.5345203" lon="11.338552"><ele>551.0</ele><time>2026-03-29T10:08:13.856Z</time></trkpt><trkpt lat="43.5345944" lon="11.3386824"><ele>553.5</ele><time>2026-03-29T10:08:14.855Z</time></trkpt><trkpt lat="43.5346792" lon="11.3388327"><ele>556.0</ele><time>2026-03-29T10:08:15.857Z</time></trkpt><trkpt lat="43.5347588" lon="11.3389923"><ele>563.0</ele><time>2026-03-29T10:08:16.858Z</time></trkpt><trkpt lat="43.5348337" lon="11.3391512"><ele>570.0</ele><time>2026-03-29T10:08:17.856Z</time></trkpt><trkpt lat="43.5349039" lon="11.339305"><ele>577.0</ele><time>2026-03-29T10:08:18.867Z</time></trkpt><trkpt lat="43.5349734" lon="11.3394599"><ele>584.0</ele><time>2026-03-29T10:08:19.855Z</time></trkpt><trkpt lat="43.5350459" lon="11.3396175"><ele>582.0</ele><time>2026-03-29T10:08:20.884Z</time></trkpt><trkpt lat="43.5351197" lon="11.3397715"><ele>580.0</ele><time>2026-03-29T10:08:21.859Z</time></trkpt><trkpt lat="43.535198" lon="11.3399151"><ele>578.0</ele><time>2026-03-29T10:08:22.855Z</time></trkpt><trkpt lat="43.5352879" lon="11.3400424"><ele>576.0</ele><time>2026-03-29T10:08:23.885Z</time></trkpt><trkpt lat="43.5353926" lon="11.3401504"><ele>583.25</ele><time>2026-03-29T10:08:24.894Z</time></trkpt><trkpt lat="43.535509" lon="11.3402408"><ele>590.5</ele><time>2026-03-29T10:08:25.888Z</time></trkpt><trkpt lat="43.5356281" lon="11.3403222"><ele>597.75</ele><time>2026-03-29T10:08:26.885Z</time></trkpt><trkpt lat="43.5357492" lon="11.3404019"><ele>605.0</ele><time>2026-03-29T10:08:27.895Z</time></trkpt><trkpt lat="43.5358773" lon="11.3404809"><ele>606.5</ele><time>2026-03-29T10:08:28.868Z</time></trkpt><trkpt lat="43.5360065" lon="11.3405579"><ele>608.0</ele><time>2026-03-29T10:08:29.861Z</time></trkpt><trkpt lat="43.5361339" lon="11.3406304"><ele>609.5</ele><time>2026-03-29T10:08:30.888Z</time></trkpt><trkpt lat="43.5362514" lon="11.3407031"><ele>611.0</ele><time>2026-03-29T10:08:31.887Z</time></trkpt><trkpt lat="43.5363569" lon="11.3407809"><ele>611.0</ele><time>2026-03-29T10:08:32.886Z</time></trkpt><trkpt lat="43.536448" lon="11.3408639"><ele>611.0</ele><time>2026-03-29T10:08:33.859Z</time></trkpt><trkpt lat="43.5365333" lon="11.3409438"><ele>611.0</ele><time>2026-03-29T10:08:34.856Z</time></trkpt><trkpt lat="43.5366285" lon="11.3410145"><ele>611.0</ele><time>2026-03-29T10:08:35.856Z</time></trkpt><trkpt lat="43.5367329" lon="11.3410701"><ele>611.0</ele><time>2026-03-29T10:08:36.856Z</time></trkpt><trkpt lat="43.5368296" lon="11.3411177"><ele>611.0</ele><time>2026-03-29T10:08:37.86Z</time></trkpt><trkpt lat="43.5369152" lon="11.3411608"><ele>611.0</ele><time>2026-03-29T10:08:38.865Z</time></trkpt><trkpt lat="43.536981" lon="11.3412207"><ele>611.0</ele><time>2026-03-29T10:08:39.856Z</time></trkpt><trkpt lat="43.5370243" lon="11.3412949"><ele>611.0</ele><time>2026-03-29T10:08:40.886Z</time></trkpt><trkpt lat="43.537048" lon="11.3413839"><ele>611.0</ele><time>2026-03-29T10:08:41.859Z</time></trkpt><trkpt lat="43.5370509" lon="11.3414989"><ele>611.0</ele><time>2026-03-29T10:08:42.856Z</time></trkpt><trkpt lat="43.5370469" lon="11.3416368"><ele>611.25</ele><time>2026-03-29T10:08:43.859Z</time></trkpt><trkpt lat="43.5370403" lon="11.341794"><ele>611.5</ele><time>2026-03-29T10:08:44.888Z</time></trkpt><trkpt lat="43.5370359" lon="11.3419627"><ele>611.75</ele><time>2026-03-29T10:08:45.857Z</time></trkpt><trkpt lat="43.5370394" lon="11.3421379"><ele>612.0</ele><time>2026-03-29T10:08:46.858Z</time></trkpt><trkpt lat="43.5370391" lon="11.3423233"><ele>612.0</ele><time>2026-03-29T10:08:47.89Z</time></trkpt><trkpt lat="43.5370376" lon="11.3425046"><ele>612.0</ele><time>2026-03-29T10:08:48.861Z</time></trkpt><trkpt lat="43.5370355" lon="11.3426847"><ele>612.0</ele><time>2026-03-29T10:08:49.865Z</time></trkpt><trkpt lat="43.5370397" lon="11.342862"><ele>612.0</ele><time>2026-03-29T10:08:50.857Z</time></trkpt><trkpt lat="43.5370418" lon="11.3430445"><ele>615.25</ele><time>2026-03-29T10:08:51.858Z</time></trkpt><trkpt lat="43.5370378" lon="11.3432256"><ele>618.5</ele><time>2026-03-29T10:08:52.883Z</time></trkpt><trkpt lat="43.5370177" lon="11.3434001"><ele>621.75</ele><time>2026-03-29T10:08:53.862Z</time></trkpt><trkpt lat="43.5369807" lon="11.3435638"><ele>625.0</ele><time>2026-03-29T10:08:54.858Z</time></trkpt><trkpt lat="43.5369309" lon="11.3437217"><ele>627.0</ele><time>2026-03-29T10:08:55.861Z</time></trkpt><trkpt lat="43.5368797" lon="11.3438802"><ele>629.0</ele><time>2026-03-29T10:08:56.852Z</time></trkpt><trkpt lat="43.5368335" lon="11.3440281"><ele>631.0</ele><time>2026-03-29T10:08:57.86Z</time></trkpt><trkpt lat="43.5367904" lon="11.344162"><ele>633.0</ele><time>2026-03-29T10:08:58.864Z</time></trkpt><trkpt lat="43.5367504" lon="11.3442935"><ele>633.0</ele><time>2026-03-29T10:08:59.86Z</time></trkpt><trkpt lat="43.5367104" lon="11.3444365"><ele>633.0</ele><time>2026-03-29T10:09:00.859Z</time></trkpt><trkpt lat="43.5366707" lon="11.3445898"><ele>633.0</ele><time>2026-03-29T10:09:01.853Z</time></trkpt><trkpt lat="43.5366239" lon="11.3447514"><ele>633.0</ele><time>2026-03-29T10:09:02.856Z</time></trkpt><trkpt lat="43.5365693" lon="11.3449224"><ele>633.75</ele><time>2026-03-29T10:09:03.858Z</time></trkpt><trkpt lat="43.5365168" lon="11.3450926"><ele>634.5</ele><time>2026-03-29T10:09:04.887Z</time></trkpt><trkpt lat="43.5364579" lon="11.3452594"><ele>635.25</ele><time>2026-03-29T10:09:05.861Z</time></trkpt><trkpt lat="43.5364059" lon="11.3454306"><ele>636.0</ele><time>2026-03-29T10:09:06.853Z</time></trkpt><trkpt lat="43.5363527" lon="11.3456055"><ele>636.0</ele><time>2026-03-29T10:09:07.886Z</time></trkpt><trkpt lat="43.5362994" lon="11.3457779"><ele>636.0</ele><time>2026-03-29T10:09:08.861Z</time></trkpt><trkpt lat="43.53625" lon="11.3459494"><ele>636.0</ele><time>2026-03-29T10:09:09.872Z</time></trkpt><trkpt lat="43.5361992" lon="11.3461192"><ele>636.0</ele><time>2026-03-29T10:09:10.855Z</time></trkpt><trkpt lat="43.5361474" lon="11.3462804"><ele>638.2</ele><time>2026-03-29T10:09:11.863Z</time></trkpt><trkpt lat="43.5361" lon="11.3464305"><ele>640.4000000000001</ele><time>2026-03-29T10:09:12.892Z</time></trkpt><trkpt lat="43.536056" lon="11.346568"><ele>642.6</ele><time>2026-03-29T10:09:13.885Z</time></trkpt><trkpt lat="43.5359948" lon="11.3467019"><ele>644.8000000000001</ele><time>2026-03-29T10:09:14.857Z</time></trkpt><trkpt lat="43.5359247" lon="11.3468113"><ele>647.0</ele><time>2026-03-29T10:09:15.862Z</time></trkpt><trkpt lat="43.5358383" lon="11.3469099"><ele>647.0</ele><time>2026-03-29T10:09:16.862Z</time></trkpt><trkpt lat="43.5357402" lon="11.3470028"><ele>647.0</ele><time>2026-03-29T10:09:17.883Z</time></trkpt><trkpt lat="43.5356283" lon="11.3470942"><ele>647.0</ele><time>2026-03-29T10:09:18.854Z</time></trkpt><trkpt lat="43.5355155" lon="11.3471882"><ele>647.0</ele><time>2026-03-29T10:09:19.855Z</time></trkpt><trkpt lat="43.5354041" lon="11.3472873"><ele>649.0</ele><time>2026-03-29T10:09:20.887Z</time></trkpt><trkpt lat="43.535291" lon="11.3473898"><ele>651.0</ele><time>2026-03-29T10:09:21.855Z</time></trkpt><trkpt lat="43.5351747" lon="11.3474887"><ele>653.0</ele><time>2026-03-29T10:09:22.854Z</time></trkpt><trkpt lat="43.5350565" lon="11.3475811"><ele>655.0</ele><time>2026-03-29T10:09:23.865Z</time></trkpt><trkpt lat="43.5349427" lon="11.3476697"><ele>655.0</ele><time>2026-03-29T10:09:24.889Z</time></trkpt><trkpt lat="43.5348296" lon="11.3477532"><ele>655.0</ele><time>2026-03-29T10:09:25.858Z</time></trkpt><trkpt lat="43.5347169" lon="11.3478399"><ele>655.0</ele><time>2026-03-29T10:09:26.859Z</time></trkpt><trkpt lat="43.5346012" lon="11.3479364"><ele>655.0</ele><time>2026-03-29T10:09:27.859Z</time></trkpt><trkpt lat="43.5344768" lon="11.348047"><ele>654.0</ele><time>2026-03-29T10:09:28.888Z</time></trkpt><trkpt lat="43.5343471" lon="11.3481648"><ele>653.0</ele><time>2026-03-29T10:09:29.856Z</time></trkpt><trkpt lat="43.534213" lon="11.3482834"><ele>652.0</ele><time>2026-03-29T10:09:30.864Z</time></trkpt><trkpt lat="43.5340775" lon="11.3483978"><ele>652.0</ele><time>2026-03-29T10:09:31.858Z</time></trkpt><trkpt lat="43.5339384" lon="11.3485103"><ele>652.0</ele><time>2026-03-29T10:09:32.854Z</time></trkpt><trkpt lat="43.5337958" lon="11.3486241"><ele>652.0</ele><time>2026-03-29T10:09:33.855Z</time></trkpt><trkpt lat="43.5336584" lon="11.348735"><ele>654.3333333333334</ele><time>2026-03-29T10:09:34.854Z</time></trkpt><trkpt lat="43.5335213" lon="11.3488495"><ele>656.6666666666666</ele><time>2026-03-29T10:09:35.86Z</time></trkpt><trkpt lat="43.533387" lon="11.3489646"><ele>659.0</ele><time>2026-03-29T10:09:36.866Z</time></trkpt><trkpt lat="43.5332542" lon="11.3490807"><ele>659.0</ele><time>2026-03-29T10:09:37.864Z</time></trkpt><trkpt lat="43.5331167" lon="11.3492005"><ele>659.0</ele><time>2026-03-29T10:09:38.893Z</time></trkpt><trkpt lat="43.532983" lon="11.3493177"><ele>659.0</ele><time>2026-03-29T10:09:39.86Z</time></trkpt><trkpt lat="43.5328497" lon="11.3494371"><ele>657.5</ele><time>2026-03-29T10:09:40.903Z</time></trkpt><trkpt lat="43.5327213" lon="11.3495486"><ele>656.0</ele><time>2026-03-29T10:09:41.869Z</time></trkpt><trkpt lat="43.5326014" lon="11.3496504"><ele>654.5</ele><time>2026-03-29T10:09:42.863Z</time></trkpt><trkpt lat="43.5324911" lon="11.3497384"><ele>653.0</ele><time>2026-03-29T10:09:43.901Z</time></trkpt><trkpt lat="43.5323908" lon="11.3498153"><ele>652.5999999999999</ele><time>2026-03-29T10:09:44.861Z</time></trkpt><trkpt lat="43.5323007" lon="11.3498841"><ele>652.1999999999999</ele><time>2026-03-29T10:09:45.859Z</time></trkpt><trkpt lat="43.5322139" lon="11.3499518"><ele>651.8</ele><time>2026-03-29T10:09:46.859Z</time></trkpt><trkpt lat="43.5321328" lon="11.3500191"><ele>651.4</ele><time>2026-03-29T10:09:47.87Z</time></trkpt><trkpt lat="43.5320589" lon="11.3501049"><ele>651.0</ele><time>2026-03-29T10:09:48.867Z</time></trkpt><trkpt lat="43.5319909" lon="11.3502078"><ele>651.0</ele><time>2026-03-29T10:09:49.897Z</time></trkpt><trkpt lat="43.5319307" lon="11.3503335"><ele>651.0</ele><time>2026-03-29T10:09:50.865Z</time></trkpt><trkpt lat="43.5318828" lon="11.3504688"><ele>651.0</ele><time>2026-03-29T10:09:51.877Z</time></trkpt><trkpt lat="43.5318422" lon="11.350605"><ele>651.0</ele><time>2026-03-29T10:09:52.865Z</time></trkpt><trkpt lat="43.5318093" lon="11.3507417"><ele>651.0</ele><time>2026-03-29T10:09:53.896Z</time></trkpt><trkpt lat="43.5317877" lon="11.3508852"><ele>653.75</ele><time>2026-03-29T10:09:54.871Z</time></trkpt><trkpt lat="43.5317735" lon="11.3510431"><ele>656.5</ele><time>2026-03-29T10:09:55.867Z</time></trkpt><trkpt lat="43.531762" lon="11.3512246"><ele>659.25</ele><time>2026-03-29T10:09:56.861Z</time></trkpt><trkpt lat="43.5317545" lon="11.3514143"><ele>662.0</ele><time>2026-03-29T10:09:57.867Z</time></trkpt><trkpt lat="43.5317414" lon="11.3516096"><ele>663.6666666666666</ele><time>2026-03-29T10:09:58.897Z</time></trkpt><trkpt lat="43.5317229" lon="11.3518119"><ele>665.3333333333334</ele><time>2026-03-29T10:09:59.899Z</time></trkpt><trkpt lat="43.531699" lon="11.3520222"><ele>667.0</ele><time>2026-03-29T10:10:00.897Z</time></trkpt><trkpt lat="43.5316757" lon="11.3522369"><ele>667.3333333333334</ele><time>2026-03-29T10:10:01.867Z</time></trkpt><trkpt lat="43.5316519" lon="11.3524474"><ele>667.6666666666666</ele><time>2026-03-29T10:10:02.871Z</time></trkpt><trkpt lat="43.5316315" lon="11.3526539"><ele>668.0</ele><time>2026-03-29T10:10:03.867Z</time></trkpt><trkpt lat="43.5316078" lon="11.3528549"><ele>667.25</ele><time>2026-03-29T10:10:04.867Z</time></trkpt><trkpt lat="43.5315844" lon="11.3530515"><ele>666.5</ele><time>2026-03-29T10:10:05.879Z</time></trkpt><trkpt lat="43.5315648" lon="11.3532332"><ele>665.75</ele><time>2026-03-29T10:10:06.878Z</time></trkpt><trkpt lat="43.5315472" lon="11.35341"><ele>665.0</ele><time>2026-03-29T10:10:07.87Z</time></trkpt><trkpt lat="43.5315316" lon="11.3535816"><ele>665.0</ele><time>2026-03-29T10:10:08.861Z</time></trkpt><trkpt lat="43.5315142" lon="11.3537571"><ele>665.0</ele><time>2026-03-29T10:10:09.863Z</time></trkpt><trkpt lat="43.5314911" lon="11.3539329"><ele>665.0</ele><time>2026-03-29T10:10:10.865Z</time></trkpt><trkpt lat="43.531458" lon="11.3541001"><ele>665.0</ele><time>2026-03-29T10:10:11.876Z</time></trkpt><trkpt lat="43.5314188" lon="11.3542568"><ele>664.5</ele><time>2026-03-29T10:10:12.862Z</time></trkpt><trkpt lat="43.5313792" lon="11.3544064"><ele>664.0</ele><time>2026-03-29T10:10:13.872Z</time></trkpt><trkpt lat="43.5313334" lon="11.3545607"><ele>663.5</ele><time>2026-03-29T10:10:14.891Z</time></trkpt><trkpt lat="43.5312873" lon="11.3547169"><ele>663.0</ele><time>2026-03-29T10:10:15.869Z</time></trkpt><trkpt lat="43.5312352" lon="11.3548785"><ele>662.75</ele><time>2026-03-29T10:10:16.895Z</time></trkpt><trkpt lat="43.5311821" lon="11.3550391"><ele>662.5</ele><time>2026-03-29T10:10:17.865Z</time></trkpt><trkpt lat="43.5311264" lon="11.3551862"><ele>662.25</ele><time>2026-03-29T10:10:18.862Z</time></trkpt><trkpt lat="43.5310697" lon="11.3553252"><ele>662.0</ele><time>2026-03-29T10:10:19.868Z</time></trkpt><trkpt lat="43.5310124" lon="11.3554543"><ele>662.4000000000001</ele><time>2026-03-29T10:10:20.875Z</time></trkpt><trkpt lat="43.5309561" lon="11.3555712"><ele>662.8000000000001</ele><time>2026-03-29T10:10:21.862Z</time></trkpt><trkpt lat="43.5308956" lon="11.3556665"><ele>663.2</ele><time>2026-03-29T10:10:22.869Z</time></trkpt><trkpt lat="43.5308251" lon="11.3557366"><ele>663.6</ele><time>2026-03-29T10:10:23.862Z</time></trkpt><trkpt lat="43.530743" lon="11.355786"><ele>664.0</ele><time>2026-03-29T10:10:24.863Z</time></trkpt><trkpt lat="43.530651" lon="11.3558222"><ele>664.0</ele><time>2026-03-29T10:10:25.858Z</time></trkpt><trkpt lat="43.5305492" lon="11.3558395"><ele>664.0</ele><time>2026-03-29T10:10:26.869Z</time></trkpt><trkpt lat="43.53044" lon="11.3558251"><ele>664.0</ele><time>2026-03-29T10:10:27.861Z</time></trkpt><trkpt lat="43.5303243" lon="11.3557812"><ele>664.0</ele><time>2026-03-29T10:10:28.869Z</time></trkpt><trkpt lat="43.5301986" lon="11.3557064"><ele>664.5</ele><time>2026-03-29T10:10:29.865Z</time></trkpt><trkpt lat="43.5300688" lon="11.3556144"><ele>665.0</ele><time>2026-03-29T10:10:30.868Z</time></trkpt><trkpt lat="43.529946" lon="11.3555272"><ele>665.5</ele><time>2026-03-29T10:10:31.869Z</time></trkpt><trkpt lat="43.5298304" lon="11.3554575"><ele>666.0</ele><time>2026-03-29T10:10:32.87Z</time></trkpt><trkpt lat="43.5297065" lon="11.3554108"><ele>663.5</ele><time>2026-03-29T10:10:33.866Z</time></trkpt><trkpt lat="43.5295802" lon="11.3553725"><ele>661.0</ele><time>2026-03-29T10:10:34.896Z</time></trkpt><trkpt lat="43.5294534" lon="11.3553432"><ele>658.5</ele><time>2026-03-29T10:10:35.868Z</time></trkpt><trkpt lat="43.5293326" lon="11.3553224"><ele>656.0</ele><time>2026-03-29T10:10:36.86Z</time></trkpt><trkpt lat="43.5292277" lon="11.3553088"><ele>656.0</ele><time>2026-03-29T10:10:37.875Z</time></trkpt><trkpt lat="43.5291325" lon="11.3553013"><ele>656.0</ele><time>2026-03-29T10:10:38.87Z</time></trkpt><trkpt lat="43.5290444" lon="11.3552961"><ele>656.0</ele><time>2026-03-29T10:10:39.87Z</time></trkpt><trkpt lat="43.5289499" lon="11.3553114"><ele>656.0</ele><time>2026-03-29T10:10:40.868Z</time></trkpt><trkpt lat="43.5288389" lon="11.3553559"><ele>656.0</ele><time>2026-03-29T10:10:41.864Z</time></trkpt><trkpt lat="43.5287264" lon="11.3554172"><ele>654.5999999999999</ele><time>2026-03-29T10:10:42.873Z</time></trkpt><trkpt lat="43.5286226" lon="11.3554911"><ele>653.2</ele><time>2026-03-29T10:10:43.871Z</time></trkpt><trkpt lat="43.528523" lon="11.3555666"><ele>651.8</ele><time>2026-03-29T10:10:44.864Z</time></trkpt><trkpt lat="43.5284304" lon="11.3556334"><ele>650.4000000000001</ele><time>2026-03-29T10:10:45.863Z</time></trkpt><trkpt lat="43.528347" lon="11.355686"><ele>649.0</ele><time>2026-03-29T10:10:46.866Z</time></trkpt><trkpt lat="43.5282702" lon="11.3557333"><ele>651.2</ele><time>2026-03-29T10:10:47.865Z</time></trkpt><trkpt lat="43.5281925" lon="11.355758"><ele>653.4000000000001</ele><time>2026-03-29T10:10:48.865Z</time></trkpt><trkpt lat="43.5281028" lon="11.3557645"><ele>655.6</ele><time>2026-03-29T10:10:49.865Z</time></trkpt><trkpt lat="43.5279981" lon="11.355758"><ele>657.8</ele><time>2026-03-29T10:10:50.863Z</time></trkpt><trkpt lat="43.5278806" lon="11.3557434"><ele>660.0</ele><time>2026-03-29T10:10:51.862Z</time></trkpt><trkpt lat="43.5277573" lon="11.3557199"><ele>660.0</ele><time>2026-03-29T10:10:52.863Z</time></trkpt><trkpt lat="43.5276313" lon="11.3556892"><ele>660.0</ele><time>2026-03-29T10:10:53.862Z</time></trkpt><trkpt lat="43.5275127" lon="11.355663"><ele>660.0</ele><time>2026-03-29T10:10:54.866Z</time></trkpt><trkpt lat="43.5273999" lon="11.3556438"><ele>660.0</ele><time>2026-03-29T10:10:55.86Z</time></trkpt><trkpt lat="43.52729" lon="11.3556322"><ele>660.0</ele><time>2026-03-29T10:10:56.864Z</time></trkpt><trkpt lat="43.5271866" lon="11.35563"><ele>660.0</ele><time>2026-03-29T10:10:57.869Z</time></trkpt><trkpt lat="43.5270857" lon="11.3556418"><ele>660.0</ele><time>2026-03-29T10:10:58.859Z</time></trkpt><trkpt lat="43.5269849" lon="11.3556606"><ele>660.0</ele><time>2026-03-29T10:10:59.867Z</time></trkpt><trkpt lat="43.5268907" lon="11.3556672"><ele>660.0</ele><time>2026-03-29T10:11:00.869Z</time></trkpt><trkpt lat="43.526795" lon="11.3556503"><ele>660.25</ele><time>2026-03-29T10:11:01.897Z</time></trkpt><trkpt lat="43.5266925" lon="11.3555968"><ele>660.5</ele><time>2026-03-29T10:11:02.857Z</time></trkpt><trkpt lat="43.5265805" lon="11.3555313"><ele>660.75</ele><time>2026-03-29T10:11:03.861Z</time></trkpt><trkpt lat="43.5264646" lon="11.3554592"><ele>661.0</ele><time>2026-03-29T10:11:04.863Z</time></trkpt><trkpt lat="43.5263381" lon="11.3553918"><ele>657.0</ele><time>2026-03-29T10:11:05.896Z</time></trkpt><trkpt lat="43.526207" lon="11.355326"><ele>653.0</ele><time>2026-03-29T10:11:06.875Z</time></trkpt><trkpt lat="43.5260812" lon="11.3552594"><ele>649.0</ele><time>2026-03-29T10:11:07.863Z</time></trkpt><trkpt lat="43.5259594" lon="11.3552014"><ele>645.0</ele><time>2026-03-29T10:11:08.87Z</time></trkpt><trkpt lat="43.5258441" lon="11.355148"><ele>645.0</ele><time>2026-03-29T10:11:09.894Z</time></trkpt><trkpt lat="43.5257276" lon="11.3550886"><ele>645.0</ele><time>2026-03-29T10:11:10.859Z</time></trkpt><trkpt lat="43.525618" lon="11.3550285"><ele>645.0</ele><time>2026-03-29T10:11:11.87Z</time></trkpt><trkpt lat="43.5255152" lon="11.3549713"><ele>645.0</ele><time>2026-03-29T10:11:12.876Z</time></trkpt><trkpt lat="43.5254176" lon="11.3549217"><ele>645.0</ele><time>2026-03-29T10:11:13.873Z</time></trkpt><trkpt lat="43.5253203" lon="11.354887"><ele>645.0</ele><time>2026-03-29T10:11:14.868Z</time></trkpt><trkpt lat="43.5252156" lon="11.3548723"><ele>645.0</ele><time>2026-03-29T10:11:15.86Z</time></trkpt><trkpt lat="43.5250965" lon="11.3548706"><ele>645.0</ele><time>2026-03-29T10:11:16.876Z</time></trkpt><trkpt lat="43.5249643" lon="11.3548588"><ele>645.0</ele><time>2026-03-29T10:11:17.866Z</time></trkpt><trkpt lat="43.5248346" lon="11.3548278"><ele>645.0</ele><time>2026-03-29T10:11:18.865Z</time></trkpt><trkpt lat="43.5247103" lon="11.3547837"><ele>645.0</ele><time>2026-03-29T10:11:19.862Z</time></trkpt><trkpt lat="43.5245836" lon="11.3547354"><ele>645.0</ele><time>2026-03-29T10:11:20.863Z</time></trkpt><trkpt lat="43.5244731" lon="11.3546864"><ele>643.5</ele><time>2026-03-29T10:11:21.86Z</time></trkpt><trkpt lat="43.5243758" lon="11.3546415"><ele>642.0</ele><time>2026-03-29T10:11:22.858Z</time></trkpt><trkpt lat="43.5242901" lon="11.354593"><ele>640.5</ele><time>2026-03-29T10:11:23.901Z</time></trkpt><trkpt lat="43.5242203" lon="11.3545368"><ele>639.0</ele><time>2026-03-29T10:11:24.864Z</time></trkpt><trkpt lat="43.5241725" lon="11.3544614"><ele>637.5</ele><time>2026-03-29T10:11:25.867Z</time></trkpt><trkpt lat="43.5241453" lon="11.3543615"><ele>636.0</ele><time>2026-03-29T10:11:26.871Z</time></trkpt><trkpt lat="43.5241316" lon="11.3542299"><ele>636.0</ele><time>2026-03-29T10:11:27.862Z</time></trkpt><trkpt lat="43.5241154" lon="11.354073"><ele>636.0</ele><time>2026-03-29T10:11:28.9Z</time></trkpt><trkpt lat="43.5241012" lon="11.3539125"><ele>636.0</ele><time>2026-03-29T10:11:29.867Z</time></trkpt><trkpt lat="43.5240787" lon="11.3537628"><ele>636.0</ele><time>2026-03-29T10:11:30.861Z</time></trkpt><trkpt lat="43.5240522" lon="11.3536385"><ele>636.0</ele><time>2026-03-29T10:11:31.869Z</time></trkpt><trkpt lat="43.5240165" lon="11.3535436"><ele>633.2</ele><time>2026-03-29T10:11:32.866Z</time></trkpt><trkpt lat="43.5239723" lon="11.3534789"><ele>630.4000000000001</ele><time>2026-03-29T10:11:33.882Z</time></trkpt><trkpt lat="43.5238501" lon="11.3534397"><ele>627.6</ele><time>2026-03-29T10:11:35.898Z</time></trkpt><trkpt lat="43.5237584" lon="11.3534683"><ele>624.8000000000001</ele><time>2026-03-29T10:11:36.865Z</time></trkpt><trkpt lat="43.5236488" lon="11.3535184"><ele>622.0</ele><time>2026-03-29T10:11:37.888Z</time></trkpt><trkpt lat="43.5235349" lon="11.3535778"><ele>621.25</ele><time>2026-03-29T10:11:38.862Z</time></trkpt><trkpt lat="43.5234193" lon="11.3536539"><ele>620.5</ele><time>2026-03-29T10:11:39.894Z</time></trkpt><trkpt lat="43.5233171" lon="11.3537441"><ele>619.75</ele><time>2026-03-29T10:11:40.892Z</time></trkpt><trkpt lat="43.5232223" lon="11.3538391"><ele>619.0</ele><time>2026-03-29T10:11:41.894Z</time></trkpt><trkpt lat="43.5231251" lon="11.3539271"><ele>622.0</ele><time>2026-03-29T10:11:42.868Z</time></trkpt><trkpt lat="43.5230218" lon="11.3539968"><ele>625.0</ele><time>2026-03-29T10:11:43.901Z</time></trkpt><trkpt lat="43.5229103" lon="11.3540418"><ele>628.0</ele><time>2026-03-29T10:11:44.87Z</time></trkpt><trkpt lat="43.5227961" lon="11.3540553"><ele>631.0</ele><time>2026-03-29T10:11:45.859Z</time></trkpt><trkpt lat="43.5226761" lon="11.3540444"><ele>631.0</ele><time>2026-03-29T10:11:46.868Z</time></trkpt><trkpt lat="43.5225615" lon="11.3540115"><ele>631.0</ele><time>2026-03-29T10:11:47.901Z</time></trkpt><trkpt lat="43.5224543" lon="11.3539609"><ele>631.0</ele><time>2026-03-29T10:11:48.861Z</time></trkpt><trkpt lat="43.5223573" lon="11.3538958"><ele>631.0</ele><time>2026-03-29T10:11:49.867Z</time></trkpt><trkpt lat="43.5222784" lon="11.35384"><ele>631.0</ele><time>2026-03-29T10:11:50.863Z</time></trkpt><trkpt lat="43.5221987" lon="11.3538016"><ele>628.8</ele><time>2026-03-29T10:11:51.862Z</time></trkpt><trkpt lat="43.5221113" lon="11.3537651"><ele>626.6</ele><time>2026-03-29T10:11:52.892Z</time></trkpt><trkpt lat="43.5220267" lon="11.3536995"><ele>624.4</ele><time>2026-03-29T10:11:53.864Z</time></trkpt><trkpt lat="43.5219385" lon="11.3536066"><ele>622.2</ele><time>2026-03-29T10:11:54.857Z</time></trkpt><trkpt lat="43.5218457" lon="11.3534971"><ele>620.0</ele><time>2026-03-29T10:11:55.91Z</time></trkpt><trkpt lat="43.521749" lon="11.3533888"><ele>620.0</ele><time>2026-03-29T10:11:56.86Z</time></trkpt><trkpt lat="43.521653" lon="11.3532841"><ele>620.0</ele><time>2026-03-29T10:11:57.889Z</time></trkpt><trkpt lat="43.5215534" lon="11.3531905"><ele>620.0</ele><time>2026-03-29T10:11:58.865Z</time></trkpt><trkpt lat="43.5214437" lon="11.3530975"><ele>620.0</ele><time>2026-03-29T10:11:59.902Z</time></trkpt><trkpt lat="43.5213189" lon="11.3530077"><ele>619.75</ele><time>2026-03-29T10:12:00.865Z</time></trkpt><trkpt lat="43.521184" lon="11.3529177"><ele>619.5</ele><time>2026-03-29T10:12:01.9Z</time></trkpt><trkpt lat="43.5210556" lon="11.3528413"><ele>619.25</ele><time>2026-03-29T10:12:02.863Z</time></trkpt><trkpt lat="43.5209325" lon="11.3527831"><ele>619.0</ele><time>2026-03-29T10:12:03.862Z</time></trkpt><trkpt lat="43.5208147" lon="11.3527489"><ele>619.0</ele><time>2026-03-29T10:12:04.906Z</time></trkpt><trkpt lat="43.5207069" lon="11.3527312"><ele>619.0</ele><time>2026-03-29T10:12:05.857Z</time></trkpt><trkpt lat="43.5206117" lon="11.3527284"><ele>619.0</ele><time>2026-03-29T10:12:06.867Z</time></trkpt><trkpt lat="43.5205256" lon="11.3527136"><ele>619.0</ele><time>2026-03-29T10:12:07.871Z</time></trkpt><trkpt lat="43.5204459" lon="11.3526691"><ele>619.0</ele><time>2026-03-29T10:12:08.891Z</time></trkpt><trkpt lat="43.5203748" lon="11.3525858"><ele>618.4</ele><time>2026-03-29T10:12:09.881Z</time></trkpt><trkpt lat="43.5203074" lon="11.3524795"><ele>617.8</ele><time>2026-03-29T10:12:10.895Z</time></trkpt><trkpt lat="43.5202339" lon="11.3523584"><ele>617.2</ele><time>2026-03-29T10:12:11.858Z</time></trkpt><trkpt lat="43.5201561" lon="11.3522363"><ele>616.6</ele><time>2026-03-29T10:12:12.867Z</time></trkpt><trkpt lat="43.5200717" lon="11.3521332"><ele>616.0</ele><time>2026-03-29T10:12:13.871Z</time></trkpt><trkpt lat="43.51998" lon="11.3520526"><ele>616.0</ele><time>2026-03-29T10:12:14.88Z</time></trkpt><trkpt lat="43.5198782" lon="11.3519941"><ele>616.0</ele><time>2026-03-29T10:12:15.891Z</time></trkpt><trkpt lat="43.5197755" lon="11.3519487"><ele>616.0</ele><time>2026-03-29T10:12:16.871Z</time></trkpt><trkpt lat="43.5196691" lon="11.3519231"><ele>616.0</ele><time>2026-03-29T10:12:17.873Z</time></trkpt><trkpt lat="43.5195521" lon="11.351916"><ele>616.0</ele><time>2026-03-29T10:12:18.861Z</time></trkpt><trkpt lat="43.5194303" lon="11.3519245"><ele>616.0</ele><time>2026-03-29T10:12:19.862Z</time></trkpt><trkpt lat="43.5193176" lon="11.3519285"><ele>616.0</ele><time>2026-03-29T10:12:20.879Z</time></trkpt><trkpt lat="43.5192072" lon="11.3519301"><ele>616.0</ele><time>2026-03-29T10:12:21.86Z</time></trkpt><trkpt lat="43.5191076" lon="11.3519323"><ele>616.0</ele><time>2026-03-29T10:12:22.901Z</time></trkpt><trkpt lat="43.5190194" lon="11.3519323"><ele>616.0</ele><time>2026-03-29T10:12:23.867Z</time></trkpt><trkpt lat="43.5189387" lon="11.3519245"><ele>616.0</ele><time>2026-03-29T10:12:24.874Z</time></trkpt><trkpt lat="43.5188648" lon="11.3519159"><ele>616.0</ele><time>2026-03-29T10:12:25.892Z</time></trkpt><trkpt lat="43.518795" lon="11.3519007"><ele>616.0</ele><time>2026-03-29T10:12:26.87Z</time></trkpt><trkpt lat="43.5187299" lon="11.3518878"><ele>616.0</ele><time>2026-03-29T10:12:27.9Z</time></trkpt><trkpt lat="43.5186602" lon="11.3518807"><ele>616.0</ele><time>2026-03-29T10:12:28.861Z</time></trkpt><trkpt lat="43.5185817" lon="11.3518873"><ele>616.0</ele><time>2026-03-29T10:12:29.894Z</time></trkpt><trkpt lat="43.5184986" lon="11.3519024"><ele>616.0</ele><time>2026-03-29T10:12:30.898Z</time></trkpt><trkpt lat="43.5184152" lon="11.3519293"><ele>613.6666666666667</ele><time>2026-03-29T10:12:31.898Z</time></trkpt><trkpt lat="43.5183324" lon="11.3519633"><ele>611.3333333333334</ele><time>2026-03-29T10:12:32.86Z</time></trkpt><trkpt lat="43.5182534" lon="11.3519915"><ele>609.0</ele><time>2026-03-29T10:12:33.863Z</time></trkpt><trkpt lat="43.5181769" lon="11.352012"><ele>606.6666666666666</ele><time>2026-03-29T10:12:34.885Z</time></trkpt><trkpt lat="43.5181052" lon="11.3520235"><ele>604.3333333333333</ele><time>2026-03-29T10:12:35.861Z</time></trkpt><trkpt lat="43.5180326" lon="11.3520239"><ele>602.0</ele><time>2026-03-29T10:12:36.861Z</time></trkpt><trkpt lat="43.5179616" lon="11.3520215"><ele>599.1666666666666</ele><time>2026-03-29T10:12:37.863Z</time></trkpt><trkpt lat="43.5178916" lon="11.3520309"><ele>596.3333333333333</ele><time>2026-03-29T10:12:38.87Z</time></trkpt><trkpt lat="43.517819" lon="11.3520496"><ele>593.5</ele><time>2026-03-29T10:12:39.868Z</time></trkpt><trkpt lat="43.5177436" lon="11.3520731"><ele>590.6666666666666</ele><time>2026-03-29T10:12:40.861Z</time></trkpt><trkpt lat="43.5176729" lon="11.3520922"><ele>587.8333333333334</ele><time>2026-03-29T10:12:41.86Z</time></trkpt><trkpt lat="43.5176071" lon="11.3521049"><ele>585.0</ele><time>2026-03-29T10:12:42.861Z</time></trkpt><trkpt lat="43.5174896" lon="11.3521212"><ele>585.0</ele><time>2026-03-29T10:12:44.86Z</time></trkpt><trkpt lat="43.5173756" lon="11.3521167"><ele>585.0</ele><time>2026-03-29T10:12:46.871Z</time></trkpt><trkpt lat="43.5172613" lon="11.3520991"><ele>585.0</ele><time>2026-03-29T10:12:48.861Z</time></trkpt><trkpt lat="43.5171644" lon="11.3521067"><ele>585.0</ele><time>2026-03-29T10:12:50.864Z</time></trkpt><trkpt lat="43.5170935" lon="11.3521999"><ele>585.0</ele><time>2026-03-29T10:12:52.861Z</time></trkpt><trkpt lat="43.5170624" lon="11.3523662"><ele>583.1428571428571</ele><time>2026-03-29T10:12:54.855Z</time></trkpt><trkpt lat="43.5170544" lon="11.3524618"><ele>581.2857142857142</ele><time>2026-03-29T10:12:55.902Z</time></trkpt><trkpt lat="43.5170462" lon="11.3525623"><ele>579.4285714285713</ele><time>2026-03-29T10:12:56.867Z</time></trkpt><trkpt lat="43.5170403" lon="11.3526653"><ele>577.5714285714286</ele><time>2026-03-29T10:12:57.865Z</time></trkpt><trkpt lat="43.5170403" lon="11.3527676"><ele>575.7142857142857</ele><time>2026-03-29T10:12:58.874Z</time></trkpt><trkpt lat="43.5170421" lon="11.3528699"><ele>573.8571428571428</ele><time>2026-03-29T10:12:59.861Z</time></trkpt><trkpt lat="43.5170439" lon="11.3529688"><ele>572.0</ele><time>2026-03-29T10:13:00.897Z</time></trkpt><trkpt lat="43.5170488" lon="11.3530615"><ele>571.0</ele><time>2026-03-29T10:13:01.861Z</time></trkpt><trkpt lat="43.517064" lon="11.3531679"><ele>570.0</ele><time>2026-03-29T10:13:03.874Z</time></trkpt><trkpt lat="43.5170212" lon="11.3532406"><ele>569.0</ele><time>2026-03-29T10:13:05.868Z</time></trkpt><trkpt lat="43.5169341" lon="11.3533085"><ele>568.0</ele><time>2026-03-29T10:13:07.858Z</time></trkpt><trkpt lat="43.5168519" lon="11.3533219"><ele>567.0</ele><time>2026-03-29T10:13:08.857Z</time></trkpt><trkpt lat="43.5167223" lon="11.3533486"><ele>567.0</ele><time>2026-03-29T10:13:09.903Z</time></trkpt><trkpt lat="43.5165713" lon="11.3533797"><ele>567.0</ele><time>2026-03-29T10:13:10.863Z</time></trkpt><trkpt lat="43.5164186" lon="11.3534061"><ele>567.0</ele><time>2026-03-29T10:13:11.871Z</time></trkpt><trkpt lat="43.5162618" lon="11.353437"><ele>563.6666666666666</ele><time>2026-03-29T10:13:12.881Z</time></trkpt><trkpt lat="43.5161289" lon="11.3534593"><ele>560.3333333333333</ele><time>2026-03-29T10:13:13.904Z</time></trkpt><trkpt lat="43.5159434" lon="11.3534877"><ele>557.0</ele><time>2026-03-29T10:13:14.868Z</time></trkpt><trkpt lat="43.5157099" lon="11.3535317"><ele>557.0</ele><time>2026-03-29T10:13:15.869Z</time></trkpt><trkpt lat="43.5155804" lon="11.3535707"><ele>557.0</ele><time>2026-03-29T10:13:16.861Z</time></trkpt><trkpt lat="43.5154298" lon="11.3536097"><ele>557.0</ele><time>2026-03-29T10:13:17.861Z</time></trkpt><trkpt lat="43.5152753" lon="11.3536531"><ele>557.0</ele><time>2026-03-29T10:13:18.863Z</time></trkpt><trkpt lat="43.515137" lon="11.3536899"><ele>555.0</ele><time>2026-03-29T10:13:19.869Z</time></trkpt><trkpt lat="43.5150126" lon="11.3537307"><ele>553.0</ele><time>2026-03-29T10:13:20.91Z</time></trkpt><trkpt lat="43.5149088" lon="11.3537751"><ele>551.0</ele><time>2026-03-29T10:13:21.88Z</time></trkpt><trkpt lat="43.5148087" lon="11.3538386"><ele>549.0</ele><time>2026-03-29T10:13:22.904Z</time></trkpt><trkpt lat="43.5147018" lon="11.3538805"><ele>548.8</ele><time>2026-03-29T10:13:23.863Z</time></trkpt><trkpt lat="43.5146233" lon="11.3539135"><ele>548.5999999999999</ele><time>2026-03-29T10:13:24.895Z</time></trkpt><trkpt lat="43.5145184" lon="11.3539616"><ele>548.4</ele><time>2026-03-29T10:13:25.865Z</time></trkpt><trkpt lat="43.5144051" lon="11.3540013"><ele>548.1999999999999</ele><time>2026-03-29T10:13:26.863Z</time></trkpt><trkpt lat="43.5143226" lon="11.3540549"><ele>548.0</ele><time>2026-03-29T10:13:27.861Z</time></trkpt><trkpt lat="43.5142395" lon="11.3541056"><ele>547.4</ele><time>2026-03-29T10:13:28.87Z</time></trkpt><trkpt lat="43.5141424" lon="11.3541524"><ele>546.8</ele><time>2026-03-29T10:13:29.863Z</time></trkpt><trkpt lat="43.5140392" lon="11.3541906"><ele>546.2</ele><time>2026-03-29T10:13:30.879Z</time></trkpt><trkpt lat="43.5139495" lon="11.3542132"><ele>545.6</ele><time>2026-03-29T10:13:31.861Z</time></trkpt><trkpt lat="43.5138289" lon="11.3543287"><ele>545.0</ele><time>2026-03-29T10:13:33.866Z</time></trkpt><trkpt lat="43.5137539" lon="11.3544074"><ele>546.3333333333333</ele><time>2026-03-29T10:13:34.861Z</time></trkpt><trkpt lat="43.5136826" lon="11.3544904"><ele>547.6666666666666</ele><time>2026-03-29T10:13:35.872Z</time></trkpt><trkpt lat="43.5136071" lon="11.3545659"><ele>549.0</ele><time>2026-03-29T10:13:36.871Z</time></trkpt><trkpt lat="43.5135522" lon="11.3545149"><ele>550.3333333333334</ele><time>2026-03-29T10:13:39.892Z</time></trkpt><trkpt lat="43.5134653" lon="11.3544877"><ele>551.6666666666667</ele><time>2026-03-29T10:13:40.865Z</time></trkpt><trkpt lat="43.5133721" lon="11.3544763"><ele>553.0</ele><time>2026-03-29T10:13:41.876Z</time></trkpt><trkpt lat="43.5132593" lon="11.3544547"><ele>553.0</ele><time>2026-03-29T10:13:42.862Z</time></trkpt><trkpt lat="43.5131784" lon="11.3544227"><ele>553.0</ele><time>2026-03-29T10:13:43.876Z</time></trkpt><trkpt lat="43.513095" lon="11.3543838"><ele>553.0</ele><time>2026-03-29T10:13:44.871Z</time></trkpt><trkpt lat="43.5130056" lon="11.3543529"><ele>553.0</ele><time>2026-03-29T10:13:45.874Z</time></trkpt><trkpt lat="43.5129087" lon="11.3543062"><ele>553.0</ele><time>2026-03-29T10:13:46.911Z</time></trkpt><trkpt lat="43.5128088" lon="11.3542066"><ele>552.0</ele><time>2026-03-29T10:13:48.904Z</time></trkpt><trkpt lat="43.5126654" lon="11.3541328"><ele>551.0</ele><time>2026-03-29T10:13:49.916Z</time></trkpt><trkpt lat="43.5125651" lon="11.3540985"><ele>550.0</ele><time>2026-03-29T10:13:50.86Z</time></trkpt><trkpt lat="43.5125019" lon="11.3540928"><ele>549.0</ele><time>2026-03-29T10:13:51.86Z</time></trkpt><trkpt lat="43.512439" lon="11.3540499"><ele>548.0</ele><time>2026-03-29T10:13:52.863Z</time></trkpt><trkpt lat="43.5123586" lon="11.3539884"><ele>548.0</ele><time>2026-03-29T10:13:53.875Z</time></trkpt><trkpt lat="43.5122673" lon="11.3539391"><ele>548.0</ele><time>2026-03-29T10:13:54.869Z</time></trkpt><trkpt lat="43.5121308" lon="11.3538788"><ele>548.0</ele><time>2026-03-29T10:13:56.863Z</time></trkpt><trkpt lat="43.5120441" lon="11.3538568"><ele>548.0</ele><time>2026-03-29T10:13:57.879Z</time></trkpt><trkpt lat="43.5119843" lon="11.3538192"><ele>548.0</ele><time>2026-03-29T10:13:58.863Z</time></trkpt><trkpt lat="43.5118876" lon="11.3537025"><ele>544.5</ele><time>2026-03-29T10:14:00.863Z</time></trkpt><trkpt lat="43.5118116" lon="11.3536612"><ele>541.0</ele><time>2026-03-29T10:14:01.866Z</time></trkpt><trkpt lat="43.5117171" lon="11.3536117"><ele>537.5</ele><time>2026-03-29T10:14:02.876Z</time></trkpt><trkpt lat="43.5115848" lon="11.3535408"><ele>534.0</ele><time>2026-03-29T10:14:03.897Z</time></trkpt><trkpt lat="43.5114514" lon="11.3534328"><ele>534.0</ele><time>2026-03-29T10:14:04.869Z</time></trkpt><trkpt lat="43.511345" lon="11.3533662"><ele>534.0</ele><time>2026-03-29T10:14:05.86Z</time></trkpt><trkpt lat="43.5112234" lon="11.3533058"><ele>534.0</ele><time>2026-03-29T10:14:06.863Z</time></trkpt><trkpt lat="43.511104" lon="11.3532464"><ele>534.0</ele><time>2026-03-29T10:14:07.869Z</time></trkpt><trkpt lat="43.5109851" lon="11.3531581"><ele>533.8</ele><time>2026-03-29T10:14:08.858Z</time></trkpt><trkpt lat="43.510877" lon="11.3530704"><ele>533.5999999999999</ele><time>2026-03-29T10:14:09.861Z</time></trkpt><trkpt lat="43.5107912" lon="11.353014"><ele>533.4</ele><time>2026-03-29T10:14:10.866Z</time></trkpt><trkpt lat="43.5107205" lon="11.3530263"><ele>533.1999999999999</ele><time>2026-03-29T10:14:12.865Z</time></trkpt><trkpt lat="43.5106116" lon="11.3530575"><ele>533.0</ele><time>2026-03-29T10:14:14.864Z</time></trkpt><trkpt lat="43.5105131" lon="11.353172"><ele>533.0</ele><time>2026-03-29T10:14:15.869Z</time></trkpt><trkpt lat="43.5104403" lon="11.3532592"><ele>533.0</ele><time>2026-03-29T10:14:16.879Z</time></trkpt><trkpt lat="43.510378" lon="11.3533376"><ele>533.0</ele><time>2026-03-29T10:14:17.865Z</time></trkpt><trkpt lat="43.5103279" lon="11.3533968"><ele>533.0</ele><time>2026-03-29T10:14:18.907Z</time></trkpt><trkpt lat="43.5102674" lon="11.3534474"><ele>533.0</ele><time>2026-03-29T10:14:19.871Z</time></trkpt><trkpt lat="43.510196" lon="11.3534905"><ele>533.0</ele><time>2026-03-29T10:14:20.868Z</time></trkpt><trkpt lat="43.5101354" lon="11.3535186"><ele>531.4</ele><time>2026-03-29T10:14:21.869Z</time></trkpt><trkpt lat="43.5100273" lon="11.353551"><ele>529.8</ele><time>2026-03-29T10:14:23.872Z</time></trkpt><trkpt lat="43.5098937" lon="11.3535543"><ele>528.2</ele><time>2026-03-29T10:14:25.874Z</time></trkpt><trkpt lat="43.5098167" lon="11.3535509"><ele>526.6</ele><time>2026-03-29T10:14:26.872Z</time></trkpt><trkpt lat="43.5097085" lon="11.3535449"><ele>525.0</ele><time>2026-03-29T10:14:28.898Z</time></trkpt><trkpt lat="43.5096011" lon="11.3535816"><ele>522.5</ele><time>2026-03-29T10:14:30.873Z</time></trkpt><trkpt lat="43.5095392" lon="11.3536124"><ele>520.0</ele><time>2026-03-29T10:14:31.865Z</time></trkpt><trkpt lat="43.5094701" lon="11.3536501"><ele>517.5</ele><time>2026-03-29T10:14:33.891Z</time></trkpt><trkpt lat="43.5093798" lon="11.3537148"><ele>515.0</ele><time>2026-03-29T10:14:35.864Z</time></trkpt><trkpt lat="43.509295" lon="11.3537282"><ele>512.5</ele><time>2026-03-29T10:14:38.892Z</time></trkpt><trkpt lat="43.5092157" lon="11.3536822"><ele>510.0</ele><time>2026-03-29T10:14:39.871Z</time></trkpt><trkpt lat="43.5091805" lon="11.3535852"><ele>510.0</ele><time>2026-03-29T10:14:42.877Z</time></trkpt><trkpt lat="43.5091555" lon="11.3534542"><ele>510.0</ele><time>2026-03-29T10:14:44.903Z</time></trkpt><trkpt lat="43.5090142" lon="11.3533645"><ele>510.0</ele><time>2026-03-29T10:14:46.89Z</time></trkpt><trkpt lat="43.5089197" lon="11.3533039"><ele>510.0</ele><time>2026-03-29T10:14:48.857Z</time></trkpt><trkpt lat="43.5088533" lon="11.3532848"><ele>510.0</ele><time>2026-03-29T10:14:49.888Z</time></trkpt><trkpt lat="43.5087911" lon="11.3532645"><ele>508.28571428571433</ele><time>2026-03-29T10:14:50.855Z</time></trkpt><trkpt lat="43.5087254" lon="11.3532458"><ele>506.5714285714286</ele><time>2026-03-29T10:14:51.859Z</time></trkpt><trkpt lat="43.5086585" lon="11.3532247"><ele>504.8571428571429</ele><time>2026-03-29T10:14:52.856Z</time></trkpt><trkpt lat="43.5085918" lon="11.3532034"><ele>503.1428571428571</ele><time>2026-03-29T10:14:53.856Z</time></trkpt><trkpt lat="43.5085267" lon="11.3531912"><ele>501.4285714285714</ele><time>2026-03-29T10:14:54.89Z</time></trkpt><trkpt lat="43.5084579" lon="11.3531959"><ele>499.71428571428567</ele><time>2026-03-29T10:14:55.887Z</time></trkpt><trkpt lat="43.5083915" lon="11.3532145"><ele>498.0</ele><time>2026-03-29T10:14:56.859Z</time></trkpt><trkpt lat="43.5083257" lon="11.3532412"><ele>498.0</ele><time>2026-03-29T10:14:57.894Z</time></trkpt><trkpt lat="43.5082508" lon="11.3532599"><ele>498.0</ele><time>2026-03-29T10:14:58.893Z</time></trkpt><trkpt lat="43.5081669" lon="11.3532695"><ele>498.0</ele><time>2026-03-29T10:14:59.855Z</time></trkpt><trkpt lat="43.5080796" lon="11.3532721"><ele>498.0</ele><time>2026-03-29T10:15:00.859Z</time></trkpt><trkpt lat="43.5079935" lon="11.3532731"><ele>498.0</ele><time>2026-03-29T10:15:01.86Z</time></trkpt><trkpt lat="43.5079143" lon="11.3532702"><ele>498.0</ele><time>2026-03-29T10:15:02.859Z</time></trkpt><trkpt lat="43.507843" lon="11.3532639"><ele>497.4285714285714</ele><time>2026-03-29T10:15:03.858Z</time></trkpt><trkpt lat="43.5077778" lon="11.3532514"><ele>496.8571428571428</ele><time>2026-03-29T10:15:04.86Z</time></trkpt><trkpt lat="43.5077106" lon="11.3532369"><ele>496.2857142857143</ele><time>2026-03-29T10:15:05.86Z</time></trkpt><trkpt lat="43.5076496" lon="11.3532144"><ele>495.71428571428567</ele><time>2026-03-29T10:15:06.865Z</time></trkpt><trkpt lat="43.5075846" lon="11.3531767"><ele>495.1428571428571</ele><time>2026-03-29T10:15:07.856Z</time></trkpt><trkpt lat="43.5075128" lon="11.3531197"><ele>494.57142857142856</ele><time>2026-03-29T10:15:08.863Z</time></trkpt><trkpt lat="43.5074459" lon="11.3530586"><ele>494.0</ele><time>2026-03-29T10:15:09.89Z</time></trkpt><trkpt lat="43.507385" lon="11.3530076"><ele>492.2</ele><time>2026-03-29T10:15:10.857Z</time></trkpt><trkpt lat="43.5073281" lon="11.3529703"><ele>490.4</ele><time>2026-03-29T10:15:11.886Z</time></trkpt><trkpt lat="43.5072335" lon="11.3529449"><ele>488.6</ele><time>2026-03-29T10:15:13.885Z</time></trkpt><trkpt lat="43.5071369" lon="11.3529342"><ele>486.8</ele><time>2026-03-29T10:15:15.866Z</time></trkpt><trkpt lat="43.5070271" lon="11.352855"><ele>485.0</ele><time>2026-03-29T10:15:17.859Z</time></trkpt><trkpt lat="43.5069695" lon="11.3527947"><ele>484.99999999999994</ele><time>2026-03-29T10:15:18.856Z</time></trkpt><trkpt lat="43.5069215" lon="11.3527325"><ele>485.0</ele><time>2026-03-29T10:15:19.858Z</time></trkpt><trkpt lat="43.5068743" lon="11.3526683"><ele>485.0</ele><time>2026-03-29T10:15:20.893Z</time></trkpt><trkpt lat="43.5068211" lon="11.3526105"><ele>485.0</ele><time>2026-03-29T10:15:21.869Z</time></trkpt><trkpt lat="43.5067626" lon="11.3525678"><ele>484.99999999999994</ele><time>2026-03-29T10:15:22.873Z</time></trkpt><trkpt lat="43.5066595" lon="11.352523"><ele>485.0</ele><time>2026-03-29T10:15:24.854Z</time></trkpt><trkpt lat="43.5065492" lon="11.3524647"><ele>484.99999999999994</ele><time>2026-03-29T10:15:26.854Z</time></trkpt><trkpt lat="43.5064322" lon="11.3524377"><ele>485.0</ele><time>2026-03-29T10:15:28.86Z</time></trkpt><trkpt lat="43.5063664" lon="11.3524427"><ele>485.0</ele><time>2026-03-29T10:15:29.886Z</time></trkpt><trkpt lat="43.5063013" lon="11.3524553"><ele>485.0</ele><time>2026-03-29T10:15:30.861Z</time></trkpt><trkpt lat="43.5062399" lon="11.3524766"><ele>484.99999999999994</ele><time>2026-03-29T10:15:31.867Z</time></trkpt><trkpt lat="43.5061797" lon="11.3525047"><ele>485.0</ele><time>2026-03-29T10:15:32.856Z</time></trkpt><trkpt lat="43.5060557" lon="11.3525348"><ele>483.8333333333333</ele><time>2026-03-29T10:15:34.855Z</time></trkpt><trkpt lat="43.5059869" lon="11.352532"><ele>482.66666666666663</ele><time>2026-03-29T10:15:35.858Z</time></trkpt><trkpt lat="43.505916" lon="11.3525107"><ele>481.5</ele><time>2026-03-29T10:15:36.853Z</time></trkpt><trkpt lat="43.505833" lon="11.3524757"><ele>480.33333333333337</ele><time>2026-03-29T10:15:37.888Z</time></trkpt><trkpt lat="43.5057473" lon="11.3524427"><ele>479.1666666666667</ele><time>2026-03-29T10:15:38.858Z</time></trkpt><trkpt lat="43.5056686" lon="11.3524112"><ele>478.0</ele><time>2026-03-29T10:15:39.891Z</time></trkpt><trkpt lat="43.5055948" lon="11.3523787"><ele>478.0</ele><time>2026-03-29T10:15:40.857Z</time></trkpt><trkpt lat="43.50553" lon="11.3523389"><ele>477.99999999999994</ele><time>2026-03-29T10:15:41.887Z</time></trkpt><trkpt lat="43.5054727" lon="11.3522877"><ele>477.99999999999994</ele><time>2026-03-29T10:15:42.857Z</time></trkpt><trkpt lat="43.5053771" lon="11.3521948"><ele>478.0</ele><time>2026-03-29T10:15:44.859Z</time></trkpt><trkpt lat="43.5052885" lon="11.3521143"><ele>478.0</ele><time>2026-03-29T10:15:46.865Z</time></trkpt><trkpt lat="43.5051957" lon="11.3520197"><ele>474.5</ele><time>2026-03-29T10:15:48.859Z</time></trkpt><trkpt lat="43.505138" lon="11.3518882"><ele>471.0</ele><time>2026-03-29T10:15:50.858Z</time></trkpt><trkpt lat="43.5051112" lon="11.3517331"><ele>467.5</ele><time>2026-03-29T10:15:52.857Z</time></trkpt><trkpt lat="43.5050782" lon="11.3515714"><ele>464.0</ele><time>2026-03-29T10:15:54.856Z</time></trkpt><trkpt lat="43.5050318" lon="11.351409"><ele>462.49999999999994</ele><time>2026-03-29T10:15:56.869Z</time></trkpt><trkpt lat="43.5049617" lon="11.3512643"><ele>461.0</ele><time>2026-03-29T10:15:58.898Z</time></trkpt><trkpt lat="43.5049158" lon="11.351203"><ele>459.5</ele><time>2026-03-29T10:15:59.859Z</time></trkpt><trkpt lat="43.5048623" lon="11.3511537"><ele>458.0</ele><time>2026-03-29T10:16:00.889Z</time></trkpt><trkpt lat="43.5048069" lon="11.3511038"><ele>456.49999999999994</ele><time>2026-03-29T10:16:01.854Z</time></trkpt><trkpt lat="43.5047546" lon="11.35105"><ele>455.0</ele><time>2026-03-29T10:16:02.859Z</time></trkpt><trkpt lat="43.5046838" lon="11.3509435"><ele>454.99999999999994</ele><time>2026-03-29T10:16:04.864Z</time></trkpt><trkpt lat="43.5046253" lon="11.3509071"><ele>455.0</ele><time>2026-03-29T10:16:06.886Z</time></trkpt><trkpt lat="43.5045523" lon="11.3509448"><ele>455.0</ele><time>2026-03-29T10:16:08.855Z</time></trkpt><trkpt lat="43.5044746" lon="11.3510341"><ele>455.0</ele><time>2026-03-29T10:16:10.885Z</time></trkpt><trkpt lat="43.5043845" lon="11.351114"><ele>454.99999999999994</ele><time>2026-03-29T10:16:12.888Z</time></trkpt><trkpt lat="43.5043306" lon="11.3511608"><ele>455.0</ele><time>2026-03-29T10:16:13.861Z</time></trkpt><trkpt lat="43.5042737" lon="11.3512274"><ele>454.49999999999994</ele><time>2026-03-29T10:16:14.858Z</time></trkpt><trkpt lat="43.5042206" lon="11.3513115"><ele>454.0</ele><time>2026-03-29T10:16:15.857Z</time></trkpt><trkpt lat="43.5041715" lon="11.3514075"><ele>453.5</ele><time>2026-03-29T10:16:16.888Z</time></trkpt><trkpt lat="43.5041297" lon="11.3515014"><ele>453.0</ele><time>2026-03-29T10:16:17.884Z</time></trkpt><trkpt lat="43.5040869" lon="11.3515929"><ele>452.49999999999994</ele><time>2026-03-29T10:16:18.855Z</time></trkpt><trkpt lat="43.5040451" lon="11.3516748"><ele>452.0</ele><time>2026-03-29T10:16:19.861Z</time></trkpt><trkpt lat="43.5040017" lon="11.3517609"><ele>451.99999999999994</ele><time>2026-03-29T10:16:20.893Z</time></trkpt><trkpt lat="43.5039527" lon="11.3518403"><ele>452.0</ele><time>2026-03-29T10:16:21.856Z</time></trkpt><trkpt lat="43.5038949" lon="11.3519127"><ele>452.0</ele><time>2026-03-29T10:16:22.87Z</time></trkpt><trkpt lat="43.5038273" lon="11.3519796"><ele>452.0</ele><time>2026-03-29T10:16:23.858Z</time></trkpt><trkpt lat="43.5037553" lon="11.352037"><ele>451.99999999999994</ele><time>2026-03-29T10:16:24.889Z</time></trkpt><trkpt lat="43.5036764" lon="11.3520923"><ele>452.0</ele><time>2026-03-29T10:16:25.854Z</time></trkpt><trkpt lat="43.5035942" lon="11.3521505"><ele>450.16666666666663</ele><time>2026-03-29T10:16:26.857Z</time></trkpt><trkpt lat="43.5035366" lon="11.3522072"><ele>448.3333333333333</ele><time>2026-03-29T10:16:27.859Z</time></trkpt><trkpt lat="43.5034894" lon="11.3523174"><ele>446.5</ele><time>2026-03-29T10:16:29.859Z</time></trkpt><trkpt lat="43.5034615" lon="11.3524132"><ele>444.66666666666663</ele><time>2026-03-29T10:16:31.86Z</time></trkpt><trkpt lat="43.5034071" lon="11.3525178"><ele>442.8333333333333</ele><time>2026-03-29T10:16:33.859Z</time></trkpt><trkpt lat="43.5033532" lon="11.3526352"><ele>441.0</ele><time>2026-03-29T10:16:35.885Z</time></trkpt><trkpt lat="43.5033338" lon="11.3527189"><ele>441.0</ele><time>2026-03-29T10:16:37.892Z</time></trkpt><trkpt lat="43.5033036" lon="11.3527969"><ele>441.0</ele><time>2026-03-29T10:16:47.861Z</time></trkpt><trkpt lat="43.5033128" lon="11.3529044"><ele>441.0</ele><time>2026-03-29T10:16:58.855Z</time></trkpt><trkpt lat="43.5033028" lon="11.3529991"><ele>441.0</ele><time>2026-03-29T10:17:00.86Z</time></trkpt><trkpt lat="43.5032224" lon="11.3530885"><ele>441.0</ele><time>2026-03-29T10:17:02.865Z</time></trkpt><trkpt lat="43.5031441" lon="11.3531125"><ele>441.0</ele><time>2026-03-29T10:17:03.896Z</time></trkpt><trkpt lat="43.50304" lon="11.3531218"><ele>441.0</ele><time>2026-03-29T10:17:04.903Z</time></trkpt><trkpt lat="43.5029233" lon="11.3531209"><ele>441.0</ele><time>2026-03-29T10:17:05.863Z</time></trkpt><trkpt lat="43.5028039" lon="11.3531118"><ele>441.0</ele><time>2026-03-29T10:17:06.857Z</time></trkpt><trkpt lat="43.5026739" lon="11.3530973"><ele>441.0</ele><time>2026-03-29T10:17:07.895Z</time></trkpt><trkpt lat="43.502543" lon="11.3530816"><ele>438.25</ele><time>2026-03-29T10:17:08.861Z</time></trkpt><trkpt lat="43.502418" lon="11.3530704"><ele>435.5</ele><time>2026-03-29T10:17:09.867Z</time></trkpt><trkpt lat="43.5022957" lon="11.353063"><ele>432.75</ele><time>2026-03-29T10:17:10.861Z</time></trkpt><trkpt lat="43.5021821" lon="11.3530511"><ele>430.0</ele><time>2026-03-29T10:17:11.883Z</time></trkpt><trkpt lat="43.5020749" lon="11.3530355"><ele>429.00000000000006</ele><time>2026-03-29T10:17:12.86Z</time></trkpt><trkpt lat="43.5019736" lon="11.3530188"><ele>428.0</ele><time>2026-03-29T10:17:13.868Z</time></trkpt><trkpt lat="43.5018832" lon="11.3529942"><ele>427.0</ele><time>2026-03-29T10:17:14.862Z</time></trkpt><trkpt lat="43.5017996" lon="11.3529554"><ele>426.0</ele><time>2026-03-29T10:17:15.857Z</time></trkpt><trkpt lat="43.5017277" lon="11.352911"><ele>425.00000000000006</ele><time>2026-03-29T10:17:16.856Z</time></trkpt><trkpt lat="43.5016635" lon="11.3528634"><ele>424.0</ele><time>2026-03-29T10:17:17.857Z</time></trkpt><trkpt lat="43.5016108" lon="11.3528069"><ele>424.0</ele><time>2026-03-29T10:17:18.87Z</time></trkpt><trkpt lat="43.5015206" lon="11.3527141"><ele>424.0</ele><time>2026-03-29T10:17:20.857Z</time></trkpt><trkpt lat="43.5014121" lon="11.3527268"><ele>424.0</ele><time>2026-03-29T10:17:22.859Z</time></trkpt><trkpt lat="43.5013466" lon="11.35277"><ele>424.0</ele><time>2026-03-29T10:17:23.886Z</time></trkpt><trkpt lat="43.5012827" lon="11.3528116"><ele>424.0</ele><time>2026-03-29T10:17:24.856Z</time></trkpt><trkpt lat="43.5011755" lon="11.3528646"><ele>424.00000000000006</ele><time>2026-03-29T10:17:26.864Z</time></trkpt><trkpt lat="43.5011123" lon="11.3528778"><ele>424.0</ele><time>2026-03-29T10:17:27.864Z</time></trkpt><trkpt lat="43.5010387" lon="11.3528757"><ele>424.0</ele><time>2026-03-29T10:17:28.86Z</time></trkpt><trkpt lat="43.5009559" lon="11.3528577"><ele>424.0</ele><time>2026-03-29T10:17:29.888Z</time></trkpt><trkpt lat="43.5008649" lon="11.3528281"><ele>424.00000000000006</ele><time>2026-03-29T10:17:30.892Z</time></trkpt><trkpt lat="43.5007661" lon="11.3527932"><ele>424.0</ele><time>2026-03-29T10:17:31.892Z</time></trkpt><trkpt lat="43.5006567" lon="11.3527517"><ele>424.0</ele><time>2026-03-29T10:17:32.882Z</time></trkpt><trkpt lat="43.5005355" lon="11.352704"><ele>424.0</ele><time>2026-03-29T10:17:33.86Z</time></trkpt><trkpt lat="43.5004114" lon="11.3526531"><ele>424.0</ele><time>2026-03-29T10:17:34.888Z</time></trkpt><trkpt lat="43.5002921" lon="11.352605"><ele>424.0</ele><time>2026-03-29T10:17:35.887Z</time></trkpt><trkpt lat="43.5001765" lon="11.35256"><ele>423.6</ele><time>2026-03-29T10:17:36.86Z</time></trkpt><trkpt lat="43.5000687" lon="11.3525159"><ele>423.2</ele><time>2026-03-29T10:17:37.861Z</time></trkpt><trkpt lat="43.4999669" lon="11.3524745"><ele>422.8</ele><time>2026-03-29T10:17:38.862Z</time></trkpt><trkpt lat="43.4998631" lon="11.3524369"><ele>422.40000000000003</ele><time>2026-03-29T10:17:39.853Z</time></trkpt><trkpt lat="43.4997615" lon="11.3523985"><ele>422.0</ele><time>2026-03-29T10:17:40.857Z</time></trkpt><trkpt lat="43.4996551" lon="11.3523512"><ele>420.75</ele><time>2026-03-29T10:17:41.86Z</time></trkpt><trkpt lat="43.4995484" lon="11.352284"><ele>419.5</ele><time>2026-03-29T10:17:42.859Z</time></trkpt><trkpt lat="43.4994386" lon="11.3522015"><ele>418.25</ele><time>2026-03-29T10:17:43.893Z</time></trkpt><trkpt lat="43.4993304" lon="11.3521103"><ele>417.0</ele><time>2026-03-29T10:17:44.886Z</time></trkpt><trkpt lat="43.499223" lon="11.3520192"><ele>416.5</ele><time>2026-03-29T10:17:45.863Z</time></trkpt><trkpt lat="43.4991126" lon="11.3519339"><ele>416.0</ele><time>2026-03-29T10:17:46.862Z</time></trkpt><trkpt lat="43.4990001" lon="11.3518598"><ele>415.5</ele><time>2026-03-29T10:17:47.857Z</time></trkpt><trkpt lat="43.498892" lon="11.3518016"><ele>415.0</ele><time>2026-03-29T10:17:48.859Z</time></trkpt><trkpt lat="43.4987911" lon="11.3517683"><ele>415.4</ele><time>2026-03-29T10:17:49.857Z</time></trkpt><trkpt lat="43.4986948" lon="11.3517576"><ele>415.8</ele><time>2026-03-29T10:17:50.856Z</time></trkpt><trkpt lat="43.4985994" lon="11.3517668"><ele>416.20000000000005</ele><time>2026-03-29T10:17:51.869Z</time></trkpt><trkpt lat="43.4985033" lon="11.3517961"><ele>416.6</ele><time>2026-03-29T10:17:52.893Z</time></trkpt><trkpt lat="43.4984051" lon="11.3518425"><ele>417.0</ele><time>2026-03-29T10:17:53.859Z</time></trkpt><trkpt lat="43.498303" lon="11.3519068"><ele>417.0</ele><time>2026-03-29T10:17:54.888Z</time></trkpt><trkpt lat="43.4982016" lon="11.3519717"><ele>417.0</ele><time>2026-03-29T10:17:55.857Z</time></trkpt><trkpt lat="43.4980963" lon="11.3520319"><ele>417.0</ele><time>2026-03-29T10:17:56.859Z</time></trkpt><trkpt lat="43.4979885" lon="11.3520878"><ele>417.0</ele><time>2026-03-29T10:17:57.857Z</time></trkpt><trkpt lat="43.4978805" lon="11.3521363"><ele>415.5</ele><time>2026-03-29T10:17:58.856Z</time></trkpt><trkpt lat="43.4977678" lon="11.3521801"><ele>414.0</ele><time>2026-03-29T10:17:59.886Z</time></trkpt><trkpt lat="43.4976544" lon="11.352232"><ele>412.5</ele><time>2026-03-29T10:18:00.859Z</time></trkpt><trkpt lat="43.4975416" lon="11.3522997"><ele>411.0</ele><time>2026-03-29T10:18:01.862Z</time></trkpt><trkpt lat="43.4974297" lon="11.3523818"><ele>410.6</ele><time>2026-03-29T10:18:02.86Z</time></trkpt><trkpt lat="43.4973274" lon="11.3524693"><ele>410.20000000000005</ele><time>2026-03-29T10:18:03.89Z</time></trkpt><trkpt lat="43.497237" lon="11.3525477"><ele>409.79999999999995</ele><time>2026-03-29T10:18:04.861Z</time></trkpt><trkpt lat="43.4971512" lon="11.3526126"><ele>409.4</ele><time>2026-03-29T10:18:05.886Z</time></trkpt><trkpt lat="43.497061" lon="11.3526624"><ele>409.0</ele><time>2026-03-29T10:18:06.86Z</time></trkpt><trkpt lat="43.4969661" lon="11.3526841"><ele>408.1666666666667</ele><time>2026-03-29T10:18:07.861Z</time></trkpt><trkpt lat="43.4968753" lon="11.3526948"><ele>407.33333333333337</ele><time>2026-03-29T10:18:08.86Z</time></trkpt><trkpt lat="43.4967942" lon="11.3527031"><ele>406.5</ele><time>2026-03-29T10:18:09.857Z</time></trkpt><trkpt lat="43.49672" lon="11.3527143"><ele>405.66666666666663</ele><time>2026-03-29T10:18:10.86Z</time></trkpt><trkpt lat="43.4966543" lon="11.3527187"><ele>404.8333333333333</ele><time>2026-03-29T10:18:11.856Z</time></trkpt><trkpt lat="43.4965546" lon="11.3527181"><ele>404.0</ele><time>2026-03-29T10:18:13.855Z</time></trkpt><trkpt lat="43.4964608" lon="11.3527231"><ele>404.0</ele><time>2026-03-29T10:18:15.86Z</time></trkpt><trkpt lat="43.4963629" lon="11.3527621"><ele>404.0</ele><time>2026-03-29T10:18:17.887Z</time></trkpt><trkpt lat="43.4962879" lon="11.3528456"><ele>404.0</ele><time>2026-03-29T10:18:19.863Z</time></trkpt><trkpt lat="43.4962186" lon="11.3529492"><ele>404.0</ele><time>2026-03-29T10:18:21.862Z</time></trkpt><trkpt lat="43.4961368" lon="11.3530411"><ele>404.0</ele><time>2026-03-29T10:18:23.894Z</time></trkpt><trkpt lat="43.4960281" lon="11.3531139"><ele>400.79999999999995</ele><time>2026-03-29T10:18:25.857Z</time></trkpt><trkpt lat="43.4959278" lon="11.3531738"><ele>397.59999999999997</ele><time>2026-03-29T10:18:27.858Z</time></trkpt><trkpt lat="43.495834" lon="11.3532222"><ele>394.4</ele><time>2026-03-29T10:18:29.858Z</time></trkpt><trkpt lat="43.4957377" lon="11.3532577"><ele>391.2</ele><time>2026-03-29T10:18:31.886Z</time></trkpt><trkpt lat="43.4956162" lon="11.3532729"><ele>388.0</ele><time>2026-03-29T10:18:33.89Z</time></trkpt><trkpt lat="43.4955077" lon="11.3532782"><ele>384.79999999999995</ele><time>2026-03-29T10:18:35.888Z</time></trkpt><trkpt lat="43.4953976" lon="11.3532763"><ele>381.6</ele><time>2026-03-29T10:18:37.859Z</time></trkpt><trkpt lat="43.4952794" lon="11.3532704"><ele>378.4</ele><time>2026-03-29T10:18:39.882Z</time></trkpt><trkpt lat="43.4951531" lon="11.3532723"><ele>375.20000000000005</ele><time>2026-03-29T10:18:41.858Z</time></trkpt><trkpt lat="43.4950884" lon="11.3532784"><ele>372.0</ele><time>2026-03-29T10:18:42.89Z</time></trkpt><trkpt lat="43.4950246" lon="11.3532873"><ele>372.00000000000006</ele><time>2026-03-29T10:18:43.862Z</time></trkpt><trkpt lat="43.4949589" lon="11.3532952"><ele>372.0</ele><time>2026-03-29T10:18:44.866Z</time></trkpt><trkpt lat="43.4948918" lon="11.3532991"><ele>372.0</ele><time>2026-03-29T10:18:45.856Z</time></trkpt><trkpt lat="43.4948263" lon="11.3532916"><ele>372.0</ele><time>2026-03-29T10:18:46.891Z</time></trkpt><trkpt lat="43.4947646" lon="11.3532629"><ele>372.0</ele><time>2026-03-29T10:18:47.859Z</time></trkpt><trkpt lat="43.4947044" lon="11.3532113"><ele>372.00000000000006</ele><time>2026-03-29T10:18:48.863Z</time></trkpt><trkpt lat="43.4946464" lon="11.3531458"><ele>372.0</ele><time>2026-03-29T10:18:49.894Z</time></trkpt><trkpt lat="43.4945957" lon="11.353079"><ele>369.1666666666667</ele><time>2026-03-29T10:18:50.888Z</time></trkpt><trkpt lat="43.4945451" lon="11.3530217"><ele>366.3333333333333</ele><time>2026-03-29T10:18:51.894Z</time></trkpt><trkpt lat="43.4944461" lon="11.3529776"><ele>363.5</ele><time>2026-03-29T10:18:53.894Z</time></trkpt><trkpt lat="43.494382" lon="11.3529916"><ele>360.66666666666663</ele><time>2026-03-29T10:18:54.871Z</time></trkpt><trkpt lat="43.4943159" lon="11.3530202"><ele>357.8333333333333</ele><time>2026-03-29T10:18:55.889Z</time></trkpt><trkpt lat="43.494255" lon="11.3530573"><ele>355.0</ele><time>2026-03-29T10:18:56.86Z</time></trkpt><trkpt lat="43.4941529" lon="11.3531292"><ele>354.8</ele><time>2026-03-29T10:18:58.858Z</time></trkpt><trkpt lat="43.4940533" lon="11.3531714"><ele>354.6</ele><time>2026-03-29T10:19:00.857Z</time></trkpt><trkpt lat="43.4939342" lon="11.3531951"><ele>354.4</ele><time>2026-03-29T10:19:02.857Z</time></trkpt><trkpt lat="43.4938695" lon="11.3532028"><ele>354.2</ele><time>2026-03-29T10:19:03.886Z</time></trkpt><trkpt lat="43.4937429" lon="11.3531819"><ele>354.0</ele><time>2026-03-29T10:19:05.863Z</time></trkpt><trkpt lat="43.4936786" lon="11.3531503"><ele>351.6666666666667</ele><time>2026-03-29T10:19:06.863Z</time></trkpt><trkpt lat="43.4936171" lon="11.3531074"><ele>349.3333333333333</ele><time>2026-03-29T10:19:07.887Z</time></trkpt><trkpt lat="43.4935489" lon="11.353065"><ele>347.0</ele><time>2026-03-29T10:19:08.858Z</time></trkpt><trkpt lat="43.4934737" lon="11.3530152"><ele>344.66666666666663</ele><time>2026-03-29T10:19:09.86Z</time></trkpt><trkpt lat="43.4933918" lon="11.3529517"><ele>342.3333333333333</ele><time>2026-03-29T10:19:10.863Z</time></trkpt><trkpt lat="43.4933082" lon="11.3528924"><ele>340.0</ele><time>2026-03-29T10:19:11.856Z</time></trkpt><trkpt lat="43.4932299" lon="11.3528438"><ele>340.0</ele><time>2026-03-29T10:19:12.892Z</time></trkpt><trkpt lat="43.4931514" lon="11.3528019"><ele>340.0</ele><time>2026-03-29T10:19:13.867Z</time></trkpt><trkpt lat="43.4930714" lon="11.3527686"><ele>340.0</ele><time>2026-03-29T10:19:14.857Z</time></trkpt><trkpt lat="43.4929989" lon="11.3527444"><ele>340.0</ele><time>2026-03-29T10:19:15.888Z</time></trkpt><trkpt lat="43.4929315" lon="11.3527289"><ele>340.0</ele><time>2026-03-29T10:19:16.875Z</time></trkpt><trkpt lat="43.4928073" lon="11.3527025"><ele>340.0</ele><time>2026-03-29T10:19:18.856Z</time></trkpt><trkpt lat="43.4926855" lon="11.3526749"><ele>337.8</ele><time>2026-03-29T10:19:20.892Z</time></trkpt><trkpt lat="43.4925747" lon="11.3526779"><ele>335.6</ele><time>2026-03-29T10:19:22.858Z</time></trkpt><trkpt lat="43.492478" lon="11.3526979"><ele>333.4</ele><time>2026-03-29T10:19:24.86Z</time></trkpt><trkpt lat="43.4923939" lon="11.3526944"><ele>331.2</ele><time>2026-03-29T10:19:26.857Z</time></trkpt><trkpt lat="43.4923237" lon="11.3526083"><ele>329.0</ele><time>2026-03-29T10:19:28.863Z</time></trkpt><trkpt lat="43.4922639" lon="11.3524523"><ele>329.0</ele><time>2026-03-29T10:19:30.893Z</time></trkpt><trkpt lat="43.4922337" lon="11.3523707"><ele>329.0</ele><time>2026-03-29T10:19:31.887Z</time></trkpt><trkpt lat="43.4921776" lon="11.3522326"><ele>329.0</ele><time>2026-03-29T10:19:33.862Z</time></trkpt><trkpt lat="43.4921255" lon="11.3521225"><ele>329.0</ele><time>2026-03-29T10:19:35.89Z</time></trkpt><trkpt lat="43.4920563" lon="11.3520694"><ele>329.0</ele><time>2026-03-29T10:19:37.856Z</time></trkpt><trkpt lat="43.4919849" lon="11.3520789"><ele>329.0</ele><time>2026-03-29T10:19:39.886Z</time></trkpt><trkpt lat="43.4919123" lon="11.3521793"><ele>328.6666666666667</ele><time>2026-03-29T10:19:41.859Z</time></trkpt><trkpt lat="43.4918719" lon="11.3522538"><ele>328.33333333333337</ele><time>2026-03-29T10:19:42.853Z</time></trkpt><trkpt lat="43.4918152" lon="11.3523257"><ele>328.0</ele><time>2026-03-29T10:19:43.858Z</time></trkpt><trkpt lat="43.4917494" lon="11.3524077"><ele>327.6666666666667</ele><time>2026-03-29T10:19:44.858Z</time></trkpt><trkpt lat="43.491688" lon="11.3524967"><ele>327.3333333333333</ele><time>2026-03-29T10:19:45.863Z</time></trkpt><trkpt lat="43.491629" lon="11.3525844"><ele>327.0</ele><time>2026-03-29T10:19:46.854Z</time></trkpt><trkpt lat="43.4915684" lon="11.3526672"><ele>327.0</ele><time>2026-03-29T10:19:47.854Z</time></trkpt><trkpt lat="43.4914941" lon="11.352739"><ele>327.0</ele><time>2026-03-29T10:19:48.857Z</time></trkpt><trkpt lat="43.4914073" lon="11.3528007"><ele>327.0</ele><time>2026-03-29T10:19:49.855Z</time></trkpt><trkpt lat="43.4913164" lon="11.3528561"><ele>327.0</ele><time>2026-03-29T10:19:50.865Z</time></trkpt><trkpt lat="43.4912344" lon="11.3529236"><ele>327.0</ele><time>2026-03-29T10:19:51.885Z</time></trkpt><trkpt lat="43.4911709" lon="11.3530286"><ele>328.5</ele><time>2026-03-29T10:19:52.856Z</time></trkpt><trkpt lat="43.491125" lon="11.3531654"><ele>330.0</ele><time>2026-03-29T10:19:53.858Z</time></trkpt><trkpt lat="43.4910914" lon="11.3533256"><ele>331.5</ele><time>2026-03-29T10:19:54.859Z</time></trkpt><trkpt lat="43.4910562" lon="11.3534944"><ele>333.0</ele><time>2026-03-29T10:19:55.887Z</time></trkpt><trkpt lat="43.4910238" lon="11.3536633"><ele>333.0</ele><time>2026-03-29T10:19:56.855Z</time></trkpt><trkpt lat="43.490988" lon="11.3538206"><ele>333.0</ele><time>2026-03-29T10:19:57.886Z</time></trkpt><trkpt lat="43.4909553" lon="11.3539576"><ele>333.0</ele><time>2026-03-29T10:19:58.862Z</time></trkpt><trkpt lat="43.4909302" lon="11.3540667"><ele>333.0</ele><time>2026-03-29T10:19:59.887Z</time></trkpt><trkpt lat="43.4909104" lon="11.3541551"><ele>333.0</ele><time>2026-03-29T10:20:00.864Z</time></trkpt><trkpt lat="43.4908948" lon="11.354278"><ele>333.0</ele><time>2026-03-29T10:20:02.888Z</time></trkpt><trkpt lat="43.4908018" lon="11.3542415"><ele>333.0</ele><time>2026-03-29T10:20:09.859Z</time></trkpt><trkpt lat="43.4907636" lon="11.3541345"><ele>333.0</ele><time>2026-03-29T10:20:10.862Z</time></trkpt><trkpt lat="43.4907333" lon="11.3540047"><ele>333.0</ele><time>2026-03-29T10:20:11.858Z</time></trkpt><trkpt lat="43.4907091" lon="11.353846"><ele>333.0</ele><time>2026-03-29T10:20:12.856Z</time></trkpt><trkpt lat="43.4906891" lon="11.3536582"><ele>333.0</ele><time>2026-03-29T10:20:13.894Z</time></trkpt><trkpt lat="43.4906777" lon="11.3534711"><ele>333.0</ele><time>2026-03-29T10:20:14.862Z</time></trkpt><trkpt lat="43.4906826" lon="11.3533308"><ele>333.0</ele><time>2026-03-29T10:20:15.858Z</time></trkpt><trkpt lat="43.4907094" lon="11.3532321"><ele>333.0</ele><time>2026-03-29T10:20:17.862Z</time></trkpt><trkpt lat="43.4906628" lon="11.3533016"><ele>333.0</ele><time>2026-03-29T10:20:29.888Z</time></trkpt><trkpt lat="43.490686" lon="11.3534948"><ele>333.0</ele><time>2026-03-29T10:20:31.888Z</time></trkpt><trkpt lat="43.4907026" lon="11.3536256"><ele>333.0</ele><time>2026-03-29T10:20:32.89Z</time></trkpt><trkpt lat="43.4907162" lon="11.353768"><ele>333.0</ele><time>2026-03-29T10:20:33.863Z</time></trkpt><trkpt lat="43.4907309" lon="11.3539103"><ele>333.0</ele><time>2026-03-29T10:20:34.886Z</time></trkpt><trkpt lat="43.4907615" lon="11.3540583"><ele>333.0</ele><time>2026-03-29T10:20:35.901Z</time></trkpt><trkpt lat="43.4908099" lon="11.3541965"><ele>333.4</ele><time>2026-03-29T10:20:36.859Z</time></trkpt><trkpt lat="43.4908691" lon="11.3543139"><ele>333.79999999999995</ele><time>2026-03-29T10:20:37.862Z</time></trkpt><trkpt lat="43.4909393" lon="11.3544062"><ele>334.2</ele><time>2026-03-29T10:20:38.888Z</time></trkpt><trkpt lat="43.4909987" lon="11.3544955"><ele>334.6</ele><time>2026-03-29T10:20:39.857Z</time></trkpt><trkpt lat="43.4910356" lon="11.3545979"><ele>335.0</ele><time>2026-03-29T10:20:40.889Z</time></trkpt><trkpt lat="43.4910407" lon="11.3547128"><ele>336.5</ele><time>2026-03-29T10:20:41.858Z</time></trkpt><trkpt lat="43.4910039" lon="11.3548443"><ele>338.0</ele><time>2026-03-29T10:20:42.862Z</time></trkpt><trkpt lat="43.4909223" lon="11.3549912"><ele>339.5</ele><time>2026-03-29T10:20:43.886Z</time></trkpt><trkpt lat="43.4908031" lon="11.3551361"><ele>341.0</ele><time>2026-03-29T10:20:44.858Z</time></trkpt><trkpt lat="43.490646" lon="11.3552711"><ele>341.0</ele><time>2026-03-29T10:20:45.89Z</time></trkpt><trkpt lat="43.4904803" lon="11.3553795"><ele>341.0</ele><time>2026-03-29T10:20:46.859Z</time></trkpt><trkpt lat="43.4903259" lon="11.3554584"><ele>341.0</ele><time>2026-03-29T10:20:47.861Z</time></trkpt><trkpt lat="43.4901871" lon="11.3555149"><ele>343.4</ele><time>2026-03-29T10:20:48.859Z</time></trkpt><trkpt lat="43.4900678" lon="11.3555565"><ele>345.8</ele><time>2026-03-29T10:20:49.863Z</time></trkpt><trkpt lat="43.4899736" lon="11.3555938"><ele>348.2</ele><time>2026-03-29T10:20:50.898Z</time></trkpt><trkpt lat="43.4899071" lon="11.3556305"><ele>350.59999999999997</ele><time>2026-03-29T10:20:51.862Z</time></trkpt><trkpt lat="43.4898748" lon="11.3557712"><ele>353.0</ele><time>2026-03-29T10:20:53.891Z</time></trkpt><trkpt lat="43.4899201" lon="11.3558623"><ele>353.0</ele><time>2026-03-29T10:20:54.856Z</time></trkpt><trkpt lat="43.4900025" lon="11.3559317"><ele>353.0</ele><time>2026-03-29T10:20:55.86Z</time></trkpt><trkpt lat="43.4901156" lon="11.3559883"><ele>353.0</ele><time>2026-03-29T10:20:56.896Z</time></trkpt><trkpt lat="43.4901986" lon="11.3560446"><ele>353.0</ele><time>2026-03-29T10:20:57.862Z</time></trkpt><trkpt lat="43.4902404" lon="11.3561241"><ele>353.0</ele><time>2026-03-29T10:20:58.888Z</time></trkpt><trkpt lat="43.4902267" lon="11.3562318"><ele>353.0</ele><time>2026-03-29T10:20:59.86Z</time></trkpt><trkpt lat="43.490159" lon="11.3563502"><ele>353.0</ele><time>2026-03-29T10:21:00.859Z</time></trkpt><trkpt lat="43.4900586" lon="11.3564686"><ele>353.0</ele><time>2026-03-29T10:21:01.888Z</time></trkpt><trkpt lat="43.4899323" lon="11.3565806"><ele>353.0</ele><time>2026-03-29T10:21:02.865Z</time></trkpt><trkpt lat="43.4898025" lon="11.3566983"><ele>357.33333333333337</ele><time>2026-03-29T10:21:03.856Z</time></trkpt><trkpt lat="43.4896708" lon="11.3568431"><ele>361.6666666666667</ele><time>2026-03-29T10:21:04.895Z</time></trkpt><trkpt lat="43.4895478" lon="11.3569908"><ele>366.0</ele><time>2026-03-29T10:21:05.887Z</time></trkpt><trkpt lat="43.4894261" lon="11.3571467"><ele>370.0</ele><time>2026-03-29T10:21:06.886Z</time></trkpt><trkpt lat="43.4893131" lon="11.3573229"><ele>374.0</ele><time>2026-03-29T10:21:07.867Z</time></trkpt><trkpt lat="43.4892151" lon="11.3575421"><ele>378.0</ele><time>2026-03-29T10:21:08.887Z</time></trkpt><trkpt lat="43.489131" lon="11.3578107"><ele>382.66666666666663</ele><time>2026-03-29T10:21:09.855Z</time></trkpt><trkpt lat="43.4890661" lon="11.3581019"><ele>387.3333333333333</ele><time>2026-03-29T10:21:10.891Z</time></trkpt><trkpt lat="43.4890199" lon="11.3584069"><ele>392.0</ele><time>2026-03-29T10:21:11.859Z</time></trkpt><trkpt lat="43.4889826" lon="11.358708"><ele>395.66666666666663</ele><time>2026-03-29T10:21:12.857Z</time></trkpt><trkpt lat="43.4889504" lon="11.3589746"><ele>399.33333333333337</ele><time>2026-03-29T10:21:13.86Z</time></trkpt><trkpt lat="43.4889159" lon="11.3592076"><ele>403.0</ele><time>2026-03-29T10:21:14.859Z</time></trkpt><trkpt lat="43.4888751" lon="11.3594112"><ele>403.0</ele><time>2026-03-29T10:21:15.894Z</time></trkpt><trkpt lat="43.4888287" lon="11.3595981"><ele>403.0</ele><time>2026-03-29T10:21:16.857Z</time></trkpt><trkpt lat="43.4887541" lon="11.3597946"><ele>403.0</ele><time>2026-03-29T10:21:17.867Z</time></trkpt><trkpt lat="43.4886691" lon="11.3599953"><ele>405.0</ele><time>2026-03-29T10:21:18.891Z</time></trkpt><trkpt lat="43.4885696" lon="11.360203"><ele>407.0</ele><time>2026-03-29T10:21:19.863Z</time></trkpt><trkpt lat="43.4884759" lon="11.3604092"><ele>409.0</ele><time>2026-03-29T10:21:20.861Z</time></trkpt><trkpt lat="43.4883914" lon="11.3605933"><ele>411.2</ele><time>2026-03-29T10:21:21.856Z</time></trkpt><trkpt lat="43.4883191" lon="11.3607472"><ele>413.4</ele><time>2026-03-29T10:21:22.861Z</time></trkpt><trkpt lat="43.4882539" lon="11.3608721"><ele>415.6</ele><time>2026-03-29T10:21:23.858Z</time></trkpt><trkpt lat="43.4881981" lon="11.3609838"><ele>417.8</ele><time>2026-03-29T10:21:24.857Z</time></trkpt><trkpt lat="43.4881664" lon="11.361092"><ele>420.0</ele><time>2026-03-29T10:21:25.858Z</time></trkpt><trkpt lat="43.4881709" lon="11.3611898"><ele>420.0</ele><time>2026-03-29T10:21:26.858Z</time></trkpt><trkpt lat="43.4882105" lon="11.3612725"><ele>420.0</ele><time>2026-03-29T10:21:27.887Z</time></trkpt><trkpt lat="43.4882928" lon="11.3613248"><ele>420.0</ele><time>2026-03-29T10:21:28.861Z</time></trkpt><trkpt lat="43.4883913" lon="11.3613434"><ele>420.0</ele><time>2026-03-29T10:21:29.86Z</time></trkpt><trkpt lat="43.4884725" lon="11.361367"><ele>420.0</ele><time>2026-03-29T10:21:30.857Z</time></trkpt><trkpt lat="43.4885373" lon="11.3614788"><ele>420.0</ele><time>2026-03-29T10:21:32.861Z</time></trkpt><trkpt lat="43.488499" lon="11.3615534"><ele>424.0</ele><time>2026-03-29T10:21:33.889Z</time></trkpt><trkpt lat="43.4884187" lon="11.3616188"><ele>428.0</ele><time>2026-03-29T10:21:34.857Z</time></trkpt><trkpt lat="43.4883159" lon="11.361682"><ele>432.0</ele><time>2026-03-29T10:21:35.86Z</time></trkpt><trkpt lat="43.4882026" lon="11.3617692"><ele>436.0</ele><time>2026-03-29T10:21:36.858Z</time></trkpt><trkpt lat="43.4881016" lon="11.3618771"><ele>436.0</ele><time>2026-03-29T10:21:37.858Z</time></trkpt><trkpt lat="43.488018" lon="11.3620092"><ele>436.0</ele><time>2026-03-29T10:21:38.883Z</time></trkpt><trkpt lat="43.4879607" lon="11.3621844"><ele>436.0</ele><time>2026-03-29T10:21:39.861Z</time></trkpt><trkpt lat="43.4879066" lon="11.3623863"><ele>436.0</ele><time>2026-03-29T10:21:40.856Z</time></trkpt><trkpt lat="43.4878503" lon="11.3625917"><ele>438.25</ele><time>2026-03-29T10:21:41.888Z</time></trkpt><trkpt lat="43.487791" lon="11.3627898"><ele>440.5</ele><time>2026-03-29T10:21:42.867Z</time></trkpt><trkpt lat="43.4877284" lon="11.3629711"><ele>442.75</ele><time>2026-03-29T10:21:43.867Z</time></trkpt><trkpt lat="43.4876567" lon="11.3631289"><ele>445.0</ele><time>2026-03-29T10:21:44.864Z</time></trkpt><trkpt lat="43.4875699" lon="11.3632602"><ele>446.5</ele><time>2026-03-29T10:21:45.889Z</time></trkpt><trkpt lat="43.487459" lon="11.363378"><ele>448.0</ele><time>2026-03-29T10:21:46.863Z</time></trkpt><trkpt lat="43.4873386" lon="11.3634867"><ele>449.5</ele><time>2026-03-29T10:21:47.889Z</time></trkpt><trkpt lat="43.4872059" lon="11.363613"><ele>451.0</ele><time>2026-03-29T10:21:48.888Z</time></trkpt><trkpt lat="43.4870636" lon="11.3637457"><ele>456.0</ele><time>2026-03-29T10:21:49.895Z</time></trkpt><trkpt lat="43.4869232" lon="11.3638738"><ele>461.0</ele><time>2026-03-29T10:21:50.886Z</time></trkpt><trkpt lat="43.4867932" lon="11.3640063"><ele>466.0</ele><time>2026-03-29T10:21:51.856Z</time></trkpt><trkpt lat="43.4866782" lon="11.3641579"><ele>466.0</ele><time>2026-03-29T10:21:52.89Z</time></trkpt><trkpt lat="43.4865716" lon="11.3643352"><ele>466.0</ele><time>2026-03-29T10:21:53.858Z</time></trkpt><trkpt lat="43.4864625" lon="11.3645162"><ele>466.0</ele><time>2026-03-29T10:21:54.891Z</time></trkpt><trkpt lat="43.486341" lon="11.3646896"><ele>473.0</ele><time>2026-03-29T10:21:55.891Z</time></trkpt><trkpt lat="43.4862207" lon="11.3648691"><ele>480.0</ele><time>2026-03-29T10:21:56.859Z</time></trkpt><trkpt lat="43.4861177" lon="11.3650558"><ele>487.0</ele><time>2026-03-29T10:21:57.863Z</time></trkpt><trkpt lat="43.4860263" lon="11.3652221"><ele>487.0</ele><time>2026-03-29T10:21:58.861Z</time></trkpt><trkpt lat="43.4859357" lon="11.3653626"><ele>487.0</ele><time>2026-03-29T10:21:59.862Z</time></trkpt><trkpt lat="43.4858228" lon="11.3654788"><ele>487.0</ele><time>2026-03-29T10:22:00.861Z</time></trkpt><trkpt lat="43.4856878" lon="11.3655882"><ele>487.0</ele><time>2026-03-29T10:22:01.863Z</time></trkpt><trkpt lat="43.4855422" lon="11.3657022"><ele>490.0</ele><time>2026-03-29T10:22:02.862Z</time></trkpt><trkpt lat="43.4853924" lon="11.3658302"><ele>493.0</ele><time>2026-03-29T10:22:03.858Z</time></trkpt><trkpt lat="43.4852608" lon="11.3659592"><ele>496.0</ele><time>2026-03-29T10:22:04.859Z</time></trkpt><trkpt lat="43.4851423" lon="11.3660836"><ele>496.0</ele><time>2026-03-29T10:22:05.866Z</time></trkpt><trkpt lat="43.4850387" lon="11.366194"><ele>496.0</ele><time>2026-03-29T10:22:06.861Z</time></trkpt><trkpt lat="43.4849579" lon="11.366278"><ele>496.0</ele><time>2026-03-29T10:22:07.857Z</time></trkpt><trkpt lat="43.484894" lon="11.3663419"><ele>496.0</ele><time>2026-03-29T10:22:08.854Z</time></trkpt><trkpt lat="43.4847989" lon="11.3664319"><ele>496.0</ele><time>2026-03-29T10:22:10.861Z</time></trkpt><trkpt lat="43.4847175" lon="11.366503"><ele>496.0</ele><time>2026-03-29T10:22:12.858Z</time></trkpt><trkpt lat="43.4846467" lon="11.3665439"><ele>496.0</ele><time>2026-03-29T10:22:16.859Z</time></trkpt><trkpt lat="43.484619" lon="11.3664205"><ele>496.0</ele><time>2026-03-29T10:22:21.859Z</time></trkpt><trkpt lat="43.4846553" lon="11.3663111"><ele>496.0</ele><time>2026-03-29T10:22:22.858Z</time></trkpt><trkpt lat="43.484703" lon="11.3661881"><ele>496.0</ele><time>2026-03-29T10:22:23.859Z</time></trkpt><trkpt lat="43.4847399" lon="11.3660548"><ele>496.0</ele><time>2026-03-29T10:22:24.857Z</time></trkpt><trkpt lat="43.4847575" lon="11.3659346"><ele>496.0</ele><time>2026-03-29T10:22:25.867Z</time></trkpt><trkpt lat="43.4847738" lon="11.3658455"><ele>496.0</ele><time>2026-03-29T10:22:26.856Z</time></trkpt><trkpt lat="43.4848032" lon="11.3657249"><ele>496.0</ele><time>2026-03-29T10:22:28.856Z</time></trkpt><trkpt lat="43.4848526" lon="11.3654793"><ele>496.0</ele><time>2026-03-29T10:22:42.859Z</time></trkpt><trkpt lat="43.4847895" lon="11.3655092"><ele>496.00000000000006</ele><time>2026-03-29T10:22:51.856Z</time></trkpt><trkpt lat="43.4847561" lon="11.3656367"><ele>496.0</ele><time>2026-03-29T10:22:54.858Z</time></trkpt><trkpt lat="43.4847339" lon="11.3657391"><ele>496.0</ele><time>2026-03-29T10:22:56.892Z</time></trkpt><trkpt lat="43.4847047" lon="11.3658455"><ele>496.0</ele><time>2026-03-29T10:22:58.858Z</time></trkpt><trkpt lat="43.4846594" lon="11.3659167"><ele>496.00000000000006</ele><time>2026-03-29T10:23:04.857Z</time></trkpt><trkpt lat="43.4845707" lon="11.3658788"><ele>496.0</ele><time>2026-03-29T10:23:12.856Z</time></trkpt><trkpt lat="43.4844972" lon="11.3658456"><ele>368.0</ele><time>2026-03-29T10:23:17.86Z</time></trkpt><trkpt lat="43.4633567" lon="11.3569884"><ele>368.0</ele><time>2026-03-29T10:27:51.862Z</time></trkpt><trkpt lat="43.4632685" lon="11.3569818"><ele>368.0</ele><time>2026-03-29T10:27:52.858Z</time></trkpt><trkpt lat="43.4631757" lon="11.3569729"><ele>368.0</ele><time>2026-03-29T10:27:53.889Z</time></trkpt><trkpt lat="43.463086" lon="11.3569453"><ele>368.0</ele><time>2026-03-29T10:27:54.859Z</time></trkpt><trkpt lat="43.4629969" lon="11.356886"><ele>368.0</ele><time>2026-03-29T10:27:55.889Z</time></trkpt><trkpt lat="43.4628989" lon="11.3567895"><ele>366.6666666666667</ele><time>2026-03-29T10:27:56.862Z</time></trkpt><trkpt lat="43.4627828" lon="11.356667"><ele>365.3333333333333</ele><time>2026-03-29T10:27:57.856Z</time></trkpt><trkpt lat="43.462658" lon="11.3565394"><ele>364.0</ele><time>2026-03-29T10:27:58.859Z</time></trkpt><trkpt lat="43.46241" lon="11.356281"><ele>364.0</ele><time>2026-03-29T10:28:00.861Z</time></trkpt><trkpt lat="43.4622802" lon="11.3561608"><ele>364.0</ele><time>2026-03-29T10:28:01.862Z</time></trkpt><trkpt lat="43.4621517" lon="11.3560368"><ele>364.0</ele><time>2026-03-29T10:28:02.885Z</time></trkpt><trkpt lat="43.4620221" lon="11.3559129"><ele>362.0</ele><time>2026-03-29T10:28:03.89Z</time></trkpt><trkpt lat="43.4618974" lon="11.3557931"><ele>360.0</ele><time>2026-03-29T10:28:04.856Z</time></trkpt><trkpt lat="43.4617783" lon="11.3556866"><ele>358.0</ele><time>2026-03-29T10:28:05.859Z</time></trkpt><trkpt lat="43.4616699" lon="11.3555943"><ele>356.0</ele><time>2026-03-29T10:28:06.859Z</time></trkpt><trkpt lat="43.4615671" lon="11.3555145"><ele>359.4</ele><time>2026-03-29T10:28:07.859Z</time></trkpt><trkpt lat="43.4614737" lon="11.3554536"><ele>362.8</ele><time>2026-03-29T10:28:08.889Z</time></trkpt><trkpt lat="43.4613901" lon="11.3554168"><ele>366.2</ele><time>2026-03-29T10:28:09.869Z</time></trkpt><trkpt lat="43.461303" lon="11.3554092"><ele>369.59999999999997</ele><time>2026-03-29T10:28:10.863Z</time></trkpt><trkpt lat="43.4612076" lon="11.3554379"><ele>373.0</ele><time>2026-03-29T10:28:11.857Z</time></trkpt><trkpt lat="43.4611006" lon="11.3554812"><ele>373.0</ele><time>2026-03-29T10:28:12.858Z</time></trkpt><trkpt lat="43.4609942" lon="11.3555238"><ele>373.0</ele><time>2026-03-29T10:28:13.861Z</time></trkpt><trkpt lat="43.4608805" lon="11.3555561"><ele>373.0</ele><time>2026-03-29T10:28:14.857Z</time></trkpt><trkpt lat="43.4607557" lon="11.3555742"><ele>373.0</ele><time>2026-03-29T10:28:15.86Z</time></trkpt><trkpt lat="43.4606232" lon="11.3555712"><ele>371.5</ele><time>2026-03-29T10:28:16.862Z</time></trkpt><trkpt lat="43.460489" lon="11.3555423"><ele>370.0</ele><time>2026-03-29T10:28:17.864Z</time></trkpt><trkpt lat="43.4603588" lon="11.3555026"><ele>368.5</ele><time>2026-03-29T10:28:18.862Z</time></trkpt><trkpt lat="43.4602402" lon="11.355476"><ele>367.0</ele><time>2026-03-29T10:28:19.863Z</time></trkpt><trkpt lat="43.46003" lon="11.3554802"><ele>367.0</ele><time>2026-03-29T10:28:21.864Z</time></trkpt><trkpt lat="43.4599322" lon="11.3555091"><ele>367.0</ele><time>2026-03-29T10:28:22.89Z</time></trkpt><trkpt lat="43.4598322" lon="11.355537"><ele>367.0</ele><time>2026-03-29T10:28:23.86Z</time></trkpt><trkpt lat="43.4597249" lon="11.3555524"><ele>367.0</ele><time>2026-03-29T10:28:24.86Z</time></trkpt><trkpt lat="43.4596049" lon="11.3555477"><ele>367.0</ele><time>2026-03-29T10:28:25.864Z</time></trkpt><trkpt lat="43.4594754" lon="11.3555192"><ele>364.25</ele><time>2026-03-29T10:28:26.862Z</time></trkpt><trkpt lat="43.4593372" lon="11.3554834"><ele>361.5</ele><time>2026-03-29T10:28:27.888Z</time></trkpt><trkpt lat="43.4591945" lon="11.3554476"><ele>358.75</ele><time>2026-03-29T10:28:28.856Z</time></trkpt><trkpt lat="43.4590564" lon="11.35541"><ele>356.0</ele><time>2026-03-29T10:28:29.856Z</time></trkpt><trkpt lat="43.4589253" lon="11.3553655"><ele>356.0</ele><time>2026-03-29T10:28:30.886Z</time></trkpt><trkpt lat="43.4587918" lon="11.3553033"><ele>356.0</ele><time>2026-03-29T10:28:31.86Z</time></trkpt><trkpt lat="43.4586575" lon="11.3552214"><ele>356.0</ele><time>2026-03-29T10:28:32.861Z</time></trkpt><trkpt lat="43.4585233" lon="11.3551219"><ele>356.0</ele><time>2026-03-29T10:28:33.86Z</time></trkpt><trkpt lat="43.458399" lon="11.3550157"><ele>354.5</ele><time>2026-03-29T10:28:34.859Z</time></trkpt><trkpt lat="43.4582894" lon="11.3549087"><ele>353.0</ele><time>2026-03-29T10:28:35.862Z</time></trkpt><trkpt lat="43.4581947" lon="11.3548075"><ele>351.5</ele><time>2026-03-29T10:28:36.854Z</time></trkpt><trkpt lat="43.4581086" lon="11.3547248"><ele>350.0</ele><time>2026-03-29T10:28:37.888Z</time></trkpt><trkpt lat="43.4580188" lon="11.3546668"><ele>351.6666666666667</ele><time>2026-03-29T10:28:38.855Z</time></trkpt><trkpt lat="43.4579196" lon="11.3546268"><ele>353.3333333333333</ele><time>2026-03-29T10:28:39.886Z</time></trkpt><trkpt lat="43.4578044" lon="11.3545947"><ele>355.0</ele><time>2026-03-29T10:28:40.86Z</time></trkpt><trkpt lat="43.4575437" lon="11.3545265"><ele>355.0</ele><time>2026-03-29T10:28:42.854Z</time></trkpt><trkpt lat="43.4574082" lon="11.3544713"><ele>355.0</ele><time>2026-03-29T10:28:43.862Z</time></trkpt><trkpt lat="43.4572777" lon="11.3544011"><ele>355.0</ele><time>2026-03-29T10:28:44.858Z</time></trkpt><trkpt lat="43.4571563" lon="11.3543349"><ele>355.0</ele><time>2026-03-29T10:28:45.86Z</time></trkpt><trkpt lat="43.4570369" lon="11.3542807"><ele>352.75</ele><time>2026-03-29T10:28:46.857Z</time></trkpt><trkpt lat="43.4569092" lon="11.3542444"><ele>350.5</ele><time>2026-03-29T10:28:47.856Z</time></trkpt><trkpt lat="43.4567778" lon="11.3542188"><ele>348.25</ele><time>2026-03-29T10:28:48.888Z</time></trkpt><trkpt lat="43.4566438" lon="11.3541953"><ele>346.0</ele><time>2026-03-29T10:28:49.86Z</time></trkpt><trkpt lat="43.4565038" lon="11.3541764"><ele>346.0</ele><time>2026-03-29T10:28:50.889Z</time></trkpt><trkpt lat="43.4563573" lon="11.3541589"><ele>346.0</ele><time>2026-03-29T10:28:51.863Z</time></trkpt><trkpt lat="43.4562077" lon="11.3541398"><ele>346.0</ele><time>2026-03-29T10:28:52.856Z</time></trkpt><trkpt lat="43.4560564" lon="11.3541097"><ele>345.75</ele><time>2026-03-29T10:28:53.887Z</time></trkpt><trkpt lat="43.4559084" lon="11.3540586"><ele>345.5</ele><time>2026-03-29T10:28:54.86Z</time></trkpt><trkpt lat="43.4557661" lon="11.3539923"><ele>345.25</ele><time>2026-03-29T10:28:55.865Z</time></trkpt><trkpt lat="43.4556324" lon="11.353926"><ele>345.0</ele><time>2026-03-29T10:28:56.857Z</time></trkpt><trkpt lat="43.4555144" lon="11.3538758"><ele>344.6</ele><time>2026-03-29T10:28:57.859Z</time></trkpt><trkpt lat="43.4554135" lon="11.3538482"><ele>344.2</ele><time>2026-03-29T10:28:58.856Z</time></trkpt><trkpt lat="43.4553153" lon="11.3538482"><ele>343.79999999999995</ele><time>2026-03-29T10:28:59.872Z</time></trkpt><trkpt lat="43.4552241" lon="11.3538709"><ele>343.4</ele><time>2026-03-29T10:29:00.859Z</time></trkpt><trkpt lat="43.4551317" lon="11.3539071"><ele>343.0</ele><time>2026-03-29T10:29:01.858Z</time></trkpt><trkpt lat="43.454935" lon="11.3539953"><ele>343.0</ele><time>2026-03-29T10:29:03.858Z</time></trkpt><trkpt lat="43.4548352" lon="11.3540443"><ele>343.0</ele><time>2026-03-29T10:29:04.861Z</time></trkpt><trkpt lat="43.4547447" lon="11.3541008"><ele>343.0</ele><time>2026-03-29T10:29:05.859Z</time></trkpt><trkpt lat="43.4546594" lon="11.3541626"><ele>343.0</ele><time>2026-03-29T10:29:06.886Z</time></trkpt><trkpt lat="43.454577" lon="11.3542216"><ele>343.0</ele><time>2026-03-29T10:29:07.892Z</time></trkpt><trkpt lat="43.4544973" lon="11.3542658"><ele>341.8333333333333</ele><time>2026-03-29T10:29:08.86Z</time></trkpt><trkpt lat="43.4544212" lon="11.3542974"><ele>340.66666666666663</ele><time>2026-03-29T10:29:09.856Z</time></trkpt><trkpt lat="43.454349" lon="11.354311"><ele>339.5</ele><time>2026-03-29T10:29:10.888Z</time></trkpt><trkpt lat="43.4542731" lon="11.3542991"><ele>338.3333333333333</ele><time>2026-03-29T10:29:11.858Z</time></trkpt><trkpt lat="43.4541993" lon="11.3542537"><ele>337.1666666666667</ele><time>2026-03-29T10:29:12.855Z</time></trkpt><trkpt lat="43.4541307" lon="11.3542184"><ele>336.0</ele><time>2026-03-29T10:29:13.858Z</time></trkpt><trkpt lat="43.4540025" lon="11.3542004"><ele>336.0</ele><time>2026-03-29T10:29:15.863Z</time></trkpt><trkpt lat="43.4539294" lon="11.3542279"><ele>336.0</ele><time>2026-03-29T10:29:16.859Z</time></trkpt><trkpt lat="43.4538441" lon="11.3542818"><ele>336.0</ele><time>2026-03-29T10:29:17.863Z</time></trkpt><trkpt lat="43.4537513" lon="11.3543412"><ele>336.0</ele><time>2026-03-29T10:29:18.856Z</time></trkpt><trkpt lat="43.4536422" lon="11.3543997"><ele>336.0</ele><time>2026-03-29T10:29:19.859Z</time></trkpt><trkpt lat="43.4535105" lon="11.3544589"><ele>337.0</ele><time>2026-03-29T10:29:20.888Z</time></trkpt><trkpt lat="43.4533725" lon="11.3545211"><ele>338.0</ele><time>2026-03-29T10:29:21.864Z</time></trkpt><trkpt lat="43.4532348" lon="11.3545868"><ele>339.0</ele><time>2026-03-29T10:29:22.889Z</time></trkpt><trkpt lat="43.4529693" lon="11.3547434"><ele>339.75</ele><time>2026-03-29T10:29:24.859Z</time></trkpt><trkpt lat="43.4528394" lon="11.3548261"><ele>340.5</ele><time>2026-03-29T10:29:25.888Z</time></trkpt><trkpt lat="43.4527171" lon="11.3549012"><ele>341.25</ele><time>2026-03-29T10:29:26.856Z</time></trkpt><trkpt lat="43.452595" lon="11.3549709"><ele>342.0</ele><time>2026-03-29T10:29:27.892Z</time></trkpt><trkpt lat="43.4524713" lon="11.3550349"><ele>342.0</ele><time>2026-03-29T10:29:28.862Z</time></trkpt><trkpt lat="43.4523512" lon="11.3550876"><ele>342.0</ele><time>2026-03-29T10:29:29.892Z</time></trkpt><trkpt lat="43.4522404" lon="11.3551301"><ele>342.0</ele><time>2026-03-29T10:29:30.888Z</time></trkpt><trkpt lat="43.4521265" lon="11.3551702"><ele>342.0</ele><time>2026-03-29T10:29:31.856Z</time></trkpt><trkpt lat="43.4520143" lon="11.3551956"><ele>343.75</ele><time>2026-03-29T10:29:32.887Z</time></trkpt><trkpt lat="43.4519002" lon="11.3552142"><ele>345.5</ele><time>2026-03-29T10:29:33.891Z</time></trkpt><trkpt lat="43.4517833" lon="11.3552417"><ele>347.25</ele><time>2026-03-29T10:29:34.861Z</time></trkpt><trkpt lat="43.4516694" lon="11.3552781"><ele>349.0</ele><time>2026-03-29T10:29:35.857Z</time></trkpt><trkpt lat="43.4515566" lon="11.3553351"><ele>349.0</ele><time>2026-03-29T10:29:36.857Z</time></trkpt><trkpt lat="43.4514453" lon="11.3554086"><ele>349.0</ele><time>2026-03-29T10:29:37.888Z</time></trkpt><trkpt lat="43.4513373" lon="11.3554922"><ele>349.0</ele><time>2026-03-29T10:29:38.856Z</time></trkpt><trkpt lat="43.4512314" lon="11.3555746"><ele>349.0</ele><time>2026-03-29T10:29:39.889Z</time></trkpt><trkpt lat="43.4511238" lon="11.3556627"><ele>348.5</ele><time>2026-03-29T10:29:40.862Z</time></trkpt><trkpt lat="43.4510243" lon="11.3557665"><ele>348.0</ele><time>2026-03-29T10:29:41.889Z</time></trkpt><trkpt lat="43.4509383" lon="11.3558721"><ele>347.5</ele><time>2026-03-29T10:29:42.859Z</time></trkpt><trkpt lat="43.4508633" lon="11.3559685"><ele>347.0</ele><time>2026-03-29T10:29:43.866Z</time></trkpt><trkpt lat="43.4507198" lon="11.3561457"><ele>347.0</ele><time>2026-03-29T10:29:45.857Z</time></trkpt><trkpt lat="43.4506385" lon="11.3562443"><ele>347.0</ele><time>2026-03-29T10:29:46.899Z</time></trkpt><trkpt lat="43.4505412" lon="11.3563477"><ele>347.0</ele><time>2026-03-29T10:29:47.885Z</time></trkpt><trkpt lat="43.4504359" lon="11.3564458"><ele>347.0</ele><time>2026-03-29T10:29:48.863Z</time></trkpt><trkpt lat="43.4503303" lon="11.3565357"><ele>345.6</ele><time>2026-03-29T10:29:49.861Z</time></trkpt><trkpt lat="43.4502298" lon="11.3566121"><ele>344.20000000000005</ele><time>2026-03-29T10:29:50.863Z</time></trkpt><trkpt lat="43.4501371" lon="11.3566628"><ele>342.8</ele><time>2026-03-29T10:29:51.857Z</time></trkpt><trkpt lat="43.4500398" lon="11.3566957"><ele>341.4</ele><time>2026-03-29T10:29:52.857Z</time></trkpt><trkpt lat="43.449922" lon="11.356712"><ele>340.0</ele><time>2026-03-29T10:29:53.86Z</time></trkpt><trkpt lat="43.4497926" lon="11.3567124"><ele>340.0</ele><time>2026-03-29T10:29:54.858Z</time></trkpt><trkpt lat="43.4496662" lon="11.3567016"><ele>340.0</ele><time>2026-03-29T10:29:55.868Z</time></trkpt><trkpt lat="43.4495452" lon="11.3566797"><ele>340.0</ele><time>2026-03-29T10:29:56.889Z</time></trkpt><trkpt lat="43.4494254" lon="11.3566482"><ele>340.0</ele><time>2026-03-29T10:29:57.862Z</time></trkpt><trkpt lat="43.449299" lon="11.3565913"><ele>338.0</ele><time>2026-03-29T10:29:58.889Z</time></trkpt><trkpt lat="43.4491711" lon="11.356504"><ele>336.0</ele><time>2026-03-29T10:29:59.893Z</time></trkpt><trkpt lat="43.4490507" lon="11.3563933"><ele>334.0</ele><time>2026-03-29T10:30:00.859Z</time></trkpt><trkpt lat="43.4489287" lon="11.3562819"><ele>332.0</ele><time>2026-03-29T10:30:01.862Z</time></trkpt><trkpt lat="43.4487991" lon="11.3561751"><ele>351.0</ele><time>2026-03-29T10:30:02.855Z</time></trkpt><trkpt lat="43.4486578" lon="11.3560778"><ele>336.0</ele><time>2026-03-29T10:30:03.858Z</time></trkpt><trkpt lat="43.4485127" lon="11.3559888"><ele>336.0</ele><time>2026-03-29T10:30:04.865Z</time></trkpt></trkseg><trkseg><trkpt lat="43.45662" lon="11.2923532"><ele>576.0</ele><time>2026-03-29T11:08:01.09Z</time></trkpt><trkpt lat="43.4565026" lon="11.2923139"><ele>576.0</ele><time>2026-03-29T11:08:03.091Z</time></trkpt><trkpt lat="43.4564309" lon="11.2922894"><ele>576.0</ele><time>2026-03-29T11:08:04.098Z</time></trkpt><trkpt lat="43.4563437" lon="11.2922573"><ele>576.0</ele><time>2026-03-29T11:08:05.097Z</time></trkpt><trkpt lat="43.4562461" lon="11.2922158"><ele>576.0</ele><time>2026-03-29T11:08:06.091Z</time></trkpt><trkpt lat="43.4561347" lon="11.2921675"><ele>576.5</ele><time>2026-03-29T11:08:07.09Z</time></trkpt><trkpt lat="43.4560195" lon="11.2921266"><ele>577.0</ele><time>2026-03-29T11:08:08.099Z</time></trkpt><trkpt lat="43.4558941" lon="11.2921007"><ele>577.5</ele><time>2026-03-29T11:08:09.089Z</time></trkpt><trkpt lat="43.45576" lon="11.2920714"><ele>578.0</ele><time>2026-03-29T11:08:10.088Z</time></trkpt><trkpt lat="43.4556263" lon="11.2920341"><ele>578.0</ele><time>2026-03-29T11:08:11.094Z</time></trkpt><trkpt lat="43.4554911" lon="11.2919936"><ele>578.0</ele><time>2026-03-29T11:08:12.095Z</time></trkpt><trkpt lat="43.4553549" lon="11.2919515"><ele>578.0</ele><time>2026-03-29T11:08:13.1Z</time></trkpt><trkpt lat="43.4552171" lon="11.2919135"><ele>578.0</ele><time>2026-03-29T11:08:14.095Z</time></trkpt><trkpt lat="43.4550753" lon="11.2918766"><ele>578.25</ele><time>2026-03-29T11:08:15.095Z</time></trkpt><trkpt lat="43.454931" lon="11.2918483"><ele>578.5</ele><time>2026-03-29T11:08:16.096Z</time></trkpt><trkpt lat="43.4547846" lon="11.2918437"><ele>578.75</ele><time>2026-03-29T11:08:17.093Z</time></trkpt><trkpt lat="43.4546338" lon="11.2918648"><ele>579.0</ele><time>2026-03-29T11:08:18.092Z</time></trkpt><trkpt lat="43.4544791" lon="11.2919117"><ele>579.0</ele><time>2026-03-29T11:08:19.1Z</time></trkpt><trkpt lat="43.4543289" lon="11.2919799"><ele>579.0</ele><time>2026-03-29T11:08:20.096Z</time></trkpt><trkpt lat="43.4541781" lon="11.2920674"><ele>579.0</ele><time>2026-03-29T11:08:21.1Z</time></trkpt><trkpt lat="43.4540362" lon="11.2921589"><ele>579.0</ele><time>2026-03-29T11:08:22.091Z</time></trkpt><trkpt lat="43.4538987" lon="11.2922447"><ele>579.0</ele><time>2026-03-29T11:08:23.103Z</time></trkpt><trkpt lat="43.4537621" lon="11.2923162"><ele>579.0</ele><time>2026-03-29T11:08:24.087Z</time></trkpt><trkpt lat="43.4536222" lon="11.2923618"><ele>579.0</ele><time>2026-03-29T11:08:25.094Z</time></trkpt><trkpt lat="43.4534776" lon="11.2923704"><ele>580.0</ele><time>2026-03-29T11:08:26.122Z</time></trkpt><trkpt lat="43.4533252" lon="11.2923418"><ele>581.0</ele><time>2026-03-29T11:08:27.092Z</time></trkpt><trkpt lat="43.4531721" lon="11.2922794"><ele>582.0</ele><time>2026-03-29T11:08:28.094Z</time></trkpt><trkpt lat="43.4530238" lon="11.2922127"><ele>581.5</ele><time>2026-03-29T11:08:29.099Z</time></trkpt><trkpt lat="43.4528863" lon="11.2921487"><ele>581.0</ele><time>2026-03-29T11:08:30.136Z</time></trkpt><trkpt lat="43.4527585" lon="11.2920807"><ele>580.5</ele><time>2026-03-29T11:08:31.092Z</time></trkpt><trkpt lat="43.452636" lon="11.2920214"><ele>580.0</ele><time>2026-03-29T11:08:32.094Z</time></trkpt><trkpt lat="43.4525179" lon="11.2919657"><ele>580.0</ele><time>2026-03-29T11:08:33.09Z</time></trkpt><trkpt lat="43.4523955" lon="11.291922"><ele>580.0</ele><time>2026-03-29T11:08:34.097Z</time></trkpt><trkpt lat="43.4522644" lon="11.2919043"><ele>580.0</ele><time>2026-03-29T11:08:35.093Z</time></trkpt><trkpt lat="43.4521308" lon="11.2919356"><ele>580.0</ele><time>2026-03-29T11:08:36.09Z</time></trkpt><trkpt lat="43.4519989" lon="11.2920166"><ele>579.0</ele><time>2026-03-29T11:08:37.128Z</time></trkpt><trkpt lat="43.4518686" lon="11.2921587"><ele>578.0</ele><time>2026-03-29T11:08:38.091Z</time></trkpt><trkpt lat="43.451739" lon="11.2923229"><ele>577.0</ele><time>2026-03-29T11:08:39.12Z</time></trkpt><trkpt lat="43.4516149" lon="11.2924675"><ele>576.3333333333334</ele><time>2026-03-29T11:08:40.121Z</time></trkpt><trkpt lat="43.4514856" lon="11.2925989"><ele>575.6666666666666</ele><time>2026-03-29T11:08:41.098Z</time></trkpt><trkpt lat="43.451353" lon="11.2926974"><ele>575.0</ele><time>2026-03-29T11:08:42.093Z</time></trkpt><trkpt lat="43.4512202" lon="11.2927695"><ele>574.75</ele><time>2026-03-29T11:08:43.091Z</time></trkpt><trkpt lat="43.4510801" lon="11.2928417"><ele>574.5</ele><time>2026-03-29T11:08:44.107Z</time></trkpt><trkpt lat="43.4509396" lon="11.2929134"><ele>574.25</ele><time>2026-03-29T11:08:45.095Z</time></trkpt><trkpt lat="43.4508023" lon="11.29296"><ele>574.0</ele><time>2026-03-29T11:08:46.121Z</time></trkpt><trkpt lat="43.4506568" lon="11.293017"><ele>574.0</ele><time>2026-03-29T11:08:47.095Z</time></trkpt><trkpt lat="43.4505144" lon="11.29308"><ele>574.0</ele><time>2026-03-29T11:08:48.089Z</time></trkpt><trkpt lat="43.4503776" lon="11.2931528"><ele>574.0</ele><time>2026-03-29T11:08:49.096Z</time></trkpt><trkpt lat="43.4502381" lon="11.2932491"><ele>569.6666666666667</ele><time>2026-03-29T11:08:50.093Z</time></trkpt><trkpt lat="43.4501079" lon="11.293379"><ele>565.3333333333334</ele><time>2026-03-29T11:08:51.093Z</time></trkpt><trkpt lat="43.4500061" lon="11.2935486"><ele>561.0</ele><time>2026-03-29T11:08:52.098Z</time></trkpt><trkpt lat="43.4499137" lon="11.2937495"><ele>560.0</ele><time>2026-03-29T11:08:53.121Z</time></trkpt><trkpt lat="43.4498279" lon="11.2939458"><ele>559.0</ele><time>2026-03-29T11:08:54.103Z</time></trkpt><trkpt lat="43.4497354" lon="11.2941208"><ele>558.0</ele><time>2026-03-29T11:08:55.097Z</time></trkpt><trkpt lat="43.4496321" lon="11.2942827"><ele>557.3333333333334</ele><time>2026-03-29T11:08:56.093Z</time></trkpt><trkpt lat="43.4495033" lon="11.294427"><ele>556.6666666666667</ele><time>2026-03-29T11:08:57.088Z</time></trkpt><trkpt lat="43.4493681" lon="11.2945411"><ele>556.0</ele><time>2026-03-29T11:08:58.102Z</time></trkpt><trkpt lat="43.4492288" lon="11.2946275"><ele>556.0</ele><time>2026-03-29T11:08:59.112Z</time></trkpt><trkpt lat="43.4490831" lon="11.2946901"><ele>556.0</ele><time>2026-03-29T11:09:00.087Z</time></trkpt><trkpt lat="43.4489382" lon="11.2947356"><ele>556.0</ele><time>2026-03-29T11:09:01.104Z</time></trkpt><trkpt lat="43.4487985" lon="11.294797"><ele>556.0</ele><time>2026-03-29T11:09:02.091Z</time></trkpt><trkpt lat="43.4486711" lon="11.294874"><ele>558.0</ele><time>2026-03-29T11:09:03.101Z</time></trkpt><trkpt lat="43.4485534" lon="11.2949728"><ele>560.0</ele><time>2026-03-29T11:09:04.124Z</time></trkpt><trkpt lat="43.4484477" lon="11.2951078"><ele>562.0</ele><time>2026-03-29T11:09:05.09Z</time></trkpt><trkpt lat="43.4483559" lon="11.2952865"><ele>564.0</ele><time>2026-03-29T11:09:06.119Z</time></trkpt><trkpt lat="43.4482736" lon="11.2954891"><ele>565.6666666666666</ele><time>2026-03-29T11:09:07.09Z</time></trkpt><trkpt lat="43.4482009" lon="11.2956877"><ele>567.3333333333333</ele><time>2026-03-29T11:09:08.098Z</time></trkpt><trkpt lat="43.4481323" lon="11.2958713"><ele>569.0</ele><time>2026-03-29T11:09:09.099Z</time></trkpt><trkpt lat="43.4480707" lon="11.2960508"><ele>569.0</ele><time>2026-03-29T11:09:10.094Z</time></trkpt><trkpt lat="43.4480366" lon="11.2962403"><ele>569.0</ele><time>2026-03-29T11:09:11.089Z</time></trkpt><trkpt lat="43.4480297" lon="11.296439"><ele>569.0</ele><time>2026-03-29T11:09:12.122Z</time></trkpt><trkpt lat="43.4480348" lon="11.2966262"><ele>569.0</ele><time>2026-03-29T11:09:13.089Z</time></trkpt><trkpt lat="43.4480326" lon="11.2968239"><ele>569.0</ele><time>2026-03-29T11:09:14.098Z</time></trkpt><trkpt lat="43.4480027" lon="11.2970212"><ele>569.0</ele><time>2026-03-29T11:09:15.095Z</time></trkpt><trkpt lat="43.4479387" lon="11.2972094"><ele>569.0</ele><time>2026-03-29T11:09:16.099Z</time></trkpt><trkpt lat="43.4478271" lon="11.2973806"><ele>565.0</ele><time>2026-03-29T11:09:17.094Z</time></trkpt><trkpt lat="43.4476859" lon="11.297537"><ele>561.0</ele><time>2026-03-29T11:09:18.095Z</time></trkpt><trkpt lat="43.447535" lon="11.2976718"><ele>557.0</ele><time>2026-03-29T11:09:19.098Z</time></trkpt><trkpt lat="43.4474021" lon="11.2978317"><ele>557.0</ele><time>2026-03-29T11:09:20.098Z</time></trkpt><trkpt lat="43.4472824" lon="11.2980179"><ele>557.0</ele><time>2026-03-29T11:09:21.12Z</time></trkpt><trkpt lat="43.4471692" lon="11.2982144"><ele>557.0</ele><time>2026-03-29T11:09:22.092Z</time></trkpt><trkpt lat="43.4470502" lon="11.2984068"><ele>555.3333333333333</ele><time>2026-03-29T11:09:23.097Z</time></trkpt><trkpt lat="43.4469129" lon="11.2985813"><ele>553.6666666666666</ele><time>2026-03-29T11:09:24.096Z</time></trkpt><trkpt lat="43.4467782" lon="11.298746"><ele>552.0</ele><time>2026-03-29T11:09:25.096Z</time></trkpt><trkpt lat="43.4466433" lon="11.2989081"><ele>550.6666666666666</ele><time>2026-03-29T11:09:26.094Z</time></trkpt><trkpt lat="43.4465125" lon="11.2990851"><ele>549.3333333333333</ele><time>2026-03-29T11:09:27.105Z</time></trkpt><trkpt lat="43.4463932" lon="11.2992487"><ele>548.0</ele><time>2026-03-29T11:09:28.089Z</time></trkpt><trkpt lat="43.446274" lon="11.2994013"><ele>546.6666666666666</ele><time>2026-03-29T11:09:29.094Z</time></trkpt><trkpt lat="43.4461374" lon="11.2995377"><ele>545.3333333333334</ele><time>2026-03-29T11:09:30.094Z</time></trkpt><trkpt lat="43.4459882" lon="11.2996422"><ele>544.0</ele><time>2026-03-29T11:09:31.113Z</time></trkpt><trkpt lat="43.4458304" lon="11.2997248"><ele>546.0</ele><time>2026-03-29T11:09:32.095Z</time></trkpt><trkpt lat="43.445671" lon="11.2997784"><ele>548.0</ele><time>2026-03-29T11:09:33.122Z</time></trkpt><trkpt lat="43.4455118" lon="11.299805"><ele>550.0</ele><time>2026-03-29T11:09:34.105Z</time></trkpt><trkpt lat="43.4453511" lon="11.2998133"><ele>550.75</ele><time>2026-03-29T11:09:35.099Z</time></trkpt><trkpt lat="43.4452016" lon="11.2998135"><ele>551.5</ele><time>2026-03-29T11:09:36.093Z</time></trkpt><trkpt lat="43.4450606" lon="11.299794"><ele>552.25</ele><time>2026-03-29T11:09:37.095Z</time></trkpt><trkpt lat="43.4449155" lon="11.2997396"><ele>553.0</ele><time>2026-03-29T11:09:38.098Z</time></trkpt><trkpt lat="43.4447728" lon="11.2996495"><ele>550.5</ele><time>2026-03-29T11:09:39.092Z</time></trkpt><trkpt lat="43.4446369" lon="11.2995318"><ele>548.0</ele><time>2026-03-29T11:09:40.096Z</time></trkpt><trkpt lat="43.4445149" lon="11.2994085"><ele>545.5</ele><time>2026-03-29T11:09:41.102Z</time></trkpt><trkpt lat="43.4444125" lon="11.2992872"><ele>543.0</ele><time>2026-03-29T11:09:42.088Z</time></trkpt><trkpt lat="43.4443131" lon="11.2991753"><ele>543.0</ele><time>2026-03-29T11:09:43.122Z</time></trkpt><trkpt lat="43.4442075" lon="11.2990778"><ele>543.0</ele><time>2026-03-29T11:09:44.094Z</time></trkpt><trkpt lat="43.4440916" lon="11.2990074"><ele>543.0</ele><time>2026-03-29T11:09:45.1Z</time></trkpt><trkpt lat="43.4439744" lon="11.2989861"><ele>543.0</ele><time>2026-03-29T11:09:46.095Z</time></trkpt><trkpt lat="43.4438531" lon="11.2990306"><ele>539.6666666666666</ele><time>2026-03-29T11:09:47.105Z</time></trkpt><trkpt lat="43.4437434" lon="11.299127"><ele>536.3333333333333</ele><time>2026-03-29T11:09:48.122Z</time></trkpt><trkpt lat="43.4436396" lon="11.2992966"><ele>533.0</ele><time>2026-03-29T11:09:49.089Z</time></trkpt><trkpt lat="43.4435436" lon="11.2995029"><ele>533.0</ele><time>2026-03-29T11:09:50.089Z</time></trkpt><trkpt lat="43.4434589" lon="11.2996881"><ele>533.0</ele><time>2026-03-29T11:09:51.096Z</time></trkpt><trkpt lat="43.4433811" lon="11.2998587"><ele>533.0</ele><time>2026-03-29T11:09:52.092Z</time></trkpt><trkpt lat="43.4433251" lon="11.3000344"><ele>533.0</ele><time>2026-03-29T11:09:53.098Z</time></trkpt><trkpt lat="43.4433036" lon="11.300221"><ele>535.0</ele><time>2026-03-29T11:09:54.093Z</time></trkpt><trkpt lat="43.4433033" lon="11.3004169"><ele>537.0</ele><time>2026-03-29T11:09:55.098Z</time></trkpt><trkpt lat="43.4433004" lon="11.3005978"><ele>539.0</ele><time>2026-03-29T11:09:56.095Z</time></trkpt><trkpt lat="43.4432753" lon="11.3007622"><ele>541.0</ele><time>2026-03-29T11:09:57.094Z</time></trkpt><trkpt lat="43.4432029" lon="11.3008996"><ele>541.75</ele><time>2026-03-29T11:09:58.098Z</time></trkpt><trkpt lat="43.4430892" lon="11.3009703"><ele>542.5</ele><time>2026-03-29T11:09:59.096Z</time></trkpt><trkpt lat="43.4429701" lon="11.3009945"><ele>543.25</ele><time>2026-03-29T11:10:00.083Z</time></trkpt><trkpt lat="43.4428499" lon="11.3009944"><ele>544.0</ele><time>2026-03-29T11:10:01.093Z</time></trkpt><trkpt lat="43.4427192" lon="11.3009631"><ele>540.3333333333334</ele><time>2026-03-29T11:10:02.086Z</time></trkpt><trkpt lat="43.442582" lon="11.3008837"><ele>536.6666666666666</ele><time>2026-03-29T11:10:03.094Z</time></trkpt><trkpt lat="43.4424433" lon="11.3007638"><ele>533.0</ele><time>2026-03-29T11:10:04.097Z</time></trkpt><trkpt lat="43.4423105" lon="11.300628"><ele>532.25</ele><time>2026-03-29T11:10:05.104Z</time></trkpt><trkpt lat="43.4421871" lon="11.3005001"><ele>531.5</ele><time>2026-03-29T11:10:06.121Z</time></trkpt><trkpt lat="43.4420631" lon="11.3003901"><ele>530.75</ele><time>2026-03-29T11:10:07.099Z</time></trkpt><trkpt lat="43.4419352" lon="11.3003052"><ele>530.0</ele><time>2026-03-29T11:10:08.122Z</time></trkpt><trkpt lat="43.4417815" lon="11.3002681"><ele>530.0</ele><time>2026-03-29T11:10:09.107Z</time></trkpt><trkpt lat="43.4416175" lon="11.3002709"><ele>530.0</ele><time>2026-03-29T11:10:10.097Z</time></trkpt><trkpt lat="43.4414451" lon="11.3002852"><ele>530.0</ele><time>2026-03-29T11:10:11.094Z</time></trkpt><trkpt lat="43.4412855" lon="11.3003048"><ele>529.5</ele><time>2026-03-29T11:10:12.098Z</time></trkpt><trkpt lat="43.4411488" lon="11.3003471"><ele>529.0</ele><time>2026-03-29T11:10:13.128Z</time></trkpt><trkpt lat="43.4410311" lon="11.3004355"><ele>528.5</ele><time>2026-03-29T11:10:14.095Z</time></trkpt><trkpt lat="43.4409339" lon="11.3005857"><ele>528.0</ele><time>2026-03-29T11:10:15.126Z</time></trkpt><trkpt lat="43.4408514" lon="11.3007662"><ele>528.0</ele><time>2026-03-29T11:10:16.099Z</time></trkpt><trkpt lat="43.4407689" lon="11.300918"><ele>528.0</ele><time>2026-03-29T11:10:17.12Z</time></trkpt><trkpt lat="43.4406592" lon="11.3010305"><ele>528.0</ele><time>2026-03-29T11:10:18.088Z</time></trkpt><trkpt lat="43.4405348" lon="11.3010758"><ele>528.0</ele><time>2026-03-29T11:10:19.088Z</time></trkpt><trkpt lat="43.4403947" lon="11.301093"><ele>528.25</ele><time>2026-03-29T11:10:20.094Z</time></trkpt><trkpt lat="43.4402486" lon="11.3011144"><ele>528.5</ele><time>2026-03-29T11:10:21.094Z</time></trkpt><trkpt lat="43.4401175" lon="11.3011354"><ele>528.75</ele><time>2026-03-29T11:10:22.107Z</time></trkpt><trkpt lat="43.4399976" lon="11.3011563"><ele>529.0</ele><time>2026-03-29T11:10:23.088Z</time></trkpt><trkpt lat="43.4398959" lon="11.301184"><ele>529.0</ele><time>2026-03-29T11:10:24.117Z</time></trkpt><trkpt lat="43.4398142" lon="11.3012076"><ele>529.0</ele><time>2026-03-29T11:10:25.09Z</time></trkpt><trkpt lat="43.4397515" lon="11.3012484"><ele>529.0</ele><time>2026-03-29T11:10:26.098Z</time></trkpt><trkpt lat="43.4396566" lon="11.3013067"><ele>529.0</ele><time>2026-03-29T11:10:28.125Z</time></trkpt><trkpt lat="43.4395827" lon="11.3012856"><ele>529.0</ele><time>2026-03-29T11:10:30.092Z</time></trkpt><trkpt lat="43.4395156" lon="11.301161"><ele>529.0</ele><time>2026-03-29T11:10:32.123Z</time></trkpt><trkpt lat="43.4394782" lon="11.3010699"><ele>529.4</ele><time>2026-03-29T11:10:33.091Z</time></trkpt><trkpt lat="43.4394386" lon="11.3009687"><ele>529.8</ele><time>2026-03-29T11:10:34.097Z</time></trkpt><trkpt lat="43.4393938" lon="11.3008634"><ele>530.2</ele><time>2026-03-29T11:10:35.093Z</time></trkpt><trkpt lat="43.4393391" lon="11.3007615"><ele>530.6</ele><time>2026-03-29T11:10:36.092Z</time></trkpt><trkpt lat="43.4392871" lon="11.30065"><ele>531.0</ele><time>2026-03-29T11:10:37.097Z</time></trkpt><trkpt lat="43.4392309" lon="11.3005429"><ele>528.6</ele><time>2026-03-29T11:10:38.097Z</time></trkpt><trkpt lat="43.4391719" lon="11.3004371"><ele>526.2</ele><time>2026-03-29T11:10:39.094Z</time></trkpt><trkpt lat="43.4391129" lon="11.3003371"><ele>523.8</ele><time>2026-03-29T11:10:40.124Z</time></trkpt><trkpt lat="43.4390487" lon="11.3002347"><ele>521.4</ele><time>2026-03-29T11:10:41.121Z</time></trkpt><trkpt lat="43.4389762" lon="11.3001391"><ele>519.0</ele><time>2026-03-29T11:10:42.09Z</time></trkpt><trkpt lat="43.4389031" lon="11.3000458"><ele>519.0</ele><time>2026-03-29T11:10:43.099Z</time></trkpt><trkpt lat="43.4388254" lon="11.2999524"><ele>519.0</ele><time>2026-03-29T11:10:44.134Z</time></trkpt><trkpt lat="43.4387431" lon="11.2998643"><ele>519.0</ele><time>2026-03-29T11:10:45.114Z</time></trkpt><trkpt lat="43.4386564" lon="11.2997903"><ele>519.0</ele><time>2026-03-29T11:10:46.093Z</time></trkpt><trkpt lat="43.4385671" lon="11.299722"><ele>519.0</ele><time>2026-03-29T11:10:47.101Z</time></trkpt><trkpt lat="43.4384786" lon="11.2996543"><ele>516.0</ele><time>2026-03-29T11:10:48.091Z</time></trkpt><trkpt lat="43.4383913" lon="11.2995879"><ele>513.0</ele><time>2026-03-29T11:10:49.094Z</time></trkpt><trkpt lat="43.4383058" lon="11.2995368"><ele>510.0</ele><time>2026-03-29T11:10:50.098Z</time></trkpt><trkpt lat="43.4382206" lon="11.2995222"><ele>507.0</ele><time>2026-03-29T11:10:51.113Z</time></trkpt><trkpt lat="43.4381242" lon="11.2995286"><ele>504.0</ele><time>2026-03-29T11:10:52.093Z</time></trkpt><trkpt lat="43.4380219" lon="11.2995628"><ele>503.79999999999995</ele><time>2026-03-29T11:10:53.088Z</time></trkpt><trkpt lat="43.4379283" lon="11.2996127"><ele>503.59999999999997</ele><time>2026-03-29T11:10:54.096Z</time></trkpt><trkpt lat="43.4378408" lon="11.2996704"><ele>503.4</ele><time>2026-03-29T11:10:55.09Z</time></trkpt><trkpt lat="43.4377628" lon="11.2997525"><ele>503.2</ele><time>2026-03-29T11:10:56.091Z</time></trkpt><trkpt lat="43.437702" lon="11.299833"><ele>503.0</ele><time>2026-03-29T11:10:57.091Z</time></trkpt><trkpt lat="43.4376482" lon="11.2999168"><ele>502.99999999999994</ele><time>2026-03-29T11:10:58.085Z</time></trkpt><trkpt lat="43.4375882" lon="11.3000167"><ele>503.0</ele><time>2026-03-29T11:11:00.09Z</time></trkpt><trkpt lat="43.4375525" lon="11.2998876"><ele>503.0</ele><time>2026-03-29T11:11:04.093Z</time></trkpt><trkpt lat="43.4375638" lon="11.2997978"><ele>503.0</ele><time>2026-03-29T11:11:05.091Z</time></trkpt><trkpt lat="43.4375719" lon="11.2996837"><ele>502.99999999999994</ele><time>2026-03-29T11:11:06.094Z</time></trkpt><trkpt lat="43.4375704" lon="11.2995634"><ele>503.0</ele><time>2026-03-29T11:11:07.095Z</time></trkpt><trkpt lat="43.4375585" lon="11.2994419"><ele>501.66666666666663</ele><time>2026-03-29T11:11:08.095Z</time></trkpt><trkpt lat="43.4375471" lon="11.2993255"><ele>500.3333333333333</ele><time>2026-03-29T11:11:09.097Z</time></trkpt><trkpt lat="43.4375323" lon="11.2992185"><ele>499.0</ele><time>2026-03-29T11:11:10.119Z</time></trkpt><trkpt lat="43.4375078" lon="11.2991206"><ele>497.66666666666663</ele><time>2026-03-29T11:11:11.1Z</time></trkpt><trkpt lat="43.4374791" lon="11.2990403"><ele>496.3333333333333</ele><time>2026-03-29T11:11:12.101Z</time></trkpt><trkpt lat="43.4373937" lon="11.2989169"><ele>495.0</ele><time>2026-03-29T11:11:14.092Z</time></trkpt><trkpt lat="43.4373396" lon="11.2988635"><ele>493.42857142857133</ele><time>2026-03-29T11:11:15.093Z</time></trkpt><trkpt lat="43.4372727" lon="11.2988238"><ele>491.85714285714283</ele><time>2026-03-29T11:11:16.119Z</time></trkpt><trkpt lat="43.437208" lon="11.2987801"><ele>490.2857142857142</ele><time>2026-03-29T11:11:17.102Z</time></trkpt><trkpt lat="43.4371483" lon="11.298725"><ele>488.71428571428567</ele><time>2026-03-29T11:11:18.095Z</time></trkpt><trkpt lat="43.4370988" lon="11.2986624"><ele>487.1428571428571</ele><time>2026-03-29T11:11:19.092Z</time></trkpt><trkpt lat="43.4370528" lon="11.2986021"><ele>485.57142857142856</ele><time>2026-03-29T11:11:20.091Z</time></trkpt><trkpt lat="43.4370066" lon="11.2985394"><ele>484.0</ele><time>2026-03-29T11:11:21.119Z</time></trkpt><trkpt lat="43.4369573" lon="11.2984835"><ele>483.00000000000006</ele><time>2026-03-29T11:11:22.093Z</time></trkpt><trkpt lat="43.4368992" lon="11.2984431"><ele>482.0</ele><time>2026-03-29T11:11:23.095Z</time></trkpt><trkpt lat="43.436832" lon="11.2984191"><ele>481.0</ele><time>2026-03-29T11:11:24.137Z</time></trkpt><trkpt lat="43.4367481" lon="11.2984067"><ele>480.0</ele><time>2026-03-29T11:11:25.09Z</time></trkpt><trkpt lat="43.4366687" lon="11.2983715"><ele>479.00000000000006</ele><time>2026-03-29T11:11:26.095Z</time></trkpt><trkpt lat="43.4365926" lon="11.2983095"><ele>478.0</ele><time>2026-03-29T11:11:27.092Z</time></trkpt><trkpt lat="43.4365192" lon="11.2982412"><ele>478.00000000000006</ele><time>2026-03-29T11:11:28.098Z</time></trkpt><trkpt lat="43.4364472" lon="11.2981774"><ele>478.0</ele><time>2026-03-29T11:11:29.099Z</time></trkpt><trkpt lat="43.4363771" lon="11.2981262"><ele>478.0</ele><time>2026-03-29T11:11:30.119Z</time></trkpt><trkpt lat="43.4362966" lon="11.2980926"><ele>478.0</ele><time>2026-03-29T11:11:31.091Z</time></trkpt><trkpt lat="43.4362133" lon="11.2980774"><ele>478.00000000000006</ele><time>2026-03-29T11:11:32.093Z</time></trkpt><trkpt lat="43.4361279" lon="11.2980811"><ele>478.0</ele><time>2026-03-29T11:11:33.121Z</time></trkpt><trkpt lat="43.4360386" lon="11.2980937"><ele>477.1666666666667</ele><time>2026-03-29T11:11:34.095Z</time></trkpt><trkpt lat="43.43595" lon="11.2981007"><ele>476.33333333333337</ele><time>2026-03-29T11:11:35.089Z</time></trkpt><trkpt lat="43.4358639" lon="11.2981044"><ele>475.5</ele><time>2026-03-29T11:11:36.09Z</time></trkpt><trkpt lat="43.4357804" lon="11.2980915"><ele>474.66666666666663</ele><time>2026-03-29T11:11:37.096Z</time></trkpt><trkpt lat="43.4356975" lon="11.2980706"><ele>473.8333333333333</ele><time>2026-03-29T11:11:38.096Z</time></trkpt><trkpt lat="43.4356261" lon="11.2980422"><ele>473.0</ele><time>2026-03-29T11:11:39.089Z</time></trkpt><trkpt lat="43.4355291" lon="11.2979698"><ele>472.66666666666663</ele><time>2026-03-29T11:11:41.102Z</time></trkpt><trkpt lat="43.4354754" lon="11.2978891"><ele>472.3333333333333</ele><time>2026-03-29T11:11:43.126Z</time></trkpt><trkpt lat="43.4354854" lon="11.2977705"><ele>472.0</ele><time>2026-03-29T11:11:45.096Z</time></trkpt><trkpt lat="43.4355461" lon="11.297611"><ele>471.66666666666663</ele><time>2026-03-29T11:11:47.096Z</time></trkpt><trkpt lat="43.4355917" lon="11.2975346"><ele>471.3333333333333</ele><time>2026-03-29T11:11:48.092Z</time></trkpt><trkpt lat="43.4356366" lon="11.2974696"><ele>471.0</ele><time>2026-03-29T11:11:49.091Z</time></trkpt><trkpt lat="43.4357196" lon="11.2973843"><ele>471.0</ele><time>2026-03-29T11:11:51.098Z</time></trkpt><trkpt lat="43.4358223" lon="11.2973171"><ele>471.0</ele><time>2026-03-29T11:11:53.104Z</time></trkpt><trkpt lat="43.435881" lon="11.2972794"><ele>471.0</ele><time>2026-03-29T11:11:54.093Z</time></trkpt><trkpt lat="43.4359437" lon="11.2972405"><ele>471.0</ele><time>2026-03-29T11:11:55.098Z</time></trkpt><trkpt lat="43.4360093" lon="11.2972018"><ele>471.0</ele><time>2026-03-29T11:11:56.093Z</time></trkpt><trkpt lat="43.4360799" lon="11.2971653"><ele>471.0</ele><time>2026-03-29T11:11:57.093Z</time></trkpt><trkpt lat="43.4361576" lon="11.2971305"><ele>468.20000000000005</ele><time>2026-03-29T11:11:58.094Z</time></trkpt><trkpt lat="43.4362417" lon="11.2970977"><ele>465.40000000000003</ele><time>2026-03-29T11:11:59.095Z</time></trkpt><trkpt lat="43.4363262" lon="11.2970619"><ele>462.6</ele><time>2026-03-29T11:12:00.089Z</time></trkpt><trkpt lat="43.4364144" lon="11.2970193"><ele>459.8</ele><time>2026-03-29T11:12:01.092Z</time></trkpt><trkpt lat="43.4365032" lon="11.2969841"><ele>457.0</ele><time>2026-03-29T11:12:02.1Z</time></trkpt><trkpt lat="43.4365907" lon="11.2969512"><ele>457.00000000000006</ele><time>2026-03-29T11:12:03.093Z</time></trkpt><trkpt lat="43.4366754" lon="11.2969202"><ele>457.0</ele><time>2026-03-29T11:12:04.095Z</time></trkpt><trkpt lat="43.436754" lon="11.2968953"><ele>457.0</ele><time>2026-03-29T11:12:05.094Z</time></trkpt><trkpt lat="43.4368234" lon="11.2968771"><ele>457.0</ele><time>2026-03-29T11:12:06.09Z</time></trkpt><trkpt lat="43.4368861" lon="11.2968553"><ele>457.00000000000006</ele><time>2026-03-29T11:12:07.119Z</time></trkpt><trkpt lat="43.4369785" lon="11.2967703"><ele>457.0</ele><time>2026-03-29T11:12:09.094Z</time></trkpt><trkpt lat="43.4369946" lon="11.296628"><ele>457.0</ele><time>2026-03-29T11:12:11.12Z</time></trkpt><trkpt lat="43.4369635" lon="11.2965484"><ele>457.00000000000006</ele><time>2026-03-29T11:12:12.096Z</time></trkpt><trkpt lat="43.4369237" lon="11.2964472"><ele>457.00000000000006</ele><time>2026-03-29T11:12:13.123Z</time></trkpt><trkpt lat="43.4368716" lon="11.2963308"><ele>457.0</ele><time>2026-03-29T11:12:14.092Z</time></trkpt><trkpt lat="43.4368219" lon="11.2961954"><ele>457.0</ele><time>2026-03-29T11:12:15.101Z</time></trkpt><trkpt lat="43.4367741" lon="11.2960484"><ele>457.0</ele><time>2026-03-29T11:12:16.091Z</time></trkpt><trkpt lat="43.4367334" lon="11.2958955"><ele>457.00000000000006</ele><time>2026-03-29T11:12:17.101Z</time></trkpt><trkpt lat="43.4366946" lon="11.2957476"><ele>457.00000000000006</ele><time>2026-03-29T11:12:18.144Z</time></trkpt><trkpt lat="43.43666" lon="11.2956116"><ele>457.0</ele><time>2026-03-29T11:12:19.113Z</time></trkpt><trkpt lat="43.4366355" lon="11.2954882"><ele>457.0</ele><time>2026-03-29T11:12:20.098Z</time></trkpt><trkpt lat="43.4366117" lon="11.2953687"><ele>457.83333333333337</ele><time>2026-03-29T11:12:21.096Z</time></trkpt><trkpt lat="43.4365867" lon="11.2952602"><ele>458.6666666666667</ele><time>2026-03-29T11:12:22.094Z</time></trkpt><trkpt lat="43.4365614" lon="11.2951556"><ele>459.5</ele><time>2026-03-29T11:12:23.096Z</time></trkpt><trkpt lat="43.4365259" lon="11.2950526"><ele>460.33333333333337</ele><time>2026-03-29T11:12:24.106Z</time></trkpt><trkpt lat="43.436474" lon="11.2949585"><ele>461.1666666666667</ele><time>2026-03-29T11:12:25.086Z</time></trkpt><trkpt lat="43.4364057" lon="11.2948753"><ele>462.0</ele><time>2026-03-29T11:12:26.095Z</time></trkpt><trkpt lat="43.4363377" lon="11.2947868"><ele>460.0</ele><time>2026-03-29T11:12:27.093Z</time></trkpt><trkpt lat="43.4362742" lon="11.2946973"><ele>458.0</ele><time>2026-03-29T11:12:28.091Z</time></trkpt><trkpt lat="43.4362117" lon="11.2946121"><ele>456.0</ele><time>2026-03-29T11:12:29.122Z</time></trkpt><trkpt lat="43.4361506" lon="11.2945292"><ele>454.0</ele><time>2026-03-29T11:12:30.102Z</time></trkpt><trkpt lat="43.4360884" lon="11.2944522"><ele>452.0</ele><time>2026-03-29T11:12:31.086Z</time></trkpt><trkpt lat="43.4360324" lon="11.2943715"><ele>450.0</ele><time>2026-03-29T11:12:32.091Z</time></trkpt><trkpt lat="43.4359816" lon="11.2942889"><ele>450.0</ele><time>2026-03-29T11:12:33.09Z</time></trkpt><trkpt lat="43.4359355" lon="11.2941987"><ele>450.0</ele><time>2026-03-29T11:12:34.092Z</time></trkpt><trkpt lat="43.4358874" lon="11.2940961"><ele>450.0</ele><time>2026-03-29T11:12:35.09Z</time></trkpt><trkpt lat="43.4358312" lon="11.2939915"><ele>450.0</ele><time>2026-03-29T11:12:36.1Z</time></trkpt><trkpt lat="43.4357678" lon="11.2938943"><ele>450.0</ele><time>2026-03-29T11:12:37.094Z</time></trkpt><trkpt lat="43.4356959" lon="11.2938063"><ele>451.3333333333333</ele><time>2026-03-29T11:12:38.089Z</time></trkpt><trkpt lat="43.4356178" lon="11.2937282"><ele>452.66666666666663</ele><time>2026-03-29T11:12:39.096Z</time></trkpt><trkpt lat="43.435535" lon="11.293658"><ele>454.0</ele><time>2026-03-29T11:12:40.105Z</time></trkpt><trkpt lat="43.4354576" lon="11.2935919"><ele>455.3333333333333</ele><time>2026-03-29T11:12:41.103Z</time></trkpt><trkpt lat="43.4353894" lon="11.2935319"><ele>456.66666666666663</ele><time>2026-03-29T11:12:42.094Z</time></trkpt><trkpt lat="43.4353268" lon="11.2934631"><ele>458.0</ele><time>2026-03-29T11:12:43.095Z</time></trkpt><trkpt lat="43.435266" lon="11.2933858"><ele>455.49999999999994</ele><time>2026-03-29T11:12:44.099Z</time></trkpt><trkpt lat="43.4352124" lon="11.2932975"><ele>453.0</ele><time>2026-03-29T11:12:45.087Z</time></trkpt><trkpt lat="43.4351667" lon="11.2931969"><ele>450.5</ele><time>2026-03-29T11:12:46.094Z</time></trkpt><trkpt lat="43.4351248" lon="11.2930836"><ele>448.0</ele><time>2026-03-29T11:12:47.101Z</time></trkpt><trkpt lat="43.4350839" lon="11.2929727"><ele>445.49999999999994</ele><time>2026-03-29T11:12:48.088Z</time></trkpt><trkpt lat="43.4350477" lon="11.2928602"><ele>443.0</ele><time>2026-03-29T11:12:49.121Z</time></trkpt><trkpt lat="43.4350141" lon="11.2927408"><ele>442.99999999999994</ele><time>2026-03-29T11:12:50.09Z</time></trkpt><trkpt lat="43.4349849" lon="11.2926238"><ele>443.0</ele><time>2026-03-29T11:12:51.088Z</time></trkpt><trkpt lat="43.4349611" lon="11.2925022"><ele>443.0</ele><time>2026-03-29T11:12:52.095Z</time></trkpt><trkpt lat="43.4349487" lon="11.2923761"><ele>443.0</ele><time>2026-03-29T11:12:53.124Z</time></trkpt><trkpt lat="43.4349436" lon="11.2922526"><ele>442.99999999999994</ele><time>2026-03-29T11:12:54.094Z</time></trkpt><trkpt lat="43.4349421" lon="11.2921382"><ele>443.0</ele><time>2026-03-29T11:12:55.101Z</time></trkpt><trkpt lat="43.434936" lon="11.2920319"><ele>442.49999999999994</ele><time>2026-03-29T11:12:56.093Z</time></trkpt><trkpt lat="43.4349232" lon="11.2919323"><ele>442.0</ele><time>2026-03-29T11:12:57.092Z</time></trkpt><trkpt lat="43.4349055" lon="11.2918431"><ele>441.5</ele><time>2026-03-29T11:12:58.097Z</time></trkpt><trkpt lat="43.4348792" lon="11.2917497"><ele>441.0</ele><time>2026-03-29T11:12:59.129Z</time></trkpt><trkpt lat="43.4348391" lon="11.2916452"><ele>440.49999999999994</ele><time>2026-03-29T11:13:00.094Z</time></trkpt><trkpt lat="43.4347847" lon="11.2915373"><ele>440.0</ele><time>2026-03-29T11:13:01.093Z</time></trkpt><trkpt lat="43.4347231" lon="11.291427"><ele>437.8</ele><time>2026-03-29T11:13:02.096Z</time></trkpt><trkpt lat="43.4346564" lon="11.2913227"><ele>435.6</ele><time>2026-03-29T11:13:03.09Z</time></trkpt><trkpt lat="43.4345898" lon="11.2912203"><ele>433.4</ele><time>2026-03-29T11:13:04.134Z</time></trkpt><trkpt lat="43.4345262" lon="11.2911236"><ele>431.2</ele><time>2026-03-29T11:13:05.129Z</time></trkpt><trkpt lat="43.4344653" lon="11.2910273"><ele>429.0</ele><time>2026-03-29T11:13:06.093Z</time></trkpt><trkpt lat="43.4344103" lon="11.2909291"><ele>429.0</ele><time>2026-03-29T11:13:07.086Z</time></trkpt><trkpt lat="43.4343601" lon="11.29082"><ele>429.0</ele><time>2026-03-29T11:13:08.119Z</time></trkpt><trkpt lat="43.4343192" lon="11.290696"><ele>429.0</ele><time>2026-03-29T11:13:09.092Z</time></trkpt><trkpt lat="43.4342876" lon="11.2905589"><ele>429.0</ele><time>2026-03-29T11:13:10.126Z</time></trkpt><trkpt lat="43.434272" lon="11.2904103"><ele>429.0</ele><time>2026-03-29T11:13:11.098Z</time></trkpt><trkpt lat="43.434267" lon="11.2902555"><ele>428.6</ele><time>2026-03-29T11:13:12.096Z</time></trkpt><trkpt lat="43.4342635" lon="11.290104"><ele>428.2</ele><time>2026-03-29T11:13:13.09Z</time></trkpt><trkpt lat="43.4342601" lon="11.2899663"><ele>427.80000000000007</ele><time>2026-03-29T11:13:14.133Z</time></trkpt><trkpt lat="43.4342533" lon="11.2898456"><ele>427.40000000000003</ele><time>2026-03-29T11:13:15.09Z</time></trkpt><trkpt lat="43.4342356" lon="11.2897337"><ele>427.0</ele><time>2026-03-29T11:13:16.104Z</time></trkpt><trkpt lat="43.4341995" lon="11.289632"><ele>427.0</ele><time>2026-03-29T11:13:17.086Z</time></trkpt><trkpt lat="43.434141" lon="11.2895338"><ele>427.00000000000006</ele><time>2026-03-29T11:13:18.093Z</time></trkpt><trkpt lat="43.4340758" lon="11.2894441"><ele>427.00000000000006</ele><time>2026-03-29T11:13:19.095Z</time></trkpt><trkpt lat="43.4340107" lon="11.2893548"><ele>427.0</ele><time>2026-03-29T11:13:20.09Z</time></trkpt><trkpt lat="43.4339377" lon="11.2892667"><ele>427.0</ele><time>2026-03-29T11:13:21.09Z</time></trkpt><trkpt lat="43.433859" lon="11.2891763"><ele>427.0</ele><time>2026-03-29T11:13:22.1Z</time></trkpt><trkpt lat="43.4337689" lon="11.2890885"><ele>427.00000000000006</ele><time>2026-03-29T11:13:23.135Z</time></trkpt><trkpt lat="43.4336723" lon="11.289009"><ele>427.00000000000006</ele><time>2026-03-29T11:13:24.128Z</time></trkpt><trkpt lat="43.4335837" lon="11.2889276"><ele>427.0</ele><time>2026-03-29T11:13:25.094Z</time></trkpt><trkpt lat="43.4335033" lon="11.2888409"><ele>427.0</ele><time>2026-03-29T11:13:26.088Z</time></trkpt><trkpt lat="43.4334331" lon="11.28876"><ele>427.50000000000006</ele><time>2026-03-29T11:13:27.123Z</time></trkpt><trkpt lat="43.4333669" lon="11.2886834"><ele>428.0</ele><time>2026-03-29T11:13:28.092Z</time></trkpt><trkpt lat="43.4332986" lon="11.2886226"><ele>428.5</ele><time>2026-03-29T11:13:29.097Z</time></trkpt><trkpt lat="43.4332288" lon="11.2885739"><ele>429.0</ele><time>2026-03-29T11:13:30.093Z</time></trkpt><trkpt lat="43.433163" lon="11.2885306"><ele>429.50000000000006</ele><time>2026-03-29T11:13:31.1Z</time></trkpt><trkpt lat="43.4330972" lon="11.2884894"><ele>430.0</ele><time>2026-03-29T11:13:32.107Z</time></trkpt><trkpt lat="43.4330352" lon="11.2884474"><ele>430.0</ele><time>2026-03-29T11:13:33.092Z</time></trkpt><trkpt lat="43.432973" lon="11.288407"><ele>430.0</ele><time>2026-03-29T11:13:34.094Z</time></trkpt><trkpt lat="43.4329066" lon="11.2883693"><ele>430.0</ele><time>2026-03-29T11:13:35.11Z</time></trkpt><trkpt lat="43.4328377" lon="11.2883339"><ele>430.0</ele><time>2026-03-29T11:13:36.106Z</time></trkpt><trkpt lat="43.4327704" lon="11.2882967"><ele>430.0</ele><time>2026-03-29T11:13:37.121Z</time></trkpt><trkpt lat="43.432704" lon="11.2882555"><ele>430.0</ele><time>2026-03-29T11:13:38.128Z</time></trkpt><trkpt lat="43.4326365" lon="11.2882164"><ele>430.0</ele><time>2026-03-29T11:13:39.1Z</time></trkpt><trkpt lat="43.4325719" lon="11.2881799"><ele>427.2</ele><time>2026-03-29T11:13:40.119Z</time></trkpt><trkpt lat="43.4325113" lon="11.2881541"><ele>424.4</ele><time>2026-03-29T11:13:41.095Z</time></trkpt><trkpt lat="43.4323928" lon="11.2881463"><ele>421.6</ele><time>2026-03-29T11:13:43.131Z</time></trkpt><trkpt lat="43.4323307" lon="11.2881644"><ele>418.8</ele><time>2026-03-29T11:13:44.094Z</time></trkpt><trkpt lat="43.4322247" lon="11.2882424"><ele>416.0</ele><time>2026-03-29T11:13:46.092Z</time></trkpt><trkpt lat="43.4321341" lon="11.2883211"><ele>413.66666666666663</ele><time>2026-03-29T11:13:48.094Z</time></trkpt><trkpt lat="43.4320426" lon="11.2883362"><ele>411.3333333333333</ele><time>2026-03-29T11:13:50.105Z</time></trkpt><trkpt lat="43.431973" lon="11.2882397"><ele>409.0</ele><time>2026-03-29T11:13:52.092Z</time></trkpt><trkpt lat="43.4319714" lon="11.2880983"><ele>406.66666666666663</ele><time>2026-03-29T11:13:54.089Z</time></trkpt><trkpt lat="43.4320021" lon="11.288021"><ele>404.3333333333333</ele><time>2026-03-29T11:13:55.09Z</time></trkpt><trkpt lat="43.4320434" lon="11.2879438"><ele>402.0</ele><time>2026-03-29T11:13:56.123Z</time></trkpt><trkpt lat="43.4320879" lon="11.2878652"><ele>401.1666666666667</ele><time>2026-03-29T11:13:57.119Z</time></trkpt><trkpt lat="43.4321357" lon="11.2877908"><ele>400.33333333333337</ele><time>2026-03-29T11:13:58.128Z</time></trkpt><trkpt lat="43.4321765" lon="11.287716"><ele>399.5</ele><time>2026-03-29T11:13:59.087Z</time></trkpt><trkpt lat="43.4322107" lon="11.2876318"><ele>398.6666666666667</ele><time>2026-03-29T11:14:00.088Z</time></trkpt><trkpt lat="43.4322347" lon="11.2875276"><ele>397.83333333333337</ele><time>2026-03-29T11:14:01.124Z</time></trkpt><trkpt lat="43.432245" lon="11.2874098"><ele>397.0</ele><time>2026-03-29T11:14:02.088Z</time></trkpt><trkpt lat="43.4322403" lon="11.2872906"><ele>396.33333333333337</ele><time>2026-03-29T11:14:03.088Z</time></trkpt><trkpt lat="43.4322196" lon="11.2871764"><ele>395.6666666666667</ele><time>2026-03-29T11:14:04.09Z</time></trkpt><trkpt lat="43.4322008" lon="11.2870606"><ele>395.0</ele><time>2026-03-29T11:14:05.121Z</time></trkpt><trkpt lat="43.4321738" lon="11.286952"><ele>394.33333333333337</ele><time>2026-03-29T11:14:06.12Z</time></trkpt><trkpt lat="43.4321311" lon="11.2868588"><ele>393.6666666666667</ele><time>2026-03-29T11:14:07.103Z</time></trkpt><trkpt lat="43.4320784" lon="11.2867678"><ele>393.0</ele><time>2026-03-29T11:14:08.092Z</time></trkpt><trkpt lat="43.4320235" lon="11.2866821"><ele>393.00000000000006</ele><time>2026-03-29T11:14:09.091Z</time></trkpt><trkpt lat="43.4319688" lon="11.2866044"><ele>393.0</ele><time>2026-03-29T11:14:10.085Z</time></trkpt><trkpt lat="43.4319175" lon="11.286525"><ele>393.0</ele><time>2026-03-29T11:14:11.087Z</time></trkpt><trkpt lat="43.4318644" lon="11.2864378"><ele>393.0</ele><time>2026-03-29T11:14:12.091Z</time></trkpt><trkpt lat="43.4318205" lon="11.2863571"><ele>393.0</ele><time>2026-03-29T11:14:13.125Z</time></trkpt><trkpt lat="43.4317855" lon="11.2862763"><ele>393.00000000000006</ele><time>2026-03-29T11:14:14.125Z</time></trkpt><trkpt lat="43.4317491" lon="11.2861947"><ele>393.0</ele><time>2026-03-29T11:14:15.102Z</time></trkpt><trkpt lat="43.4317105" lon="11.2861137"><ele>392.0</ele><time>2026-03-29T11:14:16.094Z</time></trkpt><trkpt lat="43.4316667" lon="11.2860387"><ele>391.0</ele><time>2026-03-29T11:14:17.089Z</time></trkpt><trkpt lat="43.4316159" lon="11.2859718"><ele>390.0</ele><time>2026-03-29T11:14:18.095Z</time></trkpt><trkpt lat="43.4315636" lon="11.2859107"><ele>389.0</ele><time>2026-03-29T11:14:19.091Z</time></trkpt><trkpt lat="43.4315143" lon="11.2858547"><ele>388.0</ele><time>2026-03-29T11:14:20.091Z</time></trkpt><trkpt lat="43.4314252" lon="11.2857482"><ele>387.0</ele><time>2026-03-29T11:14:22.094Z</time></trkpt><trkpt lat="43.4313448" lon="11.2856509"><ele>386.0</ele><time>2026-03-29T11:14:24.124Z</time></trkpt><trkpt lat="43.4312737" lon="11.2856142"><ele>385.0</ele><time>2026-03-29T11:14:27.094Z</time></trkpt><trkpt lat="43.4312007" lon="11.2856617"><ele>384.0</ele><time>2026-03-29T11:14:36.093Z</time></trkpt><trkpt lat="43.4311286" lon="11.2857853"><ele>383.0</ele><time>2026-03-29T11:14:38.09Z</time></trkpt><trkpt lat="43.4311025" lon="11.2859305"><ele>382.0</ele><time>2026-03-29T11:14:40.09Z</time></trkpt><trkpt lat="43.4311149" lon="11.2860796"><ele>382.0</ele><time>2026-03-29T11:14:42.123Z</time></trkpt><trkpt lat="43.431142" lon="11.2862107"><ele>382.0</ele><time>2026-03-29T11:14:44.094Z</time></trkpt><trkpt lat="43.4311591" lon="11.2863256"><ele>382.0</ele><time>2026-03-29T11:14:46.126Z</time></trkpt><trkpt lat="43.4311834" lon="11.286423"><ele>382.0</ele><time>2026-03-29T11:14:48.103Z</time></trkpt><trkpt lat="43.4312051" lon="11.2865145"><ele>382.0</ele><time>2026-03-29T11:14:50.123Z</time></trkpt><trkpt lat="43.4312294" lon="11.2865967"><ele>382.0</ele><time>2026-03-29T11:14:52.096Z</time></trkpt><trkpt lat="43.431263" lon="11.2867144"><ele>381.0</ele><time>2026-03-29T11:14:55.089Z</time></trkpt><trkpt lat="43.4312757" lon="11.2868441"><ele>380.0</ele><time>2026-03-29T11:14:57.09Z</time></trkpt><trkpt lat="43.4312608" lon="11.2869336"><ele>379.0</ele><time>2026-03-29T11:14:59.098Z</time></trkpt><trkpt lat="43.4312516" lon="11.2867976"><ele>378.0</ele><time>2026-03-29T11:15:10.089Z</time></trkpt><trkpt lat="43.4312247" lon="11.2867031"><ele>377.0</ele><time>2026-03-29T11:15:12.1Z</time></trkpt><trkpt lat="43.4312065" lon="11.2866166"><ele>376.0</ele><time>2026-03-29T11:15:14.099Z</time></trkpt><trkpt lat="43.4311694" lon="11.2864954"><ele>377.20000000000005</ele><time>2026-03-29T11:15:17.091Z</time></trkpt><trkpt lat="43.4311423" lon="11.2863014"><ele>378.40000000000003</ele><time>2026-03-29T11:15:19.093Z</time></trkpt><trkpt lat="43.4311292" lon="11.2861761"><ele>379.6</ele><time>2026-03-29T11:15:20.095Z</time></trkpt><trkpt lat="43.4311199" lon="11.2860522"><ele>380.8</ele><time>2026-03-29T11:15:21.091Z</time></trkpt><trkpt lat="43.4311201" lon="11.2859327"><ele>382.0</ele><time>2026-03-29T11:15:22.099Z</time></trkpt><trkpt lat="43.431139" lon="11.2858334"><ele>382.0</ele><time>2026-03-29T11:15:23.09Z</time></trkpt><trkpt lat="43.4312035" lon="11.2857149"><ele>382.0</ele><time>2026-03-29T11:15:25.096Z</time></trkpt><trkpt lat="43.4312854" lon="11.2856611"><ele>382.0</ele><time>2026-03-29T11:15:27.102Z</time></trkpt><trkpt lat="43.4313215" lon="11.2855717"><ele>382.0</ele><time>2026-03-29T11:15:40.091Z</time></trkpt><trkpt lat="43.4312598" lon="11.2854726"><ele>382.0</ele><time>2026-03-29T11:15:42.095Z</time></trkpt><trkpt lat="43.4311808" lon="11.2853688"><ele>380.66666666666663</ele><time>2026-03-29T11:15:44.1Z</time></trkpt><trkpt lat="43.4311137" lon="11.2852562"><ele>379.3333333333333</ele><time>2026-03-29T11:15:46.104Z</time></trkpt><trkpt lat="43.4310535" lon="11.2851528"><ele>378.0</ele><time>2026-03-29T11:15:48.096Z</time></trkpt><trkpt lat="43.4308582" lon="11.284777"><ele>375.3333333333333</ele><time>2026-03-29T11:15:53.124Z</time></trkpt><trkpt lat="43.4308004" lon="11.2844887"><ele>372.66666666666663</ele><time>2026-03-29T11:15:56.099Z</time></trkpt><trkpt lat="43.4307802" lon="11.2843289"><ele>370.0</ele><time>2026-03-29T11:15:58.122Z</time></trkpt><trkpt lat="43.4307827" lon="11.2841623"><ele>370.0</ele><time>2026-03-29T11:16:00.122Z</time></trkpt><trkpt lat="43.4307936" lon="11.2840692"><ele>370.0</ele><time>2026-03-29T11:16:01.097Z</time></trkpt><trkpt lat="43.4308101" lon="11.2839694"><ele>370.0</ele><time>2026-03-29T11:16:02.123Z</time></trkpt><trkpt lat="43.4308254" lon="11.2838685"><ele>370.0</ele><time>2026-03-29T11:16:03.1Z</time></trkpt><trkpt lat="43.4308371" lon="11.2836832"><ele>370.0</ele><time>2026-03-29T11:16:05.097Z</time></trkpt><trkpt lat="43.4307987" lon="11.2835169"><ele>368.6</ele><time>2026-03-29T11:16:07.094Z</time></trkpt><trkpt lat="43.4307319" lon="11.2833461"><ele>367.2</ele><time>2026-03-29T11:16:09.09Z</time></trkpt><trkpt lat="43.4306826" lon="11.283172"><ele>365.79999999999995</ele><time>2026-03-29T11:16:11.09Z</time></trkpt><trkpt lat="43.4306608" lon="11.2830853"><ele>364.4</ele><time>2026-03-29T11:16:12.122Z</time></trkpt><trkpt lat="43.4306296" lon="11.283001"><ele>363.0</ele><time>2026-03-29T11:16:13.119Z</time></trkpt><trkpt lat="43.4305884" lon="11.2829294"><ele>362.5</ele><time>2026-03-29T11:16:14.092Z</time></trkpt><trkpt lat="43.4304868" lon="11.2828167"><ele>362.0</ele><time>2026-03-29T11:16:16.124Z</time></trkpt><trkpt lat="43.4303799" lon="11.2826831"><ele>361.5</ele><time>2026-03-29T11:16:18.128Z</time></trkpt><trkpt lat="43.430319" lon="11.2824776"><ele>361.0</ele><time>2026-03-29T11:16:20.092Z</time></trkpt><trkpt lat="43.4302858" lon="11.2822784"><ele>360.0</ele><time>2026-03-29T11:16:22.131Z</time></trkpt><trkpt lat="43.4302341" lon="11.282109"><ele>359.0</ele><time>2026-03-29T11:16:24.093Z</time></trkpt><trkpt lat="43.4301305" lon="11.2819705"><ele>358.0</ele><time>2026-03-29T11:16:26.121Z</time></trkpt><trkpt lat="43.4299944" lon="11.2818753"><ele>357.0</ele><time>2026-03-29T11:16:28.124Z</time></trkpt><trkpt lat="43.4299292" lon="11.281843"><ele>357.0</ele><time>2026-03-29T11:16:29.099Z</time></trkpt><trkpt lat="43.4297745" lon="11.2817695"><ele>357.0</ele><time>2026-03-29T11:16:32.096Z</time></trkpt><trkpt lat="43.4296712" lon="11.281618"><ele>357.0</ele><time>2026-03-29T11:16:34.094Z</time></trkpt><trkpt lat="43.4295774" lon="11.2814074"><ele>354.3333333333333</ele><time>2026-03-29T11:16:36.127Z</time></trkpt><trkpt lat="43.4294816" lon="11.2812357"><ele>351.66666666666663</ele><time>2026-03-29T11:16:38.094Z</time></trkpt><trkpt lat="43.4293659" lon="11.2811467"><ele>349.0</ele><time>2026-03-29T11:16:40.117Z</time></trkpt><trkpt lat="43.4291955" lon="11.2811652"><ele>349.0</ele><time>2026-03-29T11:16:42.12Z</time></trkpt><trkpt lat="43.4289657" lon="11.2812184"><ele>349.0</ele><time>2026-03-29T11:16:44.092Z</time></trkpt><trkpt lat="43.4287184" lon="11.2812331"><ele>350.0</ele><time>2026-03-29T11:16:46.135Z</time></trkpt><trkpt lat="43.4284692" lon="11.2812255"><ele>351.0</ele><time>2026-03-29T11:16:48.095Z</time></trkpt><trkpt lat="43.4282337" lon="11.2812294"><ele>351.0</ele><time>2026-03-29T11:16:50.096Z</time></trkpt><trkpt lat="43.4281146" lon="11.2812265"><ele>351.0</ele><time>2026-03-29T11:16:51.096Z</time></trkpt><trkpt lat="43.4279923" lon="11.2812105"><ele>351.0</ele><time>2026-03-29T11:16:52.124Z</time></trkpt><trkpt lat="43.4277602" lon="11.2811815"><ele>351.3333333333333</ele><time>2026-03-29T11:16:54.105Z</time></trkpt><trkpt lat="43.4275446" lon="11.2811545"><ele>351.66666666666663</ele><time>2026-03-29T11:16:56.097Z</time></trkpt><trkpt lat="43.4274293" lon="11.281147"><ele>352.0</ele><time>2026-03-29T11:16:57.108Z</time></trkpt><trkpt lat="43.4273072" lon="11.2811372"><ele>352.0</ele><time>2026-03-29T11:16:58.101Z</time></trkpt><trkpt lat="43.4271853" lon="11.2811323"><ele>352.0</ele><time>2026-03-29T11:16:59.09Z</time></trkpt><trkpt lat="43.4270681" lon="11.2811309"><ele>352.0</ele><time>2026-03-29T11:17:00.094Z</time></trkpt><trkpt lat="43.4269512" lon="11.2811341"><ele>352.0</ele><time>2026-03-29T11:17:01.091Z</time></trkpt><trkpt lat="43.4268456" lon="11.2811287"><ele>351.3333333333333</ele><time>2026-03-29T11:17:02.094Z</time></trkpt><trkpt lat="43.4266452" lon="11.2811145"><ele>350.6666666666667</ele><time>2026-03-29T11:17:04.091Z</time></trkpt><trkpt lat="43.4264655" lon="11.2810958"><ele>350.0</ele><time>2026-03-29T11:17:06.122Z</time></trkpt><trkpt lat="43.4263112" lon="11.281079"><ele>349.5</ele><time>2026-03-29T11:17:08.088Z</time></trkpt><trkpt lat="43.4262109" lon="11.2810508"><ele>349.0</ele><time>2026-03-29T11:17:10.119Z</time></trkpt><trkpt lat="43.4261119" lon="11.2810593"><ele>348.5</ele><time>2026-03-29T11:17:21.104Z</time></trkpt><trkpt lat="43.4259234" lon="11.2810371"><ele>348.0</ele><time>2026-03-29T11:17:24.116Z</time></trkpt><trkpt lat="43.4257708" lon="11.281018"><ele>348.0</ele><time>2026-03-29T11:17:26.09Z</time></trkpt><trkpt lat="43.4256283" lon="11.2809944"><ele>348.0</ele><time>2026-03-29T11:17:28.121Z</time></trkpt><trkpt lat="43.4254776" lon="11.2810177"><ele>348.0</ele><time>2026-03-29T11:17:30.126Z</time></trkpt><trkpt lat="43.4252854" lon="11.2810824"><ele>347.0</ele><time>2026-03-29T11:17:32.119Z</time></trkpt><trkpt lat="43.4251807" lon="11.2811138"><ele>346.0</ele><time>2026-03-29T11:17:33.099Z</time></trkpt><trkpt lat="43.4250744" lon="11.2811538"><ele>345.0</ele><time>2026-03-29T11:17:34.099Z</time></trkpt><trkpt lat="43.4248881" lon="11.2812126"><ele>344.0</ele><time>2026-03-29T11:17:36.094Z</time></trkpt><trkpt lat="43.4247557" lon="11.2812322"><ele>344.0</ele><time>2026-03-29T11:17:38.085Z</time></trkpt><trkpt lat="43.4246809" lon="11.2812115"><ele>344.0</ele><time>2026-03-29T11:17:40.096Z</time></trkpt><trkpt lat="43.4246854" lon="11.2811173"><ele>344.0</ele><time>2026-03-29T11:17:42.098Z</time></trkpt><trkpt lat="43.424789" lon="11.2809343"><ele>344.0</ele><time>2026-03-29T11:17:44.121Z</time></trkpt><trkpt lat="43.4249443" lon="11.2806994"><ele>341.75</ele><time>2026-03-29T11:17:46.121Z</time></trkpt><trkpt lat="43.4250226" lon="11.2805757"><ele>339.5</ele><time>2026-03-29T11:17:47.093Z</time></trkpt><trkpt lat="43.4251031" lon="11.2804477"><ele>337.25</ele><time>2026-03-29T11:17:48.099Z</time></trkpt><trkpt lat="43.425185" lon="11.2803115"><ele>335.0</ele><time>2026-03-29T11:17:49.12Z</time></trkpt><trkpt lat="43.4252594" lon="11.2801803"><ele>335.0</ele><time>2026-03-29T11:17:50.129Z</time></trkpt><trkpt lat="43.4253317" lon="11.28006"><ele>335.0</ele><time>2026-03-29T11:17:51.124Z</time></trkpt><trkpt lat="43.4254667" lon="11.2798401"><ele>335.0</ele><time>2026-03-29T11:17:53.09Z</time></trkpt><trkpt lat="43.4256011" lon="11.2796234"><ele>335.25</ele><time>2026-03-29T11:17:55.088Z</time></trkpt><trkpt lat="43.4256642" lon="11.2795223"><ele>335.5</ele><time>2026-03-29T11:17:56.107Z</time></trkpt><trkpt lat="43.4257216" lon="11.2794257"><ele>335.75</ele><time>2026-03-29T11:17:57.117Z</time></trkpt><trkpt lat="43.4258154" lon="11.2792535"><ele>336.0</ele><time>2026-03-29T11:17:59.091Z</time></trkpt><trkpt lat="43.4258719" lon="11.2790968"><ele>336.0</ele><time>2026-03-29T11:18:01.09Z</time></trkpt><trkpt lat="43.4258505" lon="11.2789556"><ele>336.0</ele><time>2026-03-29T11:18:03.12Z</time></trkpt><trkpt lat="43.4258064" lon="11.2788895"><ele>336.0</ele><time>2026-03-29T11:18:04.091Z</time></trkpt><trkpt lat="43.4256994" lon="11.2787629"><ele>336.0</ele><time>2026-03-29T11:18:06.089Z</time></trkpt><trkpt lat="43.4255712" lon="11.2786291"><ele>332.75</ele><time>2026-03-29T11:18:08.117Z</time></trkpt><trkpt lat="43.42543" lon="11.2785011"><ele>329.5</ele><time>2026-03-29T11:18:10.092Z</time></trkpt><trkpt lat="43.4253313" lon="11.278403"><ele>326.25</ele><time>2026-03-29T11:18:12.088Z</time></trkpt><trkpt lat="43.425242" lon="11.2783004"><ele>323.0</ele><time>2026-03-29T11:18:14.118Z</time></trkpt><trkpt lat="43.4251551" lon="11.2782032"><ele>323.0</ele><time>2026-03-29T11:18:16.119Z</time></trkpt><trkpt lat="43.4250411" lon="11.2781094"><ele>323.0</ele><time>2026-03-29T11:18:18.088Z</time></trkpt><trkpt lat="43.4249687" lon="11.2780673"><ele>323.0</ele><time>2026-03-29T11:18:19.099Z</time></trkpt><trkpt lat="43.4248863" lon="11.2780417"><ele>323.0</ele><time>2026-03-29T11:18:20.089Z</time></trkpt><trkpt lat="43.424793" lon="11.27803"><ele>323.0</ele><time>2026-03-29T11:18:21.089Z</time></trkpt><trkpt lat="43.4246933" lon="11.2780254"><ele>318.75</ele><time>2026-03-29T11:18:22.117Z</time></trkpt><trkpt lat="43.4245925" lon="11.2780247"><ele>314.5</ele><time>2026-03-29T11:18:23.093Z</time></trkpt><trkpt lat="43.4243901" lon="11.2780126"><ele>310.25</ele><time>2026-03-29T11:18:25.094Z</time></trkpt><trkpt lat="43.4242881" lon="11.2780064"><ele>306.0</ele><time>2026-03-29T11:18:26.089Z</time></trkpt><trkpt lat="43.4240763" lon="11.2779978"><ele>306.0</ele><time>2026-03-29T11:18:28.087Z</time></trkpt><trkpt lat="43.4239622" lon="11.2780097"><ele>306.0</ele><time>2026-03-29T11:18:29.117Z</time></trkpt><trkpt lat="43.423849" lon="11.2780303"><ele>306.0</ele><time>2026-03-29T11:18:30.123Z</time></trkpt><trkpt lat="43.4236232" lon="11.2780718"><ele>305.3333333333333</ele><time>2026-03-29T11:18:32.094Z</time></trkpt><trkpt lat="43.4235045" lon="11.2780788"><ele>304.66666666666663</ele><time>2026-03-29T11:18:33.091Z</time></trkpt><trkpt lat="43.4233825" lon="11.2780884"><ele>304.0</ele><time>2026-03-29T11:18:34.092Z</time></trkpt><trkpt lat="43.4231418" lon="11.2781194"><ele>300.0</ele><time>2026-03-29T11:18:36.103Z</time></trkpt><trkpt lat="43.4229048" lon="11.2781663"><ele>296.0</ele><time>2026-03-29T11:18:38.129Z</time></trkpt><trkpt lat="43.422681" lon="11.2782048"><ele>296.0</ele><time>2026-03-29T11:18:40.119Z</time></trkpt><trkpt lat="43.4224758" lon="11.2782062"><ele>296.0</ele><time>2026-03-29T11:18:42.09Z</time></trkpt><trkpt lat="43.422381" lon="11.278211"><ele>296.0</ele><time>2026-03-29T11:18:43.098Z</time></trkpt><trkpt lat="43.4222938" lon="11.2782101"><ele>296.0</ele><time>2026-03-29T11:18:44.091Z</time></trkpt><trkpt lat="43.4221372" lon="11.2781532"><ele>295.25</ele><time>2026-03-29T11:18:46.094Z</time></trkpt><trkpt lat="43.4219871" lon="11.2780361"><ele>294.5</ele><time>2026-03-29T11:18:48.093Z</time></trkpt><trkpt lat="43.4218883" lon="11.2778988"><ele>293.75</ele><time>2026-03-29T11:18:50.087Z</time></trkpt><trkpt lat="43.4218107" lon="11.2777918"><ele>293.0</ele><time>2026-03-29T11:18:52.116Z</time></trkpt><trkpt lat="43.4217494" lon="11.2777093"><ele>293.0</ele><time>2026-03-29T11:18:56.121Z</time></trkpt><trkpt lat="43.4216489" lon="11.2776813"><ele>293.0</ele><time>2026-03-29T11:19:05.088Z</time></trkpt><trkpt lat="43.4215871" lon="11.2777229"><ele>293.0</ele><time>2026-03-29T11:19:06.09Z</time></trkpt><trkpt lat="43.4215252" lon="11.2777886"><ele>293.0</ele><time>2026-03-29T11:19:07.089Z</time></trkpt><trkpt lat="43.421463" lon="11.2778567"><ele>293.0</ele><time>2026-03-29T11:19:08.099Z</time></trkpt><trkpt lat="43.4214005" lon="11.2779326"><ele>293.0</ele><time>2026-03-29T11:19:09.091Z</time></trkpt><trkpt lat="43.4213362" lon="11.2780215"><ele>293.2</ele><time>2026-03-29T11:19:10.091Z</time></trkpt><trkpt lat="43.4212726" lon="11.2781084"><ele>293.4</ele><time>2026-03-29T11:19:11.091Z</time></trkpt><trkpt lat="43.4212039" lon="11.2781907"><ele>293.59999999999997</ele><time>2026-03-29T11:19:12.096Z</time></trkpt><trkpt lat="43.421131" lon="11.2782789"><ele>293.8</ele><time>2026-03-29T11:19:13.108Z</time></trkpt><trkpt lat="43.4210539" lon="11.278379"><ele>294.0</ele><time>2026-03-29T11:19:14.087Z</time></trkpt><trkpt lat="43.420982" lon="11.2784885"><ele>294.0</ele><time>2026-03-29T11:19:15.093Z</time></trkpt><trkpt lat="43.4209074" lon="11.2786002"><ele>294.0</ele><time>2026-03-29T11:19:16.096Z</time></trkpt><trkpt lat="43.420835" lon="11.2787034"><ele>294.0</ele><time>2026-03-29T11:19:17.096Z</time></trkpt><trkpt lat="43.4207665" lon="11.2787974"><ele>294.0</ele><time>2026-03-29T11:19:18.096Z</time></trkpt><trkpt lat="43.4207001" lon="11.2788939"><ele>294.0</ele><time>2026-03-29T11:19:19.094Z</time></trkpt><trkpt lat="43.4206456" lon="11.2789976"><ele>292.59999999999997</ele><time>2026-03-29T11:19:20.111Z</time></trkpt><trkpt lat="43.4206003" lon="11.2791144"><ele>291.2</ele><time>2026-03-29T11:19:21.123Z</time></trkpt><trkpt lat="43.4205635" lon="11.279236"><ele>289.79999999999995</ele><time>2026-03-29T11:19:22.093Z</time></trkpt><trkpt lat="43.4205367" lon="11.2793569"><ele>288.4</ele><time>2026-03-29T11:19:23.091Z</time></trkpt><trkpt lat="43.4205056" lon="11.2794774"><ele>287.0</ele><time>2026-03-29T11:19:24.134Z</time></trkpt><trkpt lat="43.4204604" lon="11.279589"><ele>287.0</ele><time>2026-03-29T11:19:25.104Z</time></trkpt><trkpt lat="43.4203852" lon="11.2796806"><ele>287.0</ele><time>2026-03-29T11:19:26.117Z</time></trkpt><trkpt lat="43.420287" lon="11.2797498"><ele>287.0</ele><time>2026-03-29T11:19:27.096Z</time></trkpt><trkpt lat="43.4201722" lon="11.2798114"><ele>287.0</ele><time>2026-03-29T11:19:28.098Z</time></trkpt><trkpt lat="43.4200365" lon="11.2798944"><ele>286.25</ele><time>2026-03-29T11:19:29.094Z</time></trkpt><trkpt lat="43.4199046" lon="11.279997"><ele>285.5</ele><time>2026-03-29T11:19:30.094Z</time></trkpt><trkpt lat="43.4197834" lon="11.2801143"><ele>284.75</ele><time>2026-03-29T11:19:31.108Z</time></trkpt><trkpt lat="43.4196759" lon="11.2802275"><ele>284.0</ele><time>2026-03-29T11:19:32.13Z</time></trkpt><trkpt lat="43.419588" lon="11.2803368"><ele>284.0</ele><time>2026-03-29T11:19:33.096Z</time></trkpt><trkpt lat="43.4195097" lon="11.2804471"><ele>284.0</ele><time>2026-03-29T11:19:34.093Z</time></trkpt><trkpt lat="43.4194315" lon="11.280552"><ele>284.0</ele><time>2026-03-29T11:19:35.087Z</time></trkpt><trkpt lat="43.4193438" lon="11.2806517"><ele>284.0</ele><time>2026-03-29T11:19:36.089Z</time></trkpt><trkpt lat="43.419263" lon="11.28075"><ele>284.0</ele><time>2026-03-29T11:19:37.123Z</time></trkpt><trkpt lat="43.4191838" lon="11.2808411"><ele>282.2</ele><time>2026-03-29T11:19:38.1Z</time></trkpt><trkpt lat="43.4191074" lon="11.2809303"><ele>280.4</ele><time>2026-03-29T11:19:39.09Z</time></trkpt><trkpt lat="43.4190296" lon="11.2810187"><ele>278.6</ele><time>2026-03-29T11:19:40.101Z</time></trkpt><trkpt lat="43.4189551" lon="11.2811067"><ele>276.8</ele><time>2026-03-29T11:19:41.09Z</time></trkpt><trkpt lat="43.4188865" lon="11.2811894"><ele>275.0</ele><time>2026-03-29T11:19:42.094Z</time></trkpt><trkpt lat="43.4188228" lon="11.2812707"><ele>274.83333333333337</ele><time>2026-03-29T11:19:43.091Z</time></trkpt><trkpt lat="43.4187635" lon="11.281338"><ele>274.6666666666667</ele><time>2026-03-29T11:19:44.095Z</time></trkpt><trkpt lat="43.4187047" lon="11.2813867"><ele>274.5</ele><time>2026-03-29T11:19:45.087Z</time></trkpt><trkpt lat="43.4186422" lon="11.281417"><ele>274.3333333333333</ele><time>2026-03-29T11:19:46.087Z</time></trkpt><trkpt lat="43.4185724" lon="11.2814279"><ele>274.16666666666663</ele><time>2026-03-29T11:19:47.092Z</time></trkpt><trkpt lat="43.4184962" lon="11.2814043"><ele>274.0</ele><time>2026-03-29T11:19:48.095Z</time></trkpt><trkpt lat="43.4184104" lon="11.281357"><ele>274.0</ele><time>2026-03-29T11:19:49.09Z</time></trkpt><trkpt lat="43.4183212" lon="11.2812989"><ele>274.0</ele><time>2026-03-29T11:19:50.088Z</time></trkpt><trkpt lat="43.4182352" lon="11.2812478"><ele>274.0</ele><time>2026-03-29T11:19:51.094Z</time></trkpt><trkpt lat="43.4181575" lon="11.2812059"><ele>274.0</ele><time>2026-03-29T11:19:52.099Z</time></trkpt><trkpt lat="43.4180837" lon="11.2811792"><ele>274.0</ele><time>2026-03-29T11:19:53.097Z</time></trkpt><trkpt lat="43.4180004" lon="11.2811924"><ele>274.0</ele><time>2026-03-29T11:19:54.122Z</time></trkpt><trkpt lat="43.4179124" lon="11.2812473"><ele>273.0</ele><time>2026-03-29T11:19:55.096Z</time></trkpt><trkpt lat="43.4178125" lon="11.281332"><ele>272.0</ele><time>2026-03-29T11:19:56.092Z</time></trkpt><trkpt lat="43.4177002" lon="11.2814195"><ele>271.0</ele><time>2026-03-29T11:19:57.091Z</time></trkpt><trkpt lat="43.4175856" lon="11.2814972"><ele>270.0</ele><time>2026-03-29T11:19:58.091Z</time></trkpt><trkpt lat="43.4174876" lon="11.2815577"><ele>268.5</ele><time>2026-03-29T11:19:59.1Z</time></trkpt><trkpt lat="43.4173867" lon="11.2816246"><ele>267.0</ele><time>2026-03-29T11:20:00.102Z</time></trkpt><trkpt lat="43.4172818" lon="11.2816963"><ele>265.5</ele><time>2026-03-29T11:20:01.098Z</time></trkpt><trkpt lat="43.4171761" lon="11.2817574"><ele>264.0</ele><time>2026-03-29T11:20:02.103Z</time></trkpt><trkpt lat="43.4170741" lon="11.2818018"><ele>263.59999999999997</ele><time>2026-03-29T11:20:03.091Z</time></trkpt><trkpt lat="43.4169665" lon="11.2818376"><ele>263.2</ele><time>2026-03-29T11:20:04.097Z</time></trkpt><trkpt lat="43.4168587" lon="11.2818618"><ele>262.79999999999995</ele><time>2026-03-29T11:20:05.11Z</time></trkpt><trkpt lat="43.4167598" lon="11.2818871"><ele>262.4</ele><time>2026-03-29T11:20:06.124Z</time></trkpt><trkpt lat="43.4166699" lon="11.2819154"><ele>262.0</ele><time>2026-03-29T11:20:07.093Z</time></trkpt><trkpt lat="43.4165912" lon="11.2819361"><ele>262.0</ele><time>2026-03-29T11:20:08.104Z</time></trkpt><trkpt lat="43.4165189" lon="11.2819564"><ele>262.0</ele><time>2026-03-29T11:20:09.09Z</time></trkpt><trkpt lat="43.4164503" lon="11.281984"><ele>262.0</ele><time>2026-03-29T11:20:10.089Z</time></trkpt><trkpt lat="43.4163885" lon="11.2820224"><ele>262.0</ele><time>2026-03-29T11:20:11.099Z</time></trkpt><trkpt lat="43.4163366" lon="11.2820863"><ele>262.0</ele><time>2026-03-29T11:20:12.091Z</time></trkpt><trkpt lat="43.4162993" lon="11.2821791"><ele>262.0</ele><time>2026-03-29T11:20:13.098Z</time></trkpt><trkpt lat="43.4162841" lon="11.2822902"><ele>262.0</ele><time>2026-03-29T11:20:14.099Z</time></trkpt><trkpt lat="43.4162843" lon="11.2823995"><ele>261.8333333333333</ele><time>2026-03-29T11:20:15.102Z</time></trkpt><trkpt lat="43.416275" lon="11.2825025"><ele>261.66666666666663</ele><time>2026-03-29T11:20:16.095Z</time></trkpt><trkpt lat="43.4162458" lon="11.2825946"><ele>261.5</ele><time>2026-03-29T11:20:17.099Z</time></trkpt><trkpt lat="43.4161938" lon="11.2826788"><ele>261.3333333333333</ele><time>2026-03-29T11:20:18.09Z</time></trkpt><trkpt lat="43.416123" lon="11.282759"><ele>261.1666666666667</ele><time>2026-03-29T11:20:19.094Z</time></trkpt><trkpt lat="43.4160431" lon="11.2828405"><ele>261.0</ele><time>2026-03-29T11:20:20.101Z</time></trkpt><trkpt lat="43.4159656" lon="11.2829452"><ele>261.0</ele><time>2026-03-29T11:20:21.092Z</time></trkpt><trkpt lat="43.4158884" lon="11.2830749"><ele>261.0</ele><time>2026-03-29T11:20:22.09Z</time></trkpt><trkpt lat="43.4158085" lon="11.2832196"><ele>261.0</ele><time>2026-03-29T11:20:23.106Z</time></trkpt><trkpt lat="43.4157346" lon="11.2833667"><ele>261.0</ele><time>2026-03-29T11:20:24.108Z</time></trkpt><trkpt lat="43.4156629" lon="11.2835077"><ele>262.5</ele><time>2026-03-29T11:20:25.096Z</time></trkpt><trkpt lat="43.4155929" lon="11.2836432"><ele>264.0</ele><time>2026-03-29T11:20:26.096Z</time></trkpt><trkpt lat="43.4155211" lon="11.2837773"><ele>265.5</ele><time>2026-03-29T11:20:27.095Z</time></trkpt><trkpt lat="43.41545" lon="11.2839128"><ele>267.0</ele><time>2026-03-29T11:20:28.118Z</time></trkpt><trkpt lat="43.4153777" lon="11.2840534"><ele>269.5</ele><time>2026-03-29T11:20:29.116Z</time></trkpt><trkpt lat="43.4153032" lon="11.2842026"><ele>272.0</ele><time>2026-03-29T11:20:30.093Z</time></trkpt><trkpt lat="43.4152358" lon="11.2843503"><ele>274.5</ele><time>2026-03-29T11:20:31.105Z</time></trkpt><trkpt lat="43.4151747" lon="11.2844838"><ele>277.0</ele><time>2026-03-29T11:20:32.095Z</time></trkpt><trkpt lat="43.4151157" lon="11.2845919"><ele>277.0</ele><time>2026-03-29T11:20:33.105Z</time></trkpt><trkpt lat="43.415064" lon="11.284678"><ele>277.0</ele><time>2026-03-29T11:20:34.094Z</time></trkpt><trkpt lat="43.4150127" lon="11.2847533"><ele>277.0</ele><time>2026-03-29T11:20:35.122Z</time></trkpt><trkpt lat="43.4149618" lon="11.2848243"><ele>277.0</ele><time>2026-03-29T11:20:36.094Z</time></trkpt><trkpt lat="43.4149033" lon="11.2848918"><ele>277.0</ele><time>2026-03-29T11:20:37.093Z</time></trkpt><trkpt lat="43.4148284" lon="11.2849595"><ele>277.0</ele><time>2026-03-29T11:20:38.096Z</time></trkpt><trkpt lat="43.4147407" lon="11.2850268"><ele>277.0</ele><time>2026-03-29T11:20:39.122Z</time></trkpt><trkpt lat="43.4143584" lon="11.2853348"><ele>277.0</ele><time>2026-03-29T11:20:43.117Z</time></trkpt><trkpt lat="43.4142722" lon="11.285446"><ele>277.0</ele><time>2026-03-29T11:20:44.102Z</time></trkpt><trkpt lat="43.4141925" lon="11.2855642"><ele>277.0</ele><time>2026-03-29T11:20:45.091Z</time></trkpt><trkpt lat="43.41412" lon="11.2856868"><ele>277.0</ele><time>2026-03-29T11:20:46.095Z</time></trkpt><trkpt lat="43.4140513" lon="11.2858147"><ele>277.0</ele><time>2026-03-29T11:20:47.093Z</time></trkpt><trkpt lat="43.4139214" lon="11.2860931"><ele>275.75</ele><time>2026-03-29T11:20:49.102Z</time></trkpt><trkpt lat="43.413858" lon="11.2862432"><ele>274.5</ele><time>2026-03-29T11:20:50.09Z</time></trkpt><trkpt lat="43.4138041" lon="11.2863973"><ele>273.25</ele><time>2026-03-29T11:20:51.094Z</time></trkpt><trkpt lat="43.4137655" lon="11.286547"><ele>272.0</ele><time>2026-03-29T11:20:52.131Z</time></trkpt><trkpt lat="43.4137305" lon="11.2866857"><ele>272.0</ele><time>2026-03-29T11:20:53.095Z</time></trkpt><trkpt lat="43.4136957" lon="11.2868164"><ele>272.0</ele><time>2026-03-29T11:20:54.116Z</time></trkpt><trkpt lat="43.4136601" lon="11.2869395"><ele>272.0</ele><time>2026-03-29T11:20:55.113Z</time></trkpt><trkpt lat="43.4136196" lon="11.2870638"><ele>272.0</ele><time>2026-03-29T11:20:56.096Z</time></trkpt><trkpt lat="43.4135815" lon="11.2871801"><ele>272.0</ele><time>2026-03-29T11:20:57.096Z</time></trkpt><trkpt lat="43.4135453" lon="11.2872855"><ele>272.4</ele><time>2026-03-29T11:20:58.1Z</time></trkpt><trkpt lat="43.4135011" lon="11.287379"><ele>272.79999999999995</ele><time>2026-03-29T11:20:59.143Z</time></trkpt><trkpt lat="43.4134352" lon="11.2874581"><ele>273.2</ele><time>2026-03-29T11:21:00.093Z</time></trkpt><trkpt lat="43.4133546" lon="11.287515"><ele>273.59999999999997</ele><time>2026-03-29T11:21:01.127Z</time></trkpt><trkpt lat="43.4132594" lon="11.2875558"><ele>274.0</ele><time>2026-03-29T11:21:02.139Z</time></trkpt><trkpt lat="43.4131495" lon="11.2875845"><ele>274.0</ele><time>2026-03-29T11:21:03.121Z</time></trkpt><trkpt lat="43.4130293" lon="11.2876155"><ele>274.0</ele><time>2026-03-29T11:21:04.106Z</time></trkpt><trkpt lat="43.4129072" lon="11.2876391"><ele>274.0</ele><time>2026-03-29T11:21:05.116Z</time></trkpt><trkpt lat="43.4127832" lon="11.2876481"><ele>274.0</ele><time>2026-03-29T11:21:06.095Z</time></trkpt><trkpt lat="43.4126561" lon="11.2876359"><ele>274.0</ele><time>2026-03-29T11:21:07.099Z</time></trkpt><trkpt lat="43.4125307" lon="11.2876122"><ele>274.0</ele><time>2026-03-29T11:21:08.099Z</time></trkpt><trkpt lat="43.4124187" lon="11.2875929"><ele>274.0</ele><time>2026-03-29T11:21:09.096Z</time></trkpt><trkpt lat="43.4123139" lon="11.2875823"><ele>274.0</ele><time>2026-03-29T11:21:10.098Z</time></trkpt><trkpt lat="43.4122137" lon="11.28759"><ele>274.0</ele><time>2026-03-29T11:21:11.094Z</time></trkpt><trkpt lat="43.4121163" lon="11.2876257"><ele>274.0</ele><time>2026-03-29T11:21:12.108Z</time></trkpt><trkpt lat="43.4120211" lon="11.2876857"><ele>274.0</ele><time>2026-03-29T11:21:13.096Z</time></trkpt><trkpt lat="43.4119361" lon="11.2877385"><ele>274.0</ele><time>2026-03-29T11:21:14.104Z</time></trkpt><trkpt lat="43.411853" lon="11.2877913"><ele>274.0</ele><time>2026-03-29T11:21:15.091Z</time></trkpt><trkpt lat="43.4117689" lon="11.2878577"><ele>274.0</ele><time>2026-03-29T11:21:16.108Z</time></trkpt><trkpt lat="43.4116796" lon="11.2879384"><ele>274.0</ele><time>2026-03-29T11:21:17.099Z</time></trkpt><trkpt lat="43.4115936" lon="11.2880265"><ele>274.0</ele><time>2026-03-29T11:21:18.094Z</time></trkpt><trkpt lat="43.4115098" lon="11.2881219"><ele>274.0</ele><time>2026-03-29T11:21:19.105Z</time></trkpt><trkpt lat="43.4114322" lon="11.2882312"><ele>274.0</ele><time>2026-03-29T11:21:20.131Z</time></trkpt><trkpt lat="43.4113597" lon="11.288354"><ele>274.0</ele><time>2026-03-29T11:21:21.096Z</time></trkpt><trkpt lat="43.4112923" lon="11.2884847"><ele>274.8</ele><time>2026-03-29T11:21:22.108Z</time></trkpt><trkpt lat="43.4112386" lon="11.2886161"><ele>275.59999999999997</ele><time>2026-03-29T11:21:23.104Z</time></trkpt><trkpt lat="43.4111985" lon="11.2887392"><ele>276.4</ele><time>2026-03-29T11:21:24.098Z</time></trkpt><trkpt lat="43.4111626" lon="11.2888606"><ele>277.2</ele><time>2026-03-29T11:21:25.111Z</time></trkpt><trkpt lat="43.4111141" lon="11.2889739"><ele>278.0</ele><time>2026-03-29T11:21:26.101Z</time></trkpt><trkpt lat="43.411051" lon="11.2890656"><ele>278.8</ele><time>2026-03-29T11:21:27.092Z</time></trkpt><trkpt lat="43.4109702" lon="11.2891243"><ele>279.6</ele><time>2026-03-29T11:21:28.098Z</time></trkpt><trkpt lat="43.4108795" lon="11.289151"><ele>280.4</ele><time>2026-03-29T11:21:29.096Z</time></trkpt><trkpt lat="43.4107646" lon="11.2891543"><ele>281.2</ele><time>2026-03-29T11:21:30.093Z</time></trkpt><trkpt lat="43.4106416" lon="11.2891645"><ele>282.0</ele><time>2026-03-29T11:21:31.098Z</time></trkpt><trkpt lat="43.4105235" lon="11.289176"><ele>282.5</ele><time>2026-03-29T11:21:32.121Z</time></trkpt><trkpt lat="43.4103976" lon="11.2892093"><ele>283.0</ele><time>2026-03-29T11:21:33.091Z</time></trkpt><trkpt lat="43.4102663" lon="11.2892442"><ele>283.5</ele><time>2026-03-29T11:21:34.105Z</time></trkpt><trkpt lat="43.4101337" lon="11.28928"><ele>284.0</ele><time>2026-03-29T11:21:35.101Z</time></trkpt><trkpt lat="43.4100057" lon="11.2893225"><ele>284.0</ele><time>2026-03-29T11:21:36.096Z</time></trkpt><trkpt lat="43.4098823" lon="11.2893708"><ele>284.0</ele><time>2026-03-29T11:21:37.087Z</time></trkpt><trkpt lat="43.409769" lon="11.2894358"><ele>284.0</ele><time>2026-03-29T11:21:38.091Z</time></trkpt><trkpt lat="43.4096565" lon="11.2895112"><ele>284.0</ele><time>2026-03-29T11:21:39.119Z</time></trkpt><trkpt lat="43.4095383" lon="11.2895849"><ele>285.25</ele><time>2026-03-29T11:21:40.101Z</time></trkpt><trkpt lat="43.4094095" lon="11.2896521"><ele>286.5</ele><time>2026-03-29T11:21:41.089Z</time></trkpt><trkpt lat="43.4092855" lon="11.2896996"><ele>287.75</ele><time>2026-03-29T11:21:42.093Z</time></trkpt><trkpt lat="43.409168" lon="11.2897307"><ele>289.0</ele><time>2026-03-29T11:21:43.125Z</time></trkpt><trkpt lat="43.4090684" lon="11.2897747"><ele>289.66666666666663</ele><time>2026-03-29T11:21:44.108Z</time></trkpt><trkpt lat="43.4089809" lon="11.289826"><ele>290.3333333333333</ele><time>2026-03-29T11:21:45.088Z</time></trkpt><trkpt lat="43.4089028" lon="11.2898856"><ele>291.0</ele><time>2026-03-29T11:21:46.12Z</time></trkpt><trkpt lat="43.4088383" lon="11.2899516"><ele>291.6666666666667</ele><time>2026-03-29T11:21:47.094Z</time></trkpt><trkpt lat="43.4087874" lon="11.2900195"><ele>292.33333333333337</ele><time>2026-03-29T11:21:48.124Z</time></trkpt><trkpt lat="43.408704" lon="11.2901223"><ele>293.0</ele><time>2026-03-29T11:21:50.12Z</time></trkpt><trkpt lat="43.4086333" lon="11.2901469"><ele>293.1666666666667</ele><time>2026-03-29T11:21:52.096Z</time></trkpt><trkpt lat="43.4085964" lon="11.2900392"><ele>293.33333333333337</ele><time>2026-03-29T11:22:28.09Z</time></trkpt><trkpt lat="43.4086013" lon="11.2898861"><ele>293.5</ele><time>2026-03-29T11:22:30.089Z</time></trkpt><trkpt lat="43.4086159" lon="11.2897781"><ele>293.6666666666667</ele><time>2026-03-29T11:22:31.094Z</time></trkpt><trkpt lat="43.4086343" lon="11.289666"><ele>293.8333333333333</ele><time>2026-03-29T11:22:32.107Z</time></trkpt><trkpt lat="43.4086518" lon="11.2895521"><ele>294.0</ele><time>2026-03-29T11:22:33.098Z</time></trkpt><trkpt lat="43.4086644" lon="11.2894371"><ele>293.5</ele><time>2026-03-29T11:22:34.095Z</time></trkpt><trkpt lat="43.4086773" lon="11.2893067"><ele>293.0</ele><time>2026-03-29T11:22:35.104Z</time></trkpt><trkpt lat="43.4087027" lon="11.2891503"><ele>292.5</ele><time>2026-03-29T11:22:36.096Z</time></trkpt><trkpt lat="43.4087366" lon="11.2889794"><ele>292.0</ele><time>2026-03-29T11:22:37.104Z</time></trkpt><trkpt lat="43.4087864" lon="11.2887976"><ele>290.3333333333333</ele><time>2026-03-29T11:22:38.094Z</time></trkpt><trkpt lat="43.4088518" lon="11.2886184"><ele>288.6666666666667</ele><time>2026-03-29T11:22:39.092Z</time></trkpt><trkpt lat="43.4089291" lon="11.2884395"><ele>287.0</ele><time>2026-03-29T11:22:40.099Z</time></trkpt><trkpt lat="43.4090144" lon="11.2882577"><ele>287.6666666666667</ele><time>2026-03-29T11:22:41.085Z</time></trkpt><trkpt lat="43.4090999" lon="11.2880786"><ele>288.3333333333333</ele><time>2026-03-29T11:22:42.104Z</time></trkpt><trkpt lat="43.4091807" lon="11.2878952"><ele>289.0</ele><time>2026-03-29T11:22:43.107Z</time></trkpt><trkpt lat="43.4092533" lon="11.2876991"><ele>289.0</ele><time>2026-03-29T11:22:44.124Z</time></trkpt><trkpt lat="43.4093143" lon="11.2874889"><ele>289.0</ele><time>2026-03-29T11:22:45.094Z</time></trkpt><trkpt lat="43.409364" lon="11.2872745"><ele>289.0</ele><time>2026-03-29T11:22:46.09Z</time></trkpt><trkpt lat="43.4094079" lon="11.2870535"><ele>290.0</ele><time>2026-03-29T11:22:47.101Z</time></trkpt><trkpt lat="43.4094494" lon="11.2868337"><ele>291.0</ele><time>2026-03-29T11:22:48.089Z</time></trkpt><trkpt lat="43.4094877" lon="11.2866219"><ele>292.0</ele><time>2026-03-29T11:22:49.089Z</time></trkpt><trkpt lat="43.4095156" lon="11.2864167"><ele>294.3333333333333</ele><time>2026-03-29T11:22:50.094Z</time></trkpt><trkpt lat="43.4095161" lon="11.2862107"><ele>296.6666666666667</ele><time>2026-03-29T11:22:51.098Z</time></trkpt><trkpt lat="43.4094812" lon="11.2860136"><ele>299.0</ele><time>2026-03-29T11:22:52.091Z</time></trkpt><trkpt lat="43.4094098" lon="11.2858198"><ele>299.0</ele><time>2026-03-29T11:22:53.131Z</time></trkpt><trkpt lat="43.4093012" lon="11.2856575"><ele>299.0</ele><time>2026-03-29T11:22:54.097Z</time></trkpt><trkpt lat="43.4091564" lon="11.2855289"><ele>299.0</ele><time>2026-03-29T11:22:55.099Z</time></trkpt><trkpt lat="43.4089911" lon="11.2854205"><ele>300.33333333333337</ele><time>2026-03-29T11:22:56.126Z</time></trkpt><trkpt lat="43.4088242" lon="11.2853213"><ele>301.6666666666667</ele><time>2026-03-29T11:22:57.097Z</time></trkpt><trkpt lat="43.4086695" lon="11.2852124"><ele>303.0</ele><time>2026-03-29T11:22:58.091Z</time></trkpt><trkpt lat="43.4085252" lon="11.2850704"><ele>303.0</ele><time>2026-03-29T11:22:59.096Z</time></trkpt><trkpt lat="43.4083924" lon="11.2848949"><ele>303.0</ele><time>2026-03-29T11:23:00.096Z</time></trkpt><trkpt lat="43.4082851" lon="11.2846749"><ele>303.0</ele><time>2026-03-29T11:23:01.093Z</time></trkpt><trkpt lat="43.4081961" lon="11.2844569"><ele>304.3333333333333</ele><time>2026-03-29T11:23:02.127Z</time></trkpt><trkpt lat="43.4081071" lon="11.2842621"><ele>305.66666666666663</ele><time>2026-03-29T11:23:03.093Z</time></trkpt><trkpt lat="43.4080264" lon="11.2840854"><ele>307.0</ele><time>2026-03-29T11:23:04.097Z</time></trkpt><trkpt lat="43.407945" lon="11.2839185"><ele>307.0</ele><time>2026-03-29T11:23:05.092Z</time></trkpt><trkpt lat="43.4078539" lon="11.2837557"><ele>307.0</ele><time>2026-03-29T11:23:06.096Z</time></trkpt><trkpt lat="43.4077491" lon="11.2835973"><ele>307.0</ele><time>2026-03-29T11:23:07.091Z</time></trkpt><trkpt lat="43.407623" lon="11.2834599"><ele>307.0</ele><time>2026-03-29T11:23:08.093Z</time></trkpt><trkpt lat="43.407486" lon="11.2833394"><ele>307.0</ele><time>2026-03-29T11:23:09.089Z</time></trkpt><trkpt lat="43.4073399" lon="11.2832445"><ele>307.0</ele><time>2026-03-29T11:23:10.121Z</time></trkpt><trkpt lat="43.4071905" lon="11.283161"><ele>304.0</ele><time>2026-03-29T11:23:11.097Z</time></trkpt><trkpt lat="43.4070424" lon="11.2830808"><ele>301.0</ele><time>2026-03-29T11:23:12.093Z</time></trkpt><trkpt lat="43.4068931" lon="11.2830047"><ele>298.0</ele><time>2026-03-29T11:23:13.098Z</time></trkpt><trkpt lat="43.4067425" lon="11.2829332"><ele>298.0</ele><time>2026-03-29T11:23:14.096Z</time></trkpt><trkpt lat="43.4065919" lon="11.2828586"><ele>298.0</ele><time>2026-03-29T11:23:15.097Z</time></trkpt><trkpt lat="43.4064456" lon="11.2827749"><ele>298.0</ele><time>2026-03-29T11:23:16.09Z</time></trkpt><trkpt lat="43.4063048" lon="11.2826779"><ele>298.0</ele><time>2026-03-29T11:23:17.093Z</time></trkpt><trkpt lat="43.4061699" lon="11.2825631"><ele>298.0</ele><time>2026-03-29T11:23:18.093Z</time></trkpt><trkpt lat="43.4060564" lon="11.2824047"><ele>298.0</ele><time>2026-03-29T11:23:19.089Z</time></trkpt><trkpt lat="43.4059664" lon="11.2822014"><ele>297.0</ele><time>2026-03-29T11:23:20.092Z</time></trkpt><trkpt lat="43.4058962" lon="11.2819602"><ele>296.0</ele><time>2026-03-29T11:23:21.089Z</time></trkpt><trkpt lat="43.4058318" lon="11.2817176"><ele>295.0</ele><time>2026-03-29T11:23:22.091Z</time></trkpt><trkpt lat="43.405775" lon="11.2814784"><ele>292.3333333333333</ele><time>2026-03-29T11:23:23.102Z</time></trkpt><trkpt lat="43.4057149" lon="11.2812419"><ele>289.6666666666667</ele><time>2026-03-29T11:23:24.094Z</time></trkpt><trkpt lat="43.4056463" lon="11.2810031"><ele>287.0</ele><time>2026-03-29T11:23:25.087Z</time></trkpt><trkpt lat="43.4055859" lon="11.2807642"><ele>288.0</ele><time>2026-03-29T11:23:26.092Z</time></trkpt><trkpt lat="43.4055369" lon="11.280526"><ele>289.0</ele><time>2026-03-29T11:23:27.094Z</time></trkpt><trkpt lat="43.4055011" lon="11.2802988"><ele>290.0</ele><time>2026-03-29T11:23:28.12Z</time></trkpt><trkpt lat="43.4054675" lon="11.2800785"><ele>290.0</ele><time>2026-03-29T11:23:29.1Z</time></trkpt><trkpt lat="43.4054123" lon="11.2798647"><ele>290.0</ele><time>2026-03-29T11:23:30.092Z</time></trkpt><trkpt lat="43.4053237" lon="11.2796534"><ele>290.0</ele><time>2026-03-29T11:23:31.094Z</time></trkpt><trkpt lat="43.4052114" lon="11.279469"><ele>286.6666666666667</ele><time>2026-03-29T11:23:32.13Z</time></trkpt><trkpt lat="43.4050818" lon="11.2792789"><ele>283.3333333333333</ele><time>2026-03-29T11:23:33.095Z</time></trkpt><trkpt lat="43.4049482" lon="11.2790825"><ele>280.0</ele><time>2026-03-29T11:23:34.094Z</time></trkpt><trkpt lat="43.4048081" lon="11.2788805"><ele>278.0</ele><time>2026-03-29T11:23:35.093Z</time></trkpt><trkpt lat="43.4046693" lon="11.2786764"><ele>276.0</ele><time>2026-03-29T11:23:36.121Z</time></trkpt><trkpt lat="43.404542" lon="11.2784676"><ele>274.0</ele><time>2026-03-29T11:23:37.113Z</time></trkpt><trkpt lat="43.4044288" lon="11.2782497"><ele>273.66666666666663</ele><time>2026-03-29T11:23:38.111Z</time></trkpt><trkpt lat="43.4043308" lon="11.2780214"><ele>273.3333333333333</ele><time>2026-03-29T11:23:39.125Z</time></trkpt><trkpt lat="43.4042503" lon="11.2777858"><ele>273.0</ele><time>2026-03-29T11:23:40.097Z</time></trkpt><trkpt lat="43.4041865" lon="11.2775426"><ele>273.0</ele><time>2026-03-29T11:23:41.094Z</time></trkpt><trkpt lat="43.4041309" lon="11.2772928"><ele>273.0</ele><time>2026-03-29T11:23:42.092Z</time></trkpt><trkpt lat="43.4040863" lon="11.2770293"><ele>273.0</ele><time>2026-03-29T11:23:43.105Z</time></trkpt><trkpt lat="43.4040439" lon="11.2767581"><ele>272.3333333333333</ele><time>2026-03-29T11:23:44.126Z</time></trkpt><trkpt lat="43.4040011" lon="11.2764789"><ele>271.66666666666663</ele><time>2026-03-29T11:23:45.122Z</time></trkpt><trkpt lat="43.4039618" lon="11.2762022"><ele>271.0</ele><time>2026-03-29T11:23:46.091Z</time></trkpt><trkpt lat="43.4039236" lon="11.2759343"><ele>270.66666666666663</ele><time>2026-03-29T11:23:47.092Z</time></trkpt><trkpt lat="43.403882" lon="11.2756715"><ele>270.3333333333333</ele><time>2026-03-29T11:23:48.088Z</time></trkpt><trkpt lat="43.4038387" lon="11.2754104"><ele>270.0</ele><time>2026-03-29T11:23:49.094Z</time></trkpt><trkpt lat="43.403783" lon="11.2751509"><ele>270.6666666666667</ele><time>2026-03-29T11:23:50.122Z</time></trkpt><trkpt lat="43.4037168" lon="11.2748941"><ele>271.33333333333337</ele><time>2026-03-29T11:23:51.091Z</time></trkpt><trkpt lat="43.4036441" lon="11.2746344"><ele>272.0</ele><time>2026-03-29T11:23:52.096Z</time></trkpt><trkpt lat="43.4035657" lon="11.2743779"><ele>272.0</ele><time>2026-03-29T11:23:53.092Z</time></trkpt><trkpt lat="43.4034787" lon="11.2741234"><ele>272.0</ele><time>2026-03-29T11:23:54.103Z</time></trkpt><trkpt lat="43.4033755" lon="11.2738821"><ele>272.0</ele><time>2026-03-29T11:23:55.088Z</time></trkpt><trkpt lat="43.4032571" lon="11.2736497"><ele>272.33333333333337</ele><time>2026-03-29T11:23:56.095Z</time></trkpt><trkpt lat="43.4031284" lon="11.2734254"><ele>272.6666666666667</ele><time>2026-03-29T11:23:57.104Z</time></trkpt><trkpt lat="43.4029938" lon="11.2732062"><ele>273.0</ele><time>2026-03-29T11:23:58.098Z</time></trkpt><trkpt lat="43.402858" lon="11.2729924"><ele>274.3333333333333</ele><time>2026-03-29T11:23:59.127Z</time></trkpt><trkpt lat="43.402728" lon="11.2727842"><ele>275.66666666666663</ele><time>2026-03-29T11:24:00.115Z</time></trkpt><trkpt lat="43.4025987" lon="11.2725774"><ele>277.0</ele><time>2026-03-29T11:24:01.091Z</time></trkpt><trkpt lat="43.4024731" lon="11.2723653"><ele>278.0</ele><time>2026-03-29T11:24:02.122Z</time></trkpt><trkpt lat="43.4023493" lon="11.2721524"><ele>279.0</ele><time>2026-03-29T11:24:03.091Z</time></trkpt><trkpt lat="43.4022253" lon="11.2719387"><ele>280.0</ele><time>2026-03-29T11:24:04.093Z</time></trkpt><trkpt lat="43.4021034" lon="11.2717293"><ele>280.0</ele><time>2026-03-29T11:24:05.123Z</time></trkpt><trkpt lat="43.4019841" lon="11.2715239"><ele>280.0</ele><time>2026-03-29T11:24:06.115Z</time></trkpt><trkpt lat="43.4018691" lon="11.2713184"><ele>280.0</ele><time>2026-03-29T11:24:07.127Z</time></trkpt><trkpt lat="43.4017526" lon="11.2711175"><ele>282.0</ele><time>2026-03-29T11:24:08.126Z</time></trkpt><trkpt lat="43.4016334" lon="11.2709174"><ele>284.0</ele><time>2026-03-29T11:24:09.126Z</time></trkpt><trkpt lat="43.4015132" lon="11.2707211"><ele>286.0</ele><time>2026-03-29T11:24:10.091Z</time></trkpt><trkpt lat="43.4013988" lon="11.2705301"><ele>287.5</ele><time>2026-03-29T11:24:11.091Z</time></trkpt><trkpt lat="43.4012941" lon="11.2703485"><ele>289.0</ele><time>2026-03-29T11:24:12.093Z</time></trkpt><trkpt lat="43.4012037" lon="11.2701855"><ele>290.5</ele><time>2026-03-29T11:24:13.086Z</time></trkpt><trkpt lat="43.4011261" lon="11.2700526"><ele>292.0</ele><time>2026-03-29T11:24:14.09Z</time></trkpt><trkpt lat="43.40106" lon="11.2699536"><ele>292.0</ele><time>2026-03-29T11:24:15.098Z</time></trkpt><trkpt lat="43.4010007" lon="11.2698793"><ele>292.0</ele><time>2026-03-29T11:24:16.094Z</time></trkpt><trkpt lat="43.400917" lon="11.2697799"><ele>292.0</ele><time>2026-03-29T11:24:18.091Z</time></trkpt><trkpt lat="43.4008685" lon="11.2697125"><ele>292.0</ele><time>2026-03-29T11:24:20.092Z</time></trkpt><trkpt lat="43.4008831" lon="11.2696142"><ele>292.0</ele><time>2026-03-29T11:24:23.102Z</time></trkpt><trkpt lat="43.4010009" lon="11.2695916"><ele>292.5</ele><time>2026-03-29T11:24:25.092Z</time></trkpt><trkpt lat="43.4010981" lon="11.2695926"><ele>293.0</ele><time>2026-03-29T11:24:26.118Z</time></trkpt><trkpt lat="43.4012118" lon="11.2695946"><ele>293.5</ele><time>2026-03-29T11:24:27.092Z</time></trkpt><trkpt lat="43.4013325" lon="11.2695901"><ele>294.0</ele><time>2026-03-29T11:24:28.12Z</time></trkpt><trkpt lat="43.401452" lon="11.2695762"><ele>295.0</ele><time>2026-03-29T11:24:29.104Z</time></trkpt><trkpt lat="43.4015649" lon="11.2695517"><ele>296.0</ele><time>2026-03-29T11:24:30.126Z</time></trkpt><trkpt lat="43.4016717" lon="11.2695193"><ele>297.0</ele><time>2026-03-29T11:24:31.093Z</time></trkpt><trkpt lat="43.4017798" lon="11.2694805"><ele>298.0</ele><time>2026-03-29T11:24:32.092Z</time></trkpt><trkpt lat="43.401888" lon="11.2694331"><ele>299.0</ele><time>2026-03-29T11:24:33.092Z</time></trkpt><trkpt lat="43.4020006" lon="11.269383"><ele>299.0</ele><time>2026-03-29T11:24:34.096Z</time></trkpt><trkpt lat="43.4021132" lon="11.2693314"><ele>299.0</ele><time>2026-03-29T11:24:35.106Z</time></trkpt><trkpt lat="43.402221" lon="11.2692784"><ele>299.0</ele><time>2026-03-29T11:24:36.089Z</time></trkpt><trkpt lat="43.4023305" lon="11.2692355"><ele>299.0</ele><time>2026-03-29T11:24:37.125Z</time></trkpt><trkpt lat="43.4024368" lon="11.2692013"><ele>300.2</ele><time>2026-03-29T11:24:38.124Z</time></trkpt><trkpt lat="43.4025345" lon="11.269172"><ele>301.4</ele><time>2026-03-29T11:24:39.103Z</time></trkpt><trkpt lat="43.4026298" lon="11.2691408"><ele>302.6</ele><time>2026-03-29T11:24:40.095Z</time></trkpt><trkpt lat="43.4027235" lon="11.2691069"><ele>303.8</ele><time>2026-03-29T11:24:41.133Z</time></trkpt><trkpt lat="43.402815" lon="11.2690727"><ele>305.0</ele><time>2026-03-29T11:24:42.089Z</time></trkpt><trkpt lat="43.4029022" lon="11.2690465"><ele>305.0</ele><time>2026-03-29T11:24:43.101Z</time></trkpt><trkpt lat="43.4029829" lon="11.2690215"><ele>305.0</ele><time>2026-03-29T11:24:44.094Z</time></trkpt><trkpt lat="43.4030595" lon="11.2689948"><ele>305.0</ele><time>2026-03-29T11:24:45.125Z</time></trkpt><trkpt lat="43.4031322" lon="11.2689704"><ele>305.0</ele><time>2026-03-29T11:24:46.095Z</time></trkpt><trkpt lat="43.403203" lon="11.2689485"><ele>305.0</ele><time>2026-03-29T11:24:47.125Z</time></trkpt><trkpt lat="43.4032684" lon="11.2689263"><ele>305.0</ele><time>2026-03-29T11:24:48.1Z</time></trkpt><trkpt lat="43.4033877" lon="11.2689096"><ele>304.5</ele><time>2026-03-29T11:24:50.125Z</time></trkpt><trkpt lat="43.4034508" lon="11.2688948"><ele>304.0</ele><time>2026-03-29T11:24:51.092Z</time></trkpt><trkpt lat="43.403519" lon="11.268863"><ele>303.5</ele><time>2026-03-29T11:24:52.126Z</time></trkpt><trkpt lat="43.4035947" lon="11.2688094"><ele>303.0</ele><time>2026-03-29T11:24:53.089Z</time></trkpt><trkpt lat="43.4036749" lon="11.2687407"><ele>302.5</ele><time>2026-03-29T11:24:54.1Z</time></trkpt><trkpt lat="43.4037582" lon="11.2686754"><ele>302.0</ele><time>2026-03-29T11:24:55.127Z</time></trkpt><trkpt lat="43.4038403" lon="11.2686059"><ele>301.25</ele><time>2026-03-29T11:24:56.095Z</time></trkpt><trkpt lat="43.4039227" lon="11.2685131"><ele>300.5</ele><time>2026-03-29T11:24:57.104Z</time></trkpt><trkpt lat="43.4040037" lon="11.2683954"><ele>299.75</ele><time>2026-03-29T11:24:58.112Z</time></trkpt><trkpt lat="43.4040825" lon="11.2682584"><ele>299.0</ele><time>2026-03-29T11:24:59.105Z</time></trkpt><trkpt lat="43.4041668" lon="11.2681217"><ele>298.5</ele><time>2026-03-29T11:25:00.093Z</time></trkpt><trkpt lat="43.4042588" lon="11.2679929"><ele>298.0</ele><time>2026-03-29T11:25:01.093Z</time></trkpt><trkpt lat="43.4043535" lon="11.2678722"><ele>297.5</ele><time>2026-03-29T11:25:02.106Z</time></trkpt><trkpt lat="43.4044414" lon="11.2677662"><ele>297.0</ele><time>2026-03-29T11:25:03.114Z</time></trkpt><trkpt lat="43.4045238" lon="11.2676724"><ele>297.0</ele><time>2026-03-29T11:25:04.133Z</time></trkpt><trkpt lat="43.4046049" lon="11.2675882"><ele>297.0</ele><time>2026-03-29T11:25:05.096Z</time></trkpt><trkpt lat="43.4046802" lon="11.267519"><ele>297.0</ele><time>2026-03-29T11:25:06.133Z</time></trkpt><trkpt lat="43.404759" lon="11.2674651"><ele>297.0</ele><time>2026-03-29T11:25:07.091Z</time></trkpt><trkpt lat="43.4048372" lon="11.2674189"><ele>297.0</ele><time>2026-03-29T11:25:08.13Z</time></trkpt><trkpt lat="43.4049199" lon="11.2673594"><ele>297.2</ele><time>2026-03-29T11:25:09.093Z</time></trkpt><trkpt lat="43.4050012" lon="11.2672778"><ele>297.4</ele><time>2026-03-29T11:25:10.129Z</time></trkpt><trkpt lat="43.4050776" lon="11.2671748"><ele>297.6</ele><time>2026-03-29T11:25:11.101Z</time></trkpt><trkpt lat="43.4051506" lon="11.2670595"><ele>297.8</ele><time>2026-03-29T11:25:12.105Z</time></trkpt><trkpt lat="43.4052127" lon="11.2669465"><ele>298.0</ele><time>2026-03-29T11:25:13.104Z</time></trkpt><trkpt lat="43.4052635" lon="11.2668432"><ele>297.85714285714283</ele><time>2026-03-29T11:25:14.104Z</time></trkpt><trkpt lat="43.4053047" lon="11.2667496"><ele>297.71428571428567</ele><time>2026-03-29T11:25:15.124Z</time></trkpt><trkpt lat="43.4053452" lon="11.2666678"><ele>297.57142857142856</ele><time>2026-03-29T11:25:16.106Z</time></trkpt><trkpt lat="43.4053892" lon="11.2665859"><ele>297.42857142857144</ele><time>2026-03-29T11:25:17.107Z</time></trkpt><trkpt lat="43.4054359" lon="11.2665002"><ele>297.28571428571433</ele><time>2026-03-29T11:25:18.096Z</time></trkpt><trkpt lat="43.4054797" lon="11.2664199"><ele>297.14285714285717</ele><time>2026-03-29T11:25:19.094Z</time></trkpt><trkpt lat="43.4055173" lon="11.2663354"><ele>297.0</ele><time>2026-03-29T11:25:20.1Z</time></trkpt><trkpt lat="43.4055446" lon="11.2662455"><ele>297.0</ele><time>2026-03-29T11:25:21.091Z</time></trkpt><trkpt lat="43.4055608" lon="11.2661491"><ele>297.0</ele><time>2026-03-29T11:25:22.124Z</time></trkpt><trkpt lat="43.4055714" lon="11.2660401"><ele>297.0</ele><time>2026-03-29T11:25:23.112Z</time></trkpt><trkpt lat="43.4055703" lon="11.2659141"><ele>297.0</ele><time>2026-03-29T11:25:24.091Z</time></trkpt><trkpt lat="43.4055601" lon="11.2657673"><ele>297.0</ele><time>2026-03-29T11:25:25.099Z</time></trkpt><trkpt lat="43.4055546" lon="11.2656161"><ele>296.8</ele><time>2026-03-29T11:25:26.091Z</time></trkpt><trkpt lat="43.4055518" lon="11.2654699"><ele>296.6</ele><time>2026-03-29T11:25:27.124Z</time></trkpt><trkpt lat="43.4055524" lon="11.2653216"><ele>296.40000000000003</ele><time>2026-03-29T11:25:28.101Z</time></trkpt><trkpt lat="43.4055536" lon="11.2651649"><ele>296.2</ele><time>2026-03-29T11:25:29.143Z</time></trkpt><trkpt lat="43.4055527" lon="11.265007"><ele>296.0</ele><time>2026-03-29T11:25:30.109Z</time></trkpt><trkpt lat="43.4055486" lon="11.2648476"><ele>296.5</ele><time>2026-03-29T11:25:31.09Z</time></trkpt><trkpt lat="43.4055464" lon="11.2646819"><ele>297.0</ele><time>2026-03-29T11:25:32.102Z</time></trkpt><trkpt lat="43.4055469" lon="11.2645112"><ele>297.5</ele><time>2026-03-29T11:25:33.09Z</time></trkpt><trkpt lat="43.4055519" lon="11.2643472"><ele>298.0</ele><time>2026-03-29T11:25:34.115Z</time></trkpt><trkpt lat="43.4055601" lon="11.2641969"><ele>298.0</ele><time>2026-03-29T11:25:35.104Z</time></trkpt><trkpt lat="43.4055713" lon="11.2640575"><ele>298.0</ele><time>2026-03-29T11:25:36.097Z</time></trkpt><trkpt lat="43.4055775" lon="11.2639315"><ele>298.0</ele><time>2026-03-29T11:25:37.128Z</time></trkpt><trkpt lat="43.4055831" lon="11.2638117"><ele>298.0</ele><time>2026-03-29T11:25:38.095Z</time></trkpt><trkpt lat="43.4055902" lon="11.2637005"><ele>298.0</ele><time>2026-03-29T11:25:39.098Z</time></trkpt><trkpt lat="43.4055958" lon="11.2635967"><ele>298.0</ele><time>2026-03-29T11:25:40.128Z</time></trkpt><trkpt lat="43.4056036" lon="11.2634936"><ele>298.0</ele><time>2026-03-29T11:25:41.095Z</time></trkpt><trkpt lat="43.4056109" lon="11.2633937"><ele>298.0</ele><time>2026-03-29T11:25:42.123Z</time></trkpt><trkpt lat="43.4056181" lon="11.2633005"><ele>298.0</ele><time>2026-03-29T11:25:43.099Z</time></trkpt><trkpt lat="43.4056332" lon="11.2631337"><ele>298.0</ele><time>2026-03-29T11:25:45.116Z</time></trkpt><trkpt lat="43.4056332" lon="11.2630393"><ele>298.0</ele><time>2026-03-29T11:25:46.095Z</time></trkpt><trkpt lat="43.4056158" lon="11.2629457"><ele>298.0</ele><time>2026-03-29T11:25:47.095Z</time></trkpt><trkpt lat="43.405588" lon="11.2628337"><ele>298.0</ele><time>2026-03-29T11:25:48.107Z</time></trkpt><trkpt lat="43.4055407" lon="11.262712"><ele>298.0</ele><time>2026-03-29T11:25:49.099Z</time></trkpt><trkpt lat="43.4054858" lon="11.2625771"><ele>298.0</ele><time>2026-03-29T11:25:50.093Z</time></trkpt><trkpt lat="43.4054269" lon="11.2624387"><ele>298.0</ele><time>2026-03-29T11:25:51.101Z</time></trkpt><trkpt lat="43.4053696" lon="11.2622934"><ele>298.0</ele><time>2026-03-29T11:25:52.105Z</time></trkpt><trkpt lat="43.4053175" lon="11.2621457"><ele>297.25</ele><time>2026-03-29T11:25:53.101Z</time></trkpt><trkpt lat="43.4052668" lon="11.2619922"><ele>296.5</ele><time>2026-03-29T11:25:54.12Z</time></trkpt><trkpt lat="43.4052125" lon="11.2618337"><ele>295.75</ele><time>2026-03-29T11:25:55.1Z</time></trkpt><trkpt lat="43.405158" lon="11.2616797"><ele>295.0</ele><time>2026-03-29T11:25:56.093Z</time></trkpt><trkpt lat="43.4051069" lon="11.261533"><ele>294.5</ele><time>2026-03-29T11:25:57.101Z</time></trkpt><trkpt lat="43.4050534" lon="11.2613962"><ele>294.0</ele><time>2026-03-29T11:25:58.111Z</time></trkpt><trkpt lat="43.4050018" lon="11.2612563"><ele>293.5</ele><time>2026-03-29T11:25:59.111Z</time></trkpt><trkpt lat="43.4049503" lon="11.2611124"><ele>293.0</ele><time>2026-03-29T11:26:00.098Z</time></trkpt><trkpt lat="43.404897" lon="11.2609643"><ele>293.0</ele><time>2026-03-29T11:26:01.119Z</time></trkpt><trkpt lat="43.4048416" lon="11.2608219"><ele>293.0</ele><time>2026-03-29T11:26:02.102Z</time></trkpt><trkpt lat="43.4047897" lon="11.2606765"><ele>293.0</ele><time>2026-03-29T11:26:03.098Z</time></trkpt><trkpt lat="43.4047396" lon="11.2605352"><ele>293.0</ele><time>2026-03-29T11:26:04.098Z</time></trkpt><trkpt lat="43.404693" lon="11.2603928"><ele>293.0</ele><time>2026-03-29T11:26:05.104Z</time></trkpt><trkpt lat="43.4046491" lon="11.2602513"><ele>293.0</ele><time>2026-03-29T11:26:06.091Z</time></trkpt><trkpt lat="43.4046076" lon="11.2601158"><ele>293.0</ele><time>2026-03-29T11:26:07.123Z</time></trkpt><trkpt lat="43.4045664" lon="11.2599811"><ele>293.0</ele><time>2026-03-29T11:26:08.096Z</time></trkpt><trkpt lat="43.4045221" lon="11.2598549"><ele>293.0</ele><time>2026-03-29T11:26:09.101Z</time></trkpt><trkpt lat="43.4044724" lon="11.2597316"><ele>293.2</ele><time>2026-03-29T11:26:10.13Z</time></trkpt><trkpt lat="43.4044162" lon="11.2596107"><ele>293.4</ele><time>2026-03-29T11:26:11.1Z</time></trkpt><trkpt lat="43.404352" lon="11.2594887"><ele>293.59999999999997</ele><time>2026-03-29T11:26:12.093Z</time></trkpt><trkpt lat="43.4042811" lon="11.2593754"><ele>293.8</ele><time>2026-03-29T11:26:13.091Z</time></trkpt><trkpt lat="43.4042044" lon="11.2592711"><ele>294.0</ele><time>2026-03-29T11:26:14.092Z</time></trkpt><trkpt lat="43.4041238" lon="11.2591716"><ele>294.0</ele><time>2026-03-29T11:26:15.09Z</time></trkpt><trkpt lat="43.4040425" lon="11.2590789"><ele>294.0</ele><time>2026-03-29T11:26:16.139Z</time></trkpt><trkpt lat="43.4039631" lon="11.2589871"><ele>294.0</ele><time>2026-03-29T11:26:17.105Z</time></trkpt><trkpt lat="43.4038785" lon="11.2588916"><ele>294.0</ele><time>2026-03-29T11:26:18.117Z</time></trkpt><trkpt lat="43.4037954" lon="11.2587932"><ele>294.0</ele><time>2026-03-29T11:26:19.096Z</time></trkpt><trkpt lat="43.4037123" lon="11.2586937"><ele>293.4</ele><time>2026-03-29T11:26:20.089Z</time></trkpt><trkpt lat="43.4036335" lon="11.2585985"><ele>292.79999999999995</ele><time>2026-03-29T11:26:21.094Z</time></trkpt><trkpt lat="43.4035604" lon="11.258505"><ele>292.20000000000005</ele><time>2026-03-29T11:26:22.103Z</time></trkpt><trkpt lat="43.4034876" lon="11.258424"><ele>291.6</ele><time>2026-03-29T11:26:23.14Z</time></trkpt><trkpt lat="43.4034165" lon="11.2583498"><ele>291.0</ele><time>2026-03-29T11:26:24.089Z</time></trkpt><trkpt lat="43.4033482" lon="11.2582712"><ele>291.0</ele><time>2026-03-29T11:26:25.121Z</time></trkpt><trkpt lat="43.403288" lon="11.2581981"><ele>291.0</ele><time>2026-03-29T11:26:26.118Z</time></trkpt><trkpt lat="43.4032354" lon="11.2581292"><ele>291.0</ele><time>2026-03-29T11:26:27.101Z</time></trkpt><trkpt lat="43.4031885" lon="11.2580705"><ele>291.0</ele><time>2026-03-29T11:26:28.086Z</time></trkpt><trkpt lat="43.4031083" lon="11.2579534"><ele>291.0</ele><time>2026-03-29T11:26:30.099Z</time></trkpt><trkpt lat="43.4030553" lon="11.2578347"><ele>291.0</ele><time>2026-03-29T11:26:32.099Z</time></trkpt><trkpt lat="43.4030507" lon="11.2577231"><ele>291.0</ele><time>2026-03-29T11:26:34.129Z</time></trkpt><trkpt lat="43.4031061" lon="11.2576202"><ele>291.0</ele><time>2026-03-29T11:26:36.136Z</time></trkpt><trkpt lat="43.4031879" lon="11.2574912"><ele>291.0</ele><time>2026-03-29T11:26:38.09Z</time></trkpt><trkpt lat="43.4032243" lon="11.257403"><ele>291.0</ele><time>2026-03-29T11:26:39.095Z</time></trkpt><trkpt lat="43.403255" lon="11.257295"><ele>291.0</ele><time>2026-03-29T11:26:40.1Z</time></trkpt><trkpt lat="43.4032776" lon="11.2571667"><ele>291.0</ele><time>2026-03-29T11:26:41.09Z</time></trkpt><trkpt lat="43.4033018" lon="11.2570275"><ele>291.0</ele><time>2026-03-29T11:26:42.125Z</time></trkpt><trkpt lat="43.4033251" lon="11.2568913"><ele>291.0</ele><time>2026-03-29T11:26:43.104Z</time></trkpt><trkpt lat="43.4033494" lon="11.256767"><ele>291.0</ele><time>2026-03-29T11:26:44.091Z</time></trkpt><trkpt lat="43.4033721" lon="11.2566472"><ele>291.0</ele><time>2026-03-29T11:26:45.101Z</time></trkpt><trkpt lat="43.4033961" lon="11.2565226"><ele>291.2</ele><time>2026-03-29T11:26:46.097Z</time></trkpt><trkpt lat="43.403419" lon="11.2563931"><ele>291.40000000000003</ele><time>2026-03-29T11:26:47.106Z</time></trkpt><trkpt lat="43.4034448" lon="11.2562539"><ele>291.6</ele><time>2026-03-29T11:26:48.089Z</time></trkpt><trkpt lat="43.4034734" lon="11.2561022"><ele>291.8</ele><time>2026-03-29T11:26:49.097Z</time></trkpt><trkpt lat="43.4034989" lon="11.2559472"><ele>292.0</ele><time>2026-03-29T11:26:50.12Z</time></trkpt><trkpt lat="43.4035243" lon="11.2557994"><ele>292.0</ele><time>2026-03-29T11:26:51.127Z</time></trkpt><trkpt lat="43.4035513" lon="11.2556544"><ele>292.0</ele><time>2026-03-29T11:26:52.095Z</time></trkpt><trkpt lat="43.4035844" lon="11.2555096"><ele>292.0</ele><time>2026-03-29T11:26:53.102Z</time></trkpt><trkpt lat="43.4036198" lon="11.2553675"><ele>292.0</ele><time>2026-03-29T11:26:54.103Z</time></trkpt><trkpt lat="43.4036534" lon="11.2552245"><ele>292.0</ele><time>2026-03-29T11:26:55.093Z</time></trkpt><trkpt lat="43.4036867" lon="11.2550757"><ele>291.75</ele><time>2026-03-29T11:26:56.107Z</time></trkpt><trkpt lat="43.4037175" lon="11.254921"><ele>291.5</ele><time>2026-03-29T11:26:57.1Z</time></trkpt><trkpt lat="43.4037453" lon="11.2547619"><ele>291.25</ele><time>2026-03-29T11:26:58.097Z</time></trkpt><trkpt lat="43.4037759" lon="11.2545919"><ele>291.0</ele><time>2026-03-29T11:26:59.091Z</time></trkpt><trkpt lat="43.4038112" lon="11.2544137"><ele>290.75</ele><time>2026-03-29T11:27:00.101Z</time></trkpt><trkpt lat="43.4038459" lon="11.2542261"><ele>290.5</ele><time>2026-03-29T11:27:01.102Z</time></trkpt><trkpt lat="43.4038797" lon="11.2540317"><ele>290.25</ele><time>2026-03-29T11:27:02.1Z</time></trkpt><trkpt lat="43.4039148" lon="11.2538337"><ele>290.0</ele><time>2026-03-29T11:27:03.113Z</time></trkpt><trkpt lat="43.4039524" lon="11.2536365"><ele>290.0</ele><time>2026-03-29T11:27:04.104Z</time></trkpt><trkpt lat="43.4039875" lon="11.253442"><ele>290.0</ele><time>2026-03-29T11:27:05.092Z</time></trkpt><trkpt lat="43.4040211" lon="11.2532431"><ele>290.0</ele><time>2026-03-29T11:27:06.093Z</time></trkpt><trkpt lat="43.4040547" lon="11.2530458"><ele>290.0</ele><time>2026-03-29T11:27:07.089Z</time></trkpt><trkpt lat="43.4040925" lon="11.2528495"><ele>290.5</ele><time>2026-03-29T11:27:08.11Z</time></trkpt><trkpt lat="43.4041315" lon="11.2526569"><ele>291.0</ele><time>2026-03-29T11:27:09.093Z</time></trkpt><trkpt lat="43.4041688" lon="11.2524694"><ele>291.5</ele><time>2026-03-29T11:27:10.096Z</time></trkpt><trkpt lat="43.4042052" lon="11.2522895"><ele>292.0</ele><time>2026-03-29T11:27:11.125Z</time></trkpt><trkpt lat="43.4042388" lon="11.2521171"><ele>292.4</ele><time>2026-03-29T11:27:12.09Z</time></trkpt><trkpt lat="43.4042689" lon="11.2519554"><ele>292.79999999999995</ele><time>2026-03-29T11:27:13.091Z</time></trkpt><trkpt lat="43.4042984" lon="11.2518064"><ele>293.2</ele><time>2026-03-29T11:27:14.099Z</time></trkpt><trkpt lat="43.4043232" lon="11.2516657"><ele>293.59999999999997</ele><time>2026-03-29T11:27:15.11Z</time></trkpt><trkpt lat="43.4043424" lon="11.2515305"><ele>294.0</ele><time>2026-03-29T11:27:16.094Z</time></trkpt><trkpt lat="43.4043511" lon="11.2513988"><ele>294.4</ele><time>2026-03-29T11:27:17.13Z</time></trkpt><trkpt lat="43.4043537" lon="11.2512698"><ele>294.79999999999995</ele><time>2026-03-29T11:27:18.098Z</time></trkpt><trkpt lat="43.4043658" lon="11.2511406"><ele>295.20000000000005</ele><time>2026-03-29T11:27:19.091Z</time></trkpt><trkpt lat="43.404397" lon="11.2509989"><ele>295.6</ele><time>2026-03-29T11:27:20.104Z</time></trkpt><trkpt lat="43.404438" lon="11.2508448"><ele>296.0</ele><time>2026-03-29T11:27:21.116Z</time></trkpt><trkpt lat="43.4044805" lon="11.2506812"><ele>296.5</ele><time>2026-03-29T11:27:22.126Z</time></trkpt><trkpt lat="43.4045166" lon="11.2505137"><ele>297.0</ele><time>2026-03-29T11:27:23.092Z</time></trkpt><trkpt lat="43.4045529" lon="11.2503545"><ele>297.5</ele><time>2026-03-29T11:27:24.095Z</time></trkpt><trkpt lat="43.4045851" lon="11.2502106"><ele>298.0</ele><time>2026-03-29T11:27:25.111Z</time></trkpt><trkpt lat="43.4046166" lon="11.2500766"><ele>298.0</ele><time>2026-03-29T11:27:26.127Z</time></trkpt><trkpt lat="43.4046473" lon="11.2499504"><ele>298.0</ele><time>2026-03-29T11:27:27.109Z</time></trkpt><trkpt lat="43.4046769" lon="11.2498262"><ele>298.0</ele><time>2026-03-29T11:27:28.101Z</time></trkpt><trkpt lat="43.4047018" lon="11.2497109"><ele>298.0</ele><time>2026-03-29T11:27:29.096Z</time></trkpt><trkpt lat="43.4047192" lon="11.2496048"><ele>298.0</ele><time>2026-03-29T11:27:30.1Z</time></trkpt><trkpt lat="43.4047286" lon="11.2495023"><ele>298.0</ele><time>2026-03-29T11:27:31.098Z</time></trkpt><trkpt lat="43.4047217" lon="11.2494117"><ele>297.5</ele><time>2026-03-29T11:27:32.099Z</time></trkpt><trkpt lat="43.4046874" lon="11.2493295"><ele>297.0</ele><time>2026-03-29T11:27:33.092Z</time></trkpt><trkpt lat="43.4046329" lon="11.2492585"><ele>296.5</ele><time>2026-03-29T11:27:34.099Z</time></trkpt><trkpt lat="43.4045644" lon="11.2492101"><ele>296.0</ele><time>2026-03-29T11:27:35.092Z</time></trkpt><trkpt lat="43.4044822" lon="11.2491837"><ele>295.5</ele><time>2026-03-29T11:27:36.093Z</time></trkpt><trkpt lat="43.4043844" lon="11.2491841"><ele>295.0</ele><time>2026-03-29T11:27:37.102Z</time></trkpt><trkpt lat="43.4042771" lon="11.2492101"><ele>295.0</ele><time>2026-03-29T11:27:38.094Z</time></trkpt><trkpt lat="43.404165" lon="11.2492475"><ele>295.0</ele><time>2026-03-29T11:27:39.131Z</time></trkpt><trkpt lat="43.4040544" lon="11.2492781"><ele>295.0</ele><time>2026-03-29T11:27:40.132Z</time></trkpt><trkpt lat="43.4039447" lon="11.2493076"><ele>295.0</ele><time>2026-03-29T11:27:41.105Z</time></trkpt><trkpt lat="43.4038472" lon="11.2493321"><ele>295.0</ele><time>2026-03-29T11:27:42.098Z</time></trkpt><trkpt lat="43.4037553" lon="11.2493581"><ele>296.0</ele><time>2026-03-29T11:27:43.107Z</time></trkpt><trkpt lat="43.4036685" lon="11.2493815"><ele>297.0</ele><time>2026-03-29T11:27:44.1Z</time></trkpt><trkpt lat="43.4035803" lon="11.2494024"><ele>298.0</ele><time>2026-03-29T11:27:45.091Z</time></trkpt><trkpt lat="43.4034972" lon="11.2494179"><ele>299.0</ele><time>2026-03-29T11:27:46.093Z</time></trkpt><trkpt lat="43.4034212" lon="11.2494371"><ele>300.0</ele><time>2026-03-29T11:27:47.095Z</time></trkpt><trkpt lat="43.4033592" lon="11.2494532"><ele>301.0</ele><time>2026-03-29T11:27:48.088Z</time></trkpt><trkpt lat="43.4032821" lon="11.2494659"><ele>301.0</ele><time>2026-03-29T11:27:50.095Z</time></trkpt><trkpt lat="43.4032079" lon="11.2494827"><ele>301.0</ele><time>2026-03-29T11:28:33.133Z</time></trkpt><trkpt lat="43.4030886" lon="11.249513"><ele>301.0</ele><time>2026-03-29T11:28:35.094Z</time></trkpt><trkpt lat="43.4030155" lon="11.249532"><ele>301.0</ele><time>2026-03-29T11:28:36.109Z</time></trkpt><trkpt lat="43.4029345" lon="11.249541"><ele>301.0</ele><time>2026-03-29T11:28:37.094Z</time></trkpt><trkpt lat="43.4028601" lon="11.249526"><ele>301.0</ele><time>2026-03-29T11:28:38.102Z</time></trkpt><trkpt lat="43.4027879" lon="11.2494864"><ele>301.8</ele><time>2026-03-29T11:28:39.11Z</time></trkpt><trkpt lat="43.4027161" lon="11.2494185"><ele>302.6</ele><time>2026-03-29T11:28:40.103Z</time></trkpt><trkpt lat="43.4026438" lon="11.2493312"><ele>303.4</ele><time>2026-03-29T11:28:41.13Z</time></trkpt><trkpt lat="43.4025726" lon="11.2492376"><ele>304.2</ele><time>2026-03-29T11:28:42.093Z</time></trkpt><trkpt lat="43.402498" lon="11.2491327"><ele>305.0</ele><time>2026-03-29T11:28:43.113Z</time></trkpt><trkpt lat="43.4024216" lon="11.24903"><ele>305.83333333333337</ele><time>2026-03-29T11:28:44.094Z</time></trkpt><trkpt lat="43.4023479" lon="11.248933"><ele>306.6666666666667</ele><time>2026-03-29T11:28:45.09Z</time></trkpt><trkpt lat="43.4022765" lon="11.2488421"><ele>307.5</ele><time>2026-03-29T11:28:46.097Z</time></trkpt><trkpt lat="43.4022183" lon="11.2487496"><ele>308.3333333333333</ele><time>2026-03-29T11:28:47.134Z</time></trkpt><trkpt lat="43.4021724" lon="11.2486531"><ele>309.16666666666663</ele><time>2026-03-29T11:28:48.095Z</time></trkpt><trkpt lat="43.4021509" lon="11.2485565"><ele>310.0</ele><time>2026-03-29T11:28:49.131Z</time></trkpt><trkpt lat="43.4021552" lon="11.2484495"><ele>310.0</ele><time>2026-03-29T11:28:50.097Z</time></trkpt><trkpt lat="43.4021719" lon="11.2483409"><ele>310.0</ele><time>2026-03-29T11:28:51.132Z</time></trkpt><trkpt lat="43.4021948" lon="11.2482298"><ele>310.0</ele><time>2026-03-29T11:28:52.098Z</time></trkpt><trkpt lat="43.4022075" lon="11.2481308"><ele>310.0</ele><time>2026-03-29T11:28:53.095Z</time></trkpt><trkpt lat="43.4022089" lon="11.2480408"><ele>310.0</ele><time>2026-03-29T11:28:54.099Z</time></trkpt><trkpt lat="43.4021543" lon="11.2478999"><ele>310.0</ele><time>2026-03-29T11:28:56.098Z</time></trkpt><trkpt lat="43.4020762" lon="11.2478379"><ele>310.8</ele><time>2026-03-29T11:28:58.098Z</time></trkpt><trkpt lat="43.4020279" lon="11.2477504"><ele>311.6</ele><time>2026-03-29T11:29:01.101Z</time></trkpt><trkpt lat="43.4019685" lon="11.2476221"><ele>312.4</ele><time>2026-03-29T11:29:04.099Z</time></trkpt><trkpt lat="43.4018725" lon="11.2475294"><ele>313.2</ele><time>2026-03-29T11:29:06.115Z</time></trkpt><trkpt lat="43.4017476" lon="11.2474955"><ele>314.0</ele><time>2026-03-29T11:29:08.093Z</time></trkpt><trkpt lat="43.4016776" lon="11.2475174"><ele>314.0</ele><time>2026-03-29T11:29:09.101Z</time></trkpt><trkpt lat="43.401605" lon="11.2475601"><ele>314.0</ele><time>2026-03-29T11:29:10.099Z</time></trkpt><trkpt lat="43.4015398" lon="11.247591"><ele>314.0</ele><time>2026-03-29T11:29:11.101Z</time></trkpt><trkpt lat="43.401478" lon="11.2476117"><ele>314.0</ele><time>2026-03-29T11:29:12.129Z</time></trkpt><trkpt lat="43.4013522" lon="11.2476123"><ele>314.0</ele><time>2026-03-29T11:29:14.094Z</time></trkpt><trkpt lat="43.4012782" lon="11.2475913"><ele>314.0</ele><time>2026-03-29T11:29:15.112Z</time></trkpt><trkpt lat="43.4011934" lon="11.2475457"><ele>313.0</ele><time>2026-03-29T11:29:16.137Z</time></trkpt><trkpt lat="43.4010941" lon="11.2474869"><ele>312.0</ele><time>2026-03-29T11:29:17.109Z</time></trkpt><trkpt lat="43.4009818" lon="11.2474195"><ele>311.0</ele><time>2026-03-29T11:29:18.092Z</time></trkpt><trkpt lat="43.4008714" lon="11.2473503"><ele>310.0</ele><time>2026-03-29T11:29:19.088Z</time></trkpt><trkpt lat="43.4007515" lon="11.2472702"><ele>307.75</ele><time>2026-03-29T11:29:20.103Z</time></trkpt><trkpt lat="43.4006278" lon="11.2471832"><ele>305.5</ele><time>2026-03-29T11:29:21.109Z</time></trkpt><trkpt lat="43.4005062" lon="11.2471101"><ele>303.25</ele><time>2026-03-29T11:29:22.106Z</time></trkpt><trkpt lat="43.4003912" lon="11.2470415"><ele>301.0</ele><time>2026-03-29T11:29:23.096Z</time></trkpt><trkpt lat="43.4002916" lon="11.2469744"><ele>300.8333333333333</ele><time>2026-03-29T11:29:24.104Z</time></trkpt><trkpt lat="43.4001972" lon="11.2469139"><ele>300.66666666666663</ele><time>2026-03-29T11:29:25.124Z</time></trkpt><trkpt lat="43.4001107" lon="11.2468738"><ele>300.5</ele><time>2026-03-29T11:29:26.14Z</time></trkpt><trkpt lat="43.4000396" lon="11.2468486"><ele>300.3333333333333</ele><time>2026-03-29T11:29:27.096Z</time></trkpt><trkpt lat="43.3999762" lon="11.2468573"><ele>300.1666666666667</ele><time>2026-03-29T11:29:28.128Z</time></trkpt><trkpt lat="43.3999142" lon="11.2469095"><ele>300.0</ele><time>2026-03-29T11:29:29.096Z</time></trkpt><trkpt lat="43.3998557" lon="11.2470015"><ele>300.0</ele><time>2026-03-29T11:29:30.104Z</time></trkpt><trkpt lat="43.3998051" lon="11.2471155"><ele>300.0</ele><time>2026-03-29T11:29:31.094Z</time></trkpt><trkpt lat="43.3997676" lon="11.2472386"><ele>300.0</ele><time>2026-03-29T11:29:32.105Z</time></trkpt><trkpt lat="43.3997443" lon="11.2473715"><ele>300.0</ele><time>2026-03-29T11:29:33.097Z</time></trkpt><trkpt lat="43.3997301" lon="11.2475069"><ele>300.0</ele><time>2026-03-29T11:29:34.103Z</time></trkpt><trkpt lat="43.399706" lon="11.2476409"><ele>299.1666666666667</ele><time>2026-03-29T11:29:35.11Z</time></trkpt><trkpt lat="43.3996776" lon="11.2477672"><ele>298.3333333333333</ele><time>2026-03-29T11:29:36.107Z</time></trkpt><trkpt lat="43.3996597" lon="11.2478831"><ele>297.5</ele><time>2026-03-29T11:29:37.103Z</time></trkpt><trkpt lat="43.3996532" lon="11.2479894"><ele>296.66666666666663</ele><time>2026-03-29T11:29:38.128Z</time></trkpt><trkpt lat="43.3996599" lon="11.2480893"><ele>295.8333333333333</ele><time>2026-03-29T11:29:39.12Z</time></trkpt><trkpt lat="43.3996731" lon="11.248188"><ele>295.0</ele><time>2026-03-29T11:29:40.125Z</time></trkpt><trkpt lat="43.3996765" lon="11.2482832"><ele>295.3333333333333</ele><time>2026-03-29T11:29:41.097Z</time></trkpt><trkpt lat="43.3996534" lon="11.248434"><ele>295.66666666666663</ele><time>2026-03-29T11:29:43.099Z</time></trkpt><trkpt lat="43.3995933" lon="11.2485644"><ele>296.0</ele><time>2026-03-29T11:29:45.104Z</time></trkpt><trkpt lat="43.3995514" lon="11.2486313"><ele>296.3333333333333</ele><time>2026-03-29T11:29:46.11Z</time></trkpt><trkpt lat="43.3994934" lon="11.2486809"><ele>296.6666666666667</ele><time>2026-03-29T11:29:47.097Z</time></trkpt><trkpt lat="43.3994204" lon="11.2487039"><ele>297.0</ele><time>2026-03-29T11:29:48.101Z</time></trkpt><trkpt lat="43.399336" lon="11.2486966"><ele>297.0</ele><time>2026-03-29T11:29:49.13Z</time></trkpt><trkpt lat="43.3992486" lon="11.2486764"><ele>297.0</ele><time>2026-03-29T11:29:50.108Z</time></trkpt><trkpt lat="43.3991663" lon="11.2486391"><ele>297.0</ele><time>2026-03-29T11:29:51.105Z</time></trkpt><trkpt lat="43.3990964" lon="11.2485948"><ele>297.0</ele><time>2026-03-29T11:29:52.128Z</time></trkpt><trkpt lat="43.3990313" lon="11.248542"><ele>297.0</ele><time>2026-03-29T11:29:53.139Z</time></trkpt><trkpt lat="43.398965" lon="11.2484825"><ele>297.0</ele><time>2026-03-29T11:29:54.12Z</time></trkpt><trkpt lat="43.3988995" lon="11.2484158"><ele>294.4</ele><time>2026-03-29T11:29:55.124Z</time></trkpt><trkpt lat="43.3988314" lon="11.2483435"><ele>291.79999999999995</ele><time>2026-03-29T11:29:56.098Z</time></trkpt><trkpt lat="43.3987567" lon="11.2482603"><ele>289.2</ele><time>2026-03-29T11:29:57.107Z</time></trkpt><trkpt lat="43.3986804" lon="11.2481783"><ele>286.59999999999997</ele><time>2026-03-29T11:29:58.108Z</time></trkpt><trkpt lat="43.3986069" lon="11.2480954"><ele>284.0</ele><time>2026-03-29T11:29:59.094Z</time></trkpt><trkpt lat="43.3985319" lon="11.2480292"><ele>283.4</ele><time>2026-03-29T11:30:00.107Z</time></trkpt><trkpt lat="43.3984502" lon="11.2479515"><ele>282.79999999999995</ele><time>2026-03-29T11:30:01.096Z</time></trkpt><trkpt lat="43.3983669" lon="11.2478731"><ele>282.20000000000005</ele><time>2026-03-29T11:30:02.099Z</time></trkpt><trkpt lat="43.3982834" lon="11.2477916"><ele>281.6</ele><time>2026-03-29T11:30:03.122Z</time></trkpt><trkpt lat="43.3982007" lon="11.2477103"><ele>281.0</ele><time>2026-03-29T11:30:04.096Z</time></trkpt><trkpt lat="43.398118" lon="11.2476285"><ele>281.0</ele><time>2026-03-29T11:30:05.097Z</time></trkpt><trkpt lat="43.3980282" lon="11.247544"><ele>281.0</ele><time>2026-03-29T11:30:06.105Z</time></trkpt><trkpt lat="43.3979292" lon="11.2474559"><ele>281.0</ele><time>2026-03-29T11:30:07.092Z</time></trkpt><trkpt lat="43.3978164" lon="11.2473799"><ele>281.0</ele><time>2026-03-29T11:30:08.103Z</time></trkpt><trkpt lat="43.3977019" lon="11.2473125"><ele>276.75</ele><time>2026-03-29T11:30:09.112Z</time></trkpt><trkpt lat="43.3975852" lon="11.2472556"><ele>272.5</ele><time>2026-03-29T11:30:10.1Z</time></trkpt><trkpt lat="43.3974741" lon="11.2472004"><ele>268.25</ele><time>2026-03-29T11:30:11.09Z</time></trkpt><trkpt lat="43.3973635" lon="11.2471469"><ele>264.0</ele><time>2026-03-29T11:30:12.126Z</time></trkpt><trkpt lat="43.3972462" lon="11.2471027"><ele>263.0</ele><time>2026-03-29T11:30:13.113Z</time></trkpt><trkpt lat="43.397126" lon="11.2470704"><ele>262.0</ele><time>2026-03-29T11:30:14.1Z</time></trkpt><trkpt lat="43.3970117" lon="11.2470496"><ele>261.0</ele><time>2026-03-29T11:30:15.095Z</time></trkpt><trkpt lat="43.3969017" lon="11.2470256"><ele>260.0</ele><time>2026-03-29T11:30:16.105Z</time></trkpt><trkpt lat="43.3967901" lon="11.2469895"><ele>260.0</ele><time>2026-03-29T11:30:17.103Z</time></trkpt><trkpt lat="43.3966703" lon="11.2469451"><ele>260.0</ele><time>2026-03-29T11:30:18.11Z</time></trkpt><trkpt lat="43.3965442" lon="11.2469076"><ele>260.0</ele><time>2026-03-29T11:30:19.102Z</time></trkpt><trkpt lat="43.3964187" lon="11.2468736"><ele>260.0</ele><time>2026-03-29T11:30:20.106Z</time></trkpt><trkpt lat="43.3962922" lon="11.2468453"><ele>259.8</ele><time>2026-03-29T11:30:21.093Z</time></trkpt><trkpt lat="43.3961766" lon="11.2468133"><ele>259.6</ele><time>2026-03-29T11:30:22.104Z</time></trkpt><trkpt lat="43.3960734" lon="11.2467936"><ele>259.4</ele><time>2026-03-29T11:30:23.101Z</time></trkpt><trkpt lat="43.3959773" lon="11.2467836"><ele>259.2</ele><time>2026-03-29T11:30:24.105Z</time></trkpt><trkpt lat="43.3958763" lon="11.2467761"><ele>259.0</ele><time>2026-03-29T11:30:25.096Z</time></trkpt><trkpt lat="43.3957615" lon="11.2467871"><ele>259.0</ele><time>2026-03-29T11:30:26.128Z</time></trkpt><trkpt lat="43.3956454" lon="11.2468133"><ele>259.0</ele><time>2026-03-29T11:30:27.101Z</time></trkpt><trkpt lat="43.395534" lon="11.246857"><ele>259.0</ele><time>2026-03-29T11:30:28.106Z</time></trkpt><trkpt lat="43.3954302" lon="11.2469193"><ele>259.0</ele><time>2026-03-29T11:30:29.121Z</time></trkpt><trkpt lat="43.3953375" lon="11.2469891"><ele>259.59999999999997</ele><time>2026-03-29T11:30:30.092Z</time></trkpt><trkpt lat="43.3952511" lon="11.2470567"><ele>260.2</ele><time>2026-03-29T11:30:31.102Z</time></trkpt><trkpt lat="43.3951656" lon="11.2471003"><ele>260.79999999999995</ele><time>2026-03-29T11:30:32.099Z</time></trkpt><trkpt lat="43.3950661" lon="11.2471325"><ele>261.4</ele><time>2026-03-29T11:30:33.138Z</time></trkpt><trkpt lat="43.3949596" lon="11.247146"><ele>262.0</ele><time>2026-03-29T11:30:34.099Z</time></trkpt><trkpt lat="43.3948489" lon="11.2471447"><ele>262.0</ele><time>2026-03-29T11:30:35.134Z</time></trkpt><trkpt lat="43.3947268" lon="11.2471325"><ele>262.0</ele><time>2026-03-29T11:30:36.098Z</time></trkpt><trkpt lat="43.3946083" lon="11.2470991"><ele>262.0</ele><time>2026-03-29T11:30:37.124Z</time></trkpt><trkpt lat="43.3944948" lon="11.247059"><ele>262.0</ele><time>2026-03-29T11:30:38.11Z</time></trkpt><trkpt lat="43.3943786" lon="11.2470047"><ele>260.75</ele><time>2026-03-29T11:30:39.096Z</time></trkpt><trkpt lat="43.3942557" lon="11.2469439"><ele>259.5</ele><time>2026-03-29T11:30:40.102Z</time></trkpt><trkpt lat="43.3941321" lon="11.2468832"><ele>258.25</ele><time>2026-03-29T11:30:41.11Z</time></trkpt><trkpt lat="43.3940126" lon="11.2468216"><ele>257.0</ele><time>2026-03-29T11:30:42.116Z</time></trkpt><trkpt lat="43.393898" lon="11.2467624"><ele>255.0</ele><time>2026-03-29T11:30:43.104Z</time></trkpt><trkpt lat="43.3937911" lon="11.2467056"><ele>253.0</ele><time>2026-03-29T11:30:44.095Z</time></trkpt><trkpt lat="43.3936874" lon="11.2466658"><ele>251.0</ele><time>2026-03-29T11:30:45.101Z</time></trkpt><trkpt lat="43.3935847" lon="11.2466431"><ele>249.0</ele><time>2026-03-29T11:30:46.098Z</time></trkpt><trkpt lat="43.3934868" lon="11.2466262"><ele>247.0</ele><time>2026-03-29T11:30:47.097Z</time></trkpt><trkpt lat="43.3933977" lon="11.246611"><ele>246.99999999999997</ele><time>2026-03-29T11:30:48.105Z</time></trkpt><trkpt lat="43.3933087" lon="11.2465966"><ele>247.0</ele><time>2026-03-29T11:30:49.102Z</time></trkpt><trkpt lat="43.3932214" lon="11.2465855"><ele>247.0</ele><time>2026-03-29T11:30:50.101Z</time></trkpt><trkpt lat="43.3931396" lon="11.2465648"><ele>247.0</ele><time>2026-03-29T11:30:51.117Z</time></trkpt><trkpt lat="43.3930683" lon="11.246545"><ele>246.99999999999997</ele><time>2026-03-29T11:30:52.127Z</time></trkpt><trkpt lat="43.3929995" lon="11.2465294"><ele>247.0</ele><time>2026-03-29T11:30:53.106Z</time></trkpt><trkpt lat="43.3929303" lon="11.2465067"><ele>244.8</ele><time>2026-03-29T11:30:54.105Z</time></trkpt><trkpt lat="43.3928657" lon="11.246479"><ele>242.6</ele><time>2026-03-29T11:30:55.104Z</time></trkpt><trkpt lat="43.392767" lon="11.2463976"><ele>240.40000000000003</ele><time>2026-03-29T11:30:57.104Z</time></trkpt><trkpt lat="43.3927206" lon="11.2462675"><ele>238.20000000000002</ele><time>2026-03-29T11:30:59.105Z</time></trkpt><trkpt lat="43.3927589" lon="11.2460773"><ele>236.0</ele><time>2026-03-29T11:31:01.101Z</time></trkpt><trkpt lat="43.3928013" lon="11.2459605"><ele>236.0</ele><time>2026-03-29T11:31:02.102Z</time></trkpt><trkpt lat="43.3928509" lon="11.2458389"><ele>236.00000000000003</ele><time>2026-03-29T11:31:03.095Z</time></trkpt><trkpt lat="43.3928928" lon="11.2457279"><ele>236.00000000000003</ele><time>2026-03-29T11:31:04.095Z</time></trkpt><trkpt lat="43.3929284" lon="11.2456338"><ele>236.0</ele><time>2026-03-29T11:31:05.093Z</time></trkpt><trkpt lat="43.3929675" lon="11.2455055"><ele>236.0</ele><time>2026-03-29T11:31:07.105Z</time></trkpt><trkpt lat="43.3929516" lon="11.2453884"><ele>236.0</ele><time>2026-03-29T11:31:10.108Z</time></trkpt><trkpt lat="43.392859" lon="11.2453941"><ele>236.00000000000003</ele><time>2026-03-29T11:31:12.097Z</time></trkpt><trkpt lat="43.3928029" lon="11.2454538"><ele>236.00000000000003</ele><time>2026-03-29T11:31:13.092Z</time></trkpt><trkpt lat="43.3927399" lon="11.2455346"><ele>236.0</ele><time>2026-03-29T11:31:14.091Z</time></trkpt><trkpt lat="43.3926665" lon="11.24564"><ele>236.0</ele><time>2026-03-29T11:31:15.096Z</time></trkpt><trkpt lat="43.392592" lon="11.2457456"><ele>236.00000000000003</ele><time>2026-03-29T11:31:16.119Z</time></trkpt><trkpt lat="43.3925212" lon="11.2458312"><ele>236.0</ele><time>2026-03-29T11:31:17.124Z</time></trkpt><trkpt lat="43.3924582" lon="11.2459076"><ele>236.0</ele><time>2026-03-29T11:31:18.102Z</time></trkpt><trkpt lat="43.3924047" lon="11.2459755"><ele>236.0</ele><time>2026-03-29T11:31:19.129Z</time></trkpt><trkpt lat="43.3923216" lon="11.2460738"><ele>236.00000000000003</ele><time>2026-03-29T11:31:21.092Z</time></trkpt><trkpt lat="43.3922563" lon="11.2460933"><ele>236.0</ele><time>2026-03-29T11:31:23.12Z</time></trkpt><trkpt lat="43.3922134" lon="11.2460214"><ele>236.00000000000003</ele><time>2026-03-29T11:31:25.125Z</time></trkpt><trkpt lat="43.3922319" lon="11.2459042"><ele>236.0</ele><time>2026-03-29T11:31:27.087Z</time></trkpt><trkpt lat="43.3922639" lon="11.2458285"><ele>236.0</ele><time>2026-03-29T11:31:28.091Z</time></trkpt><trkpt lat="43.3923184" lon="11.2457292"><ele>236.0</ele><time>2026-03-29T11:31:29.118Z</time></trkpt><trkpt lat="43.3923839" lon="11.2456219"><ele>236.00000000000003</ele><time>2026-03-29T11:31:30.095Z</time></trkpt><trkpt lat="43.3924515" lon="11.2455188"><ele>236.0</ele><time>2026-03-29T11:31:31.089Z</time></trkpt><trkpt lat="43.3925078" lon="11.2454185"><ele>233.83333333333334</ele><time>2026-03-29T11:31:32.101Z</time></trkpt><trkpt lat="43.3925598" lon="11.2453244"><ele>231.66666666666669</ele><time>2026-03-29T11:31:33.092Z</time></trkpt><trkpt lat="43.3926106" lon="11.2452363"><ele>229.5</ele><time>2026-03-29T11:31:34.091Z</time></trkpt><trkpt lat="43.3926532" lon="11.2451551"><ele>227.33333333333331</ele><time>2026-03-29T11:31:35.089Z</time></trkpt><trkpt lat="43.3926875" lon="11.2450789"><ele>225.16666666666666</ele><time>2026-03-29T11:31:36.119Z</time></trkpt><trkpt lat="43.3927111" lon="11.2449416"><ele>223.0</ele><time>2026-03-29T11:31:38.094Z</time></trkpt><trkpt lat="43.3926578" lon="11.2448469"><ele>223.0</ele><time>2026-03-29T11:31:40.108Z</time></trkpt><trkpt lat="43.3925607" lon="11.2448391"><ele>223.0</ele><time>2026-03-29T11:31:42.089Z</time></trkpt><trkpt lat="43.392488" lon="11.2449019"><ele>223.0</ele><time>2026-03-29T11:31:43.088Z</time></trkpt><trkpt lat="43.3924022" lon="11.2449928"><ele>223.0</ele><time>2026-03-29T11:31:44.092Z</time></trkpt><trkpt lat="43.392304" lon="11.24508"><ele>223.0</ele><time>2026-03-29T11:31:45.095Z</time></trkpt><trkpt lat="43.3921998" lon="11.2451652"><ele>220.0</ele><time>2026-03-29T11:31:46.09Z</time></trkpt><trkpt lat="43.3920903" lon="11.2452458"><ele>217.0</ele><time>2026-03-29T11:31:47.107Z</time></trkpt><trkpt lat="43.391969" lon="11.2453294"><ele>214.0</ele><time>2026-03-29T11:31:48.099Z</time></trkpt><trkpt lat="43.3918386" lon="11.2454051"><ele>211.0</ele><time>2026-03-29T11:31:49.106Z</time></trkpt><trkpt lat="43.3917003" lon="11.2454873"><ele>211.0</ele><time>2026-03-29T11:31:50.096Z</time></trkpt><trkpt lat="43.3915753" lon="11.245581"><ele>211.0</ele><time>2026-03-29T11:31:51.123Z</time></trkpt><trkpt lat="43.3914579" lon="11.2456725"><ele>211.0</ele><time>2026-03-29T11:31:52.109Z</time></trkpt><trkpt lat="43.3913554" lon="11.2457445"><ele>211.0</ele><time>2026-03-29T11:31:53.1Z</time></trkpt><trkpt lat="43.3912626" lon="11.2458064"><ele>210.66666666666666</ele><time>2026-03-29T11:31:54.101Z</time></trkpt><trkpt lat="43.3911775" lon="11.2458483"><ele>210.33333333333331</ele><time>2026-03-29T11:31:55.111Z</time></trkpt><trkpt lat="43.3911027" lon="11.2458719"><ele>210.0</ele><time>2026-03-29T11:31:56.118Z</time></trkpt><trkpt lat="43.391017" lon="11.2458796"><ele>209.66666666666669</ele><time>2026-03-29T11:31:58.103Z</time></trkpt><trkpt lat="43.3909484" lon="11.2459078"><ele>209.33333333333334</ele><time>2026-03-29T11:32:21.101Z</time></trkpt><trkpt lat="43.3908761" lon="11.2459301"><ele>209.0</ele><time>2026-03-29T11:32:23.09Z</time></trkpt><trkpt lat="43.390765" lon="11.2459198"><ele>209.0</ele><time>2026-03-29T11:32:25.124Z</time></trkpt><trkpt lat="43.390644" lon="11.2459606"><ele>209.0</ele><time>2026-03-29T11:32:27.1Z</time></trkpt><trkpt lat="43.3905568" lon="11.2460167"><ele>209.0</ele><time>2026-03-29T11:32:28.102Z</time></trkpt><trkpt lat="43.3904502" lon="11.246084"><ele>209.0</ele><time>2026-03-29T11:32:29.102Z</time></trkpt><trkpt lat="43.3903376" lon="11.2461494"><ele>209.0</ele><time>2026-03-29T11:32:30.112Z</time></trkpt><trkpt lat="43.3902118" lon="11.2462251"><ele>209.0</ele><time>2026-03-29T11:32:31.102Z</time></trkpt><trkpt lat="43.3900779" lon="11.2463113"><ele>209.0</ele><time>2026-03-29T11:32:32.126Z</time></trkpt><trkpt lat="43.3899373" lon="11.2464038"><ele>209.0</ele><time>2026-03-29T11:32:33.096Z</time></trkpt><trkpt lat="43.3898" lon="11.2464922"><ele>209.25</ele><time>2026-03-29T11:32:34.126Z</time></trkpt><trkpt lat="43.3896713" lon="11.2465757"><ele>209.5</ele><time>2026-03-29T11:32:35.097Z</time></trkpt><trkpt lat="43.3895523" lon="11.2466524"><ele>209.75</ele><time>2026-03-29T11:32:36.105Z</time></trkpt><trkpt lat="43.3894439" lon="11.2467229"><ele>210.0</ele><time>2026-03-29T11:32:37.096Z</time></trkpt><trkpt lat="43.3893369" lon="11.2467804"><ele>210.0</ele><time>2026-03-29T11:32:38.098Z</time></trkpt><trkpt lat="43.3892295" lon="11.2468191"><ele>210.0</ele><time>2026-03-29T11:32:39.135Z</time></trkpt><trkpt lat="43.3891167" lon="11.2468507"><ele>210.0</ele><time>2026-03-29T11:32:40.104Z</time></trkpt><trkpt lat="43.3889966" lon="11.2468807"><ele>210.0</ele><time>2026-03-29T11:32:41.101Z</time></trkpt><trkpt lat="43.388879" lon="11.2469069"><ele>212.0</ele><time>2026-03-29T11:32:42.117Z</time></trkpt><trkpt lat="43.3887556" lon="11.2469518"><ele>214.0</ele><time>2026-03-29T11:32:43.095Z</time></trkpt><trkpt lat="43.3886227" lon="11.2470251"><ele>216.0</ele><time>2026-03-29T11:32:44.145Z</time></trkpt><trkpt lat="43.3884928" lon="11.2471104"><ele>218.0</ele><time>2026-03-29T11:32:45.102Z</time></trkpt><trkpt lat="43.3883702" lon="11.2471926"><ele>218.0</ele><time>2026-03-29T11:32:46.098Z</time></trkpt><trkpt lat="43.3882516" lon="11.2472643"><ele>218.0</ele><time>2026-03-29T11:32:47.133Z</time></trkpt><trkpt lat="43.3881303" lon="11.2473188"><ele>218.0</ele><time>2026-03-29T11:32:48.105Z</time></trkpt><trkpt lat="43.3880023" lon="11.2473486"><ele>218.0</ele><time>2026-03-29T11:32:49.103Z</time></trkpt><trkpt lat="43.3878648" lon="11.2473556"><ele>217.0</ele><time>2026-03-29T11:32:50.107Z</time></trkpt><trkpt lat="43.3877259" lon="11.2473462"><ele>216.0</ele><time>2026-03-29T11:32:51.105Z</time></trkpt><trkpt lat="43.3875799" lon="11.2473217"><ele>215.0</ele><time>2026-03-29T11:32:52.114Z</time></trkpt><trkpt lat="43.3874327" lon="11.2472826"><ele>214.0</ele><time>2026-03-29T11:32:53.094Z</time></trkpt><trkpt lat="43.3872804" lon="11.2472508"><ele>214.75</ele><time>2026-03-29T11:32:54.101Z</time></trkpt><trkpt lat="43.3871407" lon="11.247232"><ele>215.5</ele><time>2026-03-29T11:32:55.091Z</time></trkpt><trkpt lat="43.3870087" lon="11.2472327"><ele>216.25</ele><time>2026-03-29T11:32:56.1Z</time></trkpt><trkpt lat="43.3868817" lon="11.2472568"><ele>217.0</ele><time>2026-03-29T11:32:57.1Z</time></trkpt><trkpt lat="43.3867656" lon="11.2473042"><ele>217.0</ele><time>2026-03-29T11:32:58.119Z</time></trkpt><trkpt lat="43.3866614" lon="11.2473471"><ele>217.0</ele><time>2026-03-29T11:32:59.132Z</time></trkpt><trkpt lat="43.3865662" lon="11.2473729"><ele>217.0</ele><time>2026-03-29T11:33:00.094Z</time></trkpt><trkpt lat="43.3864822" lon="11.2473838"><ele>217.0</ele><time>2026-03-29T11:33:01.097Z</time></trkpt><trkpt lat="43.3864035" lon="11.2473779"><ele>217.0</ele><time>2026-03-29T11:33:02.095Z</time></trkpt><trkpt lat="43.386323" lon="11.2473428"><ele>219.75</ele><time>2026-03-29T11:33:03.139Z</time></trkpt><trkpt lat="43.3862363" lon="11.2472842"><ele>222.5</ele><time>2026-03-29T11:33:04.095Z</time></trkpt><trkpt lat="43.3861338" lon="11.2472067"><ele>225.25</ele><time>2026-03-29T11:33:05.106Z</time></trkpt><trkpt lat="43.3860188" lon="11.2471161"><ele>228.0</ele><time>2026-03-29T11:33:06.092Z</time></trkpt><trkpt lat="43.3859009" lon="11.2470148"><ele>228.0</ele><time>2026-03-29T11:33:07.127Z</time></trkpt><trkpt lat="43.3857945" lon="11.2469125"><ele>228.0</ele><time>2026-03-29T11:33:08.127Z</time></trkpt><trkpt lat="43.385694" lon="11.2468284"><ele>228.0</ele><time>2026-03-29T11:33:09.098Z</time></trkpt><trkpt lat="43.3855854" lon="11.2467628"><ele>228.0</ele><time>2026-03-29T11:33:10.117Z</time></trkpt><trkpt lat="43.3854627" lon="11.2467309"><ele>227.0</ele><time>2026-03-29T11:33:11.093Z</time></trkpt><trkpt lat="43.3853302" lon="11.2467085"><ele>226.0</ele><time>2026-03-29T11:33:12.089Z</time></trkpt><trkpt lat="43.3851869" lon="11.2466936"><ele>225.0</ele><time>2026-03-29T11:33:13.096Z</time></trkpt><trkpt lat="43.3850421" lon="11.2466808"><ele>224.0</ele><time>2026-03-29T11:33:14.1Z</time></trkpt><trkpt lat="43.3849001" lon="11.2466584"><ele>224.0</ele><time>2026-03-29T11:33:15.096Z</time></trkpt><trkpt lat="43.384754" lon="11.2466207"><ele>224.0</ele><time>2026-03-29T11:33:16.113Z</time></trkpt><trkpt lat="43.3846042" lon="11.2465643"><ele>224.0</ele><time>2026-03-29T11:33:17.095Z</time></trkpt><trkpt lat="43.3844521" lon="11.2464994"><ele>225.0</ele><time>2026-03-29T11:33:18.094Z</time></trkpt><trkpt lat="43.3843073" lon="11.2464399"><ele>226.0</ele><time>2026-03-29T11:33:19.134Z</time></trkpt><trkpt lat="43.3841708" lon="11.2463845"><ele>227.0</ele><time>2026-03-29T11:33:20.099Z</time></trkpt><trkpt lat="43.3840414" lon="11.246336"><ele>228.0</ele><time>2026-03-29T11:33:21.126Z</time></trkpt><trkpt lat="43.3839229" lon="11.2462802"><ele>227.8</ele><time>2026-03-29T11:33:22.106Z</time></trkpt><trkpt lat="43.3838152" lon="11.246241"><ele>227.60000000000002</ele><time>2026-03-29T11:33:23.131Z</time></trkpt><trkpt lat="43.3837212" lon="11.246202"><ele>227.39999999999998</ele><time>2026-03-29T11:33:24.106Z</time></trkpt><trkpt lat="43.3836386" lon="11.246168"><ele>227.2</ele><time>2026-03-29T11:33:25.092Z</time></trkpt><trkpt lat="43.3835667" lon="11.2461406"><ele>227.0</ele><time>2026-03-29T11:33:26.132Z</time></trkpt><trkpt lat="43.3834673" lon="11.2461012"><ele>227.0</ele><time>2026-03-29T11:33:28.087Z</time></trkpt><trkpt lat="43.3834287" lon="11.2460091"><ele>227.0</ele><time>2026-03-29T11:33:30.135Z</time></trkpt><trkpt lat="43.3833969" lon="11.2459312"><ele>227.0</ele><time>2026-03-29T11:33:31.098Z</time></trkpt><trkpt lat="43.3833422" lon="11.2457328"><ele>227.0</ele><time>2026-03-29T11:33:33.09Z</time></trkpt><trkpt lat="43.3832988" lon="11.2455692"><ele>227.0</ele><time>2026-03-29T11:33:34.096Z</time></trkpt><trkpt lat="43.3832411" lon="11.2453877"><ele>228.0</ele><time>2026-03-29T11:33:35.1Z</time></trkpt><trkpt lat="43.3831893" lon="11.2452113"><ele>229.0</ele><time>2026-03-29T11:33:36.13Z</time></trkpt><trkpt lat="43.3831396" lon="11.2450318"><ele>230.0</ele><time>2026-03-29T11:33:37.112Z</time></trkpt><trkpt lat="43.3830846" lon="11.2448416"><ele>231.0</ele><time>2026-03-29T11:33:38.105Z</time></trkpt><trkpt lat="43.3830321" lon="11.2446655"><ele>233.0</ele><time>2026-03-29T11:33:39.13Z</time></trkpt><trkpt lat="43.382979" lon="11.2445011"><ele>235.0</ele><time>2026-03-29T11:33:40.13Z</time></trkpt><trkpt lat="43.3828612" lon="11.2444018"><ele>237.0</ele><time>2026-03-29T11:33:42.097Z</time></trkpt><trkpt lat="43.3827672" lon="11.2442709"><ele>239.0</ele><time>2026-03-29T11:33:43.101Z</time></trkpt><trkpt lat="43.3826958" lon="11.2441714"><ele>239.0</ele><time>2026-03-29T11:33:44.098Z</time></trkpt><trkpt lat="43.3826038" lon="11.2440682"><ele>238.99999999999997</ele><time>2026-03-29T11:33:46.108Z</time></trkpt><trkpt lat="43.3825437" lon="11.2439822"><ele>238.99999999999997</ele><time>2026-03-29T11:33:47.092Z</time></trkpt><trkpt lat="43.3824674" lon="11.2438684"><ele>239.0</ele><time>2026-03-29T11:33:48.096Z</time></trkpt><trkpt lat="43.3823984" lon="11.2437252"><ele>239.0</ele><time>2026-03-29T11:33:49.105Z</time></trkpt><trkpt lat="43.3823205" lon="11.2436174"><ele>239.0</ele><time>2026-03-29T11:33:50.112Z</time></trkpt><trkpt lat="43.3822664" lon="11.2435283"><ele>238.99999999999997</ele><time>2026-03-29T11:33:51.103Z</time></trkpt><trkpt lat="43.3822307" lon="11.2433738"><ele>238.99999999999997</ele><time>2026-03-29T11:33:52.089Z</time></trkpt><trkpt lat="43.382205" lon="11.2432392"><ele>239.0</ele><time>2026-03-29T11:33:53.108Z</time></trkpt><trkpt lat="43.3821904" lon="11.2431228"><ele>239.0</ele><time>2026-03-29T11:33:54.095Z</time></trkpt><trkpt lat="43.3821827" lon="11.2429896"><ele>238.5</ele><time>2026-03-29T11:33:56.101Z</time></trkpt><trkpt lat="43.3822469" lon="11.2428333"><ele>238.0</ele><time>2026-03-29T11:33:57.086Z</time></trkpt><trkpt lat="43.3822994" lon="11.242642"><ele>237.5</ele><time>2026-03-29T11:33:58.101Z</time></trkpt><trkpt lat="43.3823507" lon="11.2424394"><ele>237.0</ele><time>2026-03-29T11:33:59.105Z</time></trkpt><trkpt lat="43.382413" lon="11.242192"><ele>237.0</ele><time>2026-03-29T11:34:00.094Z</time></trkpt><trkpt lat="43.382471" lon="11.2419756"><ele>237.0</ele><time>2026-03-29T11:34:01.093Z</time></trkpt><trkpt lat="43.3825275" lon="11.2417777"><ele>237.0</ele><time>2026-03-29T11:34:02.102Z</time></trkpt><trkpt lat="43.382591" lon="11.2415647"><ele>239.0</ele><time>2026-03-29T11:34:03.094Z</time></trkpt><trkpt lat="43.3826537" lon="11.2413652"><ele>241.0</ele><time>2026-03-29T11:34:04.11Z</time></trkpt><trkpt lat="43.3827184" lon="11.2411511"><ele>243.0</ele><time>2026-03-29T11:34:05.138Z</time></trkpt><trkpt lat="43.382778" lon="11.2409394"><ele>243.0</ele><time>2026-03-29T11:34:06.103Z</time></trkpt><trkpt lat="43.3828388" lon="11.2407244"><ele>243.0</ele><time>2026-03-29T11:34:07.088Z</time></trkpt><trkpt lat="43.3829068" lon="11.2405008"><ele>243.0</ele><time>2026-03-29T11:34:08.098Z</time></trkpt><trkpt lat="43.382975" lon="11.2402931"><ele>244.0</ele><time>2026-03-29T11:34:09.099Z</time></trkpt><trkpt lat="43.383044" lon="11.240086"><ele>245.0</ele><time>2026-03-29T11:34:10.141Z</time></trkpt><trkpt lat="43.3830999" lon="11.2399543"><ele>246.0</ele><time>2026-03-29T11:34:11.101Z</time></trkpt><trkpt lat="43.3833107" lon="11.2397916"><ele>244.0</ele><time>2026-03-29T11:34:13.132Z</time></trkpt><trkpt lat="43.3834422" lon="11.2396722"><ele>242.0</ele><time>2026-03-29T11:34:14.104Z</time></trkpt><trkpt lat="43.3835543" lon="11.2395494"><ele>240.0</ele><time>2026-03-29T11:34:15.096Z</time></trkpt><trkpt lat="43.3836952" lon="11.239398"><ele>240.0</ele><time>2026-03-29T11:34:16.13Z</time></trkpt><trkpt lat="43.3838335" lon="11.2392606"><ele>240.0</ele><time>2026-03-29T11:34:17.099Z</time></trkpt><trkpt lat="43.3840266" lon="11.2390725"><ele>240.0</ele><time>2026-03-29T11:34:18.098Z</time></trkpt><trkpt lat="43.3842135" lon="11.2388981"><ele>239.33333333333331</ele><time>2026-03-29T11:34:19.105Z</time></trkpt><trkpt lat="43.384392" lon="11.2387347"><ele>238.66666666666666</ele><time>2026-03-29T11:34:20.104Z</time></trkpt><trkpt lat="43.384571" lon="11.2385711"><ele>238.0</ele><time>2026-03-29T11:34:21.123Z</time></trkpt><trkpt lat="43.3847299" lon="11.2384302"><ele>238.0</ele><time>2026-03-29T11:34:22.092Z</time></trkpt><trkpt lat="43.3848927" lon="11.2382871"><ele>238.0</ele><time>2026-03-29T11:34:23.091Z</time></trkpt><trkpt lat="43.3850646" lon="11.2381353"><ele>238.0</ele><time>2026-03-29T11:34:24.107Z</time></trkpt><trkpt lat="43.3852325" lon="11.2379899"><ele>238.33333333333331</ele><time>2026-03-29T11:34:25.11Z</time></trkpt><trkpt lat="43.3854087" lon="11.2378314"><ele>238.66666666666669</ele><time>2026-03-29T11:34:26.096Z</time></trkpt><trkpt lat="43.3855728" lon="11.2376742"><ele>239.0</ele><time>2026-03-29T11:34:27.096Z</time></trkpt><trkpt lat="43.3857235" lon="11.2375403"><ele>236.33333333333334</ele><time>2026-03-29T11:34:28.096Z</time></trkpt><trkpt lat="43.3858684" lon="11.2374255"><ele>233.66666666666669</ele><time>2026-03-29T11:34:29.099Z</time></trkpt><trkpt lat="43.3860079" lon="11.237298"><ele>231.0</ele><time>2026-03-29T11:34:30.101Z</time></trkpt><trkpt lat="43.3861437" lon="11.2371465"><ele>230.5</ele><time>2026-03-29T11:34:31.103Z</time></trkpt><trkpt lat="43.3862523" lon="11.2369802"><ele>230.0</ele><time>2026-03-29T11:34:32.09Z</time></trkpt><trkpt lat="43.3861377" lon="11.236997"><ele>229.5</ele><time>2026-03-29T11:34:34.097Z</time></trkpt><trkpt lat="43.3861323" lon="11.2368341"><ele>229.0</ele><time>2026-03-29T11:34:36.143Z</time></trkpt><trkpt lat="43.3860491" lon="11.2365322"><ele>227.33333333333331</ele><time>2026-03-29T11:34:37.089Z</time></trkpt><trkpt lat="43.386049" lon="11.2363039"><ele>225.66666666666669</ele><time>2026-03-29T11:34:38.098Z</time></trkpt><trkpt lat="43.3860196" lon="11.2359976"><ele>224.0</ele><time>2026-03-29T11:34:39.138Z</time></trkpt><trkpt lat="43.3859622" lon="11.2356977"><ele>223.0</ele><time>2026-03-29T11:34:40.091Z</time></trkpt><trkpt lat="43.3858915" lon="11.235444"><ele>222.0</ele><time>2026-03-29T11:34:41.115Z</time></trkpt><trkpt lat="43.3858048" lon="11.2351492"><ele>221.0</ele><time>2026-03-29T11:34:42.124Z</time></trkpt><trkpt lat="43.3856784" lon="11.2346642"><ele>220.5</ele><time>2026-03-29T11:34:43.09Z</time></trkpt><trkpt lat="43.3855838" lon="11.2343174"><ele>220.0</ele><time>2026-03-29T11:34:44.128Z</time></trkpt><trkpt lat="43.3854984" lon="11.233997"><ele>222.0</ele><time>2026-03-29T11:34:45.111Z</time></trkpt><trkpt lat="43.3854103" lon="11.2336918"><ele>224.0</ele><time>2026-03-29T11:34:46.125Z</time></trkpt><trkpt lat="43.3853296" lon="11.2334144"><ele>225.33333333333334</ele><time>2026-03-29T11:34:47.091Z</time></trkpt><trkpt lat="43.38525" lon="11.2331291"><ele>226.66666666666669</ele><time>2026-03-29T11:34:48.11Z</time></trkpt><trkpt lat="43.3851847" lon="11.2328494"><ele>228.0</ele><time>2026-03-29T11:34:49.112Z</time></trkpt><trkpt lat="43.3851438" lon="11.2325844"><ele>228.0</ele><time>2026-03-29T11:34:50.1Z</time></trkpt><trkpt lat="43.3851169" lon="11.2323204"><ele>228.0</ele><time>2026-03-29T11:34:51.113Z</time></trkpt><trkpt lat="43.3850965" lon="11.2320622"><ele>228.0</ele><time>2026-03-29T11:34:52.113Z</time></trkpt><trkpt lat="43.385084" lon="11.2318375"><ele>229.66666666666669</ele><time>2026-03-29T11:34:53.095Z</time></trkpt><trkpt lat="43.3850769" lon="11.2316217"><ele>231.33333333333334</ele><time>2026-03-29T11:34:54.095Z</time></trkpt><trkpt lat="43.3850812" lon="11.2314055"><ele>233.0</ele><time>2026-03-29T11:34:55.092Z</time></trkpt><trkpt lat="43.3850994" lon="11.2311813"><ele>233.66666666666669</ele><time>2026-03-29T11:34:56.101Z</time></trkpt><trkpt lat="43.3851267" lon="11.2309648"><ele>234.33333333333331</ele><time>2026-03-29T11:34:57.113Z</time></trkpt><trkpt lat="43.3851495" lon="11.2307526"><ele>235.0</ele><time>2026-03-29T11:34:58.094Z</time></trkpt><trkpt lat="43.3851735" lon="11.2304967"><ele>235.33333333333331</ele><time>2026-03-29T11:34:59.099Z</time></trkpt><trkpt lat="43.3852022" lon="11.2302154"><ele>235.66666666666669</ele><time>2026-03-29T11:35:00.098Z</time></trkpt><trkpt lat="43.3852356" lon="11.2299208"><ele>236.0</ele><time>2026-03-29T11:35:01.102Z</time></trkpt><trkpt lat="43.3852668" lon="11.2296265"><ele>236.0</ele><time>2026-03-29T11:35:02.099Z</time></trkpt><trkpt lat="43.3852987" lon="11.2293344"><ele>236.0</ele><time>2026-03-29T11:35:03.108Z</time></trkpt><trkpt lat="43.3853334" lon="11.2290577"><ele>236.0</ele><time>2026-03-29T11:35:04.098Z</time></trkpt><trkpt lat="43.3853657" lon="11.228793"><ele>236.33333333333334</ele><time>2026-03-29T11:35:05.113Z</time></trkpt><trkpt lat="43.3854028" lon="11.2285385"><ele>236.66666666666669</ele><time>2026-03-29T11:35:06.106Z</time></trkpt><trkpt lat="43.3854487" lon="11.2282855"><ele>237.0</ele><time>2026-03-29T11:35:07.109Z</time></trkpt><trkpt lat="43.3854939" lon="11.2280375"><ele>239.66666666666669</ele><time>2026-03-29T11:35:08.115Z</time></trkpt><trkpt lat="43.3855357" lon="11.227801"><ele>242.33333333333334</ele><time>2026-03-29T11:35:09.104Z</time></trkpt><trkpt lat="43.3855781" lon="11.2275622"><ele>245.0</ele><time>2026-03-29T11:35:10.138Z</time></trkpt><trkpt lat="43.385619" lon="11.2273432"><ele>244.66666666666669</ele><time>2026-03-29T11:35:11.095Z</time></trkpt><trkpt lat="43.3856596" lon="11.2271244"><ele>244.33333333333331</ele><time>2026-03-29T11:35:12.107Z</time></trkpt><trkpt lat="43.3856989" lon="11.2269114"><ele>244.0</ele><time>2026-03-29T11:35:13.094Z</time></trkpt><trkpt lat="43.3857391" lon="11.2267003"><ele>244.0</ele><time>2026-03-29T11:35:14.103Z</time></trkpt><trkpt lat="43.3857794" lon="11.2264914"><ele>244.0</ele><time>2026-03-29T11:35:15.093Z</time></trkpt><trkpt lat="43.3858193" lon="11.2262868"><ele>244.0</ele><time>2026-03-29T11:35:16.095Z</time></trkpt><trkpt lat="43.3858575" lon="11.226092"><ele>243.5</ele><time>2026-03-29T11:35:17.093Z</time></trkpt><trkpt lat="43.3858934" lon="11.2258987"><ele>243.0</ele><time>2026-03-29T11:35:18.13Z</time></trkpt><trkpt lat="43.38593" lon="11.2257271"><ele>242.5</ele><time>2026-03-29T11:35:19.127Z</time></trkpt><trkpt lat="43.3859696" lon="11.2255373"><ele>242.0</ele><time>2026-03-29T11:35:20.127Z</time></trkpt><trkpt lat="43.3860014" lon="11.2253584"><ele>240.75</ele><time>2026-03-29T11:35:21.096Z</time></trkpt><trkpt lat="43.3860394" lon="11.2251568"><ele>239.5</ele><time>2026-03-29T11:35:22.104Z</time></trkpt><trkpt lat="43.3860907" lon="11.2249908"><ele>238.25</ele><time>2026-03-29T11:35:23.133Z</time></trkpt><trkpt lat="43.3861594" lon="11.2248269"><ele>237.0</ele><time>2026-03-29T11:35:24.091Z</time></trkpt><trkpt lat="43.3862489" lon="11.2246588"><ele>235.33333333333331</ele><time>2026-03-29T11:35:25.125Z</time></trkpt><trkpt lat="43.3863484" lon="11.2244912"><ele>233.66666666666666</ele><time>2026-03-29T11:35:26.103Z</time></trkpt><trkpt lat="43.3864566" lon="11.2243143"><ele>232.0</ele><time>2026-03-29T11:35:27.096Z</time></trkpt><trkpt lat="43.3865735" lon="11.2241221"><ele>230.33333333333331</ele><time>2026-03-29T11:35:28.128Z</time></trkpt><trkpt lat="43.3866969" lon="11.2239278"><ele>228.66666666666669</ele><time>2026-03-29T11:35:29.105Z</time></trkpt><trkpt lat="43.3868332" lon="11.2237141"><ele>227.0</ele><time>2026-03-29T11:35:30.098Z</time></trkpt><trkpt lat="43.3869633" lon="11.2235088"><ele>227.0</ele><time>2026-03-29T11:35:31.094Z</time></trkpt><trkpt lat="43.3870934" lon="11.2233223"><ele>227.0</ele><time>2026-03-29T11:35:32.097Z</time></trkpt><trkpt lat="43.3872339" lon="11.2231472"><ele>227.0</ele><time>2026-03-29T11:35:33.091Z</time></trkpt><trkpt lat="43.3873822" lon="11.2229683"><ele>227.66666666666669</ele><time>2026-03-29T11:35:34.092Z</time></trkpt><trkpt lat="43.3875282" lon="11.2227922"><ele>228.33333333333331</ele><time>2026-03-29T11:35:35.098Z</time></trkpt><trkpt lat="43.3876789" lon="11.2226078"><ele>229.0</ele><time>2026-03-29T11:35:36.135Z</time></trkpt><trkpt lat="43.3878269" lon="11.2224355"><ele>228.33333333333331</ele><time>2026-03-29T11:35:37.093Z</time></trkpt><trkpt lat="43.3879761" lon="11.2222683"><ele>227.66666666666669</ele><time>2026-03-29T11:35:38.091Z</time></trkpt><trkpt lat="43.3881311" lon="11.2220959"><ele>227.0</ele><time>2026-03-29T11:35:39.111Z</time></trkpt><trkpt lat="43.388293" lon="11.2219055"><ele>227.0</ele><time>2026-03-29T11:35:40.134Z</time></trkpt><trkpt lat="43.3884545" lon="11.2217139"><ele>227.0</ele><time>2026-03-29T11:35:41.094Z</time></trkpt><trkpt lat="43.3886186" lon="11.221526"><ele>227.0</ele><time>2026-03-29T11:35:42.106Z</time></trkpt><trkpt lat="43.388789" lon="11.2213415"><ele>226.66666666666669</ele><time>2026-03-29T11:35:43.103Z</time></trkpt><trkpt lat="43.3889575" lon="11.2211678"><ele>226.33333333333331</ele><time>2026-03-29T11:35:44.124Z</time></trkpt><trkpt lat="43.3891167" lon="11.2210081"><ele>226.0</ele><time>2026-03-29T11:35:45.093Z</time></trkpt><trkpt lat="43.3892745" lon="11.2208625"><ele>226.0</ele><time>2026-03-29T11:35:46.091Z</time></trkpt><trkpt lat="43.3894265" lon="11.2207233"><ele>226.0</ele><time>2026-03-29T11:35:47.098Z</time></trkpt><trkpt lat="43.3895714" lon="11.2205922"><ele>226.0</ele><time>2026-03-29T11:35:48.103Z</time></trkpt><trkpt lat="43.3897138" lon="11.2204689"><ele>223.33333333333331</ele><time>2026-03-29T11:35:49.094Z</time></trkpt><trkpt lat="43.3898533" lon="11.2203547"><ele>220.66666666666669</ele><time>2026-03-29T11:35:50.123Z</time></trkpt><trkpt lat="43.3899862" lon="11.2202523"><ele>218.0</ele><time>2026-03-29T11:35:51.101Z</time></trkpt><trkpt lat="43.3901237" lon="11.2201497"><ele>218.0</ele><time>2026-03-29T11:35:52.102Z</time></trkpt><trkpt lat="43.3902612" lon="11.2200684"><ele>218.0</ele><time>2026-03-29T11:35:53.098Z</time></trkpt><trkpt lat="43.3904028" lon="11.2200134"><ele>218.0</ele><time>2026-03-29T11:35:54.093Z</time></trkpt><trkpt lat="43.3905428" lon="11.2199873"><ele>218.0</ele><time>2026-03-29T11:35:55.102Z</time></trkpt><trkpt lat="43.3906714" lon="11.2200033"><ele>216.66666666666669</ele><time>2026-03-29T11:35:56.092Z</time></trkpt><trkpt lat="43.3908361" lon="11.2200069"><ele>215.33333333333331</ele><time>2026-03-29T11:35:57.103Z</time></trkpt><trkpt lat="43.3910149" lon="11.2199871"><ele>214.0</ele><time>2026-03-29T11:35:58.096Z</time></trkpt><trkpt lat="43.3911954" lon="11.2199485"><ele>214.0</ele><time>2026-03-29T11:35:59.093Z</time></trkpt><trkpt lat="43.3913281" lon="11.2197876"><ele>214.0</ele><time>2026-03-29T11:36:01.124Z</time></trkpt><trkpt lat="43.3914256" lon="11.2197047"><ele>214.0</ele><time>2026-03-29T11:36:02.122Z</time></trkpt><trkpt lat="43.3916365" lon="11.2196043"><ele>214.25</ele><time>2026-03-29T11:36:03.099Z</time></trkpt><trkpt lat="43.3917777" lon="11.2195393"><ele>214.5</ele><time>2026-03-29T11:36:04.092Z</time></trkpt><trkpt lat="43.3918483" lon="11.2195304"><ele>214.75</ele><time>2026-03-29T11:36:05.097Z</time></trkpt><trkpt lat="43.3920278" lon="11.2195567"><ele>215.0</ele><time>2026-03-29T11:36:06.113Z</time></trkpt><trkpt lat="43.3921447" lon="11.2195405"><ele>213.25</ele><time>2026-03-29T11:36:07.123Z</time></trkpt><trkpt lat="43.3922515" lon="11.21952"><ele>211.5</ele><time>2026-03-29T11:36:08.103Z</time></trkpt><trkpt lat="43.3923843" lon="11.2194804"><ele>209.75</ele><time>2026-03-29T11:36:09.135Z</time></trkpt><trkpt lat="43.3924782" lon="11.219447"><ele>208.0</ele><time>2026-03-29T11:36:10.135Z</time></trkpt><trkpt lat="43.3926195" lon="11.2193455"><ele>208.0</ele><time>2026-03-29T11:36:11.092Z</time></trkpt><trkpt lat="43.3927002" lon="11.2192751"><ele>208.0</ele><time>2026-03-29T11:36:12.124Z</time></trkpt><trkpt lat="43.392803" lon="11.2191983"><ele>208.0</ele><time>2026-03-29T11:36:14.096Z</time></trkpt><trkpt lat="43.3929131" lon="11.2191515"><ele>208.0</ele><time>2026-03-29T11:36:16.101Z</time></trkpt><trkpt lat="43.3928933" lon="11.2190511"><ele>208.0</ele><time>2026-03-29T11:36:22.099Z</time></trkpt><trkpt lat="43.392955" lon="11.2189983"><ele>208.0</ele><time>2026-03-29T11:36:25.105Z</time></trkpt></trkseg></trk></gpx>